<?xml version='1.0' encoding='UTF-8'?><gpx version="1.1" creator="JPX - https://github.com/jenetics/jpx" xmlns="http://www.topografix.com/GPX/1/1"><trk><trkseg><trkpt lat="44.93129219078152" lon="7.274676629319404"><ele>1037.0</ele><time>2026-04-24T15:30:33.997Z</time></trkpt><trkpt lat="44.931253123935605" lon="7.274796736675547"><ele>1037.0</ele><time>2026-04-24T15:30:36.996Z</time></trkpt><trkpt lat="44.93112191545315" lon="7.27481479085709"><ele>1037.0</ele><time>2026-04-24T15:30:38.996Z</time></trkpt><trkpt lat="44.931042660063966" lon="7.274807106704618"><ele>1037.0</ele><time>2026-04-24T15:30:39.996Z</time></trkpt><trkpt lat="44.930971729221596" lon="7.274768629132272"><ele>1037.0</ele><time>2026-04-24T15:30:40.996Z</time></trkpt><trkpt lat="44.93089138629643" lon="7.274722286562995"><ele>1033.8</ele><time>2026-04-24T15:30:41.996Z</time></trkpt><trkpt lat="44.930794038398524" lon="7.274715746030749"><ele>1030.6</ele><time>2026-04-24T15:30:42.996Z</time></trkpt><trkpt lat="44.930696137494586" lon="7.274730871789254"><ele>1027.3999999999999</ele><time>2026-04-24T15:30:43.996Z</time></trkpt><trkpt lat="44.930594320791876" lon="7.274762834791224"><ele>1024.2</ele><time>2026-04-24T15:30:44.996Z</time></trkpt><trkpt lat="44.930513215765764" lon="7.274794556988617"><ele>1021.0</ele><time>2026-04-24T15:30:45.996Z</time></trkpt><trkpt lat="44.93041373282522" lon="7.274814268580016"><ele>1020.6666666666666</ele><time>2026-04-24T15:30:46.996Z</time></trkpt><trkpt lat="44.93032330552056" lon="7.274837418202443"><ele>1020.3333333333333</ele><time>2026-04-24T15:30:47.996Z</time></trkpt><trkpt lat="44.93023778514007" lon="7.274860486434234"><ele>1020.0</ele><time>2026-04-24T15:30:48.996Z</time></trkpt><trkpt lat="44.93015744092195" lon="7.274899649823755"><ele>1019.6666666666667</ele><time>2026-04-24T15:30:49.996Z</time></trkpt><trkpt lat="44.93008394362934" lon="7.274945172612599"><ele>1019.3333333333334</ele><time>2026-04-24T15:30:50.996Z</time></trkpt><trkpt lat="44.93000852231865" lon="7.274982829278111"><ele>1019.0</ele><time>2026-04-24T15:30:51.996Z</time></trkpt><trkpt lat="44.92994321882179" lon="7.274994736647054"><ele>1018.8333333333334</ele><time>2026-04-24T15:30:52.996Z</time></trkpt><trkpt lat="44.929881516971214" lon="7.275037899365577"><ele>1018.6666666666667</ele><time>2026-04-24T15:30:54.996Z</time></trkpt><trkpt lat="44.92987965800772" lon="7.275209094380702"><ele>1018.5</ele><time>2026-04-24T15:30:56.998Z</time></trkpt><trkpt lat="44.92987495133856" lon="7.275310043161127"><ele>1018.3333333333333</ele><time>2026-04-24T15:30:57.998Z</time></trkpt><trkpt lat="44.92987536891078" lon="7.275407164735259"><ele>1018.1666666666666</ele><time>2026-04-24T15:30:58.998Z</time></trkpt><trkpt lat="44.929840472955135" lon="7.275481598885035"><ele>1018.0</ele><time>2026-04-24T15:30:59.998Z</time></trkpt><trkpt lat="44.92978706120772" lon="7.27555494400583"><ele>1017.8</ele><time>2026-04-24T15:31:00.999Z</time></trkpt><trkpt lat="44.92979846188904" lon="7.275642889612242"><ele>1017.5999999999999</ele><time>2026-04-24T15:31:04.999Z</time></trkpt><trkpt lat="44.92979242299302" lon="7.275791190142568"><ele>1017.4000000000001</ele><time>2026-04-24T15:31:11.999Z</time></trkpt><trkpt lat="44.929745977134374" lon="7.275905929300377"><ele>1017.2</ele><time>2026-04-24T15:31:12.999Z</time></trkpt><trkpt lat="44.9297073456759" lon="7.276039383429819"><ele>1017.0</ele><time>2026-04-24T15:31:13.999Z</time></trkpt><trkpt lat="44.929648605328985" lon="7.276213839568547"><ele>1017.0</ele><time>2026-04-24T15:31:14.999Z</time></trkpt><trkpt lat="44.92959685268078" lon="7.276347290980469"><ele>1017.0</ele><time>2026-04-24T15:31:15.999Z</time></trkpt><trkpt lat="44.929579051256106" lon="7.2764328359879125"><ele>1017.0</ele><time>2026-04-24T15:31:16.999Z</time></trkpt><trkpt lat="44.92952830729491" lon="7.2765599612126906"><ele>1017.0</ele><time>2026-04-24T15:31:18.999Z</time></trkpt><trkpt lat="44.92947909559964" lon="7.2766368726566055"><ele>1017.0</ele><time>2026-04-24T15:31:19.999Z</time></trkpt><trkpt lat="44.92941582975669" lon="7.276742949683072"><ele>1017.0</ele><time>2026-04-24T15:31:20.999Z</time></trkpt><trkpt lat="44.92934815991815" lon="7.276839910182488"><ele>1015.0</ele><time>2026-04-24T15:31:21.999Z</time></trkpt><trkpt lat="44.9292587444462" lon="7.276958869827846"><ele>1013.0</ele><time>2026-04-24T15:31:23.999Z</time></trkpt><trkpt lat="44.92918564697073" lon="7.277020714716812"><ele>1011.0</ele><time>2026-04-24T15:31:24.999Z</time></trkpt><trkpt lat="44.929129174748994" lon="7.277133151183826"><ele>1009.0</ele><time>2026-04-24T15:31:26.999Z</time></trkpt><trkpt lat="44.929037612335456" lon="7.277246928773945"><ele>1007.0</ele><time>2026-04-24T15:31:29.999Z</time></trkpt><trkpt lat="44.928989728549936" lon="7.277330689730193"><ele>1007.0</ele><time>2026-04-24T15:31:30.999Z</time></trkpt><trkpt lat="44.92891785112198" lon="7.2774164965993915"><ele>1007.0</ele><time>2026-04-24T15:31:31.999Z</time></trkpt><trkpt lat="44.928812191179915" lon="7.277486673894884"><ele>1007.0</ele><time>2026-04-24T15:31:32.999Z</time></trkpt><trkpt lat="44.92872756869346" lon="7.277578553674584"><ele>1007.0</ele><time>2026-04-24T15:31:33.999Z</time></trkpt><trkpt lat="44.92865795788796" lon="7.277661057569142"><ele>1007.0</ele><time>2026-04-24T15:31:34.999Z</time></trkpt><trkpt lat="44.92857817774435" lon="7.277739410873652"><ele>1007.0</ele><time>2026-04-24T15:31:35.999Z</time></trkpt><trkpt lat="44.928505847699284" lon="7.277783990312743"><ele>1007.0</ele><time>2026-04-24T15:31:36.999Z</time></trkpt><trkpt lat="44.92840467693673" lon="7.277781263635723"><ele>1007.0</ele><time>2026-04-24T15:31:37.999Z</time></trkpt><trkpt lat="44.92831441728996" lon="7.277803506665932"><ele>1007.0</ele><time>2026-04-24T15:31:38.999Z</time></trkpt><trkpt lat="44.92818985410248" lon="7.277820700308392"><ele>1007.0</ele><time>2026-04-24T15:31:39.999Z</time></trkpt><trkpt lat="44.928121935702514" lon="7.277812628852859"><ele>1009.6</ele><time>2026-04-24T15:31:40.999Z</time></trkpt><trkpt lat="44.92802066680754" lon="7.277799652441661"><ele>1012.2</ele><time>2026-04-24T15:31:41.999Z</time></trkpt><trkpt lat="44.927911429168255" lon="7.277802872338377"><ele>1014.8</ele><time>2026-04-24T15:31:42.999Z</time></trkpt><trkpt lat="44.92783634092191" lon="7.277815694896844"><ele>1017.4</ele><time>2026-04-24T15:31:43.999Z</time></trkpt><trkpt lat="44.92772132445533" lon="7.277817545743986"><ele>1020.0</ele><time>2026-04-24T15:31:44.999Z</time></trkpt><trkpt lat="44.92763768530305" lon="7.277806357374109"><ele>1020.0</ele><time>2026-04-24T15:31:45.999Z</time></trkpt><trkpt lat="44.92756284377318" lon="7.277800791994581"><ele>1020.0</ele><time>2026-04-24T15:31:46.999Z</time></trkpt><trkpt lat="44.92745723478282" lon="7.277808039851549"><ele>1020.0</ele><time>2026-04-24T15:31:47.999Z</time></trkpt><trkpt lat="44.92736382943628" lon="7.2777951773436955"><ele>1020.0</ele><time>2026-04-24T15:31:48.999Z</time></trkpt><trkpt lat="44.9272758527737" lon="7.277764598762894"><ele>1020.0</ele><time>2026-04-24T15:31:49.999Z</time></trkpt><trkpt lat="44.92719840356479" lon="7.277727043201615"><ele>1020.0</ele><time>2026-04-24T15:31:50.999Z</time></trkpt><trkpt lat="44.92712676755149" lon="7.277646749136695"><ele>1018.0</ele><time>2026-04-24T15:31:53.999Z</time></trkpt><trkpt lat="44.92703399902998" lon="7.277584528252605"><ele>1016.0</ele><time>2026-04-24T15:31:55.999Z</time></trkpt><trkpt lat="44.92695524004047" lon="7.277577784352061"><ele>1014.0</ele><time>2026-04-24T15:31:58.998Z</time></trkpt><trkpt lat="44.92674402246072" lon="7.277587925928975"><ele>1012.0</ele><time>2026-04-24T15:32:01.998Z</time></trkpt><trkpt lat="44.926628580632496" lon="7.27759848117215"><ele>1009.4000000000001</ele><time>2026-04-24T15:32:03.998Z</time></trkpt><trkpt lat="44.92653356008612" lon="7.277644605686021"><ele>1006.8000000000001</ele><time>2026-04-24T15:32:05.998Z</time></trkpt><trkpt lat="44.9264553001137" lon="7.277711296135106"><ele>1004.2</ele><time>2026-04-24T15:32:07.998Z</time></trkpt><trkpt lat="44.926380224918645" lon="7.277816034554854"><ele>1001.6</ele><time>2026-04-24T15:32:09.998Z</time></trkpt><trkpt lat="44.926292553447794" lon="7.27792056330729"><ele>999.0</ele><time>2026-04-24T15:32:11.998Z</time></trkpt><trkpt lat="44.92618294718785" lon="7.2779468887261185"><ele>999.0</ele><time>2026-04-24T15:32:13.998Z</time></trkpt><trkpt lat="44.926119872923216" lon="7.2779554412270056"><ele>999.0</ele><time>2026-04-24T15:32:14.998Z</time></trkpt><trkpt lat="44.92599162338189" lon="7.277969719866659"><ele>999.0</ele><time>2026-04-24T15:32:16.998Z</time></trkpt><trkpt lat="44.92592806680251" lon="7.277993384110752"><ele>999.0</ele><time>2026-04-24T15:32:17.998Z</time></trkpt><trkpt lat="44.925860771423096" lon="7.278024600575895"><ele>999.0</ele><time>2026-04-24T15:32:18.998Z</time></trkpt><trkpt lat="44.92578565577041" lon="7.2780565892824525"><ele>999.0</ele><time>2026-04-24T15:32:19.998Z</time></trkpt><trkpt lat="44.925713764007774" lon="7.278100257007689"><ele>995.6</ele><time>2026-04-24T15:32:20.998Z</time></trkpt><trkpt lat="44.92562533012019" lon="7.278196902683244"><ele>992.2</ele><time>2026-04-24T15:32:21.998Z</time></trkpt><trkpt lat="44.925558377365334" lon="7.278252804825134"><ele>988.8000000000001</ele><time>2026-04-24T15:32:22.998Z</time></trkpt><trkpt lat="44.92547051547281" lon="7.278366207094911"><ele>985.4000000000001</ele><time>2026-04-24T15:32:24.998Z</time></trkpt><trkpt lat="44.925386663014095" lon="7.278449092967529"><ele>982.0</ele><time>2026-04-24T15:32:25.998Z</time></trkpt><trkpt lat="44.92529807132472" lon="7.278519291746061"><ele>982.0</ele><time>2026-04-24T15:32:26.998Z</time></trkpt><trkpt lat="44.925229531732526" lon="7.278548866292963"><ele>982.0</ele><time>2026-04-24T15:32:27.998Z</time></trkpt><trkpt lat="44.92510212852418" lon="7.2784753075986055"><ele>982.0</ele><time>2026-04-24T15:32:29.998Z</time></trkpt><trkpt lat="44.92501703852118" lon="7.278427911521795"><ele>982.0</ele><time>2026-04-24T15:32:30.998Z</time></trkpt><trkpt lat="44.92493814859997" lon="7.278421918616143"><ele>982.0</ele><time>2026-04-24T15:32:31.998Z</time></trkpt><trkpt lat="44.924856470211104" lon="7.27840589361282"><ele>979.9999999999999</ele><time>2026-04-24T15:32:32.998Z</time></trkpt><trkpt lat="44.9247687308316" lon="7.27837614093305"><ele>978.0</ele><time>2026-04-24T15:32:33.998Z</time></trkpt><trkpt lat="44.92470050963688" lon="7.278340767193676"><ele>976.0</ele><time>2026-04-24T15:32:34.998Z</time></trkpt><trkpt lat="44.924623348474604" lon="7.278300732733781"><ele>974.0</ele><time>2026-04-24T15:32:35.998Z</time></trkpt><trkpt lat="44.924553458470555" lon="7.278263227413725"><ele>971.9999999999999</ele><time>2026-04-24T15:32:36.998Z</time></trkpt><trkpt lat="44.92449344317536" lon="7.278191358891634"><ele>970.0</ele><time>2026-04-24T15:32:37.998Z</time></trkpt><trkpt lat="44.92442249713031" lon="7.278091538666347"><ele>968.6</ele><time>2026-04-24T15:32:38.998Z</time></trkpt><trkpt lat="44.9243353171583" lon="7.2779819558465215"><ele>967.2</ele><time>2026-04-24T15:32:39.998Z</time></trkpt><trkpt lat="44.924233079702546" lon="7.277880860442026"><ele>965.8</ele><time>2026-04-24T15:32:40.998Z</time></trkpt><trkpt lat="44.92415081377781" lon="7.277830847591831"><ele>964.4</ele><time>2026-04-24T15:32:41.997Z</time></trkpt><trkpt lat="44.92407215154778" lon="7.277798118408101"><ele>963.0</ele><time>2026-04-24T15:32:42.997Z</time></trkpt><trkpt lat="44.92399128741351" lon="7.277800143707812"><ele>962.0</ele><time>2026-04-24T15:32:43.997Z</time></trkpt><trkpt lat="44.923923151465246" lon="7.27780984964321"><ele>961.0</ele><time>2026-04-24T15:32:44.997Z</time></trkpt><trkpt lat="44.923858874599105" lon="7.277753952625264"><ele>960.0</ele><time>2026-04-24T15:32:45.997Z</time></trkpt><trkpt lat="44.923795335346504" lon="7.277675909985745"><ele>959.0</ele><time>2026-04-24T15:32:46.997Z</time></trkpt><trkpt lat="44.92374167994231" lon="7.277615326593094"><ele>958.0</ele><time>2026-04-24T15:32:47.997Z</time></trkpt><trkpt lat="44.9236663760782" lon="7.27759803973247"><ele>957.0</ele><time>2026-04-24T15:32:48.997Z</time></trkpt><trkpt lat="44.923584002037984" lon="7.27763355483171"><ele>957.0</ele><time>2026-04-24T15:32:49.997Z</time></trkpt><trkpt lat="44.92351303152084" lon="7.27768628642607"><ele>957.0</ele><time>2026-04-24T15:32:50.997Z</time></trkpt><trkpt lat="44.92344293801865" lon="7.277736504120503"><ele>957.0</ele><time>2026-04-24T15:32:51.997Z</time></trkpt><trkpt lat="44.923377146166686" lon="7.277771482308001"><ele>957.0</ele><time>2026-04-24T15:32:52.997Z</time></trkpt><trkpt lat="44.92331749877738" lon="7.27780404124212"><ele>957.0</ele><time>2026-04-24T15:32:53.997Z</time></trkpt><trkpt lat="44.923212957841045" lon="7.277907162914032"><ele>957.0</ele><time>2026-04-24T15:32:55.997Z</time></trkpt><trkpt lat="44.92314544210736" lon="7.277969596752264"><ele>955.1666666666666</ele><time>2026-04-24T15:32:56.997Z</time></trkpt><trkpt lat="44.92306491789862" lon="7.278019443554804"><ele>953.3333333333333</ele><time>2026-04-24T15:32:57.997Z</time></trkpt><trkpt lat="44.922980910670354" lon="7.27805069027932"><ele>951.5</ele><time>2026-04-24T15:32:58.997Z</time></trkpt><trkpt lat="44.922897674621936" lon="7.278060412036551"><ele>949.6666666666666</ele><time>2026-04-24T15:32:59.997Z</time></trkpt><trkpt lat="44.922827588969284" lon="7.278056102265764"><ele>947.8333333333333</ele><time>2026-04-24T15:33:00.997Z</time></trkpt><trkpt lat="44.922746644237925" lon="7.278011413957641"><ele>946.0</ele><time>2026-04-24T15:33:02.999Z</time></trkpt><trkpt lat="44.9227240804046" lon="7.278136327527764"><ele>944.6666666666666</ele><time>2026-04-24T15:33:05.999Z</time></trkpt><trkpt lat="44.92282223741546" lon="7.278230259005976"><ele>943.3333333333333</ele><time>2026-04-24T15:33:08.999Z</time></trkpt><trkpt lat="44.92288607266915" lon="7.278310453756666"><ele>942.0</ele><time>2026-04-24T15:33:09.999Z</time></trkpt><trkpt lat="44.92295203466038" lon="7.278695482602596"><ele>942.0</ele><time>2026-04-24T15:33:10.999Z</time></trkpt><trkpt lat="44.923049915868454" lon="7.278793135627931"><ele>942.0</ele><time>2026-04-24T15:33:11.999Z</time></trkpt><trkpt lat="44.92318668118418" lon="7.278886319121152"><ele>942.0</ele><time>2026-04-24T15:33:12.999Z</time></trkpt><trkpt lat="44.9233236370701" lon="7.278990918444842"><ele>942.0</ele><time>2026-04-24T15:33:13.999Z</time></trkpt><trkpt lat="44.92347783703526" lon="7.27911112842412"><ele>943.25</ele><time>2026-04-24T15:33:14.999Z</time></trkpt><trkpt lat="44.92362963963904" lon="7.279248797471402"><ele>944.5</ele><time>2026-04-24T15:33:15.999Z</time></trkpt><trkpt lat="44.92374823229994" lon="7.279387505277369"><ele>945.75</ele><time>2026-04-24T15:33:16.999Z</time></trkpt><trkpt lat="44.923819204550945" lon="7.279499824589846"><ele>947.0</ele><time>2026-04-24T15:33:17.999Z</time></trkpt><trkpt lat="44.92381189648194" lon="7.279609434636163"><ele>947.0</ele><time>2026-04-24T15:33:18.999Z</time></trkpt><trkpt lat="44.92385381653081" lon="7.2796942130919895"><ele>947.0</ele><time>2026-04-24T15:33:21.999Z</time></trkpt><trkpt lat="44.923854122670946" lon="7.2795142337982455"><ele>947.0</ele><time>2026-04-24T15:33:24.999Z</time></trkpt><trkpt lat="44.92376140458152" lon="7.279428872317203"><ele>947.0</ele><time>2026-04-24T15:33:26.999Z</time></trkpt><trkpt lat="44.923723620488964" lon="7.279355118059051"><ele>947.0</ele><time>2026-04-24T15:33:27.999Z</time></trkpt><trkpt lat="44.923623479419405" lon="7.2791722063615465"><ele>947.0</ele><time>2026-04-24T15:33:28.999Z</time></trkpt><trkpt lat="44.92354751426464" lon="7.279051874993018"><ele>947.0</ele><time>2026-04-24T15:33:29.999Z</time></trkpt><trkpt lat="44.923479518202484" lon="7.278970684254304"><ele>947.0</ele><time>2026-04-24T15:33:30.999Z</time></trkpt><trkpt lat="44.92337612324469" lon="7.278909543810033"><ele>947.0</ele><time>2026-04-24T15:33:31.999Z</time></trkpt><trkpt lat="44.92327592788134" lon="7.278849239971139"><ele>947.0</ele><time>2026-04-24T15:33:32.999Z</time></trkpt><trkpt lat="44.92319126841752" lon="7.278786955781747"><ele>946.1666666666667</ele><time>2026-04-24T15:33:33.999Z</time></trkpt><trkpt lat="44.923112660677305" lon="7.278720110280795"><ele>945.3333333333334</ele><time>2026-04-24T15:33:34.999Z</time></trkpt><trkpt lat="44.923034517841764" lon="7.278653508364005"><ele>944.5</ele><time>2026-04-24T15:33:35.999Z</time></trkpt><trkpt lat="44.92298076961332" lon="7.27858918026332"><ele>943.6666666666667</ele><time>2026-04-24T15:33:36.999Z</time></trkpt><trkpt lat="44.922919800677896" lon="7.278437597903892"><ele>942.8333333333334</ele><time>2026-04-24T15:33:38.999Z</time></trkpt><trkpt lat="44.922876081713795" lon="7.278361442564358"><ele>942.0</ele><time>2026-04-24T15:33:39.999Z</time></trkpt><trkpt lat="44.922830273006284" lon="7.278286387517551"><ele>942.0</ele><time>2026-04-24T15:33:40.999Z</time></trkpt><trkpt lat="44.92277372894337" lon="7.278175399100555"><ele>942.0</ele><time>2026-04-24T15:33:42.999Z</time></trkpt><trkpt lat="44.92274880300605" lon="7.278088206651131"><ele>942.0</ele><time>2026-04-24T15:33:45.999Z</time></trkpt><trkpt lat="44.92282283072742" lon="7.278039190703854"><ele>942.0</ele><time>2026-04-24T15:33:49.999Z</time></trkpt><trkpt lat="44.92293475288974" lon="7.278086002175071"><ele>942.0</ele><time>2026-04-24T15:33:51.999Z</time></trkpt><trkpt lat="44.92304018638293" lon="7.278049115561094"><ele>942.6666666666666</ele><time>2026-04-24T15:33:53.999Z</time></trkpt><trkpt lat="44.92312020293773" lon="7.277990862189962"><ele>943.3333333333333</ele><time>2026-04-24T15:33:54.999Z</time></trkpt><trkpt lat="44.9232014233498" lon="7.27793126032784"><ele>944.0</ele><time>2026-04-24T15:33:55.999Z</time></trkpt><trkpt lat="44.92328358264997" lon="7.277874831075482"><ele>944.6666666666666</ele><time>2026-04-24T15:33:56.999Z</time></trkpt><trkpt lat="44.92335192489452" lon="7.277807859783452"><ele>945.3333333333333</ele><time>2026-04-24T15:33:57.999Z</time></trkpt><trkpt lat="44.923404657020114" lon="7.277746614869182"><ele>946.0</ele><time>2026-04-24T15:33:58.999Z</time></trkpt><trkpt lat="44.923472371284426" lon="7.277700502642158"><ele>948.1999999999999</ele><time>2026-04-24T15:33:59.999Z</time></trkpt><trkpt lat="44.923539399037104" lon="7.27764545501555"><ele>950.3999999999999</ele><time>2026-04-24T15:34:00.999Z</time></trkpt><trkpt lat="44.92359719622214" lon="7.277589866477023"><ele>952.6</ele><time>2026-04-24T15:34:01.999Z</time></trkpt><trkpt lat="44.923646215424746" lon="7.277528281886566"><ele>954.8</ele><time>2026-04-24T15:34:02.998Z</time></trkpt><trkpt lat="44.923725116148944" lon="7.277501043488907"><ele>957.0</ele><time>2026-04-24T15:34:04.998Z</time></trkpt><trkpt lat="44.92393857831175" lon="7.27772412189575"><ele>957.0</ele><time>2026-04-24T15:34:06.998Z</time></trkpt><trkpt lat="44.92406162211696" lon="7.277773467814789"><ele>957.0</ele><time>2026-04-24T15:34:08.998Z</time></trkpt><trkpt lat="44.92414876450981" lon="7.277770871867195"><ele>957.0</ele><time>2026-04-24T15:34:09.998Z</time></trkpt><trkpt lat="44.924254736883746" lon="7.277781450651866"><ele>957.0</ele><time>2026-04-24T15:34:10.998Z</time></trkpt><trkpt lat="44.92433885759946" lon="7.277852048385235"><ele>957.0</ele><time>2026-04-24T15:34:11.998Z</time></trkpt><trkpt lat="44.92440725304832" lon="7.2779762736434686"><ele>959.6</ele><time>2026-04-24T15:34:12.998Z</time></trkpt><trkpt lat="44.924498612650154" lon="7.278139120446944"><ele>962.2</ele><time>2026-04-24T15:34:13.998Z</time></trkpt><trkpt lat="44.92457794332855" lon="7.278202045670294"><ele>964.8</ele><time>2026-04-24T15:34:14.998Z</time></trkpt><trkpt lat="44.92464619093775" lon="7.278277774425772"><ele>967.4</ele><time>2026-04-24T15:34:15.998Z</time></trkpt><trkpt lat="44.92470875650194" lon="7.278316388800198"><ele>970.0</ele><time>2026-04-24T15:34:16.998Z</time></trkpt><trkpt lat="44.92478098294646" lon="7.278317236802585"><ele>970.0</ele><time>2026-04-24T15:34:17.998Z</time></trkpt><trkpt lat="44.924843553740374" lon="7.2783534549224465"><ele>970.0</ele><time>2026-04-24T15:34:18.998Z</time></trkpt><trkpt lat="44.92494615557686" lon="7.278441985648533"><ele>970.0</ele><time>2026-04-24T15:34:20.998Z</time></trkpt><trkpt lat="44.92502302581944" lon="7.27846852983468"><ele>970.0</ele><time>2026-04-24T15:34:21.998Z</time></trkpt><trkpt lat="44.925128421283716" lon="7.278478298799867"><ele>970.0</ele><time>2026-04-24T15:34:23.998Z</time></trkpt><trkpt lat="44.92521145840942" lon="7.278494529708657"><ele>972.0</ele><time>2026-04-24T15:34:25.998Z</time></trkpt><trkpt lat="44.92530438383744" lon="7.278468419411763"><ele>974.0</ele><time>2026-04-24T15:34:28.998Z</time></trkpt><trkpt lat="44.92536801400003" lon="7.278465895793628"><ele>976.0</ele><time>2026-04-24T15:34:31.998Z</time></trkpt><trkpt lat="44.92542189880654" lon="7.278395632758604"><ele>978.0</ele><time>2026-04-24T15:34:33.998Z</time></trkpt><trkpt lat="44.92549258732401" lon="7.278335006126272"><ele>980.0</ele><time>2026-04-24T15:34:36.998Z</time></trkpt><trkpt lat="44.92589085830639" lon="7.278005143162708"><ele>983.1666666666667</ele><time>2026-04-24T15:34:37.998Z</time></trkpt><trkpt lat="44.92594753836865" lon="7.277964653900696"><ele>986.3333333333334</ele><time>2026-04-24T15:34:38.998Z</time></trkpt><trkpt lat="44.92600942405829" lon="7.277932010108125"><ele>989.5</ele><time>2026-04-24T15:34:39.998Z</time></trkpt><trkpt lat="44.92607373390867" lon="7.277905584960738"><ele>992.6666666666667</ele><time>2026-04-24T15:34:40.998Z</time></trkpt><trkpt lat="44.92618542224228" lon="7.27786119827704"><ele>995.8333333333334</ele><time>2026-04-24T15:34:42.998Z</time></trkpt><trkpt lat="44.926283382986774" lon="7.27785354734666"><ele>999.0</ele><time>2026-04-24T15:34:44.998Z</time></trkpt><trkpt lat="44.92639575204871" lon="7.277840225038527"><ele>999.0</ele><time>2026-04-24T15:34:46.998Z</time></trkpt><trkpt lat="44.92648238125159" lon="7.2778002300610405"><ele>999.0000000000001</ele><time>2026-04-24T15:34:48.997Z</time></trkpt><trkpt lat="44.92659540657857" lon="7.2777421051303675"><ele>999.0000000000001</ele><time>2026-04-24T15:34:50.997Z</time></trkpt><trkpt lat="44.92668805525196" lon="7.277697388196234"><ele>999.0</ele><time>2026-04-24T15:34:52.997Z</time></trkpt><trkpt lat="44.92675595146998" lon="7.277683592584295"><ele>999.0</ele><time>2026-04-24T15:34:54.997Z</time></trkpt><trkpt lat="44.926667923562356" lon="7.277723157859056"><ele>1001.1666666666666</ele><time>2026-04-24T15:34:57.997Z</time></trkpt><trkpt lat="44.92675567094168" lon="7.277730729734791"><ele>1003.3333333333333</ele><time>2026-04-24T15:35:02.997Z</time></trkpt><trkpt lat="44.92683341405747" lon="7.277693434157654"><ele>1005.5</ele><time>2026-04-24T15:35:04.997Z</time></trkpt><trkpt lat="44.92692854280907" lon="7.277675597112327"><ele>1007.6666666666666</ele><time>2026-04-24T15:35:07.999Z</time></trkpt><trkpt lat="44.92701536008701" lon="7.277659229803135"><ele>1009.8333333333333</ele><time>2026-04-24T15:35:10.999Z</time></trkpt><trkpt lat="44.927078877702215" lon="7.277656775355827"><ele>1012.0</ele><time>2026-04-24T15:35:13.999Z</time></trkpt><trkpt lat="44.92714837476427" lon="7.277664110823154"><ele>1012.0</ele><time>2026-04-24T15:35:16.999Z</time></trkpt><trkpt lat="44.92749534707579" lon="7.277699029713834"><ele>1012.0</ele><time>2026-04-24T15:35:19.999Z</time></trkpt><trkpt lat="44.927579643671706" lon="7.277701384604253"><ele>1012.0</ele><time>2026-04-24T15:35:20.999Z</time></trkpt><trkpt lat="44.92767437026264" lon="7.277706850187392"><ele>1013.6</ele><time>2026-04-24T15:35:21.999Z</time></trkpt><trkpt lat="44.927771403594264" lon="7.277700549015177"><ele>1015.2</ele><time>2026-04-24T15:35:22.999Z</time></trkpt><trkpt lat="44.927865740277156" lon="7.27769573384368"><ele>1016.8</ele><time>2026-04-24T15:35:23.999Z</time></trkpt><trkpt lat="44.9279570171154" lon="7.277697877645637"><ele>1018.4</ele><time>2026-04-24T15:35:24.999Z</time></trkpt><trkpt lat="44.92804893722774" lon="7.27770351844676"><ele>1020.0</ele><time>2026-04-24T15:35:25.999Z</time></trkpt><trkpt lat="44.928145599793964" lon="7.277710240132894"><ele>1020.0</ele><time>2026-04-24T15:35:26.999Z</time></trkpt><trkpt lat="44.92823138143503" lon="7.277709344821572"><ele>1020.0</ele><time>2026-04-24T15:35:27.999Z</time></trkpt><trkpt lat="44.92832541629941" lon="7.277703676055634"><ele>1020.0</ele><time>2026-04-24T15:35:28.999Z</time></trkpt><trkpt lat="44.928425666398034" lon="7.277670700767438"><ele>1020.0</ele><time>2026-04-24T15:35:29.999Z</time></trkpt><trkpt lat="44.928517609418" lon="7.277626764503578"><ele>1020.0</ele><time>2026-04-24T15:35:30.999Z</time></trkpt><trkpt lat="44.92861181694197" lon="7.27754655236169"><ele>1022.0</ele><time>2026-04-24T15:35:31.999Z</time></trkpt><trkpt lat="44.92870385565534" lon="7.27747765677267"><ele>1024.0</ele><time>2026-04-24T15:35:32.999Z</time></trkpt><trkpt lat="44.928822351993894" lon="7.277396618305173"><ele>1026.0</ele><time>2026-04-24T15:35:33.999Z</time></trkpt><trkpt lat="44.92891207583367" lon="7.277321209067216"><ele>1028.0</ele><time>2026-04-24T15:35:34.999Z</time></trkpt><trkpt lat="44.929049563212494" lon="7.277184053425128"><ele>1028.0</ele><time>2026-04-24T15:35:35.999Z</time></trkpt><trkpt lat="44.929150732855845" lon="7.277069716935104"><ele>1028.0</ele><time>2026-04-24T15:35:36.999Z</time></trkpt><trkpt lat="44.92921682287957" lon="7.276979403385132"><ele>1028.0</ele><time>2026-04-24T15:35:37.999Z</time></trkpt><trkpt lat="44.9292855093759" lon="7.2768864681815355"><ele>1028.0</ele><time>2026-04-24T15:35:38.999Z</time></trkpt><trkpt lat="44.9291636593274" lon="7.276779244001239"><ele>1025.25</ele><time>2026-04-24T15:35:39.999Z</time></trkpt><trkpt lat="44.92929798526182" lon="7.276676366509522"><ele>1022.5</ele><time>2026-04-24T15:35:40.999Z</time></trkpt><trkpt lat="44.92940427751017" lon="7.27655804646077"><ele>1019.75</ele><time>2026-04-24T15:35:41.999Z</time></trkpt><trkpt lat="44.92951216527178" lon="7.276425179555362"><ele>1017.0</ele><time>2026-04-24T15:35:42.999Z</time></trkpt><trkpt lat="44.92959194268161" lon="7.276301551421766"><ele>1017.0</ele><time>2026-04-24T15:35:43.999Z</time></trkpt><trkpt lat="44.92964855293026" lon="7.276221906487654"><ele>1017.0</ele><time>2026-04-24T15:35:44.999Z</time></trkpt><trkpt lat="44.929667836703665" lon="7.276127304230885"><ele>1017.0</ele><time>2026-04-24T15:35:45.999Z</time></trkpt><trkpt lat="44.92969654812714" lon="7.276013374680437"><ele>1017.0</ele><time>2026-04-24T15:35:46.999Z</time></trkpt><trkpt lat="44.92974503458586" lon="7.275883738916289"><ele>1017.0</ele><time>2026-04-24T15:35:47.999Z</time></trkpt><trkpt lat="44.929793109417766" lon="7.2757244329335755"><ele>1017.25</ele><time>2026-04-24T15:35:48.999Z</time></trkpt><trkpt lat="44.92984679068627" lon="7.275528442286183"><ele>1017.5</ele><time>2026-04-24T15:35:49.999Z</time></trkpt><trkpt lat="44.92992091148808" lon="7.275298217032675"><ele>1017.75</ele><time>2026-04-24T15:35:50.999Z</time></trkpt><trkpt lat="44.92994151539974" lon="7.275143164978159"><ele>1018.0</ele><time>2026-04-24T15:35:51.999Z</time></trkpt><trkpt lat="44.929935416844245" lon="7.274991688478745"><ele>1018.0</ele><time>2026-04-24T15:35:52.999Z</time></trkpt><trkpt lat="44.92999002753172" lon="7.274920648777458"><ele>1018.0</ele><time>2026-04-24T15:35:55.999Z</time></trkpt><trkpt lat="44.9300682914808" lon="7.274886618653503"><ele>1018.0</ele><time>2026-04-24T15:35:56.999Z</time></trkpt><trkpt lat="44.93015839361237" lon="7.274863956367326"><ele>1018.0</ele><time>2026-04-24T15:35:57.999Z</time></trkpt><trkpt lat="44.93026828691864" lon="7.274844203459799"><ele>1018.0</ele><time>2026-04-24T15:35:58.999Z</time></trkpt><trkpt lat="44.93037153241196" lon="7.2747958445147"><ele>1018.75</ele><time>2026-04-24T15:35:59.999Z</time></trkpt><trkpt lat="44.93048938307768" lon="7.274757293323877"><ele>1019.5</ele><time>2026-04-24T15:36:00.999Z</time></trkpt><trkpt lat="44.93061496759244" lon="7.274731050984242"><ele>1020.25</ele><time>2026-04-24T15:36:01.999Z</time></trkpt><trkpt lat="44.93072896232897" lon="7.274716760638124"><ele>1021.0</ele><time>2026-04-24T15:36:02.999Z</time></trkpt><trkpt lat="44.93082360361965" lon="7.274691046318068"><ele>1022.8</ele><time>2026-04-24T15:36:03.999Z</time></trkpt><trkpt lat="44.93091931817887" lon="7.2746839942820305"><ele>1024.6</ele><time>2026-04-24T15:36:04.999Z</time></trkpt><trkpt lat="44.931020144756715" lon="7.274705617292505"><ele>1026.4</ele><time>2026-04-24T15:36:05.999Z</time></trkpt><trkpt lat="44.93112885908095" lon="7.274758230132812"><ele>1028.2</ele><time>2026-04-24T15:36:06.999Z</time></trkpt><trkpt lat="44.93123186586752" lon="7.274791609243879"><ele>1030.0</ele><time>2026-04-24T15:36:07.998Z</time></trkpt><trkpt lat="44.93131097052337" lon="7.27478649278574"><ele>1031.1666666666665</ele><time>2026-04-24T15:36:08.998Z</time></trkpt><trkpt lat="44.93136075823005" lon="7.274718931899497"><ele>1032.3333333333333</ele><time>2026-04-24T15:36:09.998Z</time></trkpt><trkpt lat="44.93137216867404" lon="7.274630066113792"><ele>1033.5</ele><time>2026-04-24T15:36:10.998Z</time></trkpt><trkpt lat="44.93135523882861" lon="7.274523297382048"><ele>1034.6666666666667</ele><time>2026-04-24T15:36:11.998Z</time></trkpt><trkpt lat="44.93131485972901" lon="7.274410314478144"><ele>1035.8333333333335</ele><time>2026-04-24T15:36:12.998Z</time></trkpt><trkpt lat="44.93127885125059" lon="7.274260600188539"><ele>1037.0</ele><time>2026-04-24T15:36:13.998Z</time></trkpt><trkpt lat="44.931269974167854" lon="7.274077619079631"><ele>1036.75</ele><time>2026-04-24T15:36:14.998Z</time></trkpt><trkpt lat="44.93128383439308" lon="7.273907228776396"><ele>1036.5</ele><time>2026-04-24T15:36:15.998Z</time></trkpt><trkpt lat="44.93132985027316" lon="7.273793574853136"><ele>1036.25</ele><time>2026-04-24T15:36:16.998Z</time></trkpt><trkpt lat="44.93140043709509" lon="7.273691193225283"><ele>1036.0</ele><time>2026-04-24T15:36:17.998Z</time></trkpt><trkpt lat="44.93150614983373" lon="7.273540783413828"><ele>1036.0</ele><time>2026-04-24T15:36:18.998Z</time></trkpt><trkpt lat="44.931613132423486" lon="7.273347609661331"><ele>1036.0</ele><time>2026-04-24T15:36:19.998Z</time></trkpt><trkpt lat="44.93170947771685" lon="7.273131523391281"><ele>1036.0</ele><time>2026-04-24T15:36:20.998Z</time></trkpt><trkpt lat="44.931786037134835" lon="7.272899584758356"><ele>1034.6666666666665</ele><time>2026-04-24T15:36:21.998Z</time></trkpt><trkpt lat="44.93185900474395" lon="7.272610810098664"><ele>1033.3333333333333</ele><time>2026-04-24T15:36:22.998Z</time></trkpt><trkpt lat="44.93195574843408" lon="7.272357136513419"><ele>1032.0</ele><time>2026-04-24T15:36:23.998Z</time></trkpt><trkpt lat="44.93200817071525" lon="7.272191643625633"><ele>1032.0</ele><time>2026-04-24T15:36:24.998Z</time></trkpt><trkpt lat="44.932039747000196" lon="7.272087421853749"><ele>1032.0</ele><time>2026-04-24T15:36:25.998Z</time></trkpt><trkpt lat="44.932088269336994" lon="7.271981525556914"><ele>1032.0</ele><time>2026-04-24T15:36:26.998Z</time></trkpt><trkpt lat="44.93218658774928" lon="7.271921804845369"><ele>1032.0</ele><time>2026-04-24T15:36:27.998Z</time></trkpt><trkpt lat="44.932289369250725" lon="7.271879364597244"><ele>1032.0</ele><time>2026-04-24T15:36:28.998Z</time></trkpt><trkpt lat="44.93239324154789" lon="7.2718561199053156"><ele>1032.0</ele><time>2026-04-24T15:36:29.998Z</time></trkpt><trkpt lat="44.93252191759288" lon="7.271896094407261"><ele>1032.0</ele><time>2026-04-24T15:36:30.998Z</time></trkpt><trkpt lat="44.93268469003344" lon="7.271947312456737"><ele>1032.0</ele><time>2026-04-24T15:36:31.998Z</time></trkpt><trkpt lat="44.93286754553659" lon="7.271954246766077"><ele>1035.6666666666667</ele><time>2026-04-24T15:36:32.998Z</time></trkpt><trkpt lat="44.933049711452604" lon="7.271922007467385"><ele>1039.3333333333335</ele><time>2026-04-24T15:36:33.998Z</time></trkpt><trkpt lat="44.93322261317102" lon="7.271914552665127"><ele>1043.0</ele><time>2026-04-24T15:36:34.998Z</time></trkpt><trkpt lat="44.93332444493974" lon="7.27189998594122"><ele>1048.0</ele><time>2026-04-24T15:36:35.998Z</time></trkpt><trkpt lat="44.933433834076716" lon="7.27187998743398"><ele>1053.0</ele><time>2026-04-24T15:36:36.998Z</time></trkpt><trkpt lat="44.93352197662218" lon="7.271836040264107"><ele>1058.0</ele><time>2026-04-24T15:36:37.998Z</time></trkpt><trkpt lat="44.933634750371574" lon="7.271776238224696"><ele>1063.0</ele><time>2026-04-24T15:36:38.998Z</time></trkpt><trkpt lat="44.933726163851425" lon="7.271702613936606"><ele>1068.0</ele><time>2026-04-24T15:36:39.998Z</time></trkpt><trkpt lat="44.93375583211221" lon="7.271562799106631"><ele>1068.0</ele><time>2026-04-24T15:36:41.998Z</time></trkpt><trkpt lat="44.93370340550181" lon="7.271475229823354"><ele>1068.0</ele><time>2026-04-24T15:36:42.998Z</time></trkpt><trkpt lat="44.93359667334166" lon="7.271357534781094"><ele>1068.0</ele><time>2026-04-24T15:36:43.998Z</time></trkpt><trkpt lat="44.93344864132176" lon="7.271261300572169"><ele>1068.0</ele><time>2026-04-24T15:36:44.998Z</time></trkpt><trkpt lat="44.933354424338475" lon="7.271144486353834"><ele>1064.0</ele><time>2026-04-24T15:36:45.998Z</time></trkpt><trkpt lat="44.9333206961082" lon="7.271031049951911"><ele>1060.0</ele><time>2026-04-24T15:36:46.998Z</time></trkpt><trkpt lat="44.9333019189685" lon="7.270862751658996"><ele>1056.0</ele><time>2026-04-24T15:36:47.998Z</time></trkpt><trkpt lat="44.933280858360256" lon="7.270624906771161"><ele>1052.0</ele><time>2026-04-24T15:36:48.998Z</time></trkpt><trkpt lat="44.933260857692844" lon="7.270410425249507"><ele>1052.0</ele><time>2026-04-24T15:36:49.998Z</time></trkpt><trkpt lat="44.93320056484483" lon="7.270238494772012"><ele>1052.0</ele><time>2026-04-24T15:36:50.998Z</time></trkpt><trkpt lat="44.93313361799652" lon="7.270096637954478"><ele>1052.0</ele><time>2026-04-24T15:36:51.998Z</time></trkpt><trkpt lat="44.93304681311043" lon="7.269957148120211"><ele>1052.0</ele><time>2026-04-24T15:36:52.998Z</time></trkpt><trkpt lat="44.93298263146013" lon="7.26981728551527"><ele>1051.4</ele><time>2026-04-24T15:36:53.998Z</time></trkpt><trkpt lat="44.93294940561353" lon="7.269706194550703"><ele>1050.8000000000002</ele><time>2026-04-24T15:36:54.998Z</time></trkpt><trkpt lat="44.93292320485631" lon="7.269572349622905"><ele>1050.2</ele><time>2026-04-24T15:36:55.997Z</time></trkpt><trkpt lat="44.93293973907906" lon="7.269426076261693"><ele>1049.6000000000001</ele><time>2026-04-24T15:36:56.997Z</time></trkpt><trkpt lat="44.9329798385586" lon="7.269279323991433"><ele>1049.0</ele><time>2026-04-24T15:36:57.997Z</time></trkpt><trkpt lat="44.93303937617714" lon="7.269052675517855"><ele>1042.6666666666667</ele><time>2026-04-24T15:36:58.997Z</time></trkpt><trkpt lat="44.933122850276874" lon="7.2687925032706175"><ele>1036.3333333333333</ele><time>2026-04-24T15:36:59.997Z</time></trkpt><trkpt lat="44.93318810204794" lon="7.2685502800681405"><ele>1030.0</ele><time>2026-04-24T15:37:00.997Z</time></trkpt><trkpt lat="44.9332502012282" lon="7.268375605895795"><ele>1030.0</ele><time>2026-04-24T15:37:01.997Z</time></trkpt><trkpt lat="44.9333274529459" lon="7.26819917409634"><ele>1030.0</ele><time>2026-04-24T15:37:02.997Z</time></trkpt><trkpt lat="44.93343075392798" lon="7.268048196865645"><ele>1030.0</ele><time>2026-04-24T15:37:03.997Z</time></trkpt><trkpt lat="44.933540449084326" lon="7.267924213210526"><ele>1030.0</ele><time>2026-04-24T15:37:04.997Z</time></trkpt><trkpt lat="44.933624752841" lon="7.267884165557512"><ele>1030.75</ele><time>2026-04-24T15:37:05.997Z</time></trkpt><trkpt lat="44.93373427725958" lon="7.267883463294889"><ele>1031.5</ele><time>2026-04-24T15:37:06.997Z</time></trkpt><trkpt lat="44.933857245935336" lon="7.267926978278967"><ele>1032.25</ele><time>2026-04-24T15:37:07.997Z</time></trkpt><trkpt lat="44.934021215987585" lon="7.267954612844895"><ele>1033.0</ele><time>2026-04-24T15:37:08.997Z</time></trkpt><trkpt lat="44.93416303488225" lon="7.2679160031490575"><ele>1037.2</ele><time>2026-04-24T15:37:09.997Z</time></trkpt><trkpt lat="44.93422890407849" lon="7.267846864019264"><ele>1041.4</ele><time>2026-04-24T15:37:10.997Z</time></trkpt><trkpt lat="44.934287093109035" lon="7.267710046718264"><ele>1045.6000000000001</ele><time>2026-04-24T15:37:11.997Z</time></trkpt><trkpt lat="44.93432226209765" lon="7.267602547521546"><ele>1049.8</ele><time>2026-04-24T15:37:12.997Z</time></trkpt><trkpt lat="44.93435449066437" lon="7.26740562978044"><ele>1054.0</ele><time>2026-04-24T15:37:13.999Z</time></trkpt><trkpt lat="44.9344061704798" lon="7.267248109616735"><ele>1054.0</ele><time>2026-04-24T15:37:14.999Z</time></trkpt><trkpt lat="44.934327323319756" lon="7.267106174331676"><ele>1054.0</ele><time>2026-04-24T15:37:16.999Z</time></trkpt><trkpt lat="44.93420400064766" lon="7.267006815294452"><ele>1054.0</ele><time>2026-04-24T15:37:17.999Z</time></trkpt><trkpt lat="44.93408144301568" lon="7.26683653030441"><ele>1054.0</ele><time>2026-04-24T15:37:18.999Z</time></trkpt><trkpt lat="44.93400037758643" lon="7.266663678993982"><ele>1049.4</ele><time>2026-04-24T15:37:19.999Z</time></trkpt><trkpt lat="44.93396605555714" lon="7.26654850533177"><ele>1044.8000000000002</ele><time>2026-04-24T15:37:20.999Z</time></trkpt><trkpt lat="44.93395034259541" lon="7.266450476823694"><ele>1040.1999999999998</ele><time>2026-04-24T15:37:21.999Z</time></trkpt><trkpt lat="44.93396474583795" lon="7.266338923282359"><ele>1035.6</ele><time>2026-04-24T15:37:22.999Z</time></trkpt><trkpt lat="44.934026494974376" lon="7.266200985287897"><ele>1031.0</ele><time>2026-04-24T15:37:23.999Z</time></trkpt><trkpt lat="44.9341423509169" lon="7.266051789314043"><ele>1030.75</ele><time>2026-04-24T15:37:24.999Z</time></trkpt><trkpt lat="44.934248966410294" lon="7.2659264477691865"><ele>1030.5</ele><time>2026-04-24T15:37:25.999Z</time></trkpt><trkpt lat="44.93434800624705" lon="7.265871041033668"><ele>1030.25</ele><time>2026-04-24T15:37:26.999Z</time></trkpt><trkpt lat="44.934473420518046" lon="7.2658575935022425"><ele>1030.0</ele><time>2026-04-24T15:37:27.999Z</time></trkpt><trkpt lat="44.934638337696015" lon="7.26584248533866"><ele>1030.0</ele><time>2026-04-24T15:37:28.999Z</time></trkpt><trkpt lat="44.934838007815934" lon="7.265846168758662"><ele>1030.0</ele><time>2026-04-24T15:37:29.999Z</time></trkpt><trkpt lat="44.93499819497585" lon="7.265769745565139"><ele>1030.0</ele><time>2026-04-24T15:37:30.999Z</time></trkpt><trkpt lat="44.93509059387338" lon="7.265691405399325"><ele>1031.6</ele><time>2026-04-24T15:37:31.999Z</time></trkpt><trkpt lat="44.93520325016913" lon="7.265627597790848"><ele>1033.2</ele><time>2026-04-24T15:37:32.999Z</time></trkpt><trkpt lat="44.935246791809455" lon="7.265537478436196"><ele>1034.8</ele><time>2026-04-24T15:37:33.999Z</time></trkpt><trkpt lat="44.935302708533186" lon="7.265458047211811"><ele>1036.4</ele><time>2026-04-24T15:37:39.999Z</time></trkpt><trkpt lat="44.9353858944032" lon="7.265484204514813"><ele>1038.0</ele><time>2026-04-24T15:37:41.999Z</time></trkpt><trkpt lat="44.9354948940579" lon="7.265539788357132"><ele>1038.0</ele><time>2026-04-24T15:37:43.999Z</time></trkpt><trkpt lat="44.935601871608796" lon="7.265542439840821"><ele>1038.0</ele><time>2026-04-24T15:37:44.999Z</time></trkpt><trkpt lat="44.93570133284724" lon="7.2655703391999324"><ele>1038.0</ele><time>2026-04-24T15:37:45.999Z</time></trkpt><trkpt lat="44.93580711537604" lon="7.265640309536739"><ele>1038.0</ele><time>2026-04-24T15:37:46.999Z</time></trkpt><trkpt lat="44.93589914794293" lon="7.265751967660201"><ele>1038.0</ele><time>2026-04-24T15:37:47.999Z</time></trkpt><trkpt lat="44.93596782860459" lon="7.265799490791586"><ele>1040.5</ele><time>2026-04-24T15:37:48.999Z</time></trkpt><trkpt lat="44.936102036008826" lon="7.26577782863198"><ele>1043.0</ele><time>2026-04-24T15:37:50.999Z</time></trkpt><trkpt lat="44.936169973965605" lon="7.265710351077724"><ele>1045.5</ele><time>2026-04-24T15:37:51.999Z</time></trkpt><trkpt lat="44.93623695047577" lon="7.2655927544239045"><ele>1048.0</ele><time>2026-04-24T15:37:52.999Z</time></trkpt><trkpt lat="44.936281117204636" lon="7.265419428070068"><ele>1043.0</ele><time>2026-04-24T15:37:53.999Z</time></trkpt><trkpt lat="44.93634062289758" lon="7.265331065500107"><ele>1038.0</ele><time>2026-04-24T15:37:54.999Z</time></trkpt><trkpt lat="44.93638606899292" lon="7.2652632739672285"><ele>1033.0</ele><time>2026-04-24T15:37:55.999Z</time></trkpt><trkpt lat="44.93644492286611" lon="7.265173621542323"><ele>1028.0</ele><time>2026-04-24T15:37:56.999Z</time></trkpt><trkpt lat="44.93654836359221" lon="7.265092282981425"><ele>1023.0</ele><time>2026-04-24T15:37:57.999Z</time></trkpt><trkpt lat="44.9366388394686" lon="7.265024814604981"><ele>1024.4</ele><time>2026-04-24T15:37:58.999Z</time></trkpt><trkpt lat="44.93673572587811" lon="7.264952375380114"><ele>1025.8</ele><time>2026-04-24T15:37:59.999Z</time></trkpt><trkpt lat="44.93680956635577" lon="7.2648803699270585"><ele>1027.2</ele><time>2026-04-24T15:38:00.999Z</time></trkpt><trkpt lat="44.936864837049775" lon="7.264811387911744"><ele>1028.6</ele><time>2026-04-24T15:38:01.999Z</time></trkpt><trkpt lat="44.93683338788139" lon="7.2646986063908745"><ele>1030.0</ele><time>2026-04-24T15:38:03.999Z</time></trkpt><trkpt lat="44.93679266189793" lon="7.264563649927534"><ele>1030.0</ele><time>2026-04-24T15:38:04.999Z</time></trkpt><trkpt lat="44.936765218156275" lon="7.264422229779155"><ele>1030.0</ele><time>2026-04-24T15:38:05.999Z</time></trkpt><trkpt lat="44.93678230556947" lon="7.264304468001477"><ele>1030.0</ele><time>2026-04-24T15:38:06.999Z</time></trkpt><trkpt lat="44.93681240839983" lon="7.2642141427338744"><ele>1030.0</ele><time>2026-04-24T15:38:07.999Z</time></trkpt><trkpt lat="44.9368571831709" lon="7.264128853687831"><ele>1030.0</ele><time>2026-04-24T15:38:08.999Z</time></trkpt><trkpt lat="44.93692167411713" lon="7.263988941722527"><ele>1027.6</ele><time>2026-04-24T15:38:09.999Z</time></trkpt><trkpt lat="44.936969544236135" lon="7.263847841719689"><ele>1025.2</ele><time>2026-04-24T15:38:10.999Z</time></trkpt><trkpt lat="44.93699701190685" lon="7.263726822327771"><ele>1022.8</ele><time>2026-04-24T15:38:11.999Z</time></trkpt><trkpt lat="44.937030161486945" lon="7.263578304098241"><ele>1020.4</ele><time>2026-04-24T15:38:12.999Z</time></trkpt><trkpt lat="44.93706867228752" lon="7.263411124861586"><ele>1018.0</ele><time>2026-04-24T15:38:13.999Z</time></trkpt><trkpt lat="44.93711285490167" lon="7.263263889120276"><ele>1018.0</ele><time>2026-04-24T15:38:14.998Z</time></trkpt><trkpt lat="44.93715273415421" lon="7.263137656964222"><ele>1018.0</ele><time>2026-04-24T15:38:15.998Z</time></trkpt><trkpt lat="44.93719576357472" lon="7.262982317730451"><ele>1018.0</ele><time>2026-04-24T15:38:16.998Z</time></trkpt><trkpt lat="44.93726090865434" lon="7.2628248317824555"><ele>1018.0</ele><time>2026-04-24T15:38:17.998Z</time></trkpt><trkpt lat="44.937326411674675" lon="7.262672971324849"><ele>1016.75</ele><time>2026-04-24T15:38:18.998Z</time></trkpt><trkpt lat="44.93740574766792" lon="7.262502104095082"><ele>1015.5</ele><time>2026-04-24T15:38:19.998Z</time></trkpt><trkpt lat="44.93748393483026" lon="7.262324228999508"><ele>1014.25</ele><time>2026-04-24T15:38:20.998Z</time></trkpt><trkpt lat="44.93755776538919" lon="7.262164885502493"><ele>1013.0</ele><time>2026-04-24T15:38:21.998Z</time></trkpt><trkpt lat="44.93763383356987" lon="7.2620316650639305"><ele>1013.0</ele><time>2026-04-24T15:38:22.998Z</time></trkpt><trkpt lat="44.93769553178363" lon="7.261894529193496"><ele>1013.0</ele><time>2026-04-24T15:38:23.998Z</time></trkpt><trkpt lat="44.93775675258242" lon="7.261756275305202"><ele>1013.0</ele><time>2026-04-24T15:38:24.998Z</time></trkpt><trkpt lat="44.93782122261117" lon="7.261653756882929"><ele>1013.0</ele><time>2026-04-24T15:38:25.998Z</time></trkpt><trkpt lat="44.93787666952136" lon="7.261546552079112"><ele>1013.0</ele><time>2026-04-24T15:38:26.998Z</time></trkpt><trkpt lat="44.9379208688883" lon="7.261430235460637"><ele>1011.2</ele><time>2026-04-24T15:38:27.998Z</time></trkpt><trkpt lat="44.937967108676446" lon="7.2612715055821395"><ele>1009.4</ele><time>2026-04-24T15:38:28.998Z</time></trkpt><trkpt lat="44.938017529611265" lon="7.261153551729653"><ele>1007.6000000000001</ele><time>2026-04-24T15:38:29.998Z</time></trkpt><trkpt lat="44.93805209272239" lon="7.261037749163621"><ele>1005.8000000000001</ele><time>2026-04-24T15:38:30.998Z</time></trkpt><trkpt lat="44.93804429220528" lon="7.260884597012974"><ele>1004.0</ele><time>2026-04-24T15:38:31.998Z</time></trkpt><trkpt lat="44.9380251100796" lon="7.260703908001035"><ele>1002.0</ele><time>2026-04-24T15:38:32.998Z</time></trkpt><trkpt lat="44.938034590166794" lon="7.260537283298921"><ele>1000.0</ele><time>2026-04-24T15:38:33.998Z</time></trkpt><trkpt lat="44.9380259470014" lon="7.260359450537397"><ele>998.0</ele><time>2026-04-24T15:38:34.998Z</time></trkpt><trkpt lat="44.93802716142147" lon="7.2601874385188045"><ele>996.0</ele><time>2026-04-24T15:38:35.998Z</time></trkpt><trkpt lat="44.93804624311317" lon="7.260028695362947"><ele>996.0</ele><time>2026-04-24T15:38:36.998Z</time></trkpt><trkpt lat="44.938079929607696" lon="7.259845619803338"><ele>996.0</ele><time>2026-04-24T15:38:37.998Z</time></trkpt><trkpt lat="44.93808924477961" lon="7.259617020747758"><ele>996.0</ele><time>2026-04-24T15:38:38.998Z</time></trkpt><trkpt lat="44.93806980445433" lon="7.25940593091944"><ele>996.0</ele><time>2026-04-24T15:38:39.998Z</time></trkpt><trkpt lat="44.93805312662511" lon="7.25924959403857"><ele>993.8</ele><time>2026-04-24T15:38:40.998Z</time></trkpt><trkpt lat="44.93805803458556" lon="7.259095619326954"><ele>991.5999999999999</ele><time>2026-04-24T15:38:41.998Z</time></trkpt><trkpt lat="44.93807850822591" lon="7.258954286738625"><ele>989.4</ele><time>2026-04-24T15:38:42.998Z</time></trkpt><trkpt lat="44.937957279444475" lon="7.259016748958857"><ele>987.2</ele><time>2026-04-24T15:38:45.998Z</time></trkpt><trkpt lat="44.937914838643174" lon="7.259136316185583"><ele>985.0</ele><time>2026-04-24T15:38:46.998Z</time></trkpt><trkpt lat="44.93788335279292" lon="7.259297435119673"><ele>985.0</ele><time>2026-04-24T15:38:47.998Z</time></trkpt><trkpt lat="44.93782265049282" lon="7.259449837149914"><ele>985.0</ele><time>2026-04-24T15:38:48.998Z</time></trkpt><trkpt lat="44.93776583534951" lon="7.259616190432512"><ele>985.0</ele><time>2026-04-24T15:38:49.998Z</time></trkpt><trkpt lat="44.93771091274621" lon="7.259729560197056"><ele>985.0</ele><time>2026-04-24T15:38:50.998Z</time></trkpt><trkpt lat="44.937634086186605" lon="7.25979782609225"><ele>985.0</ele><time>2026-04-24T15:38:51.998Z</time></trkpt><trkpt lat="44.93753580580362" lon="7.259883482367977"><ele>978.4</ele><time>2026-04-24T15:38:52.998Z</time></trkpt><trkpt lat="44.93744859759513" lon="7.259984669158078"><ele>971.8</ele><time>2026-04-24T15:38:53.998Z</time></trkpt><trkpt lat="44.93739109839179" lon="7.260150138119706"><ele>965.2</ele><time>2026-04-24T15:38:54.998Z</time></trkpt><trkpt lat="44.937343901262814" lon="7.260292559873655"><ele>958.6</ele><time>2026-04-24T15:38:55.999Z</time></trkpt><trkpt lat="44.937316147846765" lon="7.260410669278082"><ele>952.0</ele><time>2026-04-24T15:38:56.999Z</time></trkpt><trkpt lat="44.93728060082275" lon="7.260545048422763"><ele>952.0</ele><time>2026-04-24T15:38:57.999Z</time></trkpt><trkpt lat="44.93726281799565" lon="7.260669528291312"><ele>952.0</ele><time>2026-04-24T15:38:58.999Z</time></trkpt><trkpt lat="44.93720207165567" lon="7.260836471795626"><ele>952.0</ele><time>2026-04-24T15:39:00.999Z</time></trkpt><trkpt lat="44.93707059930189" lon="7.260656215710969"><ele>952.0</ele><time>2026-04-24T15:39:03.998Z</time></trkpt><trkpt lat="44.93697509069179" lon="7.260486929419578"><ele>952.0</ele><time>2026-04-24T15:39:04.998Z</time></trkpt><trkpt lat="44.93685818219846" lon="7.260314836376779"><ele>952.0</ele><time>2026-04-24T15:39:05.998Z</time></trkpt><trkpt lat="44.93678034796149" lon="7.260188300066554"><ele>952.0</ele><time>2026-04-24T15:39:06.998Z</time></trkpt><trkpt lat="44.93671943976023" lon="7.260045070694153"><ele>952.0</ele><time>2026-04-24T15:39:07.998Z</time></trkpt><trkpt lat="44.936665432802684" lon="7.259889927893962"><ele>943.25</ele><time>2026-04-24T15:39:08.998Z</time></trkpt><trkpt lat="44.9366377994229" lon="7.2597721305104725"><ele>934.5</ele><time>2026-04-24T15:39:09.998Z</time></trkpt><trkpt lat="44.936618322671656" lon="7.259633736569129"><ele>925.75</ele><time>2026-04-24T15:39:10.998Z</time></trkpt><trkpt lat="44.93660550813596" lon="7.25943264114078"><ele>917.0</ele><time>2026-04-24T15:39:11.998Z</time></trkpt><trkpt lat="44.936603677617" lon="7.259202303097059"><ele>917.0</ele><time>2026-04-24T15:39:12.998Z</time></trkpt><trkpt lat="44.93662525342359" lon="7.259042934286449"><ele>917.0</ele><time>2026-04-24T15:39:13.998Z</time></trkpt><trkpt lat="44.936648131021116" lon="7.258918742056551"><ele>917.0</ele><time>2026-04-24T15:39:14.998Z</time></trkpt><trkpt lat="44.93667664052171" lon="7.258803453205861"><ele>917.0</ele><time>2026-04-24T15:39:15.998Z</time></trkpt><trkpt lat="44.936738234648395" lon="7.258646209904747"><ele>917.0</ele><time>2026-04-24T15:39:16.998Z</time></trkpt><trkpt lat="44.936827664662296" lon="7.2584411211823205"><ele>916.0</ele><time>2026-04-24T15:39:17.998Z</time></trkpt><trkpt lat="44.93693623776948" lon="7.258234099020949"><ele>915.0</ele><time>2026-04-24T15:39:18.998Z</time></trkpt><trkpt lat="44.93703836556741" lon="7.258069138000618"><ele>914.0</ele><time>2026-04-24T15:39:20Z</time></trkpt><trkpt lat="44.93710497005226" lon="7.257907623455228"><ele>914.0</ele><time>2026-04-24T15:39:21Z</time></trkpt><trkpt lat="44.93714433924307" lon="7.257741373039254"><ele>914.0</ele><time>2026-04-24T15:39:22Z</time></trkpt><trkpt lat="44.93718480303712" lon="7.257550132837583"><ele>914.0</ele><time>2026-04-24T15:39:23Z</time></trkpt><trkpt lat="44.93723131970629" lon="7.257326468704064"><ele>914.0</ele><time>2026-04-24T15:39:24Z</time></trkpt><trkpt lat="44.937277698170114" lon="7.257136703900511"><ele>909.5</ele><time>2026-04-24T15:39:25Z</time></trkpt><trkpt lat="44.93731175908661" lon="7.256956807188874"><ele>905.0</ele><time>2026-04-24T15:39:26Z</time></trkpt><trkpt lat="44.93736373514923" lon="7.256804068028813"><ele>900.5</ele><time>2026-04-24T15:39:27Z</time></trkpt><trkpt lat="44.937391637421165" lon="7.256645158939344"><ele>896.0</ele><time>2026-04-24T15:39:28Z</time></trkpt><trkpt lat="44.93746229519741" lon="7.256501338148531"><ele>893.1999999999999</ele><time>2026-04-24T15:39:29Z</time></trkpt><trkpt lat="44.93747151931246" lon="7.256336090427454"><ele>890.3999999999999</ele><time>2026-04-24T15:39:30Z</time></trkpt><trkpt lat="44.93746418379135" lon="7.256189260382778"><ele>887.6</ele><time>2026-04-24T15:39:31Z</time></trkpt><trkpt lat="44.93745323316371" lon="7.256090034612102"><ele>884.8</ele><time>2026-04-24T15:39:32Z</time></trkpt><trkpt lat="44.93731301317402" lon="7.2561220778299225"><ele>882.0</ele><time>2026-04-24T15:39:35Z</time></trkpt><trkpt lat="44.93723283159232" lon="7.256277540586856"><ele>882.0</ele><time>2026-04-24T15:39:36Z</time></trkpt><trkpt lat="44.93719657369619" lon="7.256414788966609"><ele>882.0</ele><time>2026-04-24T15:39:37Z</time></trkpt><trkpt lat="44.93716284276881" lon="7.256533847373675"><ele>882.0</ele><time>2026-04-24T15:39:38Z</time></trkpt><trkpt lat="44.937127313241604" lon="7.256646287167573"><ele>882.0</ele><time>2026-04-24T15:39:39Z</time></trkpt><trkpt lat="44.937094505410016" lon="7.256746960307646"><ele>882.0</ele><time>2026-04-24T15:39:40Z</time></trkpt><trkpt lat="44.93704025952555" lon="7.256875152454829"><ele>885.5</ele><time>2026-04-24T15:39:41Z</time></trkpt><trkpt lat="44.93698583753318" lon="7.256976573848495"><ele>889.0</ele><time>2026-04-24T15:39:42Z</time></trkpt><trkpt lat="44.93696604543623" lon="7.257161386957453"><ele>892.5</ele><time>2026-04-24T15:39:43Z</time></trkpt><trkpt lat="44.93687636032632" lon="7.257260230766491"><ele>896.0</ele><time>2026-04-24T15:39:44Z</time></trkpt><trkpt lat="44.936768583063596" lon="7.257333184886062"><ele>890.8</ele><time>2026-04-24T15:39:45Z</time></trkpt><trkpt lat="44.93667949287018" lon="7.257391417001864"><ele>885.5999999999999</ele><time>2026-04-24T15:39:46Z</time></trkpt><trkpt lat="44.93658251486859" lon="7.25744029380986"><ele>880.4</ele><time>2026-04-24T15:39:47Z</time></trkpt><trkpt lat="44.93648252036644" lon="7.257466117073497"><ele>875.2</ele><time>2026-04-24T15:39:48Z</time></trkpt><trkpt lat="44.93641372156121" lon="7.257535450417325"><ele>870.0</ele><time>2026-04-24T15:39:49Z</time></trkpt><trkpt lat="44.93635143945018" lon="7.257611901231859"><ele>870.0</ele><time>2026-04-24T15:39:51Z</time></trkpt><trkpt lat="44.936289649283204" lon="7.2574755650014255"><ele>870.0</ele><time>2026-04-24T15:39:53Z</time></trkpt><trkpt lat="44.9363102629635" lon="7.25735401176738"><ele>870.0</ele><time>2026-04-24T15:39:54Z</time></trkpt><trkpt lat="44.93636617880333" lon="7.2572046211561165"><ele>870.0</ele><time>2026-04-24T15:39:55Z</time></trkpt><trkpt lat="44.93640422000283" lon="7.257080188058566"><ele>870.0</ele><time>2026-04-24T15:39:56Z</time></trkpt><trkpt lat="44.93644419906651" lon="7.256944986173603"><ele>867.6</ele><time>2026-04-24T15:39:57Z</time></trkpt><trkpt lat="44.9364732297738" lon="7.256777491150599"><ele>865.2</ele><time>2026-04-24T15:39:58Z</time></trkpt><trkpt lat="44.93650309984368" lon="7.256634087557937"><ele>862.8</ele><time>2026-04-24T15:39:59Z</time></trkpt><trkpt lat="44.93654265611454" lon="7.256483980577564"><ele>860.4</ele><time>2026-04-24T15:40:00Z</time></trkpt><trkpt lat="44.936570444642186" lon="7.256338575118746"><ele>858.0</ele><time>2026-04-24T15:40:01Z</time></trkpt><trkpt lat="44.93661157328813" lon="7.2561822853510956"><ele>855.75</ele><time>2026-04-24T15:40:02Z</time></trkpt><trkpt lat="44.93662425518969" lon="7.256019874664441"><ele>853.5</ele><time>2026-04-24T15:40:03Z</time></trkpt><trkpt lat="44.936621064422006" lon="7.255850887910698"><ele>851.25</ele><time>2026-04-24T15:40:04Z</time></trkpt><trkpt lat="44.93660778087854" lon="7.2556826063189"><ele>849.0</ele><time>2026-04-24T15:40:05Z</time></trkpt><trkpt lat="44.936604008362124" lon="7.255519963205718"><ele>847.75</ele><time>2026-04-24T15:40:06Z</time></trkpt><trkpt lat="44.93658758444439" lon="7.255367433186121"><ele>846.5</ele><time>2026-04-24T15:40:07Z</time></trkpt><trkpt lat="44.93653429325948" lon="7.255212925761293"><ele>845.25</ele><time>2026-04-24T15:40:08Z</time></trkpt><trkpt lat="44.93646097959603" lon="7.255045484232192"><ele>844.0</ele><time>2026-04-24T15:40:09Z</time></trkpt><trkpt lat="44.93639496864299" lon="7.254855259224255"><ele>842.0</ele><time>2026-04-24T15:40:10Z</time></trkpt><trkpt lat="44.93635049833003" lon="7.254683007701431"><ele>840.0</ele><time>2026-04-24T15:40:11Z</time></trkpt><trkpt lat="44.93630180229677" lon="7.254541968755289"><ele>838.0</ele><time>2026-04-24T15:40:12Z</time></trkpt><trkpt lat="44.93627452795006" lon="7.254454329221544"><ele>836.0</ele><time>2026-04-24T15:40:13Z</time></trkpt><trkpt lat="44.936278210792466" lon="7.254348252669744"><ele>834.0</ele><time>2026-04-24T15:40:14Z</time></trkpt><trkpt lat="44.93630749292886" lon="7.254217313207114"><ele>834.0</ele><time>2026-04-24T15:40:15Z</time></trkpt><trkpt lat="44.93634308904287" lon="7.254086671144202"><ele>834.0</ele><time>2026-04-24T15:40:16Z</time></trkpt><trkpt lat="44.936370407647345" lon="7.2539785454022665"><ele>834.0</ele><time>2026-04-24T15:40:17Z</time></trkpt><trkpt lat="44.936337387696874" lon="7.253877939527146"><ele>834.0</ele><time>2026-04-24T15:40:19Z</time></trkpt><trkpt lat="44.93625105037186" lon="7.253886567032135"><ele>834.0</ele><time>2026-04-24T15:40:20.999Z</time></trkpt><trkpt lat="44.93620011098003" lon="7.253988220950292"><ele>834.0</ele><time>2026-04-24T15:40:22.999Z</time></trkpt><trkpt lat="44.93613677354391" lon="7.254146066488225"><ele>834.0</ele><time>2026-04-24T15:40:24.999Z</time></trkpt><trkpt lat="44.93610257088036" lon="7.254246614595022"><ele>834.0</ele><time>2026-04-24T15:40:25.999Z</time></trkpt><trkpt lat="44.936075582554636" lon="7.254339259778581"><ele>834.0</ele><time>2026-04-24T15:40:26.999Z</time></trkpt><trkpt lat="44.93604065223421" lon="7.254460251770502"><ele>834.0</ele><time>2026-04-24T15:40:28.999Z</time></trkpt><trkpt lat="44.935996966931086" lon="7.254604255151911"><ele>834.0</ele><time>2026-04-24T15:40:30.999Z</time></trkpt><trkpt lat="44.935946008235646" lon="7.254748662722742"><ele>835.6666666666666</ele><time>2026-04-24T15:40:32.999Z</time></trkpt><trkpt lat="44.93594270523641" lon="7.254908320122794"><ele>837.3333333333333</ele><time>2026-04-24T15:40:34.999Z</time></trkpt><trkpt lat="44.93597658273227" lon="7.254986917152668"><ele>839.0</ele><time>2026-04-24T15:40:35.999Z</time></trkpt><trkpt lat="44.93601814694701" lon="7.255056921830303"><ele>840.6666666666666</ele><time>2026-04-24T15:40:36.999Z</time></trkpt><trkpt lat="44.936050591547826" lon="7.255140435890419"><ele>842.3333333333333</ele><time>2026-04-24T15:40:37.999Z</time></trkpt><trkpt lat="44.936095331289785" lon="7.255212069878915"><ele>844.0</ele><time>2026-04-24T15:40:38.999Z</time></trkpt><trkpt lat="44.93613104369895" lon="7.2553526804822335"><ele>844.0</ele><time>2026-04-24T15:40:40.999Z</time></trkpt><trkpt lat="44.936031789556175" lon="7.255425424174619"><ele>844.0</ele><time>2026-04-24T15:40:42.999Z</time></trkpt><trkpt lat="44.93592996404925" lon="7.25536727016296"><ele>844.0</ele><time>2026-04-24T15:40:44.999Z</time></trkpt><trkpt lat="44.93589933289873" lon="7.255268259354771"><ele>844.0</ele><time>2026-04-24T15:40:45.999Z</time></trkpt><trkpt lat="44.935875741403315" lon="7.255164542163913"><ele>844.0</ele><time>2026-04-24T15:40:46.999Z</time></trkpt><trkpt lat="44.93583259731209" lon="7.255067397314398"><ele>837.9999999999999</ele><time>2026-04-24T15:40:47.999Z</time></trkpt><trkpt lat="44.935787566682464" lon="7.2549658373094035"><ele>832.0</ele><time>2026-04-24T15:40:48.999Z</time></trkpt><trkpt lat="44.93575580843243" lon="7.254851632157814"><ele>826.0</ele><time>2026-04-24T15:40:49.999Z</time></trkpt><trkpt lat="44.935744773787185" lon="7.254737349191221"><ele>820.0</ele><time>2026-04-24T15:40:50.999Z</time></trkpt><trkpt lat="44.93576339916123" lon="7.2546165695949645"><ele>813.9999999999999</ele><time>2026-04-24T15:40:51.999Z</time></trkpt><trkpt lat="44.935786987669715" lon="7.254497276774905"><ele>808.0</ele><time>2026-04-24T15:40:52.999Z</time></trkpt><trkpt lat="44.93580520488305" lon="7.2543704729276515"><ele>807.0</ele><time>2026-04-24T15:40:53.999Z</time></trkpt><trkpt lat="44.93582313719108" lon="7.254242048160524"><ele>806.0</ele><time>2026-04-24T15:40:54.999Z</time></trkpt><trkpt lat="44.93583312230832" lon="7.254107746398294"><ele>805.0</ele><time>2026-04-24T15:40:55.999Z</time></trkpt><trkpt lat="44.935800001565354" lon="7.253983103324789"><ele>804.0</ele><time>2026-04-24T15:40:56.999Z</time></trkpt><trkpt lat="44.93574207942806" lon="7.2538621287650615"><ele>803.0</ele><time>2026-04-24T15:40:57.999Z</time></trkpt><trkpt lat="44.935644079162564" lon="7.253774288277951"><ele>801.4</ele><time>2026-04-24T15:40:58.999Z</time></trkpt><trkpt lat="44.93557969025414" lon="7.253689489490542"><ele>799.8</ele><time>2026-04-24T15:40:59.999Z</time></trkpt><trkpt lat="44.935525446589395" lon="7.253595442640804"><ele>798.2</ele><time>2026-04-24T15:41:00.999Z</time></trkpt><trkpt lat="44.93549797028072" lon="7.253484318565141"><ele>796.6</ele><time>2026-04-24T15:41:01.999Z</time></trkpt><trkpt lat="44.935509124627494" lon="7.25335755421507"><ele>795.0</ele><time>2026-04-24T15:41:02.999Z</time></trkpt><trkpt lat="44.93558240501019" lon="7.253249527523329"><ele>795.0</ele><time>2026-04-24T15:41:03.999Z</time></trkpt><trkpt lat="44.93560916145353" lon="7.253131589716074"><ele>795.0</ele><time>2026-04-24T15:41:04.999Z</time></trkpt><trkpt lat="44.93564536644686" lon="7.253030655969503"><ele>795.0</ele><time>2026-04-24T15:41:05.999Z</time></trkpt><trkpt lat="44.93573229270172" lon="7.252997679736797"><ele>795.0</ele><time>2026-04-24T15:41:06.998Z</time></trkpt><trkpt lat="44.93581464034723" lon="7.253010997172509"><ele>795.0</ele><time>2026-04-24T15:41:07.998Z</time></trkpt><trkpt lat="44.93588557326578" lon="7.253053066880725"><ele>795.0</ele><time>2026-04-24T15:41:08.998Z</time></trkpt><trkpt lat="44.93595641183478" lon="7.253054684434348"><ele>793.8333333333334</ele><time>2026-04-24T15:41:09.998Z</time></trkpt><trkpt lat="44.93604598169844" lon="7.2530516954254844"><ele>792.6666666666667</ele><time>2026-04-24T15:41:10.998Z</time></trkpt><trkpt lat="44.93611025927077" lon="7.252977074107955"><ele>791.5</ele><time>2026-04-24T15:41:12.998Z</time></trkpt><trkpt lat="44.93611687218003" lon="7.252866889230131"><ele>790.3333333333334</ele><time>2026-04-24T15:41:14.998Z</time></trkpt><trkpt lat="44.936074796032116" lon="7.252793420048871"><ele>789.1666666666667</ele><time>2026-04-24T15:41:15.998Z</time></trkpt><trkpt lat="44.93601785808623" lon="7.2527446675893685"><ele>788.0</ele><time>2026-04-24T15:41:16.998Z</time></trkpt><trkpt lat="44.93593510469347" lon="7.2527861800420474"><ele>785.5000000000001</ele><time>2026-04-24T15:41:17.998Z</time></trkpt><trkpt lat="44.9358280955093" lon="7.252737261801226"><ele>783.0</ele><time>2026-04-24T15:41:19.998Z</time></trkpt><trkpt lat="44.93576363943619" lon="7.252698037934567"><ele>780.5</ele><time>2026-04-24T15:41:20.998Z</time></trkpt><trkpt lat="44.93569932681319" lon="7.252656813082897"><ele>778.0</ele><time>2026-04-24T15:41:21.998Z</time></trkpt><trkpt lat="44.93562800978349" lon="7.252620644862173"><ele>775.5000000000001</ele><time>2026-04-24T15:41:22.998Z</time></trkpt><trkpt lat="44.93555153905507" lon="7.252582440402996"><ele>773.0</ele><time>2026-04-24T15:41:23.998Z</time></trkpt><trkpt lat="44.93547626518439" lon="7.252517535635083"><ele>773.0</ele><time>2026-04-24T15:41:24.998Z</time></trkpt><trkpt lat="44.93538440702548" lon="7.252516695905469"><ele>773.0</ele><time>2026-04-24T15:41:26Z</time></trkpt><trkpt lat="44.93529357465041" lon="7.252508265605983"><ele>773.0</ele><time>2026-04-24T15:41:27Z</time></trkpt><trkpt lat="44.93519659373407" lon="7.252530718083375"><ele>773.0</ele><time>2026-04-24T15:41:28Z</time></trkpt><trkpt lat="44.93510121677075" lon="7.252554086643634"><ele>773.0</ele><time>2026-04-24T15:41:29Z</time></trkpt><trkpt lat="44.935002338519155" lon="7.252564364213957"><ele>771.8333333333334</ele><time>2026-04-24T15:41:30Z</time></trkpt><trkpt lat="44.93490448214536" lon="7.252549891262588"><ele>770.6666666666667</ele><time>2026-04-24T15:41:31Z</time></trkpt><trkpt lat="44.934804687001616" lon="7.252563081687114"><ele>769.5</ele><time>2026-04-24T15:41:32Z</time></trkpt><trkpt lat="44.93473456354655" lon="7.252576945823054"><ele>768.3333333333334</ele><time>2026-04-24T15:41:33Z</time></trkpt><trkpt lat="44.93466850917865" lon="7.252622658398283"><ele>767.1666666666667</ele><time>2026-04-24T15:41:34Z</time></trkpt><trkpt lat="44.93463388323514" lon="7.252727365319091"><ele>766.0</ele><time>2026-04-24T15:41:35Z</time></trkpt><trkpt lat="44.93460878024512" lon="7.252814870597237"><ele>766.0</ele><time>2026-04-24T15:41:36Z</time></trkpt><trkpt lat="44.934651389597015" lon="7.252923115119568"><ele>766.0</ele><time>2026-04-24T15:41:37Z</time></trkpt><trkpt lat="44.934691176248975" lon="7.252996612114848"><ele>766.0</ele><time>2026-04-24T15:41:38Z</time></trkpt><trkpt lat="44.93475108270254" lon="7.253142443061484"><ele>766.0</ele><time>2026-04-24T15:41:40Z</time></trkpt><trkpt lat="44.9347737232449" lon="7.25329509068841"><ele>766.0</ele><time>2026-04-24T15:41:42Z</time></trkpt><trkpt lat="44.93477853049427" lon="7.253452109189709"><ele>765.0</ele><time>2026-04-24T15:41:44Z</time></trkpt><trkpt lat="44.934789091157576" lon="7.253604093529761"><ele>764.0</ele><time>2026-04-24T15:41:46Z</time></trkpt><trkpt lat="44.934829282752986" lon="7.25374520178813"><ele>763.0</ele><time>2026-04-24T15:41:48Z</time></trkpt><trkpt lat="44.93489023304183" lon="7.253854463326926"><ele>762.0</ele><time>2026-04-24T15:41:50Z</time></trkpt><trkpt lat="44.93494217344922" lon="7.253928147720639"><ele>761.0</ele><time>2026-04-24T15:41:59Z</time></trkpt><trkpt lat="44.93500465253032" lon="7.254015605514897"><ele>769.4</ele><time>2026-04-24T15:42:02Z</time></trkpt><trkpt lat="44.93505461879484" lon="7.2540874349888025"><ele>777.8</ele><time>2026-04-24T15:42:04Z</time></trkpt><trkpt lat="44.935134259831486" lon="7.25413558789931"><ele>786.1999999999999</ele><time>2026-04-24T15:42:06Z</time></trkpt><trkpt lat="44.935189094121625" lon="7.254232022692571"><ele>794.5999999999999</ele><time>2026-04-24T15:42:08Z</time></trkpt><trkpt lat="44.93519342662988" lon="7.2543742915809935"><ele>803.0</ele><time>2026-04-24T15:42:10Z</time></trkpt><trkpt lat="44.935163786339565" lon="7.254518340297217"><ele>803.0</ele><time>2026-04-24T15:42:12Z</time></trkpt><trkpt lat="44.93513459171543" lon="7.254655233951892"><ele>803.0</ele><time>2026-04-24T15:42:14Z</time></trkpt><trkpt lat="44.93515204192327" lon="7.254826455271461"><ele>803.0</ele><time>2026-04-24T15:42:16Z</time></trkpt><trkpt lat="44.93516288510582" lon="7.254937747083385"><ele>803.0</ele><time>2026-04-24T15:42:17Z</time></trkpt><trkpt lat="44.93511144059482" lon="7.255039253607071"><ele>803.0</ele><time>2026-04-24T15:42:19Z</time></trkpt><trkpt lat="44.93504480554064" lon="7.25505682721204"><ele>794.2</ele><time>2026-04-24T15:42:20Z</time></trkpt><trkpt lat="44.93496121477772" lon="7.255186631537411"><ele>785.4</ele><time>2026-04-24T15:42:22Z</time></trkpt><trkpt lat="44.934930840418204" lon="7.255268932216027"><ele>776.6</ele><time>2026-04-24T15:42:23Z</time></trkpt><trkpt lat="44.934851792430266" lon="7.255332095964053"><ele>767.8000000000001</ele><time>2026-04-24T15:42:24.999Z</time></trkpt><trkpt lat="44.9348198793912" lon="7.255241803947305"><ele>759.0</ele><time>2026-04-24T15:42:26.999Z</time></trkpt><trkpt lat="44.934887802010195" lon="7.255113479223727"><ele>759.0</ele><time>2026-04-24T15:42:28.999Z</time></trkpt><trkpt lat="44.93496878904756" lon="7.254992715795538"><ele>759.0</ele><time>2026-04-24T15:42:30.999Z</time></trkpt><trkpt lat="44.93500306534343" lon="7.254915065130875"><ele>759.0</ele><time>2026-04-24T15:42:31.999Z</time></trkpt><trkpt lat="44.93503003620667" lon="7.2548284200937765"><ele>759.0</ele><time>2026-04-24T15:42:32.999Z</time></trkpt><trkpt lat="44.93502176745893" lon="7.254724345779808"><ele>759.0</ele><time>2026-04-24T15:42:33.999Z</time></trkpt><trkpt lat="44.93498736260454" lon="7.254626765980762"><ele>759.0</ele><time>2026-04-24T15:42:34.999Z</time></trkpt><trkpt lat="44.934952187031975" lon="7.254533574586331"><ele>759.3333333333334</ele><time>2026-04-24T15:42:35.999Z</time></trkpt><trkpt lat="44.93491997549986" lon="7.254433902621633"><ele>759.6666666666666</ele><time>2026-04-24T15:42:36.999Z</time></trkpt><trkpt lat="44.93487284296202" lon="7.2543395576099945"><ele>760.0</ele><time>2026-04-24T15:42:37.999Z</time></trkpt><trkpt lat="44.934807116815904" lon="7.25426174791326"><ele>760.3333333333333</ele><time>2026-04-24T15:42:38.999Z</time></trkpt><trkpt lat="44.934726611891236" lon="7.254208373466441"><ele>760.6666666666666</ele><time>2026-04-24T15:42:39.999Z</time></trkpt><trkpt lat="44.93465049754835" lon="7.254153416594687"><ele>761.0</ele><time>2026-04-24T15:42:40.999Z</time></trkpt><trkpt lat="44.93458045832551" lon="7.254080075086367"><ele>761.0</ele><time>2026-04-24T15:42:41.999Z</time></trkpt><trkpt lat="44.93451692721283" lon="7.253989615929484"><ele>761.0</ele><time>2026-04-24T15:42:42.999Z</time></trkpt><trkpt lat="44.93445865781228" lon="7.253889919467547"><ele>761.0</ele><time>2026-04-24T15:42:43.999Z</time></trkpt><trkpt lat="44.934405917790016" lon="7.2537767263540065"><ele>761.0</ele><time>2026-04-24T15:42:44.999Z</time></trkpt><trkpt lat="44.93435474739607" lon="7.253659219916834"><ele>761.0</ele><time>2026-04-24T15:42:45.999Z</time></trkpt><trkpt lat="44.93429649691917" lon="7.253546190849196"><ele>763.1999999999999</ele><time>2026-04-24T15:42:46.999Z</time></trkpt><trkpt lat="44.934233414187645" lon="7.253431977436648"><ele>765.4</ele><time>2026-04-24T15:42:47.999Z</time></trkpt><trkpt lat="44.93416693598283" lon="7.2533218562925095"><ele>767.6</ele><time>2026-04-24T15:42:48.999Z</time></trkpt><trkpt lat="44.93409239530274" lon="7.253220879753216"><ele>769.8</ele><time>2026-04-24T15:42:49.999Z</time></trkpt><trkpt lat="44.93400865145746" lon="7.253127318381595"><ele>772.0</ele><time>2026-04-24T15:42:50.999Z</time></trkpt><trkpt lat="44.933922026724" lon="7.25303327857886"><ele>765.25</ele><time>2026-04-24T15:42:51.999Z</time></trkpt><trkpt lat="44.933834369460975" lon="7.252931098268053"><ele>758.5</ele><time>2026-04-24T15:42:52.999Z</time></trkpt><trkpt lat="44.93374715838201" lon="7.252820143871148"><ele>751.75</ele><time>2026-04-24T15:42:53.999Z</time></trkpt><trkpt lat="44.9336524467353" lon="7.252718496983114"><ele>745.0</ele><time>2026-04-24T15:42:54.999Z</time></trkpt><trkpt lat="44.93355398230815" lon="7.252616572019308"><ele>745.0</ele><time>2026-04-24T15:42:55.999Z</time></trkpt><trkpt lat="44.93345615997543" lon="7.252509495012542"><ele>745.0</ele><time>2026-04-24T15:42:56.999Z</time></trkpt><trkpt lat="44.9333583381753" lon="7.2524016835233525"><ele>745.0</ele><time>2026-04-24T15:42:57.999Z</time></trkpt><trkpt lat="44.9332705634525" lon="7.252310156918116"><ele>745.0</ele><time>2026-04-24T15:42:58.999Z</time></trkpt><trkpt lat="44.933190777520785" lon="7.252240264926971"><ele>739.3333333333334</ele><time>2026-04-24T15:42:59.999Z</time></trkpt><trkpt lat="44.933126130892944" lon="7.2521530472922935"><ele>733.6666666666667</ele><time>2026-04-24T15:43:00.999Z</time></trkpt><trkpt lat="44.93309980311005" lon="7.252041443875979"><ele>728.0</ele><time>2026-04-24T15:43:01.999Z</time></trkpt><trkpt lat="44.93312824550818" lon="7.251948942288045"><ele>722.3333333333334</ele><time>2026-04-24T15:43:02.999Z</time></trkpt><trkpt lat="44.93320871539974" lon="7.251903877084416"><ele>716.6666666666666</ele><time>2026-04-24T15:43:03.999Z</time></trkpt><trkpt lat="44.933267964592694" lon="7.251841364071533"><ele>711.0</ele><time>2026-04-24T15:43:04.999Z</time></trkpt><trkpt lat="44.93332764475272" lon="7.251786242006848"><ele>711.0</ele><time>2026-04-24T15:43:05.999Z</time></trkpt><trkpt lat="44.93338721777092" lon="7.251743620688077"><ele>711.0</ele><time>2026-04-24T15:43:06.999Z</time></trkpt><trkpt lat="44.93344888952701" lon="7.251709289996936"><ele>711.0</ele><time>2026-04-24T15:43:07.999Z</time></trkpt><trkpt lat="44.93352848386639" lon="7.251668167244487"><ele>711.0</ele><time>2026-04-24T15:43:12.998Z</time></trkpt><trkpt lat="44.93345531869242" lon="7.251625337144877"><ele>711.0</ele><time>2026-04-24T15:45:03.999Z</time></trkpt><trkpt lat="44.93353438880127" lon="7.251581428159055"><ele>711.0</ele><time>2026-04-24T15:45:28.998Z</time></trkpt><trkpt lat="44.93360538771394" lon="7.251560311363091"><ele>712.1999999999999</ele><time>2026-04-24T15:45:30.998Z</time></trkpt><trkpt lat="44.93370260743732" lon="7.251494722738482"><ele>713.4</ele><time>2026-04-24T15:45:32.998Z</time></trkpt><trkpt lat="44.93372871901678" lon="7.251324400579133"><ele>714.6</ele><time>2026-04-24T15:45:34.998Z</time></trkpt><trkpt lat="44.9337482100306" lon="7.251213511873932"><ele>715.8</ele><time>2026-04-24T15:45:35.998Z</time></trkpt><trkpt lat="44.933729653701334" lon="7.251119782879996"><ele>717.0</ele><time>2026-04-24T15:45:36.998Z</time></trkpt><trkpt lat="44.9336984477196" lon="7.251028514892201"><ele>717.0</ele><time>2026-04-24T15:45:38Z</time></trkpt><trkpt lat="44.93368330853803" lon="7.250938750127574"><ele>717.0</ele><time>2026-04-24T15:45:39Z</time></trkpt><trkpt lat="44.93367784841827" lon="7.25083526083533"><ele>717.0</ele><time>2026-04-24T15:45:40Z</time></trkpt><trkpt lat="44.933687223304084" lon="7.250724043617326"><ele>717.0</ele><time>2026-04-24T15:45:41Z</time></trkpt><trkpt lat="44.93370548700579" lon="7.250624335247266"><ele>717.0</ele><time>2026-04-24T15:45:42Z</time></trkpt><trkpt lat="44.93372265980046" lon="7.250505018616509"><ele>717.0</ele><time>2026-04-24T15:45:43Z</time></trkpt><trkpt lat="44.93379000722594" lon="7.250404214699018"><ele>713.3333333333334</ele><time>2026-04-24T15:45:44Z</time></trkpt><trkpt lat="44.933820641969184" lon="7.250323968077711"><ele>709.6666666666666</ele><time>2026-04-24T15:45:45Z</time></trkpt><trkpt lat="44.93367612509216" lon="7.2502584252499425"><ele>706.0</ele><time>2026-04-24T15:45:48Z</time></trkpt><trkpt lat="44.933631963663345" lon="7.250328419902528"><ele>702.3333333333333</ele><time>2026-04-24T15:45:49Z</time></trkpt><trkpt lat="44.933585091507624" lon="7.250391382985422"><ele>698.6666666666666</ele><time>2026-04-24T15:45:50Z</time></trkpt><trkpt lat="44.93357655930291" lon="7.250482595547708"><ele>695.0</ele><time>2026-04-24T15:45:51Z</time></trkpt><trkpt lat="44.93354971029329" lon="7.250564126284574"><ele>695.0000000000001</ele><time>2026-04-24T15:45:52Z</time></trkpt><trkpt lat="44.93352314209711" lon="7.250647444441997"><ele>695.0</ele><time>2026-04-24T15:45:53Z</time></trkpt><trkpt lat="44.93349445837244" lon="7.2507336075159845"><ele>695.0</ele><time>2026-04-24T15:45:54Z</time></trkpt><trkpt lat="44.9334664904181" lon="7.250821968678453"><ele>695.0</ele><time>2026-04-24T15:45:55Z</time></trkpt><trkpt lat="44.933440602666344" lon="7.250913605392278"><ele>695.0</ele><time>2026-04-24T15:45:56Z</time></trkpt><trkpt lat="44.93339223188698" lon="7.250986793494776"><ele>695.0000000000001</ele><time>2026-04-24T15:45:57Z</time></trkpt><trkpt lat="44.9333432554892" lon="7.251052607025722"><ele>695.0</ele><time>2026-04-24T15:45:58Z</time></trkpt><trkpt lat="44.93323575693069" lon="7.251024300012265"><ele>695.0</ele><time>2026-04-24T15:46:00Z</time></trkpt><trkpt lat="44.933171557659755" lon="7.250981089067299"><ele>695.0</ele><time>2026-04-24T15:46:01Z</time></trkpt><trkpt lat="44.933113357274536" lon="7.250937768370745"><ele>695.0</ele><time>2026-04-24T15:46:02Z</time></trkpt><trkpt lat="44.933052575840236" lon="7.250906154993527"><ele>695.0</ele><time>2026-04-24T15:46:03Z</time></trkpt><trkpt lat="44.93298575077465" lon="7.250904215678585"><ele>695.0</ele><time>2026-04-24T15:46:04Z</time></trkpt><trkpt lat="44.932873889301284" lon="7.250901526499507"><ele>695.0</ele><time>2026-04-24T15:46:06Z</time></trkpt><trkpt lat="44.93277761757027" lon="7.25088848162801"><ele>695.0</ele><time>2026-04-24T15:46:07Z</time></trkpt><trkpt lat="44.93269726601631" lon="7.2509000364160885"><ele>695.0</ele><time>2026-04-24T15:46:08Z</time></trkpt><trkpt lat="44.93262142337426" lon="7.250939087646091"><ele>695.0</ele><time>2026-04-24T15:46:09Z</time></trkpt><trkpt lat="44.9325706925862" lon="7.251024051563925"><ele>695.0</ele><time>2026-04-24T15:46:10Z</time></trkpt><trkpt lat="44.9325393213451" lon="7.251133074617083"><ele>695.0</ele><time>2026-04-24T15:46:11Z</time></trkpt><trkpt lat="44.9325242664475" lon="7.251243565332481"><ele>695.0</ele><time>2026-04-24T15:46:12Z</time></trkpt><trkpt lat="44.93250285679743" lon="7.251348144457597"><ele>693.8333333333333</ele><time>2026-04-24T15:46:13Z</time></trkpt><trkpt lat="44.93247857999332" lon="7.251446967996688"><ele>692.6666666666666</ele><time>2026-04-24T15:46:14Z</time></trkpt><trkpt lat="44.93243980682746" lon="7.251536910370556"><ele>691.5</ele><time>2026-04-24T15:46:15Z</time></trkpt><trkpt lat="44.93237832056578" lon="7.251596568882044"><ele>690.3333333333334</ele><time>2026-04-24T15:46:16Z</time></trkpt><trkpt lat="44.93231681534226" lon="7.251652719231188"><ele>689.1666666666667</ele><time>2026-04-24T15:46:17Z</time></trkpt><trkpt lat="44.93224703673032" lon="7.251727607692184"><ele>688.0</ele><time>2026-04-24T15:46:18Z</time></trkpt><trkpt lat="44.93218551012364" lon="7.251794610373382"><ele>688.0</ele><time>2026-04-24T15:46:19Z</time></trkpt><trkpt lat="44.93211903479466" lon="7.251865293669398"><ele>688.0</ele><time>2026-04-24T15:46:20Z</time></trkpt><trkpt lat="44.93205377226274" lon="7.251940943589816"><ele>688.0</ele><time>2026-04-24T15:46:21Z</time></trkpt><trkpt lat="44.93199026313966" lon="7.252003763168448"><ele>688.0</ele><time>2026-04-24T15:46:22Z</time></trkpt><trkpt lat="44.93192096393303" lon="7.252038189513466"><ele>688.0</ele><time>2026-04-24T15:46:23Z</time></trkpt><trkpt lat="44.93184757517225" lon="7.252021038288377"><ele>688.0</ele><time>2026-04-24T15:46:24Z</time></trkpt><trkpt lat="44.93178843254216" lon="7.251972137632075"><ele>688.0</ele><time>2026-04-24T15:46:25Z</time></trkpt><trkpt lat="44.93166888052808" lon="7.251815136028339"><ele>688.0</ele><time>2026-04-24T15:46:27Z</time></trkpt><trkpt lat="44.93172422411625" lon="7.251735498718362"><ele>688.0</ele><time>2026-04-24T15:46:28Z</time></trkpt><trkpt lat="44.931698555770524" lon="7.251654264482495"><ele>688.0</ele><time>2026-04-24T15:46:29Z</time></trkpt><trkpt lat="44.931896910697546" lon="7.2515420268425155"><ele>685.25</ele><time>2026-04-24T15:46:30Z</time></trkpt><trkpt lat="44.93201474816567" lon="7.251437746090025"><ele>682.5</ele><time>2026-04-24T15:46:31Z</time></trkpt><trkpt lat="44.93210815152166" lon="7.251340890494854"><ele>679.75</ele><time>2026-04-24T15:46:31.999Z</time></trkpt><trkpt lat="44.9321818406489" lon="7.251213935714966"><ele>677.0</ele><time>2026-04-24T15:46:32.999Z</time></trkpt><trkpt lat="44.93218358395417" lon="7.251071332562841"><ele>677.0</ele><time>2026-04-24T15:46:33.999Z</time></trkpt><trkpt lat="44.93213923606848" lon="7.2509467123450735"><ele>677.0</ele><time>2026-04-24T15:46:34.999Z</time></trkpt><trkpt lat="44.93208985455544" lon="7.25083991972096"><ele>677.0</ele><time>2026-04-24T15:46:35.999Z</time></trkpt><trkpt lat="44.93205857641208" lon="7.250720042852104"><ele>677.0</ele><time>2026-04-24T15:46:36.999Z</time></trkpt><trkpt lat="44.93204348862585" lon="7.250604802794479"><ele>677.0</ele><time>2026-04-24T15:46:37.999Z</time></trkpt><trkpt lat="44.93204753737571" lon="7.250479736243448"><ele>674.6</ele><time>2026-04-24T15:46:38.999Z</time></trkpt><trkpt lat="44.9320544820592" lon="7.250344275540248"><ele>672.2</ele><time>2026-04-24T15:46:39.999Z</time></trkpt><trkpt lat="44.93212401329205" lon="7.250258195411467"><ele>669.8</ele><time>2026-04-24T15:46:40.999Z</time></trkpt><trkpt lat="44.932175915874026" lon="7.250140286297753"><ele>667.4</ele><time>2026-04-24T15:46:41.999Z</time></trkpt><trkpt lat="44.9322284535732" lon="7.2500168154504"><ele>665.0</ele><time>2026-04-24T15:46:42.999Z</time></trkpt><trkpt lat="44.932276347057666" lon="7.249897364852926"><ele>661.8</ele><time>2026-04-24T15:46:43.999Z</time></trkpt><trkpt lat="44.93233397845583" lon="7.249789505222728"><ele>658.6</ele><time>2026-04-24T15:46:44.999Z</time></trkpt><trkpt lat="44.93240261805814" lon="7.249701392019922"><ele>655.4000000000001</ele><time>2026-04-24T15:46:45.999Z</time></trkpt><trkpt lat="44.932489588318106" lon="7.249613640455092"><ele>652.2</ele><time>2026-04-24T15:46:46.999Z</time></trkpt><trkpt lat="44.932552059065394" lon="7.249518794419403"><ele>649.0</ele><time>2026-04-24T15:46:47.999Z</time></trkpt><trkpt lat="44.93253719370747" lon="7.249360269599555"><ele>649.0</ele><time>2026-04-24T15:46:49.999Z</time></trkpt><trkpt lat="44.9324653499741" lon="7.249307122200144"><ele>649.0</ele><time>2026-04-24T15:46:50.999Z</time></trkpt><trkpt lat="44.93238217340099" lon="7.249313363708499"><ele>649.0</ele><time>2026-04-24T15:46:51.999Z</time></trkpt><trkpt lat="44.93226214693258" lon="7.2493939953535085"><ele>649.0</ele><time>2026-04-24T15:46:52.999Z</time></trkpt><trkpt lat="44.932190463548885" lon="7.249427209236758"><ele>649.0</ele><time>2026-04-24T15:46:53.999Z</time></trkpt><trkpt lat="44.932128540127955" lon="7.249515482722285"><ele>649.0</ele><time>2026-04-24T15:46:54.999Z</time></trkpt><trkpt lat="44.93208968937535" lon="7.249614344909242"><ele>649.0</ele><time>2026-04-24T15:46:55.999Z</time></trkpt><trkpt lat="44.93204166983477" lon="7.2496987886453255"><ele>649.0</ele><time>2026-04-24T15:46:56.999Z</time></trkpt><trkpt lat="44.932003467931665" lon="7.249787056218087"><ele>649.0</ele><time>2026-04-24T15:46:57.999Z</time></trkpt><trkpt lat="44.931953956006346" lon="7.249863909356108"><ele>649.0</ele><time>2026-04-24T15:46:58.999Z</time></trkpt><trkpt lat="44.931928899291606" lon="7.249958258034433"><ele>649.0</ele><time>2026-04-24T15:46:59.999Z</time></trkpt><trkpt lat="44.93187754170151" lon="7.250038581377052"><ele>649.4285714285713</ele><time>2026-04-24T15:47:00.999Z</time></trkpt><trkpt lat="44.93183666547339" lon="7.250116688604482"><ele>649.8571428571429</ele><time>2026-04-24T15:47:01.999Z</time></trkpt><trkpt lat="44.93180118892766" lon="7.250196851191587"><ele>650.2857142857142</ele><time>2026-04-24T15:47:02.999Z</time></trkpt><trkpt lat="44.93177941675516" lon="7.250282314863078"><ele>650.7142857142857</ele><time>2026-04-24T15:47:03.999Z</time></trkpt><trkpt lat="44.93173864777716" lon="7.250362158343398"><ele>651.1428571428571</ele><time>2026-04-24T15:47:04.999Z</time></trkpt><trkpt lat="44.93170033547623" lon="7.250444452150029"><ele>651.5714285714286</ele><time>2026-04-24T15:47:05.999Z</time></trkpt><trkpt lat="44.93167270204523" lon="7.250540026098688"><ele>652.0</ele><time>2026-04-24T15:47:06.999Z</time></trkpt><trkpt lat="44.93164111837024" lon="7.2506901137549935"><ele>652.0</ele><time>2026-04-24T15:47:08.999Z</time></trkpt><trkpt lat="44.93159134775258" lon="7.250775866294955"><ele>652.0</ele><time>2026-04-24T15:47:10.999Z</time></trkpt><trkpt lat="44.93151083081644" lon="7.250778815442738"><ele>652.0</ele><time>2026-04-24T15:47:12.999Z</time></trkpt><trkpt lat="44.93140810165372" lon="7.250744931273631"><ele>652.0</ele><time>2026-04-24T15:47:14.999Z</time></trkpt><trkpt lat="44.93129519744178" lon="7.2507304938865405"><ele>652.0</ele><time>2026-04-24T15:47:16.999Z</time></trkpt><trkpt lat="44.931176618988886" lon="7.250698004422826"><ele>652.0</ele><time>2026-04-24T15:47:18.999Z</time></trkpt><trkpt lat="44.93111351686754" lon="7.250686784343356"><ele>652.0</ele><time>2026-04-24T15:47:19.998Z</time></trkpt><trkpt lat="44.93104866646742" lon="7.250680805552479"><ele>652.0</ele><time>2026-04-24T15:47:20.998Z</time></trkpt><trkpt lat="44.930980509144135" lon="7.250685724417649"><ele>652.0</ele><time>2026-04-24T15:47:21.998Z</time></trkpt><trkpt lat="44.930909665607054" lon="7.250711856121373"><ele>652.0</ele><time>2026-04-24T15:47:22.998Z</time></trkpt><trkpt lat="44.9308464315254" lon="7.250771433773389"><ele>652.0</ele><time>2026-04-24T15:47:23.998Z</time></trkpt><trkpt lat="44.93078798466176" lon="7.250849690432265"><ele>652.0</ele><time>2026-04-24T15:47:24.998Z</time></trkpt><trkpt lat="44.93072361067435" lon="7.250923408843485"><ele>649.1666666666667</ele><time>2026-04-24T15:47:25.998Z</time></trkpt><trkpt lat="44.930651953710736" lon="7.250968752001049"><ele>646.3333333333334</ele><time>2026-04-24T15:47:26.998Z</time></trkpt><trkpt lat="44.930584752122584" lon="7.250988056535531"><ele>643.5</ele><time>2026-04-24T15:47:27.998Z</time></trkpt><trkpt lat="44.93051450066207" lon="7.250921758491833"><ele>640.6666666666666</ele><time>2026-04-24T15:47:28.998Z</time></trkpt><trkpt lat="44.930471259918434" lon="7.250812646044757"><ele>637.8333333333333</ele><time>2026-04-24T15:47:29.998Z</time></trkpt><trkpt lat="44.93039942884916" lon="7.25076028732704"><ele>635.0</ele><time>2026-04-24T15:47:30.998Z</time></trkpt><trkpt lat="44.93033064034711" lon="7.250683860845059"><ele>633.6666666666666</ele><time>2026-04-24T15:47:31.998Z</time></trkpt><trkpt lat="44.930259505785585" lon="7.250605702992494"><ele>632.3333333333333</ele><time>2026-04-24T15:47:32.998Z</time></trkpt><trkpt lat="44.93018472056994" lon="7.250532555887271"><ele>631.0</ele><time>2026-04-24T15:47:33.998Z</time></trkpt><trkpt lat="44.9301084263446" lon="7.250453578793748"><ele>629.6666666666666</ele><time>2026-04-24T15:47:34.998Z</time></trkpt><trkpt lat="44.93004243201181" lon="7.250383992713887"><ele>628.3333333333334</ele><time>2026-04-24T15:47:35.998Z</time></trkpt><trkpt lat="44.92997209600289" lon="7.25032549922212"><ele>627.0</ele><time>2026-04-24T15:47:36.998Z</time></trkpt><trkpt lat="44.92988690174296" lon="7.250293142792477"><ele>626.4</ele><time>2026-04-24T15:47:37.998Z</time></trkpt><trkpt lat="44.92978761166415" lon="7.250275171981214"><ele>625.8000000000001</ele><time>2026-04-24T15:47:38.998Z</time></trkpt><trkpt lat="44.92969194753827" lon="7.250248690483904"><ele>625.2</ele><time>2026-04-24T15:47:39.998Z</time></trkpt><trkpt lat="44.92959606532023" lon="7.250220681271445"><ele>624.6</ele><time>2026-04-24T15:47:40.998Z</time></trkpt><trkpt lat="44.929502912232785" lon="7.250195626270275"><ele>624.0</ele><time>2026-04-24T15:47:41.998Z</time></trkpt><trkpt lat="44.9294152692991" lon="7.250189899981663"><ele>624.0</ele><time>2026-04-24T15:47:42.998Z</time></trkpt><trkpt lat="44.92933764940853" lon="7.250198770510029"><ele>624.0</ele><time>2026-04-24T15:47:44Z</time></trkpt><trkpt lat="44.92927276041615" lon="7.250212821265446"><ele>624.0</ele><time>2026-04-24T15:47:45Z</time></trkpt><trkpt lat="44.92920698927335" lon="7.250246218931603"><ele>624.0</ele><time>2026-04-24T15:47:46Z</time></trkpt><trkpt lat="44.92910818800609" lon="7.250251679103676"><ele>624.0</ele><time>2026-04-24T15:47:48Z</time></trkpt><trkpt lat="44.929102934868354" lon="7.25038388481062"><ele>624.0</ele><time>2026-04-24T15:47:53Z</time></trkpt><trkpt lat="44.92916370556812" lon="7.250458438692419"><ele>624.0</ele><time>2026-04-24T15:47:54Z</time></trkpt><trkpt lat="44.92922648067029" lon="7.250537454312186"><ele>624.0</ele><time>2026-04-24T15:47:55Z</time></trkpt><trkpt lat="44.92930282131105" lon="7.250593125537013"><ele>624.0</ele><time>2026-04-24T15:47:56Z</time></trkpt><trkpt lat="44.92938731926327" lon="7.250638105969003"><ele>624.0</ele><time>2026-04-24T15:47:57Z</time></trkpt><trkpt lat="44.92946330690256" lon="7.250694805661815"><ele>624.0</ele><time>2026-04-24T15:47:58Z</time></trkpt><trkpt lat="44.92955426115675" lon="7.250703580686125"><ele>624.0</ele><time>2026-04-24T15:47:59Z</time></trkpt><trkpt lat="44.92964088051669" lon="7.250692572757082"><ele>624.1666666666666</ele><time>2026-04-24T15:48:00Z</time></trkpt><trkpt lat="44.9297054672277" lon="7.250791478373433"><ele>624.3333333333334</ele><time>2026-04-24T15:48:02Z</time></trkpt><trkpt lat="44.92968681209874" lon="7.250891291653434"><ele>624.5</ele><time>2026-04-24T15:48:03Z</time></trkpt><trkpt lat="44.92963852655323" lon="7.250962465309934"><ele>624.6666666666667</ele><time>2026-04-24T15:48:04Z</time></trkpt><trkpt lat="44.92956682599632" lon="7.251042626774156"><ele>624.8333333333334</ele><time>2026-04-24T15:48:05Z</time></trkpt><trkpt lat="44.92949701929567" lon="7.251141199376641"><ele>625.0</ele><time>2026-04-24T15:48:06Z</time></trkpt><trkpt lat="44.929428811665936" lon="7.2512487673291925"><ele>625.0</ele><time>2026-04-24T15:48:07Z</time></trkpt><trkpt lat="44.92936858860668" lon="7.251341812240407"><ele>625.0</ele><time>2026-04-24T15:48:08Z</time></trkpt><trkpt lat="44.92930957267973" lon="7.251464328362506"><ele>625.0</ele><time>2026-04-24T15:48:09Z</time></trkpt><trkpt lat="44.92921552183509" lon="7.2516087285476685"><ele>625.0</ele><time>2026-04-24T15:48:10Z</time></trkpt><trkpt lat="44.92915222016803" lon="7.251743502015736"><ele>625.0</ele><time>2026-04-24T15:48:11Z</time></trkpt><trkpt lat="44.929104343217176" lon="7.251895152740446"><ele>625.6</ele><time>2026-04-24T15:48:12Z</time></trkpt><trkpt lat="44.929043525798996" lon="7.252016036360769"><ele>626.2</ele><time>2026-04-24T15:48:13Z</time></trkpt><trkpt lat="44.92900039686565" lon="7.252131601585291"><ele>626.8</ele><time>2026-04-24T15:48:14Z</time></trkpt><trkpt lat="44.9289705086327" lon="7.252232094420518"><ele>627.4</ele><time>2026-04-24T15:48:15Z</time></trkpt><trkpt lat="44.92898736639294" lon="7.252398254723717"><ele>628.0</ele><time>2026-04-24T15:48:17Z</time></trkpt><trkpt lat="44.929013764017704" lon="7.252497414027159"><ele>628.0</ele><time>2026-04-24T15:48:18Z</time></trkpt><trkpt lat="44.929082370101014" lon="7.252565115389216"><ele>628.0</ele><time>2026-04-24T15:48:19Z</time></trkpt><trkpt lat="44.92915078040609" lon="7.25262842713357"><ele>628.0</ele><time>2026-04-24T15:48:20Z</time></trkpt><trkpt lat="44.929237264020806" lon="7.252686338215936"><ele>628.0</ele><time>2026-04-24T15:48:21Z</time></trkpt><trkpt lat="44.92933130064066" lon="7.252722805951787"><ele>628.0</ele><time>2026-04-24T15:48:22Z</time></trkpt><trkpt lat="44.92943142194497" lon="7.252736927922531"><ele>630.5</ele><time>2026-04-24T15:48:23Z</time></trkpt><trkpt lat="44.929543042370994" lon="7.252688413207261"><ele>633.0</ele><time>2026-04-24T15:48:24Z</time></trkpt><trkpt lat="44.929657575303736" lon="7.2526305123837815"><ele>635.5</ele><time>2026-04-24T15:48:25Z</time></trkpt><trkpt lat="44.929779026577194" lon="7.25256921884072"><ele>638.0</ele><time>2026-04-24T15:48:26Z</time></trkpt><trkpt lat="44.9299175005112" lon="7.252498636010912"><ele>638.0</ele><time>2026-04-24T15:48:27Z</time></trkpt><trkpt lat="44.93004148126644" lon="7.252435440784704"><ele>638.0</ele><time>2026-04-24T15:48:28Z</time></trkpt><trkpt lat="44.930156512439524" lon="7.252380634047014"><ele>638.0</ele><time>2026-04-24T15:48:29Z</time></trkpt><trkpt lat="44.93025152534025" lon="7.2523525795935715"><ele>638.0</ele><time>2026-04-24T15:48:30Z</time></trkpt><trkpt lat="44.930344817526894" lon="7.252349331911298"><ele>638.0</ele><time>2026-04-24T15:48:31Z</time></trkpt><trkpt lat="44.93041806579732" lon="7.252380724274582"><ele>639.5999999999999</ele><time>2026-04-24T15:48:32Z</time></trkpt><trkpt lat="44.930510861712484" lon="7.252432050261079"><ele>641.1999999999999</ele><time>2026-04-24T15:48:33Z</time></trkpt><trkpt lat="44.93060864643674" lon="7.252489702355615"><ele>642.8</ele><time>2026-04-24T15:48:34Z</time></trkpt><trkpt lat="44.93069831185481" lon="7.252523003040379"><ele>644.4</ele><time>2026-04-24T15:48:35Z</time></trkpt><trkpt lat="44.93075217626124" lon="7.252596955249217"><ele>646.0</ele><time>2026-04-24T15:48:35.999Z</time></trkpt><trkpt lat="44.93079972985522" lon="7.252734051483627"><ele>646.0</ele><time>2026-04-24T15:48:37.999Z</time></trkpt><trkpt lat="44.930759086790175" lon="7.252924862263438"><ele>646.0</ele><time>2026-04-24T15:48:39.999Z</time></trkpt><trkpt lat="44.93068092620819" lon="7.253025950924644"><ele>646.0</ele><time>2026-04-24T15:48:40.999Z</time></trkpt><trkpt lat="44.93060463397776" lon="7.253122398955233"><ele>646.0</ele><time>2026-04-24T15:48:41.999Z</time></trkpt><trkpt lat="44.930507445344716" lon="7.253221703812023"><ele>648.25</ele><time>2026-04-24T15:48:42.999Z</time></trkpt><trkpt lat="44.93038389945392" lon="7.25324459722536"><ele>650.5</ele><time>2026-04-24T15:48:43.999Z</time></trkpt><trkpt lat="44.930257462101295" lon="7.25328420809672"><ele>652.75</ele><time>2026-04-24T15:48:44.999Z</time></trkpt><trkpt lat="44.93013857319292" lon="7.253310368802921"><ele>655.0</ele><time>2026-04-24T15:48:45.999Z</time></trkpt><trkpt lat="44.93003784123341" lon="7.253354131379016"><ele>655.0</ele><time>2026-04-24T15:48:46.999Z</time></trkpt><trkpt lat="44.92996774640563" lon="7.253441445381599"><ele>655.0</ele><time>2026-04-24T15:48:47.999Z</time></trkpt><trkpt lat="44.92991930269405" lon="7.253556527871021"><ele>655.0</ele><time>2026-04-24T15:48:48.999Z</time></trkpt><trkpt lat="44.92988642109294" lon="7.253693701864437"><ele>655.0</ele><time>2026-04-24T15:48:49.999Z</time></trkpt><trkpt lat="44.92985743171563" lon="7.2538150665614936"><ele>655.0</ele><time>2026-04-24T15:48:50.999Z</time></trkpt><trkpt lat="44.9298044899644" lon="7.253929172389359"><ele>658.5</ele><time>2026-04-24T15:48:51.999Z</time></trkpt><trkpt lat="44.92970526045342" lon="7.253999568751821"><ele>662.0</ele><time>2026-04-24T15:48:52.999Z</time></trkpt><trkpt lat="44.92962494004012" lon="7.2541372377711575"><ele>665.5</ele><time>2026-04-24T15:48:53.999Z</time></trkpt><trkpt lat="44.92952578463308" lon="7.254248593080483"><ele>669.0</ele><time>2026-04-24T15:48:54.999Z</time></trkpt><trkpt lat="44.92942918310738" lon="7.254333732185349"><ele>669.0</ele><time>2026-04-24T15:48:55.999Z</time></trkpt><trkpt lat="44.92932473786292" lon="7.254410726454782"><ele>669.0</ele><time>2026-04-24T15:48:56.999Z</time></trkpt><trkpt lat="44.929202459382076" lon="7.254499163408081"><ele>669.0</ele><time>2026-04-24T15:48:57.999Z</time></trkpt><trkpt lat="44.929072977967174" lon="7.254601778664211"><ele>669.0</ele><time>2026-04-24T15:48:58.999Z</time></trkpt><trkpt lat="44.92895090887258" lon="7.254703683838236"><ele>671.5</ele><time>2026-04-24T15:48:59.999Z</time></trkpt><trkpt lat="44.92884787975936" lon="7.254804813193394"><ele>674.0</ele><time>2026-04-24T15:49:00.999Z</time></trkpt><trkpt lat="44.92875556504183" lon="7.254911096819248"><ele>676.5</ele><time>2026-04-24T15:49:01.999Z</time></trkpt><trkpt lat="44.928667508036284" lon="7.255026068604153"><ele>679.0</ele><time>2026-04-24T15:49:02.999Z</time></trkpt><trkpt lat="44.92859779875284" lon="7.255144271893463"><ele>679.0</ele><time>2026-04-24T15:49:03.999Z</time></trkpt><trkpt lat="44.92854455306175" lon="7.255279515846667"><ele>679.0</ele><time>2026-04-24T15:49:04.999Z</time></trkpt><trkpt lat="44.92849426458117" lon="7.255437929148778"><ele>679.0</ele><time>2026-04-24T15:49:05.999Z</time></trkpt><trkpt lat="44.92844506435596" lon="7.255580898859462"><ele>679.0</ele><time>2026-04-24T15:49:06.999Z</time></trkpt><trkpt lat="44.928352335707594" lon="7.255695646413382"><ele>679.3333333333334</ele><time>2026-04-24T15:49:07.999Z</time></trkpt><trkpt lat="44.928262560900755" lon="7.255846712459625"><ele>679.6666666666666</ele><time>2026-04-24T15:49:08.999Z</time></trkpt><trkpt lat="44.92816278249542" lon="7.256013888518827"><ele>680.0</ele><time>2026-04-24T15:49:09.999Z</time></trkpt><trkpt lat="44.92806723804185" lon="7.256209917102764"><ele>680.0</ele><time>2026-04-24T15:49:10.999Z</time></trkpt><trkpt lat="44.927975599121616" lon="7.2563867411960885"><ele>680.0</ele><time>2026-04-24T15:49:11.999Z</time></trkpt><trkpt lat="44.92789406278029" lon="7.256547492042002"><ele>680.0</ele><time>2026-04-24T15:49:12.999Z</time></trkpt><trkpt lat="44.927841889889166" lon="7.256647696632802"><ele>680.0</ele><time>2026-04-24T15:49:13.999Z</time></trkpt><trkpt lat="44.927816797555" lon="7.256741909319189"><ele>683.6</ele><time>2026-04-24T15:49:14.999Z</time></trkpt><trkpt lat="44.9278510669204" lon="7.256873845447506"><ele>687.2</ele><time>2026-04-24T15:49:15.999Z</time></trkpt><trkpt lat="44.92789675192254" lon="7.257011890373854"><ele>690.8</ele><time>2026-04-24T15:49:16.999Z</time></trkpt><trkpt lat="44.92792150206197" lon="7.257166591784248"><ele>694.4</ele><time>2026-04-24T15:49:17.999Z</time></trkpt><trkpt lat="44.92790276970891" lon="7.257316918931503"><ele>698.0</ele><time>2026-04-24T15:49:18.999Z</time></trkpt><trkpt lat="44.927896663977016" lon="7.257449365672496"><ele>699.3333333333333</ele><time>2026-04-24T15:49:19.999Z</time></trkpt><trkpt lat="44.927881853799434" lon="7.2575653076211495"><ele>700.6666666666666</ele><time>2026-04-24T15:49:20.999Z</time></trkpt><trkpt lat="44.92782968744548" lon="7.25764512893974"><ele>702.0</ele><time>2026-04-24T15:49:21.999Z</time></trkpt><trkpt lat="44.9277855401821" lon="7.2577213237737235"><ele>703.3333333333334</ele><time>2026-04-24T15:49:22.999Z</time></trkpt><trkpt lat="44.92770521722763" lon="7.257703920259074"><ele>704.6666666666667</ele><time>2026-04-24T15:49:23.998Z</time></trkpt><trkpt lat="44.92763216575193" lon="7.257687668235833"><ele>706.0</ele><time>2026-04-24T15:49:24.998Z</time></trkpt><trkpt lat="44.92757978763659" lon="7.257615471974076"><ele>703.25</ele><time>2026-04-24T15:49:25.998Z</time></trkpt><trkpt lat="44.92751281587728" lon="7.257522799011574"><ele>700.5</ele><time>2026-04-24T15:49:26.998Z</time></trkpt><trkpt lat="44.92743170312257" lon="7.257386330213331"><ele>697.75</ele><time>2026-04-24T15:49:27.998Z</time></trkpt><trkpt lat="44.92733073697599" lon="7.257266428366281"><ele>695.0</ele><time>2026-04-24T15:49:28.998Z</time></trkpt><trkpt lat="44.92720635185697" lon="7.257195325208341"><ele>691.4</ele><time>2026-04-24T15:49:29.998Z</time></trkpt><trkpt lat="44.927096619259785" lon="7.257113641574555"><ele>687.8</ele><time>2026-04-24T15:49:30.998Z</time></trkpt><trkpt lat="44.92701657601776" lon="7.2569867789349845"><ele>684.2</ele><time>2026-04-24T15:49:31.998Z</time></trkpt><trkpt lat="44.92693126252452" lon="7.256889723449156"><ele>680.6</ele><time>2026-04-24T15:49:32.998Z</time></trkpt><trkpt lat="44.92687025292198" lon="7.256789209931226"><ele>677.0</ele><time>2026-04-24T15:49:33.998Z</time></trkpt><trkpt lat="44.92678736048074" lon="7.2567390255793836"><ele>679.25</ele><time>2026-04-24T15:49:34.998Z</time></trkpt><trkpt lat="44.92669429920864" lon="7.256714230892162"><ele>681.5</ele><time>2026-04-24T15:49:35.998Z</time></trkpt><trkpt lat="44.926573251011504" lon="7.256772965310771"><ele>683.75</ele><time>2026-04-24T15:49:36.998Z</time></trkpt><trkpt lat="44.92646266286445" lon="7.2568878953572105"><ele>686.0</ele><time>2026-04-24T15:49:37.998Z</time></trkpt><trkpt lat="44.92636304443845" lon="7.257029391385218"><ele>686.0</ele><time>2026-04-24T15:49:38.998Z</time></trkpt><trkpt lat="44.92628233600526" lon="7.25716842905088"><ele>686.0</ele><time>2026-04-24T15:49:39.998Z</time></trkpt><trkpt lat="44.926233430157104" lon="7.257312537941983"><ele>686.0</ele><time>2026-04-24T15:49:40.998Z</time></trkpt><trkpt lat="44.92619053318626" lon="7.257474039024405"><ele>686.0</ele><time>2026-04-24T15:49:41.998Z</time></trkpt><trkpt lat="44.92616059767029" lon="7.25765991277141"><ele>690.5</ele><time>2026-04-24T15:49:42.998Z</time></trkpt><trkpt lat="44.92615174602338" lon="7.257844733909494"><ele>695.0</ele><time>2026-04-24T15:49:43.998Z</time></trkpt><trkpt lat="44.92618711929212" lon="7.257998918154232"><ele>699.5</ele><time>2026-04-24T15:49:44.998Z</time></trkpt><trkpt lat="44.92621538899546" lon="7.2581509318948765"><ele>704.0</ele><time>2026-04-24T15:49:45.998Z</time></trkpt><trkpt lat="44.92623984891879" lon="7.258284427484038"><ele>702.4000000000001</ele><time>2026-04-24T15:49:46.998Z</time></trkpt><trkpt lat="44.92617607442536" lon="7.258365124231239"><ele>700.8</ele><time>2026-04-24T15:49:47.998Z</time></trkpt><trkpt lat="44.92608979506843" lon="7.258330048386767"><ele>699.2</ele><time>2026-04-24T15:49:48.998Z</time></trkpt><trkpt lat="44.926022037760184" lon="7.25834394436763"><ele>697.5999999999999</ele><time>2026-04-24T15:49:50Z</time></trkpt><trkpt lat="44.925899881609006" lon="7.258394968578277"><ele>696.0</ele><time>2026-04-24T15:49:51Z</time></trkpt><trkpt lat="44.925790786541256" lon="7.258429046954844"><ele>696.0</ele><time>2026-04-24T15:49:52Z</time></trkpt><trkpt lat="44.92568823339793" lon="7.2584611167218895"><ele>696.0</ele><time>2026-04-24T15:49:53Z</time></trkpt><trkpt lat="44.925598923735365" lon="7.2584900945224575"><ele>696.0</ele><time>2026-04-24T15:49:54Z</time></trkpt><trkpt lat="44.925521979608845" lon="7.258552888195407"><ele>696.0</ele><time>2026-04-24T15:49:55Z</time></trkpt><trkpt lat="44.9254658775269" lon="7.258668640768834"><ele>696.0</ele><time>2026-04-24T15:49:56Z</time></trkpt><trkpt lat="44.92544992386611" lon="7.258814565052031"><ele>700.0</ele><time>2026-04-24T15:49:57Z</time></trkpt><trkpt lat="44.9254751990639" lon="7.258968861780345"><ele>704.0</ele><time>2026-04-24T15:49:58Z</time></trkpt><trkpt lat="44.925484728960626" lon="7.259118363303226"><ele>708.0</ele><time>2026-04-24T15:49:59Z</time></trkpt><trkpt lat="44.925521247207996" lon="7.259276308993502"><ele>712.0</ele><time>2026-04-24T15:50:00Z</time></trkpt><trkpt lat="44.92548446377342" lon="7.259443393758293"><ele>712.0</ele><time>2026-04-24T15:50:01Z</time></trkpt><trkpt lat="44.92546038018977" lon="7.2595668826991275"><ele>712.0</ele><time>2026-04-24T15:50:02Z</time></trkpt><trkpt lat="44.92547491518655" lon="7.25967883914067"><ele>712.0</ele><time>2026-04-24T15:50:03Z</time></trkpt><trkpt lat="44.92553393040655" lon="7.2597999246671545"><ele>712.0</ele><time>2026-04-24T15:50:04Z</time></trkpt><trkpt lat="44.925607378792414" lon="7.259935534159074"><ele>712.0</ele><time>2026-04-24T15:50:05Z</time></trkpt><trkpt lat="44.925690567859974" lon="7.260090025006077"><ele>712.25</ele><time>2026-04-24T15:50:06Z</time></trkpt><trkpt lat="44.92576365533188" lon="7.260275976224907"><ele>712.5</ele><time>2026-04-24T15:50:07Z</time></trkpt><trkpt lat="44.925829062574" lon="7.260457357052367"><ele>712.75</ele><time>2026-04-24T15:50:08Z</time></trkpt><trkpt lat="44.92588780045185" lon="7.260594189865797"><ele>713.0</ele><time>2026-04-24T15:50:09Z</time></trkpt><trkpt lat="44.925950062993884" lon="7.260698447537232"><ele>718.0</ele><time>2026-04-24T15:50:10Z</time></trkpt><trkpt lat="44.925983923961354" lon="7.260787246803946"><ele>723.0</ele><time>2026-04-24T15:50:11Z</time></trkpt><trkpt lat="44.925935122781" lon="7.260884055117764"><ele>728.0</ele><time>2026-04-24T15:50:12Z</time></trkpt><trkpt lat="44.925930103661614" lon="7.260993926842546"><ele>733.0</ele><time>2026-04-24T15:50:13Z</time></trkpt><trkpt lat="44.92592497243907" lon="7.261113095236523"><ele>738.0</ele><time>2026-04-24T15:50:14Z</time></trkpt><trkpt lat="44.92594611377635" lon="7.261243137069613"><ele>743.0</ele><time>2026-04-24T15:50:15Z</time></trkpt><trkpt lat="44.925996059874514" lon="7.261376284554179"><ele>743.5999999999999</ele><time>2026-04-24T15:50:16Z</time></trkpt><trkpt lat="44.92607340793918" lon="7.261517105000941"><ele>744.1999999999999</ele><time>2026-04-24T15:50:17Z</time></trkpt><trkpt lat="44.92612936597833" lon="7.261637366895605"><ele>744.8</ele><time>2026-04-24T15:50:18Z</time></trkpt><trkpt lat="44.92612885292289" lon="7.26175833395201"><ele>745.4</ele><time>2026-04-24T15:50:19Z</time></trkpt><trkpt lat="44.9260946442275" lon="7.261872229732379"><ele>746.0</ele><time>2026-04-24T15:50:20Z</time></trkpt><trkpt lat="44.926006836055805" lon="7.261963960804115"><ele>746.0</ele><time>2026-04-24T15:50:21Z</time></trkpt><trkpt lat="44.92591310066944" lon="7.26206252140578"><ele>746.0</ele><time>2026-04-24T15:50:22Z</time></trkpt><trkpt lat="44.92585749812208" lon="7.262191323742804"><ele>746.0</ele><time>2026-04-24T15:50:23Z</time></trkpt><trkpt lat="44.92583760248165" lon="7.262311610033408"><ele>746.0</ele><time>2026-04-24T15:50:24Z</time></trkpt><trkpt lat="44.92584662665309" lon="7.262478023418113"><ele>746.0</ele><time>2026-04-24T15:50:25Z</time></trkpt><trkpt lat="44.92584794286511" lon="7.262654131410532"><ele>742.0</ele><time>2026-04-24T15:50:26Z</time></trkpt><trkpt lat="44.92585407130134" lon="7.262853545448778"><ele>738.0</ele><time>2026-04-24T15:50:27Z</time></trkpt><trkpt lat="44.92586467817739" lon="7.263060949961498"><ele>734.0</ele><time>2026-04-24T15:50:28Z</time></trkpt><trkpt lat="44.92587976676917" lon="7.263236005273039"><ele>730.0</ele><time>2026-04-24T15:50:29Z</time></trkpt><trkpt lat="44.92589502989491" lon="7.2633815671709225"><ele>735.8</ele><time>2026-04-24T15:50:30Z</time></trkpt><trkpt lat="44.925912420444" lon="7.2635176110848105"><ele>741.6</ele><time>2026-04-24T15:50:31Z</time></trkpt><trkpt lat="44.92595291106428" lon="7.263635895829708"><ele>747.4000000000001</ele><time>2026-04-24T15:50:32Z</time></trkpt><trkpt lat="44.92604268753974" lon="7.263704414170337"><ele>753.2</ele><time>2026-04-24T15:50:33Z</time></trkpt><trkpt lat="44.92613306879151" lon="7.263760286401535"><ele>759.0</ele><time>2026-04-24T15:50:34Z</time></trkpt><trkpt lat="44.92623967551015" lon="7.263816752418561"><ele>759.0</ele><time>2026-04-24T15:50:35Z</time></trkpt><trkpt lat="44.926334063859386" lon="7.26389256302026"><ele>759.0</ele><time>2026-04-24T15:50:36Z</time></trkpt><trkpt lat="44.92640753632451" lon="7.263985053616401"><ele>759.0</ele><time>2026-04-24T15:50:37Z</time></trkpt><trkpt lat="44.92643535001428" lon="7.264101518019854"><ele>759.0</ele><time>2026-04-24T15:50:38Z</time></trkpt><trkpt lat="44.92642467084489" lon="7.264244371485278"><ele>759.0</ele><time>2026-04-24T15:50:39Z</time></trkpt><trkpt lat="44.926411516598854" lon="7.264393674465475"><ele>758.8000000000001</ele><time>2026-04-24T15:50:39.999Z</time></trkpt><trkpt lat="44.92646925762367" lon="7.264528845748858"><ele>758.6</ele><time>2026-04-24T15:50:40.999Z</time></trkpt><trkpt lat="44.9265510339387" lon="7.264622514042228"><ele>758.4</ele><time>2026-04-24T15:50:41.999Z</time></trkpt><trkpt lat="44.92662552048501" lon="7.264715064901296"><ele>758.2</ele><time>2026-04-24T15:50:42.999Z</time></trkpt><trkpt lat="44.92667400781674" lon="7.264798328693407"><ele>758.0</ele><time>2026-04-24T15:50:43.999Z</time></trkpt><trkpt lat="44.92667036981734" lon="7.264898142035223"><ele>758.0</ele><time>2026-04-24T15:50:44.999Z</time></trkpt><trkpt lat="44.92662722537741" lon="7.264985394920884"><ele>758.0</ele><time>2026-04-24T15:50:45.999Z</time></trkpt><trkpt lat="44.92654075001597" lon="7.265041559610012"><ele>758.0</ele><time>2026-04-24T15:50:46.999Z</time></trkpt><trkpt lat="44.92645745938005" lon="7.265051229730916"><ele>758.0</ele><time>2026-04-24T15:50:47.999Z</time></trkpt><trkpt lat="44.926410013880314" lon="7.264949004662342"><ele>758.0</ele><time>2026-04-24T15:50:48.999Z</time></trkpt><trkpt lat="44.92636127817499" lon="7.264873600752389"><ele>758.0</ele><time>2026-04-24T15:50:49.999Z</time></trkpt><trkpt lat="44.926302431939106" lon="7.264822479030976"><ele>758.0</ele><time>2026-04-24T15:50:50.999Z</time></trkpt><trkpt lat="44.92622102583418" lon="7.264742011499294"><ele>758.0</ele><time>2026-04-24T15:50:51.999Z</time></trkpt><trkpt lat="44.926131718546515" lon="7.264666214519098"><ele>758.0</ele><time>2026-04-24T15:50:52.999Z</time></trkpt><trkpt lat="44.92604123993513" lon="7.2646045399254415"><ele>758.0</ele><time>2026-04-24T15:50:53.999Z</time></trkpt><trkpt lat="44.92595766711124" lon="7.2645149734638865"><ele>758.0</ele><time>2026-04-24T15:50:54.999Z</time></trkpt><trkpt lat="44.925848076904515" lon="7.264445306916076"><ele>754.5999999999999</ele><time>2026-04-24T15:50:55.999Z</time></trkpt><trkpt lat="44.925743116991754" lon="7.264386789398867"><ele>751.1999999999999</ele><time>2026-04-24T15:50:56.999Z</time></trkpt><trkpt lat="44.925642431596586" lon="7.264330655088976"><ele>747.8</ele><time>2026-04-24T15:50:57.999Z</time></trkpt><trkpt lat="44.92553362837317" lon="7.264289375152857"><ele>744.4</ele><time>2026-04-24T15:50:58.999Z</time></trkpt><trkpt lat="44.925432853189065" lon="7.264221078050823"><ele>741.0</ele><time>2026-04-24T15:50:59.999Z</time></trkpt><trkpt lat="44.92532839044693" lon="7.264157048418324"><ele>741.0</ele><time>2026-04-24T15:51:00.999Z</time></trkpt><trkpt lat="44.9252310445593" lon="7.2640983372093855"><ele>741.0</ele><time>2026-04-24T15:51:01.999Z</time></trkpt><trkpt lat="44.92514215039795" lon="7.264018741536508"><ele>741.0</ele><time>2026-04-24T15:51:02.999Z</time></trkpt><trkpt lat="44.925060753704614" lon="7.263934391896446"><ele>741.0</ele><time>2026-04-24T15:51:03.999Z</time></trkpt><trkpt lat="44.9249696392737" lon="7.26387056585564"><ele>741.0</ele><time>2026-04-24T15:51:04.999Z</time></trkpt><trkpt lat="44.924866473848375" lon="7.263840551216227"><ele>737.1999999999999</ele><time>2026-04-24T15:51:05.999Z</time></trkpt><trkpt lat="44.92476463193544" lon="7.263813263624923"><ele>733.4</ele><time>2026-04-24T15:51:06.999Z</time></trkpt><trkpt lat="44.92466048970628" lon="7.263803620495308"><ele>729.6</ele><time>2026-04-24T15:51:07.999Z</time></trkpt><trkpt lat="44.924567958893014" lon="7.2637921637333545"><ele>725.8</ele><time>2026-04-24T15:51:08.999Z</time></trkpt><trkpt lat="44.92449287656817" lon="7.2638525015878335"><ele>722.0</ele><time>2026-04-24T15:51:09.999Z</time></trkpt><trkpt lat="44.92440935475415" lon="7.263894547025411"><ele>722.0</ele><time>2026-04-24T15:51:10.999Z</time></trkpt><trkpt lat="44.924338511387866" lon="7.263935083481803"><ele>722.0</ele><time>2026-04-24T15:51:11.999Z</time></trkpt><trkpt lat="44.924281731993005" lon="7.263864452072744"><ele>722.0</ele><time>2026-04-24T15:51:12.999Z</time></trkpt><trkpt lat="44.924222150439896" lon="7.263817110610794"><ele>722.0</ele><time>2026-04-24T15:51:13.999Z</time></trkpt><trkpt lat="44.92413786780164" lon="7.263799837712959"><ele>722.0</ele><time>2026-04-24T15:51:14.999Z</time></trkpt><trkpt lat="44.92405157542071" lon="7.26375165888809"><ele>722.0</ele><time>2026-04-24T15:51:15.999Z</time></trkpt><trkpt lat="44.92396837785134" lon="7.263706814175318"><ele>724.8</ele><time>2026-04-24T15:51:16.999Z</time></trkpt><trkpt lat="44.923873441778085" lon="7.263655903323681"><ele>727.6</ele><time>2026-04-24T15:51:17.999Z</time></trkpt><trkpt lat="44.92377293894856" lon="7.263600665659143"><ele>730.4</ele><time>2026-04-24T15:51:18.999Z</time></trkpt><trkpt lat="44.923670152277026" lon="7.263554374643588"><ele>733.1999999999999</ele><time>2026-04-24T15:51:19.999Z</time></trkpt><trkpt lat="44.92356920171148" lon="7.263529308578594"><ele>736.0</ele><time>2026-04-24T15:51:20.999Z</time></trkpt><trkpt lat="44.923445140277266" lon="7.26356531622189"><ele>740.0</ele><time>2026-04-24T15:51:21.999Z</time></trkpt><trkpt lat="44.92331137139161" lon="7.26356658468468"><ele>744.0</ele><time>2026-04-24T15:51:22.999Z</time></trkpt><trkpt lat="44.92317438866677" lon="7.2635489705024865"><ele>748.0</ele><time>2026-04-24T15:51:23.999Z</time></trkpt><trkpt lat="44.923063848476076" lon="7.263575512481871"><ele>752.0</ele><time>2026-04-24T15:51:24.999Z</time></trkpt><trkpt lat="44.92296524509435" lon="7.2636118893965635"><ele>752.0</ele><time>2026-04-24T15:51:25.999Z</time></trkpt><trkpt lat="44.9228980957155" lon="7.26371132261089"><ele>752.0</ele><time>2026-04-24T15:51:26.999Z</time></trkpt><trkpt lat="44.92281904484397" lon="7.263786133040526"><ele>752.0</ele><time>2026-04-24T15:51:27.998Z</time></trkpt><trkpt lat="44.92276374353223" lon="7.263911873812986"><ele>752.0</ele><time>2026-04-24T15:51:28.998Z</time></trkpt><trkpt lat="44.92270150952543" lon="7.264055305528703"><ele>752.0</ele><time>2026-04-24T15:51:29.998Z</time></trkpt><trkpt lat="44.92262480756246" lon="7.264139699671701"><ele>755.0</ele><time>2026-04-24T15:51:30.998Z</time></trkpt><trkpt lat="44.92254461302779" lon="7.2641465197818595"><ele>758.0</ele><time>2026-04-24T15:51:31.998Z</time></trkpt><trkpt lat="44.92247407460459" lon="7.264189402011306"><ele>761.0</ele><time>2026-04-24T15:51:32.998Z</time></trkpt><trkpt lat="44.92239661000171" lon="7.264186160387637"><ele>764.0</ele><time>2026-04-24T15:51:33.998Z</time></trkpt><trkpt lat="44.92231288215728" lon="7.2642162104425"><ele>767.0000000000001</ele><time>2026-04-24T15:51:34.998Z</time></trkpt><trkpt lat="44.92221887536932" lon="7.264239070682634"><ele>770.0</ele><time>2026-04-24T15:51:35.998Z</time></trkpt><trkpt lat="44.922129764233524" lon="7.2642518236930185"><ele>770.0</ele><time>2026-04-24T15:51:36.998Z</time></trkpt><trkpt lat="44.9220413089917" lon="7.264274548176258"><ele>770.0</ele><time>2026-04-24T15:51:37.998Z</time></trkpt><trkpt lat="44.92195058268366" lon="7.264328200797426"><ele>770.0</ele><time>2026-04-24T15:51:38.998Z</time></trkpt><trkpt lat="44.921854670109035" lon="7.264408286621621"><ele>770.0</ele><time>2026-04-24T15:51:39.998Z</time></trkpt><trkpt lat="44.921752511353354" lon="7.264498937189707"><ele>770.0</ele><time>2026-04-24T15:51:40.998Z</time></trkpt><trkpt lat="44.921662544202356" lon="7.264594977894598"><ele>767.75</ele><time>2026-04-24T15:51:41.998Z</time></trkpt><trkpt lat="44.921592912881884" lon="7.2647042810763836"><ele>765.5</ele><time>2026-04-24T15:51:42.998Z</time></trkpt><trkpt lat="44.921521099107636" lon="7.264826027632656"><ele>763.25</ele><time>2026-04-24T15:51:43.998Z</time></trkpt><trkpt lat="44.92144164925236" lon="7.264943099494931"><ele>761.0</ele><time>2026-04-24T15:51:44.998Z</time></trkpt><trkpt lat="44.92136483331548" lon="7.265100518559864"><ele>767.25</ele><time>2026-04-24T15:51:45.998Z</time></trkpt><trkpt lat="44.92128531659958" lon="7.26527157045746"><ele>773.5</ele><time>2026-04-24T15:51:46.998Z</time></trkpt><trkpt lat="44.9212106889322" lon="7.2654193019405895"><ele>779.75</ele><time>2026-04-24T15:51:47.998Z</time></trkpt><trkpt lat="44.921143393636584" lon="7.265563301716432"><ele>786.0</ele><time>2026-04-24T15:51:48.998Z</time></trkpt><trkpt lat="44.92108607347434" lon="7.265680573120659"><ele>789.8</ele><time>2026-04-24T15:51:49.998Z</time></trkpt><trkpt lat="44.92104014934643" lon="7.265800249621685"><ele>793.5999999999999</ele><time>2026-04-24T15:51:50.998Z</time></trkpt><trkpt lat="44.92102509515186" lon="7.265927848516184"><ele>797.4</ele><time>2026-04-24T15:51:51.998Z</time></trkpt><trkpt lat="44.92102517571467" lon="7.266060719300916"><ele>801.2</ele><time>2026-04-24T15:51:52.998Z</time></trkpt><trkpt lat="44.9210464356486" lon="7.266201674474449"><ele>805.0</ele><time>2026-04-24T15:51:53.998Z</time></trkpt><trkpt lat="44.92111011252264" lon="7.266324155346391"><ele>805.0</ele><time>2026-04-24T15:51:54.998Z</time></trkpt><trkpt lat="44.92121581853678" lon="7.266433178322613"><ele>805.0</ele><time>2026-04-24T15:51:56Z</time></trkpt><trkpt lat="44.921302404959896" lon="7.266581497148324"><ele>805.0</ele><time>2026-04-24T15:51:57Z</time></trkpt><trkpt lat="44.92137564068469" lon="7.266709050996343"><ele>805.0</ele><time>2026-04-24T15:51:58Z</time></trkpt><trkpt lat="44.921416963962024" lon="7.266834115858962"><ele>806.4</ele><time>2026-04-24T15:51:59Z</time></trkpt><trkpt lat="44.9214134048388" lon="7.266968615328887"><ele>807.8</ele><time>2026-04-24T15:52:00Z</time></trkpt><trkpt lat="44.921403297347794" lon="7.267114564763597"><ele>809.2</ele><time>2026-04-24T15:52:01Z</time></trkpt><trkpt lat="44.921381282291605" lon="7.2672723119430795"><ele>810.6</ele><time>2026-04-24T15:52:02Z</time></trkpt><trkpt lat="44.92131076591595" lon="7.267394532188522"><ele>812.0</ele><time>2026-04-24T15:52:03Z</time></trkpt><trkpt lat="44.92126873527015" lon="7.267524669009157"><ele>813.5</ele><time>2026-04-24T15:52:04Z</time></trkpt><trkpt lat="44.92127015496662" lon="7.267690021548393"><ele>815.0</ele><time>2026-04-24T15:52:05Z</time></trkpt><trkpt lat="44.92131812394444" lon="7.267867017115073"><ele>816.5</ele><time>2026-04-24T15:52:06Z</time></trkpt><trkpt lat="44.92134608982262" lon="7.268072552227413"><ele>818.0</ele><time>2026-04-24T15:52:07Z</time></trkpt><trkpt lat="44.92139540400531" lon="7.268303540915272"><ele>818.75</ele><time>2026-04-24T15:52:08Z</time></trkpt><trkpt lat="44.92145112688126" lon="7.268534497764408"><ele>819.5</ele><time>2026-04-24T15:52:09Z</time></trkpt><trkpt lat="44.921485882968085" lon="7.268715144105778"><ele>820.25</ele><time>2026-04-24T15:52:10Z</time></trkpt><trkpt lat="44.921538199459356" lon="7.268789769968501"><ele>821.0</ele><time>2026-04-24T15:52:11Z</time></trkpt><trkpt lat="44.92161989993232" lon="7.268834474339066"><ele>821.0</ele><time>2026-04-24T15:52:12Z</time></trkpt><trkpt lat="44.921695977108826" lon="7.268931998908989"><ele>821.0</ele><time>2026-04-24T15:52:13Z</time></trkpt><trkpt lat="44.92178787274954" lon="7.269033178879481"><ele>821.0</ele><time>2026-04-24T15:52:14Z</time></trkpt><trkpt lat="44.92184658961404" lon="7.269153733253688"><ele>821.0</ele><time>2026-04-24T15:52:15Z</time></trkpt><trkpt lat="44.921891327229574" lon="7.269289293947667"><ele>821.0</ele><time>2026-04-24T15:52:16Z</time></trkpt><trkpt lat="44.921938336389104" lon="7.269454469334945"><ele>829.3333333333334</ele><time>2026-04-24T15:52:17Z</time></trkpt><trkpt lat="44.92196766144087" lon="7.269696735836288"><ele>837.6666666666667</ele><time>2026-04-24T15:52:18Z</time></trkpt><trkpt lat="44.921997592791264" lon="7.269922035183921"><ele>846.0</ele><time>2026-04-24T15:52:19Z</time></trkpt><trkpt lat="44.92204374740411" lon="7.2701481322083525"><ele>846.0</ele><time>2026-04-24T15:52:20Z</time></trkpt><trkpt lat="44.92208433845754" lon="7.270344985583251"><ele>846.0</ele><time>2026-04-24T15:52:21Z</time></trkpt><trkpt lat="44.92213118438244" lon="7.270514380415322"><ele>846.0</ele><time>2026-04-24T15:52:22Z</time></trkpt><trkpt lat="44.922165635658416" lon="7.270672567686604"><ele>846.0</ele><time>2026-04-24T15:52:23Z</time></trkpt><trkpt lat="44.922185605911245" lon="7.270835500998594"><ele>845.8333333333334</ele><time>2026-04-24T15:52:24Z</time></trkpt><trkpt lat="44.922221781118495" lon="7.270963550589008"><ele>845.6666666666667</ele><time>2026-04-24T15:52:25Z</time></trkpt><trkpt lat="44.9221974036051" lon="7.27105159274112"><ele>845.5</ele><time>2026-04-24T15:52:26Z</time></trkpt><trkpt lat="44.922139459582034" lon="7.271144861797947"><ele>845.3333333333334</ele><time>2026-04-24T15:52:28Z</time></trkpt><trkpt lat="44.9220698896784" lon="7.271134839187341"><ele>845.1666666666667</ele><time>2026-04-24T15:52:30Z</time></trkpt><trkpt lat="44.92204057850977" lon="7.271046975174062"><ele>845.0</ele><time>2026-04-24T15:52:33Z</time></trkpt><trkpt lat="44.92197851094756" lon="7.271007810134075"><ele>845.0</ele><time>2026-04-24T15:52:35Z</time></trkpt><trkpt lat="44.9218958394514" lon="7.270946319351756"><ele>845.0</ele><time>2026-04-24T15:52:37Z</time></trkpt><trkpt lat="44.92177765265486" lon="7.270870468152521"><ele>845.0</ele><time>2026-04-24T15:52:39Z</time></trkpt><trkpt lat="44.92170686871641" lon="7.270816934846783"><ele>845.0</ele><time>2026-04-24T15:52:40Z</time></trkpt><trkpt lat="44.92164689489796" lon="7.270779170210325"><ele>845.0</ele><time>2026-04-24T15:52:41Z</time></trkpt><trkpt lat="44.921546947067135" lon="7.270748458179327"><ele>843.0000000000001</ele><time>2026-04-24T15:52:43Z</time></trkpt><trkpt lat="44.921453746065986" lon="7.270715629149948"><ele>841.0</ele><time>2026-04-24T15:52:45Z</time></trkpt><trkpt lat="44.92136683438739" lon="7.270709912832147"><ele>839.0</ele><time>2026-04-24T15:52:46.999Z</time></trkpt><trkpt lat="44.921319545589846" lon="7.270798971893344"><ele>837.0</ele><time>2026-04-24T15:52:48.999Z</time></trkpt><trkpt lat="44.92132423671334" lon="7.270898704310452"><ele>835.0000000000001</ele><time>2026-04-24T15:53:00.999Z</time></trkpt><trkpt lat="44.92137231688931" lon="7.270968063349349"><ele>833.0</ele><time>2026-04-24T15:53:04.999Z</time></trkpt><trkpt lat="44.92140700214043" lon="7.2710698197976535"><ele>833.0</ele><time>2026-04-24T15:53:07.999Z</time></trkpt><trkpt lat="44.92145270610835" lon="7.271148965476557"><ele>833.0</ele><time>2026-04-24T15:53:09.999Z</time></trkpt><trkpt lat="44.92149022468871" lon="7.271297894541107"><ele>833.0</ele><time>2026-04-24T15:53:11.999Z</time></trkpt><trkpt lat="44.92155247026453" lon="7.271386865574963"><ele>833.0</ele><time>2026-04-24T15:53:13.999Z</time></trkpt><trkpt lat="44.921586758544365" lon="7.2715334046363544"><ele>833.0</ele><time>2026-04-24T15:53:15.999Z</time></trkpt><trkpt lat="44.92136281494489" lon="7.271568728487402"><ele>837.5</ele><time>2026-04-24T15:53:16.999Z</time></trkpt><trkpt lat="44.92135675719765" lon="7.271675485302452"><ele>842.0</ele><time>2026-04-24T15:53:18.999Z</time></trkpt><trkpt lat="44.92160874244815" lon="7.271824158660844"><ele>846.5</ele><time>2026-04-24T15:53:20.999Z</time></trkpt><trkpt lat="44.921636325969885" lon="7.271912340099231"><ele>851.0</ele><time>2026-04-24T15:53:22.999Z</time></trkpt><trkpt lat="44.921679527707674" lon="7.271993402977677"><ele>851.0</ele><time>2026-04-24T15:53:25.999Z</time></trkpt><trkpt lat="44.92168235715693" lon="7.27212474642261"><ele>851.0</ele><time>2026-04-24T15:53:34.998Z</time></trkpt><trkpt lat="44.92171592027816" lon="7.272233708795064"><ele>851.0</ele><time>2026-04-24T15:53:36.998Z</time></trkpt><trkpt lat="44.92175019319232" lon="7.272383954160754"><ele>851.0</ele><time>2026-04-24T15:53:38.998Z</time></trkpt><trkpt lat="44.92176801520794" lon="7.272529809046566"><ele>851.0</ele><time>2026-04-24T15:53:40.998Z</time></trkpt><trkpt lat="44.921811839358305" lon="7.272704805825523"><ele>853.3333333333334</ele><time>2026-04-24T15:53:42.998Z</time></trkpt><trkpt lat="44.921853696647325" lon="7.27281453147769"><ele>855.6666666666667</ele><time>2026-04-24T15:53:44.998Z</time></trkpt><trkpt lat="44.92186527725654" lon="7.272941599308304"><ele>858.0</ele><time>2026-04-24T15:53:47.998Z</time></trkpt><trkpt lat="44.92189828632821" lon="7.273044253958888"><ele>860.3333333333333</ele><time>2026-04-24T15:53:50.998Z</time></trkpt><trkpt lat="44.9219348359277" lon="7.273136149045767"><ele>862.6666666666666</ele><time>2026-04-24T15:53:53.998Z</time></trkpt><trkpt lat="44.921971417571676" lon="7.273228675371623"><ele>865.0</ele><time>2026-04-24T15:53:56.998Z</time></trkpt><trkpt lat="44.92204237072352" lon="7.273286339902854"><ele>868.6666666666666</ele><time>2026-04-24T15:53:58.998Z</time></trkpt><trkpt lat="44.922047449096944" lon="7.273387058316432"><ele>872.3333333333333</ele><time>2026-04-24T15:54:00.998Z</time></trkpt><trkpt lat="44.92203948771606" lon="7.273481136741006"><ele>876.0</ele><time>2026-04-24T15:54:02Z</time></trkpt><trkpt lat="44.922063120585356" lon="7.273581380960039"><ele>879.6666666666667</ele><time>2026-04-24T15:54:04Z</time></trkpt><trkpt lat="44.92202447572413" lon="7.2736867812035095"><ele>883.3333333333334</ele><time>2026-04-24T15:54:07Z</time></trkpt><trkpt lat="44.921987953596634" lon="7.273840695916535"><ele>887.0</ele><time>2026-04-24T15:54:09Z</time></trkpt><trkpt lat="44.92196019625071" lon="7.27393357384768"><ele>890.2857142857142</ele><time>2026-04-24T15:54:11Z</time></trkpt><trkpt lat="44.9219475619823" lon="7.274042772395959"><ele>893.5714285714286</ele><time>2026-04-24T15:54:13Z</time></trkpt><trkpt lat="44.92195323348516" lon="7.274138298216423"><ele>896.8571428571429</ele><time>2026-04-24T15:54:14Z</time></trkpt><trkpt lat="44.9219426527419" lon="7.274257923234486"><ele>900.1428571428571</ele><time>2026-04-24T15:54:15Z</time></trkpt><trkpt lat="44.92191926856313" lon="7.274348566566815"><ele>903.4285714285714</ele><time>2026-04-24T15:54:16Z</time></trkpt><trkpt lat="44.92187116500629" lon="7.274431132270754"><ele>906.7142857142857</ele><time>2026-04-24T15:54:20Z</time></trkpt><trkpt lat="44.92188818354688" lon="7.2745195689088655"><ele>910.0</ele><time>2026-04-24T15:54:31Z</time></trkpt><trkpt lat="44.92195661195987" lon="7.274546054750504"><ele>910.0</ele><time>2026-04-24T15:54:33Z</time></trkpt><trkpt lat="44.922080032652225" lon="7.274598742791686"><ele>910.0</ele><time>2026-04-24T15:54:35Z</time></trkpt><trkpt lat="44.92213701299464" lon="7.274648510964204"><ele>910.0</ele><time>2026-04-24T15:54:37Z</time></trkpt><trkpt lat="44.92210850500515" lon="7.274755941870382"><ele>910.0</ele><time>2026-04-24T15:54:40Z</time></trkpt><trkpt lat="44.92210351214661" lon="7.274931056278476"><ele>910.0</ele><time>2026-04-24T15:54:42Z</time></trkpt><trkpt lat="44.92213161671607" lon="7.2750563900771725"><ele>914.5</ele><time>2026-04-24T15:54:43Z</time></trkpt><trkpt lat="44.92216285413959" lon="7.275193257754345"><ele>919.0</ele><time>2026-04-24T15:54:44Z</time></trkpt><trkpt lat="44.92219138344399" lon="7.275344324026795"><ele>923.5</ele><time>2026-04-24T15:54:45Z</time></trkpt><trkpt lat="44.922232017637" lon="7.275521415968295"><ele>928.0</ele><time>2026-04-24T15:54:46Z</time></trkpt><trkpt lat="44.92228156021563" lon="7.275753590722976"><ele>930.3333333333333</ele><time>2026-04-24T15:54:47Z</time></trkpt><trkpt lat="44.922351193183" lon="7.276020510491148"><ele>932.6666666666667</ele><time>2026-04-24T15:54:48Z</time></trkpt><trkpt lat="44.922402293092844" lon="7.276239541900092"><ele>935.0</ele><time>2026-04-24T15:54:49Z</time></trkpt><trkpt lat="44.92241302398046" lon="7.2764020718491205"><ele>935.5</ele><time>2026-04-24T15:54:49.999Z</time></trkpt><trkpt lat="44.92242870016187" lon="7.276527504546761"><ele>936.0</ele><time>2026-04-24T15:54:50.999Z</time></trkpt><trkpt lat="44.92244254151115" lon="7.2767273561891805"><ele>936.5</ele><time>2026-04-24T15:54:51.999Z</time></trkpt><trkpt lat="44.922423296198154" lon="7.276915648966247"><ele>937.0</ele><time>2026-04-24T15:54:52.999Z</time></trkpt><trkpt lat="44.922428073347284" lon="7.277088806420344"><ele>937.0</ele><time>2026-04-24T15:54:53.999Z</time></trkpt><trkpt lat="44.92245253379438" lon="7.277237258899963"><ele>937.0</ele><time>2026-04-24T15:54:54.999Z</time></trkpt><trkpt lat="44.922476191617505" lon="7.277358600501486"><ele>937.0</ele><time>2026-04-24T15:54:55.999Z</time></trkpt><trkpt lat="44.92250002394048" lon="7.277498722892777"><ele>937.0</ele><time>2026-04-24T15:54:56.999Z</time></trkpt><trkpt lat="44.92250999054865" lon="7.277618589043493"><ele>937.0</ele><time>2026-04-24T15:54:57.999Z</time></trkpt><trkpt lat="44.92252601546424" lon="7.277732649384248"><ele>937.8333333333333</ele><time>2026-04-24T15:54:58.999Z</time></trkpt><trkpt lat="44.9225374563842" lon="7.277832580439459"><ele>938.6666666666666</ele><time>2026-04-24T15:55:00.999Z</time></trkpt><trkpt lat="44.92258031852083" lon="7.277908121574689"><ele>939.5</ele><time>2026-04-24T15:55:02.999Z</time></trkpt><trkpt lat="44.922618853514074" lon="7.278025816827959"><ele>940.3333333333333</ele><time>2026-04-24T15:55:04.999Z</time></trkpt><trkpt lat="44.92253516610151" lon="7.2780512106762565"><ele>941.1666666666666</ele><time>2026-04-24T15:55:08.999Z</time></trkpt><trkpt lat="44.9224556543482" lon="7.2780354503007745"><ele>942.0</ele><time>2026-04-24T15:55:10.999Z</time></trkpt><trkpt lat="44.92236227146719" lon="7.278091924762074"><ele>941.8</ele><time>2026-04-24T15:55:11.999Z</time></trkpt><trkpt lat="44.92227691598995" lon="7.278205339114922"><ele>941.6</ele><time>2026-04-24T15:55:13.999Z</time></trkpt><trkpt lat="44.9222309554249" lon="7.278283047344763"><ele>941.3999999999999</ele><time>2026-04-24T15:55:14.999Z</time></trkpt><trkpt lat="44.9221801061642" lon="7.278377683775995"><ele>941.1999999999999</ele><time>2026-04-24T15:55:15.999Z</time></trkpt><trkpt lat="44.92211683179079" lon="7.278485294749368"><ele>941.0</ele><time>2026-04-24T15:55:16.999Z</time></trkpt><trkpt lat="44.92204146755985" lon="7.278645930851964"><ele>941.0</ele><time>2026-04-24T15:55:17.999Z</time></trkpt><trkpt lat="44.92199128760082" lon="7.278795939694176"><ele>940.9999999999999</ele><time>2026-04-24T15:55:18.999Z</time></trkpt><trkpt lat="44.92192875095546" lon="7.278915663798319"><ele>940.9999999999999</ele><time>2026-04-24T15:55:19.999Z</time></trkpt><trkpt lat="44.92186430980445" lon="7.2789780042745065"><ele>941.0</ele><time>2026-04-24T15:55:20.999Z</time></trkpt><trkpt lat="44.921791396149594" lon="7.2790672782442005"><ele>941.0</ele><time>2026-04-24T15:55:21.999Z</time></trkpt><trkpt lat="44.921723174992685" lon="7.279147818025662"><ele>943.0</ele><time>2026-04-24T15:55:22.999Z</time></trkpt><trkpt lat="44.92165220993552" lon="7.2792225127414705"><ele>944.9999999999999</ele><time>2026-04-24T15:55:23.999Z</time></trkpt><trkpt lat="44.92157445925776" lon="7.279293477072944"><ele>946.9999999999999</ele><time>2026-04-24T15:55:24.999Z</time></trkpt><trkpt lat="44.921486388887196" lon="7.279365569830301"><ele>949.0</ele><time>2026-04-24T15:55:25.999Z</time></trkpt><trkpt lat="44.921384267430646" lon="7.279428712432359"><ele>951.0</ele><time>2026-04-24T15:55:26.999Z</time></trkpt><trkpt lat="44.92130325624745" lon="7.279476388566939"><ele>951.0</ele><time>2026-04-24T15:55:27.999Z</time></trkpt><trkpt lat="44.92120700672857" lon="7.279487855993314"><ele>950.9999999999999</ele><time>2026-04-24T15:55:28.999Z</time></trkpt><trkpt lat="44.92112118743586" lon="7.279526471461724"><ele>950.9999999999999</ele><time>2026-04-24T15:55:29.999Z</time></trkpt><trkpt lat="44.92103200355756" lon="7.279579216231689"><ele>951.0</ele><time>2026-04-24T15:55:30.999Z</time></trkpt><trkpt lat="44.92095236266487" lon="7.279652312881006"><ele>951.0</ele><time>2026-04-24T15:55:31.999Z</time></trkpt><trkpt lat="44.92088757955682" lon="7.279727806709087"><ele>950.0</ele><time>2026-04-24T15:55:32.999Z</time></trkpt><trkpt lat="44.92084390853973" lon="7.279832820998391"><ele>948.9999999999999</ele><time>2026-04-24T15:55:33.999Z</time></trkpt><trkpt lat="44.92083085258915" lon="7.279985996162145"><ele>947.9999999999999</ele><time>2026-04-24T15:55:34.999Z</time></trkpt><trkpt lat="44.920795582751374" lon="7.280113801965842"><ele>947.0</ele><time>2026-04-24T15:55:35.999Z</time></trkpt><trkpt lat="44.92076899517162" lon="7.2802726308156664"><ele>946.0</ele><time>2026-04-24T15:55:36.998Z</time></trkpt><trkpt lat="44.920722104460005" lon="7.280423455082927"><ele>946.0</ele><time>2026-04-24T15:55:37.998Z</time></trkpt><trkpt lat="44.92067175037421" lon="7.280576479242644"><ele>945.9999999999999</ele><time>2026-04-24T15:55:38.998Z</time></trkpt><trkpt lat="44.92064442253096" lon="7.280716441209992"><ele>945.9999999999999</ele><time>2026-04-24T15:55:39.998Z</time></trkpt><trkpt lat="44.92063869849784" lon="7.280844886450875"><ele>946.0</ele><time>2026-04-24T15:55:40.998Z</time></trkpt><trkpt lat="44.92064532433084" lon="7.281003759348549"><ele>946.0</ele><time>2026-04-24T15:55:41.998Z</time></trkpt><trkpt lat="44.92063348207509" lon="7.281118126788064"><ele>943.9999999999999</ele><time>2026-04-24T15:55:42.998Z</time></trkpt><trkpt lat="44.92062298726878" lon="7.28123090950233"><ele>942.0</ele><time>2026-04-24T15:55:43.998Z</time></trkpt><trkpt lat="44.92063931331329" lon="7.281355271008424"><ele>940.0</ele><time>2026-04-24T15:55:44.998Z</time></trkpt><trkpt lat="44.92067045265642" lon="7.2814439286768895"><ele>938.0</ele><time>2026-04-24T15:55:45.998Z</time></trkpt><trkpt lat="44.92069186168871" lon="7.281539105093726"><ele>935.9999999999999</ele><time>2026-04-24T15:55:46.998Z</time></trkpt><trkpt lat="44.92071889686236" lon="7.281642393486991"><ele>934.0</ele><time>2026-04-24T15:55:47.998Z</time></trkpt><trkpt lat="44.92071814940206" lon="7.281809244029812"><ele>932.3333333333333</ele><time>2026-04-24T15:55:49.998Z</time></trkpt><trkpt lat="44.92071115969099" lon="7.281936349896192"><ele>930.6666666666666</ele><time>2026-04-24T15:55:50.998Z</time></trkpt><trkpt lat="44.92069986392589" lon="7.2820348728397954"><ele>929.0</ele><time>2026-04-24T15:55:51.998Z</time></trkpt><trkpt lat="44.92067039090937" lon="7.282147149069785"><ele>927.3333333333333</ele><time>2026-04-24T15:55:53.998Z</time></trkpt><trkpt lat="44.92061490592737" lon="7.28229687473378"><ele>925.6666666666666</ele><time>2026-04-24T15:55:55.998Z</time></trkpt><trkpt lat="44.92057184535047" lon="7.282387561402097"><ele>924.0</ele><time>2026-04-24T15:55:56.998Z</time></trkpt><trkpt lat="44.92052782049203" lon="7.282454178872638"><ele>922.3333333333334</ele><time>2026-04-24T15:55:57.998Z</time></trkpt><trkpt lat="44.92047527127174" lon="7.282537465509649"><ele>920.6666666666667</ele><time>2026-04-24T15:55:58.998Z</time></trkpt><trkpt lat="44.9204388920118" lon="7.282627952211292"><ele>919.0</ele><time>2026-04-24T15:55:59.998Z</time></trkpt><trkpt lat="44.920400591853145" lon="7.282734709118252"><ele>917.3333333333334</ele><time>2026-04-24T15:56:00.998Z</time></trkpt><trkpt lat="44.92035170728505" lon="7.28281356651282"><ele>915.6666666666667</ele><time>2026-04-24T15:56:01.998Z</time></trkpt><trkpt lat="44.92027962119812" lon="7.282891054176914"><ele>914.0</ele><time>2026-04-24T15:56:02.998Z</time></trkpt><trkpt lat="44.92022808862913" lon="7.282958591824324"><ele>914.0000000000001</ele><time>2026-04-24T15:56:03.998Z</time></trkpt><trkpt lat="44.920159280028116" lon="7.283006106683482"><ele>914.0</ele><time>2026-04-24T15:56:04.998Z</time></trkpt><trkpt lat="44.92008973163399" lon="7.2830364545834065"><ele>914.0</ele><time>2026-04-24T15:56:05.998Z</time></trkpt><trkpt lat="44.92001729945239" lon="7.283014787105971"><ele>914.0</ele><time>2026-04-24T15:56:06.998Z</time></trkpt><trkpt lat="44.919939474296065" lon="7.283039625968468"><ele>914.0000000000001</ele><time>2026-04-24T15:56:08Z</time></trkpt><trkpt lat="44.91985982945937" lon="7.283040393882641"><ele>914.0</ele><time>2026-04-24T15:56:09Z</time></trkpt><trkpt lat="44.91977825019061" lon="7.283025071913907"><ele>914.0</ele><time>2026-04-24T15:56:10Z</time></trkpt><trkpt lat="44.91970175134035" lon="7.28297282581953"><ele>914.0000000000001</ele><time>2026-04-24T15:56:11Z</time></trkpt><trkpt lat="44.91962278110844" lon="7.282952139076564"><ele>914.0000000000001</ele><time>2026-04-24T15:56:12Z</time></trkpt><trkpt lat="44.91952405887938" lon="7.282892587462755"><ele>914.0</ele><time>2026-04-24T15:56:13Z</time></trkpt><trkpt lat="44.919399834310404" lon="7.282850218316257"><ele>914.0</ele><time>2026-04-24T15:56:14Z</time></trkpt><trkpt lat="44.919337547265336" lon="7.28280426760239"><ele>914.0</ele><time>2026-04-24T15:56:15Z</time></trkpt><trkpt lat="44.91926181252858" lon="7.28269582512743"><ele>914.0</ele><time>2026-04-24T15:56:16Z</time></trkpt><trkpt lat="44.919193189175914" lon="7.282548618604256"><ele>914.0</ele><time>2026-04-24T15:56:17Z</time></trkpt><trkpt lat="44.919118266298284" lon="7.282432540353474"><ele>914.0</ele><time>2026-04-24T15:56:18Z</time></trkpt><trkpt lat="44.91902253131379" lon="7.28235468687876"><ele>912.2</ele><time>2026-04-24T15:56:19Z</time></trkpt><trkpt lat="44.91895011267127" lon="7.282342685706612"><ele>910.4000000000001</ele><time>2026-04-24T15:56:20Z</time></trkpt><trkpt lat="44.918899603366036" lon="7.28226943115908"><ele>908.6</ele><time>2026-04-24T15:56:21Z</time></trkpt><trkpt lat="44.91882418192071" lon="7.282115909288242"><ele>906.8</ele><time>2026-04-24T15:56:23Z</time></trkpt><trkpt lat="44.91878610298669" lon="7.28202085419468"><ele>905.0</ele><time>2026-04-24T15:56:24Z</time></trkpt><trkpt lat="44.91878672651823" lon="7.281848871301372"><ele>905.0</ele><time>2026-04-24T15:56:25Z</time></trkpt><trkpt lat="44.918772191511" lon="7.281666852884721"><ele>905.0</ele><time>2026-04-24T15:56:26Z</time></trkpt><trkpt lat="44.91877803017508" lon="7.281519694074287"><ele>905.0</ele><time>2026-04-24T15:56:27Z</time></trkpt><trkpt lat="44.91878129596101" lon="7.281379960867967"><ele>905.0</ele><time>2026-04-24T15:56:28Z</time></trkpt><trkpt lat="44.91878318561888" lon="7.2812700339467895"><ele>905.0</ele><time>2026-04-24T15:56:29Z</time></trkpt><trkpt lat="44.918786060347145" lon="7.281171853317203"><ele>907.6666666666667</ele><time>2026-04-24T15:56:30Z</time></trkpt><trkpt lat="44.91878610108058" lon="7.281015520040006"><ele>910.3333333333334</ele><time>2026-04-24T15:56:32Z</time></trkpt><trkpt lat="44.91878588441611" lon="7.280894770313018"><ele>913.0</ele><time>2026-04-24T15:56:34Z</time></trkpt><trkpt lat="44.91871602067634" lon="7.280929595594986"><ele>915.6666666666667</ele><time>2026-04-24T15:56:43Z</time></trkpt><trkpt lat="44.91868455582106" lon="7.280830415254829"><ele>918.3333333333334</ele><time>2026-04-24T15:56:44Z</time></trkpt><trkpt lat="44.918611746895095" lon="7.280907017552598"><ele>921.0</ele><time>2026-04-24T15:56:47Z</time></trkpt><trkpt lat="44.9185377484563" lon="7.280921700672605"><ele>921.0</ele><time>2026-04-24T15:56:51Z</time></trkpt><trkpt lat="44.918514641181424" lon="7.281011186773631"><ele>921.0</ele><time>2026-04-24T15:56:53.999Z</time></trkpt><trkpt lat="44.91841026178585" lon="7.2810051366900925"><ele>921.0</ele><time>2026-04-24T15:56:56.999Z</time></trkpt><trkpt lat="44.91821717559093" lon="7.281051556300332"><ele>921.0</ele><time>2026-04-24T15:57:00.999Z</time></trkpt><trkpt lat="44.918128934914115" lon="7.281095394795845"><ele>917.8</ele><time>2026-04-24T15:57:03.999Z</time></trkpt><trkpt lat="44.91805938165995" lon="7.281125524953065"><ele>914.5999999999999</ele><time>2026-04-24T15:57:05.999Z</time></trkpt><trkpt lat="44.917970732025424" lon="7.281113609595304"><ele>911.4</ele><time>2026-04-24T15:57:06.999Z</time></trkpt><trkpt lat="44.91789212856237" lon="7.28109148405921"><ele>908.2</ele><time>2026-04-24T15:57:07.999Z</time></trkpt><trkpt lat="44.91780421729671" lon="7.281038981881331"><ele>905.0</ele><time>2026-04-24T15:57:08.999Z</time></trkpt><trkpt lat="44.917655041465366" lon="7.280963288221612"><ele>906.5</ele><time>2026-04-24T15:57:09.999Z</time></trkpt><trkpt lat="44.91751805945569" lon="7.280916977591789"><ele>908.0</ele><time>2026-04-24T15:57:10.999Z</time></trkpt><trkpt lat="44.91739399743151" lon="7.2808352589232515"><ele>909.5</ele><time>2026-04-24T15:57:11.999Z</time></trkpt><trkpt lat="44.917303768204725" lon="7.280754477495419"><ele>911.0</ele><time>2026-04-24T15:57:12.999Z</time></trkpt><trkpt lat="44.91721287828154" lon="7.280692127212063"><ele>911.0000000000001</ele><time>2026-04-24T15:57:13.999Z</time></trkpt><trkpt lat="44.91714125525377" lon="7.280645921178345"><ele>911.0</ele><time>2026-04-24T15:57:14.999Z</time></trkpt><trkpt lat="44.91705425554417" lon="7.280570345606758"><ele>911.0</ele><time>2026-04-24T15:57:15.999Z</time></trkpt><trkpt lat="44.91696881904062" lon="7.280503019792192"><ele>911.0</ele><time>2026-04-24T15:57:16.999Z</time></trkpt><trkpt lat="44.91689295893106" lon="7.280447084704198"><ele>911.0000000000001</ele><time>2026-04-24T15:57:17.999Z</time></trkpt><trkpt lat="44.916832360534315" lon="7.2804065579914115"><ele>911.0</ele><time>2026-04-24T15:57:18.999Z</time></trkpt><trkpt lat="44.916767373766234" lon="7.28035789335611"><ele>917.5</ele><time>2026-04-24T15:57:19.999Z</time></trkpt><trkpt lat="44.91669164314029" lon="7.280299553724352"><ele>924.0</ele><time>2026-04-24T15:57:20.999Z</time></trkpt><trkpt lat="44.91658826832474" lon="7.280201123349328"><ele>930.5</ele><time>2026-04-24T15:57:21.999Z</time></trkpt><trkpt lat="44.91647966242698" lon="7.280085103048299"><ele>937.0</ele><time>2026-04-24T15:57:22.999Z</time></trkpt><trkpt lat="44.91637979985855" lon="7.279995388682263"><ele>937.0</ele><time>2026-04-24T15:57:23.999Z</time></trkpt><trkpt lat="44.9162842120626" lon="7.279906330226469"><ele>937.0</ele><time>2026-04-24T15:57:24.999Z</time></trkpt><trkpt lat="44.91617556836498" lon="7.27980742169044"><ele>937.0</ele><time>2026-04-24T15:57:25.999Z</time></trkpt><trkpt lat="44.91606225251701" lon="7.279697380760378"><ele>937.0</ele><time>2026-04-24T15:57:26.999Z</time></trkpt><trkpt lat="44.91593244042071" lon="7.279549705886759"><ele>937.0</ele><time>2026-04-24T15:57:27.999Z</time></trkpt><trkpt lat="44.91581687166385" lon="7.279410659314211"><ele>937.0</ele><time>2026-04-24T15:57:28.999Z</time></trkpt><trkpt lat="44.91566521080751" lon="7.279251260082415"><ele>937.0</ele><time>2026-04-24T15:57:29.999Z</time></trkpt><trkpt lat="44.915484409675216" lon="7.279057792686338"><ele>939.0</ele><time>2026-04-24T15:57:30.999Z</time></trkpt><trkpt lat="44.915244097157924" lon="7.278852773597547"><ele>941.0</ele><time>2026-04-24T15:57:31.999Z</time></trkpt><trkpt lat="44.91510552404205" lon="7.278718977938779"><ele>943.0</ele><time>2026-04-24T15:57:32.999Z</time></trkpt><trkpt lat="44.91498225598674" lon="7.27860445363546"><ele>939.0</ele><time>2026-04-24T15:57:33.999Z</time></trkpt><trkpt lat="44.9148650853468" lon="7.278488299799427"><ele>935.0</ele><time>2026-04-24T15:57:34.999Z</time></trkpt><trkpt lat="44.91476120745279" lon="7.278380837170037"><ele>931.0</ele><time>2026-04-24T15:57:35.999Z</time></trkpt><trkpt lat="44.914671162148416" lon="7.278268413132215"><ele>927.0</ele><time>2026-04-24T15:57:36.999Z</time></trkpt><trkpt lat="44.91458912531806" lon="7.27814294774609"><ele>927.0</ele><time>2026-04-24T15:57:37.999Z</time></trkpt><trkpt lat="44.91452622183427" lon="7.278036744284826"><ele>927.0</ele><time>2026-04-24T15:57:38.999Z</time></trkpt><trkpt lat="44.91448849428393" lon="7.277921713644394"><ele>927.0</ele><time>2026-04-24T15:57:39.999Z</time></trkpt><trkpt lat="44.914454164510055" lon="7.277821898952156"><ele>927.0</ele><time>2026-04-24T15:57:40.998Z</time></trkpt><trkpt lat="44.91440923188707" lon="7.277715041654703"><ele>927.0</ele><time>2026-04-24T15:57:41.998Z</time></trkpt><trkpt lat="44.91435171864441" lon="7.277623225555019"><ele>927.0</ele><time>2026-04-24T15:57:42.998Z</time></trkpt><trkpt lat="44.91428588306884" lon="7.277539770347195"><ele>925.3333333333334</ele><time>2026-04-24T15:57:43.998Z</time></trkpt><trkpt lat="44.9142169812798" lon="7.277508063439408"><ele>923.6666666666667</ele><time>2026-04-24T15:57:44.998Z</time></trkpt><trkpt lat="44.91412058356535" lon="7.2775024032920985"><ele>922.0</ele><time>2026-04-24T15:57:46.998Z</time></trkpt><trkpt lat="44.91405419738385" lon="7.277549576391934"><ele>920.3333333333334</ele><time>2026-04-24T15:57:47.998Z</time></trkpt><trkpt lat="44.91399216947159" lon="7.277568366758073"><ele>918.6666666666667</ele><time>2026-04-24T15:57:48.998Z</time></trkpt><trkpt lat="44.9138910629905" lon="7.2775746315036445"><ele>917.0</ele><time>2026-04-24T15:57:50.998Z</time></trkpt><trkpt lat="44.91380529011175" lon="7.277605591593394"><ele>917.0</ele><time>2026-04-24T15:57:52.998Z</time></trkpt><trkpt lat="44.91374146842539" lon="7.277630598416355"><ele>917.0</ele><time>2026-04-24T15:57:54.998Z</time></trkpt><trkpt lat="44.91368498917506" lon="7.277696204222665"><ele>917.0</ele><time>2026-04-24T15:57:56.998Z</time></trkpt><trkpt lat="44.91369481218019" lon="7.277807028566485"><ele>917.0</ele><time>2026-04-24T15:57:59.998Z</time></trkpt><trkpt lat="44.91360284191046" lon="7.277851662621801"><ele>917.0</ele><time>2026-04-24T15:58:02.998Z</time></trkpt><trkpt lat="44.91345630764737" lon="7.278020389811069"><ele>920.5</ele><time>2026-04-24T15:58:05.998Z</time></trkpt><trkpt lat="44.913392109688544" lon="7.278121680716995"><ele>924.0</ele><time>2026-04-24T15:58:06.998Z</time></trkpt><trkpt lat="44.91333532312899" lon="7.278258473213695"><ele>927.5</ele><time>2026-04-24T15:58:07.998Z</time></trkpt><trkpt lat="44.91327056146425" lon="7.278412583129528"><ele>931.0</ele><time>2026-04-24T15:58:08.998Z</time></trkpt><trkpt lat="44.913210269167585" lon="7.27856580033342"><ele>931.0</ele><time>2026-04-24T15:58:09.998Z</time></trkpt><trkpt lat="44.91315478275414" lon="7.278712802590072"><ele>930.9999999999999</ele><time>2026-04-24T15:58:10.998Z</time></trkpt><trkpt lat="44.91310938898304" lon="7.27884298271156"><ele>930.9999999999999</ele><time>2026-04-24T15:58:11.998Z</time></trkpt><trkpt lat="44.91307507519444" lon="7.278977273593265"><ele>931.0</ele><time>2026-04-24T15:58:12.998Z</time></trkpt><trkpt lat="44.91305383246841" lon="7.279099334546686"><ele>931.0</ele><time>2026-04-24T15:58:14Z</time></trkpt><trkpt lat="44.913032711656854" lon="7.27922408208731"><ele>930.1666666666666</ele><time>2026-04-24T15:58:15Z</time></trkpt><trkpt lat="44.91302624540244" lon="7.279348501489478"><ele>929.3333333333333</ele><time>2026-04-24T15:58:16Z</time></trkpt><trkpt lat="44.91302685115724" lon="7.2794600537609355"><ele>928.5</ele><time>2026-04-24T15:58:17Z</time></trkpt><trkpt lat="44.9130382276972" lon="7.279573923186445"><ele>927.6666666666667</ele><time>2026-04-24T15:58:18Z</time></trkpt><trkpt lat="44.913054516318155" lon="7.279685550839548"><ele>926.8333333333334</ele><time>2026-04-24T15:58:19Z</time></trkpt><trkpt lat="44.913071463571704" lon="7.279797914085888"><ele>926.0</ele><time>2026-04-24T15:58:20Z</time></trkpt><trkpt lat="44.91309426222882" lon="7.2799055363231036"><ele>925.5000000000001</ele><time>2026-04-24T15:58:21Z</time></trkpt><trkpt lat="44.913121547504275" lon="7.279997147413961"><ele>925.0</ele><time>2026-04-24T15:58:22Z</time></trkpt><trkpt lat="44.9131452859706" lon="7.2801641225847495"><ele>924.5</ele><time>2026-04-24T15:58:24Z</time></trkpt><trkpt lat="44.91316960429518" lon="7.28025758420028"><ele>924.0</ele><time>2026-04-24T15:58:25Z</time></trkpt><trkpt lat="44.913186210071466" lon="7.280351351369073"><ele>923.5000000000001</ele><time>2026-04-24T15:58:26Z</time></trkpt><trkpt lat="44.91320286988928" lon="7.28045073974821"><ele>923.0</ele><time>2026-04-24T15:58:27Z</time></trkpt><trkpt lat="44.91323313678146" lon="7.280554958068814"><ele>922.1666666666667</ele><time>2026-04-24T15:58:28Z</time></trkpt><trkpt lat="44.913266883396794" lon="7.280655462538195"><ele>921.3333333333334</ele><time>2026-04-24T15:58:29Z</time></trkpt><trkpt lat="44.913308135729466" lon="7.280747177125305"><ele>920.5</ele><time>2026-04-24T15:58:30Z</time></trkpt><trkpt lat="44.91334714718239" lon="7.280852198546772"><ele>919.6666666666667</ele><time>2026-04-24T15:58:31Z</time></trkpt><trkpt lat="44.91338672092841" lon="7.280954310248107"><ele>918.8333333333334</ele><time>2026-04-24T15:58:32Z</time></trkpt><trkpt lat="44.91343425235449" lon="7.281053353670066"><ele>918.0</ele><time>2026-04-24T15:58:33Z</time></trkpt><trkpt lat="44.91347372273049" lon="7.281158135367428"><ele>912.5</ele><time>2026-04-24T15:58:34Z</time></trkpt><trkpt lat="44.9135077606357" lon="7.281268940192931"><ele>907.0</ele><time>2026-04-24T15:58:35Z</time></trkpt><trkpt lat="44.913535589099915" lon="7.2813903530941735"><ele>901.5</ele><time>2026-04-24T15:58:36Z</time></trkpt><trkpt lat="44.91354481470289" lon="7.281509842291009"><ele>896.0</ele><time>2026-04-24T15:58:37Z</time></trkpt><trkpt lat="44.91352078040798" lon="7.281644628173507"><ele>890.5</ele><time>2026-04-24T15:58:39Z</time></trkpt><trkpt lat="44.91357268097848" lon="7.281730060821467"><ele>885.0</ele><time>2026-04-24T15:58:42Z</time></trkpt><trkpt lat="44.913557603210855" lon="7.281840468186467"><ele>884.5</ele><time>2026-04-24T15:58:44Z</time></trkpt><trkpt lat="44.9135738213886" lon="7.281992433140522"><ele>884.0</ele><time>2026-04-24T15:58:46Z</time></trkpt><trkpt lat="44.91358979899173" lon="7.282080937306318"><ele>883.5</ele><time>2026-04-24T15:58:47Z</time></trkpt><trkpt lat="44.91359513957303" lon="7.2821765635618325"><ele>883.0</ele><time>2026-04-24T15:58:48Z</time></trkpt><trkpt lat="44.913618298323165" lon="7.282274120201482"><ele>882.5</ele><time>2026-04-24T15:58:49Z</time></trkpt><trkpt lat="44.913651289813295" lon="7.282374918653873"><ele>882.0</ele><time>2026-04-24T15:58:50Z</time></trkpt><trkpt lat="44.9136882969247" lon="7.282493053917238"><ele>880.4000000000001</ele><time>2026-04-24T15:58:51Z</time></trkpt><trkpt lat="44.91372774664954" lon="7.282611467887525"><ele>878.8000000000001</ele><time>2026-04-24T15:58:52Z</time></trkpt><trkpt lat="44.913771250530054" lon="7.282729865218935"><ele>877.2</ele><time>2026-04-24T15:58:53Z</time></trkpt><trkpt lat="44.91379683072126" lon="7.282836900399124"><ele>875.6</ele><time>2026-04-24T15:58:54Z</time></trkpt><trkpt lat="44.913813459598764" lon="7.283006125069477"><ele>874.0</ele><time>2026-04-24T15:58:56Z</time></trkpt><trkpt lat="44.91383638697906" lon="7.2830958761120215"><ele>871.4000000000001</ele><time>2026-04-24T15:58:57.999Z</time></trkpt><trkpt lat="44.913816884882145" lon="7.283251802593686"><ele>868.8000000000001</ele><time>2026-04-24T15:59:00.999Z</time></trkpt><trkpt lat="44.913799582147014" lon="7.2833452587328456"><ele>866.1999999999999</ele><time>2026-04-24T15:59:02.999Z</time></trkpt><trkpt lat="44.913786864837796" lon="7.283594131099172"><ele>863.5999999999999</ele><time>2026-04-24T15:59:04.999Z</time></trkpt><trkpt lat="44.913774047399514" lon="7.2836956292452975"><ele>861.0</ele><time>2026-04-24T15:59:05.999Z</time></trkpt><trkpt lat="44.91376539455628" lon="7.283811259077778"><ele>859.0</ele><time>2026-04-24T15:59:06.999Z</time></trkpt><trkpt lat="44.91377885929189" lon="7.283938867597965"><ele>857.0</ele><time>2026-04-24T15:59:07.999Z</time></trkpt><trkpt lat="44.91378519803777" lon="7.284054498854537"><ele>855.0</ele><time>2026-04-24T15:59:08.999Z</time></trkpt><trkpt lat="44.91380189663689" lon="7.2841622654385"><ele>853.0</ele><time>2026-04-24T15:59:09.999Z</time></trkpt><trkpt lat="44.913825574926214" lon="7.2842715049145195"><ele>851.0</ele><time>2026-04-24T15:59:10.999Z</time></trkpt><trkpt lat="44.91385085709215" lon="7.2843824219577655"><ele>849.0</ele><time>2026-04-24T15:59:11.999Z</time></trkpt><trkpt lat="44.91387256114867" lon="7.284505765760693"><ele>849.0</ele><time>2026-04-24T15:59:12.999Z</time></trkpt><trkpt lat="44.91388275450328" lon="7.284633250849659"><ele>849.0</ele><time>2026-04-24T15:59:13.999Z</time></trkpt><trkpt lat="44.913884115318496" lon="7.284749923164511"><ele>849.0</ele><time>2026-04-24T15:59:14.999Z</time></trkpt><trkpt lat="44.91389956642215" lon="7.284872313301081"><ele>849.0</ele><time>2026-04-24T15:59:15.999Z</time></trkpt><trkpt lat="44.91391603933541" lon="7.284972761575112"><ele>849.0</ele><time>2026-04-24T15:59:16.999Z</time></trkpt><trkpt lat="44.913873144037765" lon="7.285092409035026"><ele>849.0</ele><time>2026-04-24T15:59:19.999Z</time></trkpt><trkpt lat="44.91384978170383" lon="7.285181123746194"><ele>848.0</ele><time>2026-04-24T15:59:21.999Z</time></trkpt><trkpt lat="44.9139069138626" lon="7.285320549983643"><ele>847.0</ele><time>2026-04-24T15:59:23.999Z</time></trkpt><trkpt lat="44.913913987554366" lon="7.285434891615625"><ele>846.0</ele><time>2026-04-24T15:59:25.999Z</time></trkpt><trkpt lat="44.91393639947133" lon="7.28552786688476"><ele>845.0</ele><time>2026-04-24T15:59:28.999Z</time></trkpt><trkpt lat="44.91395397622514" lon="7.285824240741894"><ele>844.3333333333334</ele><time>2026-04-24T15:59:29.999Z</time></trkpt><trkpt lat="44.913967598783316" lon="7.285927274060669"><ele>843.6666666666667</ele><time>2026-04-24T15:59:30.999Z</time></trkpt><trkpt lat="44.91400046384643" lon="7.2860295348136495"><ele>843.0</ele><time>2026-04-24T15:59:31.999Z</time></trkpt><trkpt lat="44.91404817595893" lon="7.286140676039097"><ele>842.3333333333333</ele><time>2026-04-24T15:59:32.999Z</time></trkpt><trkpt lat="44.91409516158391" lon="7.286251678351876"><ele>841.6666666666666</ele><time>2026-04-24T15:59:33.999Z</time></trkpt><trkpt lat="44.9141400787035" lon="7.28635813807554"><ele>841.0</ele><time>2026-04-24T15:59:34.999Z</time></trkpt><trkpt lat="44.914177424853825" lon="7.286471727900837"><ele>839.4999999999999</ele><time>2026-04-24T15:59:35.999Z</time></trkpt><trkpt lat="44.91421382955238" lon="7.28658350421809"><ele>838.0</ele><time>2026-04-24T15:59:36.999Z</time></trkpt><trkpt lat="44.91420579924654" lon="7.286690316569626"><ele>836.5</ele><time>2026-04-24T15:59:37.999Z</time></trkpt><trkpt lat="44.91417184782604" lon="7.286785412956642"><ele>835.0</ele><time>2026-04-24T15:59:38.999Z</time></trkpt><trkpt lat="44.91413790644147" lon="7.286895936441569"><ele>833.4999999999999</ele><time>2026-04-24T15:59:39.999Z</time></trkpt><trkpt lat="44.914065934664514" lon="7.28698607794764"><ele>832.0</ele><time>2026-04-24T15:59:40.999Z</time></trkpt><trkpt lat="44.91399126703061" lon="7.287080185795699"><ele>832.0</ele><time>2026-04-24T15:59:41.999Z</time></trkpt><trkpt lat="44.91389247782805" lon="7.287129252528889"><ele>832.0</ele><time>2026-04-24T15:59:42.999Z</time></trkpt><trkpt lat="44.91384777926033" lon="7.287216003042541"><ele>832.0</ele><time>2026-04-24T15:59:43.999Z</time></trkpt><trkpt lat="44.91380544870018" lon="7.28735761396892"><ele>832.0</ele><time>2026-04-24T15:59:45.998Z</time></trkpt><trkpt lat="44.91384443095648" lon="7.287444441725438"><ele>832.0</ele><time>2026-04-24T15:59:46.998Z</time></trkpt><trkpt lat="44.91393416777604" lon="7.287532201345753"><ele>830.6666666666666</ele><time>2026-04-24T15:59:47.998Z</time></trkpt><trkpt lat="44.91397852710605" lon="7.287605911409112"><ele>829.3333333333333</ele><time>2026-04-24T15:59:48.998Z</time></trkpt><trkpt lat="44.914022538113684" lon="7.287695747617071"><ele>828.0</ele><time>2026-04-24T15:59:49.998Z</time></trkpt><trkpt lat="44.914085237428615" lon="7.287778974925771"><ele>826.6666666666667</ele><time>2026-04-24T15:59:50.998Z</time></trkpt><trkpt lat="44.91415562637403" lon="7.287864179760838"><ele>825.3333333333334</ele><time>2026-04-24T15:59:51.998Z</time></trkpt><trkpt lat="44.91422871039203" lon="7.287956124216498"><ele>824.0</ele><time>2026-04-24T15:59:52.998Z</time></trkpt><trkpt lat="44.91430226426082" lon="7.288043158312015"><ele>819.5000000000001</ele><time>2026-04-24T15:59:53.998Z</time></trkpt><trkpt lat="44.91436748727565" lon="7.288121158953099"><ele>815.0</ele><time>2026-04-24T15:59:54.998Z</time></trkpt><trkpt lat="44.914429134643164" lon="7.288201250463751"><ele>810.5</ele><time>2026-04-24T15:59:55.998Z</time></trkpt><trkpt lat="44.914486555973134" lon="7.288295651973115"><ele>806.0</ele><time>2026-04-24T15:59:56.998Z</time></trkpt><trkpt lat="44.91452976438165" lon="7.2884088906186335"><ele>801.5000000000001</ele><time>2026-04-24T15:59:57.998Z</time></trkpt><trkpt lat="44.914535858192515" lon="7.288521950962314"><ele>797.0</ele><time>2026-04-24T15:59:58.998Z</time></trkpt><trkpt lat="44.914550597767025" lon="7.28861997221233"><ele>797.0000000000001</ele><time>2026-04-24T15:59:59.998Z</time></trkpt><trkpt lat="44.914553362767" lon="7.288717193111373"><ele>797.0</ele><time>2026-04-24T16:00:00.998Z</time></trkpt><trkpt lat="44.914556442682034" lon="7.288816187759536"><ele>797.0</ele><time>2026-04-24T16:00:01.998Z</time></trkpt><trkpt lat="44.91454703711627" lon="7.288924959986257"><ele>797.0</ele><time>2026-04-24T16:00:02.998Z</time></trkpt><trkpt lat="44.91452965265432" lon="7.2890298708890615"><ele>797.0000000000001</ele><time>2026-04-24T16:00:03.998Z</time></trkpt><trkpt lat="44.914505835341345" lon="7.289160163732926"><ele>797.0</ele><time>2026-04-24T16:00:04.998Z</time></trkpt><trkpt lat="44.9144761940523" lon="7.289289599148339"><ele>795.8</ele><time>2026-04-24T16:00:05.998Z</time></trkpt><trkpt lat="44.914437244930696" lon="7.289399013956864"><ele>794.6</ele><time>2026-04-24T16:00:06.998Z</time></trkpt><trkpt lat="44.91436781756881" lon="7.289463621789534"><ele>793.4</ele><time>2026-04-24T16:00:07.998Z</time></trkpt><trkpt lat="44.914292531440026" lon="7.289452767172611"><ele>792.1999999999999</ele><time>2026-04-24T16:00:08.998Z</time></trkpt><trkpt lat="44.91420703489206" lon="7.289427321845931"><ele>791.0</ele><time>2026-04-24T16:00:09.998Z</time></trkpt><trkpt lat="44.91408920239993" lon="7.2894088254211695"><ele>793.4</ele><time>2026-04-24T16:00:10.998Z</time></trkpt><trkpt lat="44.91398093551527" lon="7.289379349247923"><ele>795.8</ele><time>2026-04-24T16:00:11.998Z</time></trkpt><trkpt lat="44.91387662651585" lon="7.289334675571104"><ele>798.1999999999999</ele><time>2026-04-24T16:00:12.998Z</time></trkpt><trkpt lat="44.913781839836396" lon="7.289283768092629"><ele>800.5999999999999</ele><time>2026-04-24T16:00:13.998Z</time></trkpt><trkpt lat="44.91367743583142" lon="7.289214785573723"><ele>803.0</ele><time>2026-04-24T16:00:14.998Z</time></trkpt><trkpt lat="44.91357258220417" lon="7.289147099880306"><ele>803.0000000000001</ele><time>2026-04-24T16:00:15.998Z</time></trkpt><trkpt lat="44.91348548706431" lon="7.289090845474622"><ele>803.0</ele><time>2026-04-24T16:00:16.998Z</time></trkpt><trkpt lat="44.91339820580979" lon="7.28903770144691"><ele>803.0</ele><time>2026-04-24T16:00:17.998Z</time></trkpt><trkpt lat="44.913308858130414" lon="7.289000325756852"><ele>803.0</ele><time>2026-04-24T16:00:18.998Z</time></trkpt><trkpt lat="44.91324147862117" lon="7.289001600063088"><ele>803.0000000000001</ele><time>2026-04-24T16:00:20Z</time></trkpt><trkpt lat="44.913171618917154" lon="7.288950838456506"><ele>803.0</ele><time>2026-04-24T16:00:22Z</time></trkpt><trkpt lat="44.91314479946527" lon="7.288848643563136"><ele>801.2</ele><time>2026-04-24T16:00:25Z</time></trkpt><trkpt lat="44.91318808428188" lon="7.288636259843131"><ele>799.4</ele><time>2026-04-24T16:00:26Z</time></trkpt><trkpt lat="44.913225173515706" lon="7.288538486478718"><ele>797.6</ele><time>2026-04-24T16:00:27Z</time></trkpt><trkpt lat="44.91323069814755" lon="7.288415902614737"><ele>795.8000000000001</ele><time>2026-04-24T16:00:28Z</time></trkpt><trkpt lat="44.9132379522007" lon="7.288282715071586"><ele>794.0</ele><time>2026-04-24T16:00:29Z</time></trkpt><trkpt lat="44.91320882798186" lon="7.288154435322726"><ele>795.8333333333334</ele><time>2026-04-24T16:00:30Z</time></trkpt><trkpt lat="44.91317482660647" lon="7.28803904713385"><ele>797.6666666666667</ele><time>2026-04-24T16:00:31Z</time></trkpt><trkpt lat="44.91313925676293" lon="7.287930368239104"><ele>799.5</ele><time>2026-04-24T16:00:32Z</time></trkpt><trkpt lat="44.913084554725735" lon="7.287829323507939"><ele>801.3333333333333</ele><time>2026-04-24T16:00:33Z</time></trkpt><trkpt lat="44.913046169614084" lon="7.287747432482077"><ele>803.1666666666666</ele><time>2026-04-24T16:00:34Z</time></trkpt><trkpt lat="44.9130091706593" lon="7.2876483362873525"><ele>805.0</ele><time>2026-04-24T16:00:35Z</time></trkpt><trkpt lat="44.912957532507455" lon="7.287547818985079"><ele>804.9999999999999</ele><time>2026-04-24T16:00:36Z</time></trkpt><trkpt lat="44.912865656677745" lon="7.28752248924026"><ele>805.0</ele><time>2026-04-24T16:00:38Z</time></trkpt><trkpt lat="44.91277512281472" lon="7.287648654202397"><ele>805.0</ele><time>2026-04-24T16:00:40Z</time></trkpt><trkpt lat="44.91270007138366" lon="7.28763104847661"><ele>805.0</ele><time>2026-04-24T16:00:42Z</time></trkpt><trkpt lat="44.91262265598469" lon="7.287611932041316"><ele>804.9999999999999</ele><time>2026-04-24T16:00:44Z</time></trkpt><trkpt lat="44.91256568633317" lon="7.287661502089532"><ele>805.0</ele><time>2026-04-24T16:00:48Z</time></trkpt><trkpt lat="44.91248353827287" lon="7.287692083445266"><ele>800.3333333333333</ele><time>2026-04-24T16:00:50Z</time></trkpt><trkpt lat="44.912364302901835" lon="7.287773875878481"><ele>795.6666666666667</ele><time>2026-04-24T16:00:52Z</time></trkpt><trkpt lat="44.91208404610655" lon="7.287864914104642"><ele>791.0</ele><time>2026-04-24T16:00:54Z</time></trkpt><trkpt lat="44.912007447411376" lon="7.287905259963294"><ele>791.0</ele><time>2026-04-24T16:00:55Z</time></trkpt><trkpt lat="44.91193831264779" lon="7.287913062017432"><ele>791.0</ele><time>2026-04-24T16:00:56Z</time></trkpt><trkpt lat="44.91186567633588" lon="7.2879202292996155"><ele>791.0</ele><time>2026-04-24T16:00:57Z</time></trkpt><trkpt lat="44.91176438737378" lon="7.287972195374672"><ele>791.0</ele><time>2026-04-24T16:00:59Z</time></trkpt><trkpt lat="44.91169601078523" lon="7.2880505170486"><ele>791.0</ele><time>2026-04-24T16:01:00.999Z</time></trkpt><trkpt lat="44.911416930658476" lon="7.288210937809408"><ele>788.5999999999999</ele><time>2026-04-24T16:01:02.999Z</time></trkpt><trkpt lat="44.91133146753302" lon="7.288286929317073"><ele>786.2</ele><time>2026-04-24T16:01:03.999Z</time></trkpt><trkpt lat="44.911288753924346" lon="7.288378609531723"><ele>783.8</ele><time>2026-04-24T16:01:04.999Z</time></trkpt><trkpt lat="44.911252950939875" lon="7.288467666517384"><ele>781.4000000000001</ele><time>2026-04-24T16:01:05.999Z</time></trkpt><trkpt lat="44.91118942023859" lon="7.2885478885942625"><ele>779.0</ele><time>2026-04-24T16:01:07.999Z</time></trkpt><trkpt lat="44.91105439523535" lon="7.288643400298111"><ele>779.0000000000001</ele><time>2026-04-24T16:01:09.999Z</time></trkpt><trkpt lat="44.91098414405933" lon="7.288710006862905"><ele>779.0</ele><time>2026-04-24T16:01:10.999Z</time></trkpt><trkpt lat="44.91093110903588" lon="7.288784348055814"><ele>779.0</ele><time>2026-04-24T16:01:11.999Z</time></trkpt><trkpt lat="44.910878270348036" lon="7.288837693646522"><ele>779.0</ele><time>2026-04-24T16:01:13.999Z</time></trkpt><trkpt lat="44.910793444228716" lon="7.288873140645077"><ele>779.0000000000001</ele><time>2026-04-24T16:01:16.999Z</time></trkpt><trkpt lat="44.91069410900812" lon="7.288870793979793"><ele>779.0</ele><time>2026-04-24T16:01:18.999Z</time></trkpt><trkpt lat="44.910610650571144" lon="7.288854634707638"><ele>778.5000000000001</ele><time>2026-04-24T16:01:22.999Z</time></trkpt><trkpt lat="44.91054804998266" lon="7.288871419794197"><ele>778.0</ele><time>2026-04-24T16:01:24.999Z</time></trkpt><trkpt lat="44.91046709860815" lon="7.2888966701780875"><ele>777.5</ele><time>2026-04-24T16:01:26.999Z</time></trkpt><trkpt lat="44.910390153664444" lon="7.288907861310939"><ele>777.0</ele><time>2026-04-24T16:01:29.999Z</time></trkpt><trkpt lat="44.91027207055364" lon="7.289021794706364"><ele>776.5000000000001</ele><time>2026-04-24T16:01:31.999Z</time></trkpt><trkpt lat="44.91021601807886" lon="7.289068842449004"><ele>776.0</ele><time>2026-04-24T16:01:32.999Z</time></trkpt><trkpt lat="44.9101408162196" lon="7.289073277173323"><ele>778.1999999999999</ele><time>2026-04-24T16:01:33.999Z</time></trkpt><trkpt lat="44.91005899536026" lon="7.289081596818771"><ele>780.4</ele><time>2026-04-24T16:01:34.999Z</time></trkpt><trkpt lat="44.90998616873286" lon="7.289121173228987"><ele>782.6</ele><time>2026-04-24T16:01:35.999Z</time></trkpt><trkpt lat="44.909924428145395" lon="7.289190080946192"><ele>784.8</ele><time>2026-04-24T16:01:36.999Z</time></trkpt><trkpt lat="44.909831471081645" lon="7.289289577810593"><ele>787.0</ele><time>2026-04-24T16:01:37.999Z</time></trkpt><trkpt lat="44.909715593664245" lon="7.289414793514674"><ele>787.0</ele><time>2026-04-24T16:01:38.999Z</time></trkpt><trkpt lat="44.90960752593892" lon="7.289541481786705"><ele>787.0</ele><time>2026-04-24T16:01:39.999Z</time></trkpt><trkpt lat="44.90952030705114" lon="7.289610683679227"><ele>787.0</ele><time>2026-04-24T16:01:40.999Z</time></trkpt><trkpt lat="44.90943205778127" lon="7.289663438312402"><ele>787.0</ele><time>2026-04-24T16:01:41.999Z</time></trkpt><trkpt lat="44.90935550938688" lon="7.289688550219523"><ele>787.0</ele><time>2026-04-24T16:01:42.999Z</time></trkpt><trkpt lat="44.909275858862685" lon="7.289700921788697"><ele>790.8</ele><time>2026-04-24T16:01:43.999Z</time></trkpt><trkpt lat="44.90920296648972" lon="7.289720127089615"><ele>794.6</ele><time>2026-04-24T16:01:44.999Z</time></trkpt><trkpt lat="44.90904617240353" lon="7.289734520903475"><ele>798.4</ele><time>2026-04-24T16:01:45.999Z</time></trkpt><trkpt lat="44.9089563683666" lon="7.289685859741394"><ele>802.1999999999999</ele><time>2026-04-24T16:01:46.999Z</time></trkpt><trkpt lat="44.908867634321496" lon="7.289653705772"><ele>806.0</ele><time>2026-04-24T16:01:47.998Z</time></trkpt><trkpt lat="44.90877741958838" lon="7.289614909496753"><ele>806.0</ele><time>2026-04-24T16:01:48.998Z</time></trkpt><trkpt lat="44.908673661439636" lon="7.28956849495984"><ele>806.0</ele><time>2026-04-24T16:01:49.998Z</time></trkpt><trkpt lat="44.908552015190644" lon="7.289570261375851"><ele>806.0</ele><time>2026-04-24T16:01:51.998Z</time></trkpt><trkpt lat="44.90847658155727" lon="7.289519932939583"><ele>806.0</ele><time>2026-04-24T16:01:54.998Z</time></trkpt><trkpt lat="44.90842072636269" lon="7.289597284771313"><ele>806.0</ele><time>2026-04-24T16:01:57.998Z</time></trkpt><trkpt lat="44.908268179512575" lon="7.289874375644537"><ele>802.5999999999999</ele><time>2026-04-24T16:02:00.998Z</time></trkpt><trkpt lat="44.90821529024683" lon="7.289958601195495"><ele>799.2</ele><time>2026-04-24T16:02:01.998Z</time></trkpt><trkpt lat="44.90813975028115" lon="7.290099730161894"><ele>795.8</ele><time>2026-04-24T16:02:03.998Z</time></trkpt><trkpt lat="44.90810727849912" lon="7.290198383732488"><ele>792.4000000000001</ele><time>2026-04-24T16:02:04.998Z</time></trkpt><trkpt lat="44.90807058933909" lon="7.290312639674496"><ele>789.0</ele><time>2026-04-24T16:02:05.998Z</time></trkpt><trkpt lat="44.9080380735994" lon="7.290424298130821"><ele>789.0</ele><time>2026-04-24T16:02:06.998Z</time></trkpt><trkpt lat="44.90800476785107" lon="7.290522104560466"><ele>789.0</ele><time>2026-04-24T16:02:07.998Z</time></trkpt><trkpt lat="44.90797385279938" lon="7.29061527866818"><ele>789.0</ele><time>2026-04-24T16:02:08.998Z</time></trkpt><trkpt lat="44.90794059403834" lon="7.290701959331795"><ele>789.0</ele><time>2026-04-24T16:02:09.998Z</time></trkpt><trkpt lat="44.90797589355371" lon="7.290867113403524"><ele>789.0</ele><time>2026-04-24T16:02:11.998Z</time></trkpt><trkpt lat="44.907997854711816" lon="7.290951961409935"><ele>789.0</ele><time>2026-04-24T16:02:12.998Z</time></trkpt><trkpt lat="44.90798957266837" lon="7.291078063166818"><ele>785.4000000000001</ele><time>2026-04-24T16:02:14.998Z</time></trkpt><trkpt lat="44.9080036512611" lon="7.291218335402394"><ele>781.8</ele><time>2026-04-24T16:02:24.998Z</time></trkpt><trkpt lat="44.907964493503364" lon="7.291301052158699"><ele>778.2</ele><time>2026-04-24T16:02:26Z</time></trkpt><trkpt lat="44.90790902576086" lon="7.291386901253706"><ele>774.5999999999999</ele><time>2026-04-24T16:02:27Z</time></trkpt><trkpt lat="44.90785988458645" lon="7.2914987678214676"><ele>771.0</ele><time>2026-04-24T16:02:29Z</time></trkpt><trkpt lat="44.90783066642109" lon="7.291652154218933"><ele>770.8</ele><time>2026-04-24T16:02:31Z</time></trkpt><trkpt lat="44.90782255254814" lon="7.291757747633892"><ele>770.5999999999999</ele><time>2026-04-24T16:02:32Z</time></trkpt><trkpt lat="44.90778653775621" lon="7.291857578427931"><ele>770.4</ele><time>2026-04-24T16:02:33Z</time></trkpt><trkpt lat="44.907664856706255" lon="7.291933438280796"><ele>770.2</ele><time>2026-04-24T16:02:35Z</time></trkpt><trkpt lat="44.907594989639755" lon="7.29194262088292"><ele>770.0</ele><time>2026-04-24T16:02:36Z</time></trkpt><trkpt lat="44.90751310681047" lon="7.292013830735028"><ele>770.0</ele><time>2026-04-24T16:02:38Z</time></trkpt><trkpt lat="44.90745330708464" lon="7.292047576563366"><ele>770.0</ele><time>2026-04-24T16:02:40Z</time></trkpt><trkpt lat="44.90738020864113" lon="7.2920533856468355"><ele>770.0</ele><time>2026-04-24T16:02:43Z</time></trkpt><trkpt lat="44.90734488385459" lon="7.2921431824714045"><ele>770.0</ele><time>2026-04-24T16:02:46Z</time></trkpt><trkpt lat="44.90705448308646" lon="7.29217320760185"><ele>770.0</ele><time>2026-04-24T16:02:47Z</time></trkpt><trkpt lat="44.90699118708788" lon="7.292203995933753"><ele>770.0</ele><time>2026-04-24T16:02:48Z</time></trkpt><trkpt lat="44.90689596880682" lon="7.292311194858263"><ele>770.0</ele><time>2026-04-24T16:02:50Z</time></trkpt><trkpt lat="44.906806502192886" lon="7.2923983349114305"><ele>770.0</ele><time>2026-04-24T16:02:52Z</time></trkpt><trkpt lat="44.90676992152546" lon="7.2925309002134835"><ele>770.0</ele><time>2026-04-24T16:02:55Z</time></trkpt><trkpt lat="44.90679581904283" lon="7.292668158494888"><ele>763.8</ele><time>2026-04-24T16:02:57Z</time></trkpt><trkpt lat="44.906811475771036" lon="7.29282805327704"><ele>757.6</ele><time>2026-04-24T16:02:59Z</time></trkpt><trkpt lat="44.90680942633266" lon="7.292935726466332"><ele>751.4000000000001</ele><time>2026-04-24T16:03:00Z</time></trkpt><trkpt lat="44.906812996151366" lon="7.2930333411447545"><ele>745.2</ele><time>2026-04-24T16:03:01Z</time></trkpt><trkpt lat="44.906779967076204" lon="7.2931720305735155"><ele>739.0</ele><time>2026-04-24T16:03:03Z</time></trkpt><trkpt lat="44.90671985205264" lon="7.293301484548108"><ele>738.6</ele><time>2026-04-24T16:03:04.999Z</time></trkpt><trkpt lat="44.90670120546058" lon="7.2933925465078735"><ele>738.2</ele><time>2026-04-24T16:03:05.999Z</time></trkpt><trkpt lat="44.906731010896564" lon="7.293551302850136"><ele>737.8000000000001</ele><time>2026-04-24T16:03:06.999Z</time></trkpt><trkpt lat="44.906712362575476" lon="7.293657839586285"><ele>737.4000000000001</ele><time>2026-04-24T16:03:07.999Z</time></trkpt><trkpt lat="44.90662270643327" lon="7.29374642264315"><ele>737.0</ele><time>2026-04-24T16:03:09.999Z</time></trkpt><trkpt lat="44.90650318585163" lon="7.293841862304553"><ele>737.0</ele><time>2026-04-24T16:03:11.999Z</time></trkpt><trkpt lat="44.90641226680589" lon="7.293900274621134"><ele>737.0</ele><time>2026-04-24T16:03:12.999Z</time></trkpt><trkpt lat="44.906337868730155" lon="7.293981987315765"><ele>737.0</ele><time>2026-04-24T16:03:13.999Z</time></trkpt><trkpt lat="44.90626895550438" lon="7.29406601468528"><ele>737.0</ele><time>2026-04-24T16:03:14.999Z</time></trkpt><trkpt lat="44.90621176322062" lon="7.294136216028308"><ele>737.0</ele><time>2026-04-24T16:03:15.999Z</time></trkpt><trkpt lat="44.90616168212677" lon="7.294225729910698"><ele>737.0</ele><time>2026-04-24T16:03:16.999Z</time></trkpt><trkpt lat="44.90611769263532" lon="7.294302471385771"><ele>735.3333333333333</ele><time>2026-04-24T16:03:17.999Z</time></trkpt><trkpt lat="44.90605740325706" lon="7.2943530484665215"><ele>733.6666666666666</ele><time>2026-04-24T16:03:18.999Z</time></trkpt><trkpt lat="44.90599679464795" lon="7.294405723351425"><ele>732.0</ele><time>2026-04-24T16:03:19.999Z</time></trkpt><trkpt lat="44.905921429072194" lon="7.2944513402298"><ele>730.3333333333334</ele><time>2026-04-24T16:03:20.999Z</time></trkpt><trkpt lat="44.905843769490325" lon="7.2944897558785335"><ele>728.6666666666667</ele><time>2026-04-24T16:03:21.999Z</time></trkpt><trkpt lat="44.905759682816594" lon="7.294516110174661"><ele>727.0</ele><time>2026-04-24T16:03:22.999Z</time></trkpt><trkpt lat="44.90567330653236" lon="7.294529129960392"><ele>727.0</ele><time>2026-04-24T16:03:23.999Z</time></trkpt><trkpt lat="44.905575359336126" lon="7.294547485311331"><ele>727.0</ele><time>2026-04-24T16:03:24.999Z</time></trkpt><trkpt lat="44.90548119823302" lon="7.294491935704665"><ele>727.0</ele><time>2026-04-24T16:03:26.999Z</time></trkpt><trkpt lat="44.905422219431145" lon="7.294387803026855"><ele>727.0</ele><time>2026-04-24T16:03:28.999Z</time></trkpt><trkpt lat="44.90525917275592" lon="7.294326966419672"><ele>727.0</ele><time>2026-04-24T16:03:30.999Z</time></trkpt><trkpt lat="44.90515649669079" lon="7.294243184076847"><ele>727.0</ele><time>2026-04-24T16:03:32.999Z</time></trkpt><trkpt lat="44.90508257823293" lon="7.294241698445292"><ele>727.0</ele><time>2026-04-24T16:03:34.999Z</time></trkpt><trkpt lat="44.90495626451886" lon="7.294268043161381"><ele>727.0</ele><time>2026-04-24T16:03:36.999Z</time></trkpt><trkpt lat="44.90484522427483" lon="7.294288570873265"><ele>727.0</ele><time>2026-04-24T16:03:37.999Z</time></trkpt><trkpt lat="44.90474905899601" lon="7.294316142126339"><ele>725.8333333333334</ele><time>2026-04-24T16:03:38.999Z</time></trkpt><trkpt lat="44.90466231159019" lon="7.294359183678577"><ele>724.6666666666667</ele><time>2026-04-24T16:03:39.999Z</time></trkpt><trkpt lat="44.90459002903404" lon="7.294402176098191"><ele>723.5</ele><time>2026-04-24T16:03:40.999Z</time></trkpt><trkpt lat="44.90448972130426" lon="7.29444616519504"><ele>722.3333333333334</ele><time>2026-04-24T16:03:42.999Z</time></trkpt><trkpt lat="44.90440769385988" lon="7.294475143959488"><ele>721.1666666666666</ele><time>2026-04-24T16:03:43.999Z</time></trkpt><trkpt lat="44.904345221222606" lon="7.29449930841356"><ele>720.0</ele><time>2026-04-24T16:03:44.999Z</time></trkpt><trkpt lat="44.9042463576387" lon="7.29448761601606"><ele>718.6</ele><time>2026-04-24T16:03:46.999Z</time></trkpt><trkpt lat="44.90418719105753" lon="7.294441001503267"><ele>717.2</ele><time>2026-04-24T16:04:09.998Z</time></trkpt><trkpt lat="44.90409372554052" lon="7.294491480359568"><ele>715.8</ele><time>2026-04-24T16:04:11.998Z</time></trkpt><trkpt lat="44.904017187542955" lon="7.294568078576376"><ele>714.4</ele><time>2026-04-24T16:04:12.998Z</time></trkpt><trkpt lat="44.903933826965165" lon="7.294659966567708"><ele>713.0</ele><time>2026-04-24T16:04:13.998Z</time></trkpt><trkpt lat="44.903871048899624" lon="7.294789938624374"><ele>709.1666666666666</ele><time>2026-04-24T16:04:14.998Z</time></trkpt><trkpt lat="44.90385621631032" lon="7.294903344062423"><ele>705.3333333333333</ele><time>2026-04-24T16:04:15.998Z</time></trkpt><trkpt lat="44.90376782649225" lon="7.294962812363311"><ele>701.5</ele><time>2026-04-24T16:04:25.998Z</time></trkpt><trkpt lat="44.903770565460626" lon="7.295064146869017"><ele>697.6666666666666</ele><time>2026-04-24T16:04:39Z</time></trkpt><trkpt lat="44.9037548823214" lon="7.295155365963982"><ele>693.8333333333334</ele><time>2026-04-24T16:04:43Z</time></trkpt><trkpt lat="44.90368920032038" lon="7.295247679462502"><ele>690.0</ele><time>2026-04-24T16:04:45Z</time></trkpt><trkpt lat="44.903638802624535" lon="7.295336034233857"><ele>690.0</ele><time>2026-04-24T16:04:47Z</time></trkpt><trkpt lat="44.903552822154424" lon="7.295368474610142"><ele>690.0</ele><time>2026-04-24T16:04:50Z</time></trkpt><trkpt lat="44.90348009538299" lon="7.295388795503618"><ele>690.0</ele><time>2026-04-24T16:04:51Z</time></trkpt><trkpt lat="44.903407642019104" lon="7.295407546617062"><ele>690.0</ele><time>2026-04-24T16:04:54Z</time></trkpt><trkpt lat="44.90329392369507" lon="7.2954683531906985"><ele>690.0</ele><time>2026-04-24T16:04:56Z</time></trkpt><trkpt lat="44.903230633287436" lon="7.295475574976419"><ele>690.0</ele><time>2026-04-24T16:04:59Z</time></trkpt><trkpt lat="44.903158444517366" lon="7.295501394282586"><ele>689.6666666666666</ele><time>2026-04-24T16:05:01Z</time></trkpt><trkpt lat="44.903099347198484" lon="7.295537938535727"><ele>689.3333333333333</ele><time>2026-04-24T16:05:03Z</time></trkpt><trkpt lat="44.90306479196534" lon="7.295659586353327"><ele>689.0</ele><time>2026-04-24T16:05:06Z</time></trkpt><trkpt lat="44.903137509991495" lon="7.296369132224127"><ele>683.8333333333333</ele><time>2026-04-24T16:05:11.999Z</time></trkpt><trkpt lat="44.90311720289228" lon="7.296519088674922"><ele>678.6666666666666</ele><time>2026-04-24T16:05:13.999Z</time></trkpt><trkpt lat="44.90307391953103" lon="7.296622132920392"><ele>673.5</ele><time>2026-04-24T16:05:15.999Z</time></trkpt><trkpt lat="44.903036832382256" lon="7.296708192848859"><ele>668.3333333333334</ele><time>2026-04-24T16:05:17.999Z</time></trkpt><trkpt lat="44.90297775933772" lon="7.296776344172208"><ele>663.1666666666667</ele><time>2026-04-24T16:05:19.999Z</time></trkpt><trkpt lat="44.90293636320546" lon="7.296844878514414"><ele>658.0</ele><time>2026-04-24T16:05:20.999Z</time></trkpt><trkpt lat="44.902896939643774" lon="7.296932103423177"><ele>658.0</ele><time>2026-04-24T16:05:21.999Z</time></trkpt><trkpt lat="44.902854285774666" lon="7.29702399957612"><ele>658.0</ele><time>2026-04-24T16:05:22.999Z</time></trkpt><trkpt lat="44.90279894926302" lon="7.297118044695301"><ele>658.0</ele><time>2026-04-24T16:05:23.999Z</time></trkpt><trkpt lat="44.902735745543225" lon="7.297197661991178"><ele>658.0</ele><time>2026-04-24T16:05:24.999Z</time></trkpt><trkpt lat="44.9026788365089" lon="7.297287129443359"><ele>658.0</ele><time>2026-04-24T16:05:25.999Z</time></trkpt><trkpt lat="44.90263495424635" lon="7.297364272293831"><ele>658.0</ele><time>2026-04-24T16:05:26.999Z</time></trkpt><trkpt lat="44.9026120128398" lon="7.297449284080215"><ele>655.8333333333334</ele><time>2026-04-24T16:05:27.999Z</time></trkpt><trkpt lat="44.9025897071777" lon="7.297542562445381"><ele>653.6666666666667</ele><time>2026-04-24T16:05:28.999Z</time></trkpt><trkpt lat="44.90255709732339" lon="7.297635228360508"><ele>651.5</ele><time>2026-04-24T16:05:29.999Z</time></trkpt><trkpt lat="44.90250416450508" lon="7.297734368103487"><ele>649.3333333333334</ele><time>2026-04-24T16:05:30.999Z</time></trkpt><trkpt lat="44.902459726696115" lon="7.2978549790690845"><ele>647.1666666666666</ele><time>2026-04-24T16:05:31.999Z</time></trkpt><trkpt lat="44.90246461605303" lon="7.297981277197402"><ele>645.0</ele><time>2026-04-24T16:05:32.999Z</time></trkpt><trkpt lat="44.902527801723835" lon="7.29811421691685"><ele>643.1666666666666</ele><time>2026-04-24T16:05:33.999Z</time></trkpt><trkpt lat="44.902574569944235" lon="7.298231207626929"><ele>641.3333333333334</ele><time>2026-04-24T16:05:34.999Z</time></trkpt><trkpt lat="44.90259365503953" lon="7.298344995595084"><ele>639.5</ele><time>2026-04-24T16:05:35.999Z</time></trkpt><trkpt lat="44.90259262388597" lon="7.298456905015276"><ele>637.6666666666667</ele><time>2026-04-24T16:05:36.999Z</time></trkpt><trkpt lat="44.90258510744424" lon="7.29855528243569"><ele>635.8333333333334</ele><time>2026-04-24T16:05:37.999Z</time></trkpt><trkpt lat="44.90253114646877" lon="7.298682702797783"><ele>634.0</ele><time>2026-04-24T16:05:39.999Z</time></trkpt><trkpt lat="44.90254970609264" lon="7.298771400466675"><ele>634.0</ele><time>2026-04-24T16:05:41.999Z</time></trkpt><trkpt lat="44.90261524983427" lon="7.298800141442992"><ele>634.0</ele><time>2026-04-24T16:05:42.999Z</time></trkpt><trkpt lat="44.902697723826236" lon="7.298822948170443"><ele>634.0</ele><time>2026-04-24T16:05:43.999Z</time></trkpt><trkpt lat="44.902780889757324" lon="7.298845101527623"><ele>634.0</ele><time>2026-04-24T16:05:44.999Z</time></trkpt><trkpt lat="44.90285259151937" lon="7.298878055766162"><ele>634.0</ele><time>2026-04-24T16:05:45.999Z</time></trkpt><trkpt lat="44.902928295249936" lon="7.298922662982203"><ele>634.0</ele><time>2026-04-24T16:05:46.999Z</time></trkpt><trkpt lat="44.90298963678606" lon="7.299016148784907"><ele>631.5</ele><time>2026-04-24T16:05:47.999Z</time></trkpt><trkpt lat="44.90306302278854" lon="7.299076084846326"><ele>629.0</ele><time>2026-04-24T16:05:48.999Z</time></trkpt><trkpt lat="44.90313029824724" lon="7.299122754681427"><ele>626.5</ele><time>2026-04-24T16:05:49.999Z</time></trkpt><trkpt lat="44.903190149207695" lon="7.299179850541489"><ele>624.0</ele><time>2026-04-24T16:05:52.999Z</time></trkpt><trkpt lat="44.90325988328294" lon="7.299227398583761"><ele>621.5</ele><time>2026-04-24T16:05:55.998Z</time></trkpt><trkpt lat="44.90332234455234" lon="7.299301162191115"><ele>619.0</ele><time>2026-04-24T16:05:58.998Z</time></trkpt><trkpt lat="44.90336356453259" lon="7.299370594445125"><ele>615.6666666666667</ele><time>2026-04-24T16:06:00.998Z</time></trkpt><trkpt lat="44.903417800339135" lon="7.299528242847714"><ele>612.3333333333334</ele><time>2026-04-24T16:06:02.998Z</time></trkpt><trkpt lat="44.90346209252901" lon="7.2996004302615916"><ele>609.0</ele><time>2026-04-24T16:06:03.998Z</time></trkpt><trkpt lat="44.903533980482415" lon="7.299643915464529"><ele>605.6666666666666</ele><time>2026-04-24T16:06:04.998Z</time></trkpt><trkpt lat="44.90361947520673" lon="7.299644755378639"><ele>602.3333333333333</ele><time>2026-04-24T16:06:05.998Z</time></trkpt><trkpt lat="44.90370480409197" lon="7.299592816034062"><ele>599.0</ele><time>2026-04-24T16:06:06.998Z</time></trkpt><trkpt lat="44.90379136830382" lon="7.29953598138585"><ele>599.0</ele><time>2026-04-24T16:06:07.998Z</time></trkpt><trkpt lat="44.903879483494556" lon="7.299476295450646"><ele>599.0</ele><time>2026-04-24T16:06:08.998Z</time></trkpt><trkpt lat="44.903974434102366" lon="7.299411600767529"><ele>599.0</ele><time>2026-04-24T16:06:09.998Z</time></trkpt><trkpt lat="44.90406807207281" lon="7.299344663012115"><ele>599.0</ele><time>2026-04-24T16:06:10.998Z</time></trkpt><trkpt lat="44.90415675872658" lon="7.29927884713348"><ele>599.0</ele><time>2026-04-24T16:06:11.998Z</time></trkpt><trkpt lat="44.90423703797216" lon="7.2991959386087135"><ele>597.2</ele><time>2026-04-24T16:06:12.998Z</time></trkpt><trkpt lat="44.904318496232776" lon="7.2991217214331625"><ele>595.4</ele><time>2026-04-24T16:06:13.998Z</time></trkpt><trkpt lat="44.9044045033802" lon="7.299050458542201"><ele>593.6</ele><time>2026-04-24T16:06:14.998Z</time></trkpt><trkpt lat="44.90449843847991" lon="7.298976105887735"><ele>591.8</ele><time>2026-04-24T16:06:15.998Z</time></trkpt><trkpt lat="44.904593316456896" lon="7.298880241569939"><ele>590.0</ele><time>2026-04-24T16:06:16.998Z</time></trkpt><trkpt lat="44.9046787313879" lon="7.29880458358863"><ele>590.0</ele><time>2026-04-24T16:06:17.998Z</time></trkpt><trkpt lat="44.90474837772896" lon="7.298780188867869"><ele>590.0</ele><time>2026-04-24T16:06:18.998Z</time></trkpt><trkpt lat="44.90482107289838" lon="7.298950420230636"><ele>590.0</ele><time>2026-04-24T16:06:20.998Z</time></trkpt><trkpt lat="44.90483778510034" lon="7.299070608433093"><ele>590.0</ele><time>2026-04-24T16:06:21.998Z</time></trkpt><trkpt lat="44.9048131911791" lon="7.299179788956506"><ele>590.0</ele><time>2026-04-24T16:06:22.998Z</time></trkpt><trkpt lat="44.90475270947783" lon="7.299281858756839"><ele>590.0</ele><time>2026-04-24T16:06:23.998Z</time></trkpt><trkpt lat="44.904710182541" lon="7.299388646915004"><ele>590.0</ele><time>2026-04-24T16:06:24.998Z</time></trkpt><trkpt lat="44.9046905283637" lon="7.299512830306113"><ele>590.0</ele><time>2026-04-24T16:06:25.998Z</time></trkpt><trkpt lat="44.90469058692539" lon="7.29963020049446"><ele>590.0</ele><time>2026-04-24T16:06:26.998Z</time></trkpt><trkpt lat="44.90469328756718" lon="7.299783347399376"><ele>590.0</ele><time>2026-04-24T16:06:27.998Z</time></trkpt><trkpt lat="44.90473047672922" lon="7.2999155023073214"><ele>587.4</ele><time>2026-04-24T16:06:28.998Z</time></trkpt><trkpt lat="44.90477172197612" lon="7.300047236962852"><ele>584.8</ele><time>2026-04-24T16:06:29.998Z</time></trkpt><trkpt lat="44.90481336905834" lon="7.300182876740791"><ele>582.2</ele><time>2026-04-24T16:06:30.998Z</time></trkpt><trkpt lat="44.9048581796454" lon="7.300294422266671"><ele>579.6</ele><time>2026-04-24T16:06:31.998Z</time></trkpt><trkpt lat="44.90489951807201" lon="7.300432456131224"><ele>577.0</ele><time>2026-04-24T16:06:32.998Z</time></trkpt><trkpt lat="44.904933254621724" lon="7.300560375477969"><ele>575.3333333333334</ele><time>2026-04-24T16:06:33.998Z</time></trkpt><trkpt lat="44.90494509001973" lon="7.300712130937251"><ele>573.6666666666667</ele><time>2026-04-24T16:06:34.998Z</time></trkpt><trkpt lat="44.90494235904456" lon="7.30083821512418"><ele>572.0</ele><time>2026-04-24T16:06:35.998Z</time></trkpt><trkpt lat="44.904933808327904" lon="7.3009431839893395"><ele>570.3333333333334</ele><time>2026-04-24T16:06:36.998Z</time></trkpt><trkpt lat="44.90493744849937" lon="7.301049217390529"><ele>568.6666666666666</ele><time>2026-04-24T16:06:38Z</time></trkpt><trkpt lat="44.904921389229465" lon="7.301159919676085"><ele>567.0</ele><time>2026-04-24T16:06:39Z</time></trkpt><trkpt lat="44.90490022478386" lon="7.301259122977171"><ele>567.0</ele><time>2026-04-24T16:06:40Z</time></trkpt><trkpt lat="44.904868245412835" lon="7.30136016888142"><ele>567.0</ele><time>2026-04-24T16:06:41Z</time></trkpt><trkpt lat="44.90484391281992" lon="7.301487452818415"><ele>567.0</ele><time>2026-04-24T16:06:42Z</time></trkpt><trkpt lat="44.90479798242356" lon="7.301621986752357"><ele>567.0</ele><time>2026-04-24T16:06:43Z</time></trkpt><trkpt lat="44.90482378467233" lon="7.301746457906672"><ele>567.0</ele><time>2026-04-24T16:06:44Z</time></trkpt><trkpt lat="44.90488236162878" lon="7.3018244760812925"><ele>565.8333333333334</ele><time>2026-04-24T16:06:45Z</time></trkpt><trkpt lat="44.90498745161852" lon="7.301828967545162"><ele>564.6666666666666</ele><time>2026-04-24T16:06:46Z</time></trkpt><trkpt lat="44.90505725637258" lon="7.301850171440066"><ele>563.5</ele><time>2026-04-24T16:06:47Z</time></trkpt><trkpt lat="44.90507146845924" lon="7.3019417408054865"><ele>562.3333333333333</ele><time>2026-04-24T16:06:48Z</time></trkpt><trkpt lat="44.904996685509666" lon="7.3020427771318674"><ele>561.1666666666666</ele><time>2026-04-24T16:06:49Z</time></trkpt><trkpt lat="44.90496746173992" lon="7.302151702221855"><ele>560.0</ele><time>2026-04-24T16:06:50Z</time></trkpt><trkpt lat="44.90493352805323" lon="7.302254444244906"><ele>559.0</ele><time>2026-04-24T16:06:51Z</time></trkpt><trkpt lat="44.90489220222067" lon="7.302359823815222"><ele>558.0</ele><time>2026-04-24T16:06:52Z</time></trkpt><trkpt lat="44.90483993447386" lon="7.302468927418821"><ele>557.0</ele><time>2026-04-24T16:06:53Z</time></trkpt><trkpt lat="44.90479002926546" lon="7.302591903285712"><ele>556.0</ele><time>2026-04-24T16:06:54Z</time></trkpt><trkpt lat="44.90474300202573" lon="7.302717996134752"><ele>555.0</ele><time>2026-04-24T16:06:55Z</time></trkpt><trkpt lat="44.904694216249624" lon="7.302854241238641"><ele>555.0</ele><time>2026-04-24T16:06:56Z</time></trkpt><trkpt lat="44.90464657673613" lon="7.303003044056981"><ele>555.0</ele><time>2026-04-24T16:06:57Z</time></trkpt><trkpt lat="44.90460693395757" lon="7.303147105037428"><ele>555.0</ele><time>2026-04-24T16:06:58Z</time></trkpt><trkpt lat="44.90456898257604" lon="7.303291493862065"><ele>555.0</ele><time>2026-04-24T16:06:59Z</time></trkpt><trkpt lat="44.90451985812972" lon="7.3034346698342185"><ele>555.0</ele><time>2026-04-24T16:07:00Z</time></trkpt><trkpt lat="44.90447529295108" lon="7.303556464045283"><ele>554.5</ele><time>2026-04-24T16:07:01Z</time></trkpt><trkpt lat="44.9044348480699" lon="7.303641031678869"><ele>554.0</ele><time>2026-04-24T16:07:02Z</time></trkpt><trkpt lat="44.9043870549477" lon="7.303708260284957"><ele>553.5</ele><time>2026-04-24T16:07:03Z</time></trkpt><trkpt lat="44.904266147996" lon="7.303745928111147"><ele>553.0</ele><time>2026-04-24T16:07:05Z</time></trkpt><trkpt lat="44.9042070243043" lon="7.303818351364454"><ele>552.5</ele><time>2026-04-24T16:07:06Z</time></trkpt><trkpt lat="44.90416817565967" lon="7.3039256926502745"><ele>552.0</ele><time>2026-04-24T16:07:07Z</time></trkpt><trkpt lat="44.904129809116036" lon="7.30402112015552"><ele>547.6666666666666</ele><time>2026-04-24T16:07:08Z</time></trkpt><trkpt lat="44.90411529836485" lon="7.304136237403896"><ele>543.3333333333334</ele><time>2026-04-24T16:07:09Z</time></trkpt><trkpt lat="44.90408652154751" lon="7.304237353644565"><ele>539.0</ele><time>2026-04-24T16:07:10Z</time></trkpt><trkpt lat="44.9040542585545" lon="7.304334094385981"><ele>534.6666666666667</ele><time>2026-04-24T16:07:11Z</time></trkpt><trkpt lat="44.903996322806954" lon="7.304405466192721"><ele>530.3333333333334</ele><time>2026-04-24T16:07:12Z</time></trkpt><trkpt lat="44.903945635931464" lon="7.304493574819491"><ele>526.0</ele><time>2026-04-24T16:07:12.999Z</time></trkpt><trkpt lat="44.9038594277763" lon="7.304520124351946"><ele>526.0</ele><time>2026-04-24T16:07:13.999Z</time></trkpt><trkpt lat="44.90377985197949" lon="7.304564404243786"><ele>526.0</ele><time>2026-04-24T16:07:14.999Z</time></trkpt><trkpt lat="44.903700415095294" lon="7.304620743141438"><ele>526.0</ele><time>2026-04-24T16:07:15.999Z</time></trkpt><trkpt lat="44.903620056074686" lon="7.304653024500337"><ele>526.0</ele><time>2026-04-24T16:07:16.999Z</time></trkpt><trkpt lat="44.903552720461235" lon="7.304661173506827"><ele>526.0</ele><time>2026-04-24T16:07:17.999Z</time></trkpt><trkpt lat="44.90348356922319" lon="7.304570018816889"><ele>526.0</ele><time>2026-04-24T16:07:18.999Z</time></trkpt><trkpt lat="44.90340146309015" lon="7.304559755534842"><ele>523.25</ele><time>2026-04-24T16:07:19.999Z</time></trkpt><trkpt lat="44.903305476782336" lon="7.3046004652850085"><ele>520.5</ele><time>2026-04-24T16:07:20.999Z</time></trkpt><trkpt lat="44.90324454283096" lon="7.304786795809566"><ele>517.75</ele><time>2026-04-24T16:07:21.999Z</time></trkpt><trkpt lat="44.90317991307211" lon="7.304924158732912"><ele>515.0</ele><time>2026-04-24T16:07:22.999Z</time></trkpt><trkpt lat="44.903114723777804" lon="7.305049292362785"><ele>513.8333333333333</ele><time>2026-04-24T16:07:23.999Z</time></trkpt><trkpt lat="44.90305827958339" lon="7.305164387970947"><ele>512.6666666666666</ele><time>2026-04-24T16:07:24.999Z</time></trkpt><trkpt lat="44.903027519172774" lon="7.305285518177373"><ele>511.5</ele><time>2026-04-24T16:07:25.999Z</time></trkpt><trkpt lat="44.903047442892884" lon="7.305444623802409"><ele>510.33333333333337</ele><time>2026-04-24T16:07:27.999Z</time></trkpt><trkpt lat="44.90310548599022" lon="7.305517099008044"><ele>509.1666666666667</ele><time>2026-04-24T16:07:29.999Z</time></trkpt><trkpt lat="44.90316682892687" lon="7.305545667450327"><ele>508.0</ele><time>2026-04-24T16:07:31.999Z</time></trkpt><trkpt lat="44.90325556478857" lon="7.30563418231159"><ele>508.14285714285717</ele><time>2026-04-24T16:07:33.999Z</time></trkpt><trkpt lat="44.903308681099645" lon="7.305685428940786"><ele>508.2857142857142</ele><time>2026-04-24T16:07:34.999Z</time></trkpt><trkpt lat="44.90338105535578" lon="7.3056735724017265"><ele>508.4285714285714</ele><time>2026-04-24T16:07:35.999Z</time></trkpt><trkpt lat="44.903444894486526" lon="7.305714735140515"><ele>508.57142857142856</ele><time>2026-04-24T16:07:36.999Z</time></trkpt><trkpt lat="44.90351584210748" lon="7.3057293603122195"><ele>508.71428571428567</ele><time>2026-04-24T16:07:37.999Z</time></trkpt><trkpt lat="44.903582352540845" lon="7.305745457643825"><ele>508.8571428571428</ele><time>2026-04-24T16:07:38.999Z</time></trkpt><trkpt lat="44.90361605396478" lon="7.305827778798376"><ele>508.99999999999994</ele><time>2026-04-24T16:07:39.999Z</time></trkpt><trkpt lat="44.90360405525651" lon="7.3059520498924675"><ele>509.0</ele><time>2026-04-24T16:07:40.999Z</time></trkpt><trkpt lat="44.903618935115176" lon="7.306112804344018"><ele>509.0</ele><time>2026-04-24T16:07:41.999Z</time></trkpt><trkpt lat="44.90362005270997" lon="7.306299224132846"><ele>509.0</ele><time>2026-04-24T16:07:42.999Z</time></trkpt><trkpt lat="44.90362538977966" lon="7.306488114202961"><ele>509.0</ele><time>2026-04-24T16:07:43.999Z</time></trkpt><trkpt lat="44.90364266256853" lon="7.306670217577555"><ele>507.5</ele><time>2026-04-24T16:07:44.999Z</time></trkpt><trkpt lat="44.903686716955974" lon="7.306841076034946"><ele>506.0</ele><time>2026-04-24T16:07:45.999Z</time></trkpt><trkpt lat="44.903741949099135" lon="7.307004175295075"><ele>504.5</ele><time>2026-04-24T16:07:46.999Z</time></trkpt><trkpt lat="44.90381831611906" lon="7.307173153547923"><ele>503.0</ele><time>2026-04-24T16:07:47.999Z</time></trkpt><trkpt lat="44.90388893329193" lon="7.307331777255707"><ele>501.4</ele><time>2026-04-24T16:07:48.999Z</time></trkpt><trkpt lat="44.90395959282976" lon="7.307469556713769"><ele>499.79999999999995</ele><time>2026-04-24T16:07:49.999Z</time></trkpt><trkpt lat="44.90402674880701" lon="7.307595913018486"><ele>498.2</ele><time>2026-04-24T16:07:50.999Z</time></trkpt><trkpt lat="44.904090683183945" lon="7.3077213104399235"><ele>496.6</ele><time>2026-04-24T16:07:51.999Z</time></trkpt><trkpt lat="44.90412546186671" lon="7.307864994401043"><ele>495.0</ele><time>2026-04-24T16:07:52.999Z</time></trkpt><trkpt lat="44.904151029963124" lon="7.308005504812807"><ele>494.0</ele><time>2026-04-24T16:07:53.999Z</time></trkpt><trkpt lat="44.90415311011773" lon="7.308148157141133"><ele>493.0</ele><time>2026-04-24T16:07:54.999Z</time></trkpt><trkpt lat="44.904162822505164" lon="7.308280700698378"><ele>492.0</ele><time>2026-04-24T16:07:55.999Z</time></trkpt><trkpt lat="44.90415578770244" lon="7.308419072319837"><ele>491.0</ele><time>2026-04-24T16:07:56.999Z</time></trkpt><trkpt lat="44.9041630695806" lon="7.3085690155161105"><ele>490.0</ele><time>2026-04-24T16:07:57.999Z</time></trkpt><trkpt lat="44.904174349566176" lon="7.308720867719114"><ele>490.00000000000006</ele><time>2026-04-24T16:07:58.999Z</time></trkpt><trkpt lat="44.90417611286954" lon="7.308864952082315"><ele>490.0</ele><time>2026-04-24T16:07:59.999Z</time></trkpt><trkpt lat="44.904187652708515" lon="7.309001247830488"><ele>490.0</ele><time>2026-04-24T16:08:00.998Z</time></trkpt><trkpt lat="44.90421445864464" lon="7.309118022980996"><ele>490.0</ele><time>2026-04-24T16:08:01.998Z</time></trkpt><trkpt lat="44.90425925369007" lon="7.309209048123256"><ele>490.00000000000006</ele><time>2026-04-24T16:08:02.998Z</time></trkpt><trkpt lat="44.90431147448419" lon="7.309275713485005"><ele>490.0</ele><time>2026-04-24T16:08:03.998Z</time></trkpt><trkpt lat="44.90440605283974" lon="7.309353208676988"><ele>489.6</ele><time>2026-04-24T16:08:05.998Z</time></trkpt><trkpt lat="44.904503732405594" lon="7.309396744172642"><ele>489.2</ele><time>2026-04-24T16:08:07.998Z</time></trkpt><trkpt lat="44.90457621990358" lon="7.309457709124551"><ele>488.79999999999995</ele><time>2026-04-24T16:08:10.998Z</time></trkpt><trkpt lat="44.9045554970067" lon="7.309557271559953"><ele>488.4</ele><time>2026-04-24T16:08:12.998Z</time></trkpt><trkpt lat="44.9045077924007" lon="7.309678944051626"><ele>488.0</ele><time>2026-04-24T16:08:14.998Z</time></trkpt><trkpt lat="44.90445717556872" lon="7.309866391990852"><ele>485.66666666666663</ele><time>2026-04-24T16:08:16.998Z</time></trkpt><trkpt lat="44.90438627468372" lon="7.310004576646535"><ele>483.33333333333337</ele><time>2026-04-24T16:08:17.998Z</time></trkpt><trkpt lat="44.904319340770876" lon="7.310223048401435"><ele>481.0</ele><time>2026-04-24T16:08:18.998Z</time></trkpt><trkpt lat="44.90419754863689" lon="7.31048868766628"><ele>477.5</ele><time>2026-04-24T16:08:19.998Z</time></trkpt><trkpt lat="44.90407834146539" lon="7.310801332284237"><ele>474.0</ele><time>2026-04-24T16:08:20.998Z</time></trkpt><trkpt lat="44.90399512190694" lon="7.311092827525481"><ele>474.0</ele><time>2026-04-24T16:08:21.998Z</time></trkpt><trkpt lat="44.90393109510304" lon="7.311321293955697"><ele>474.0</ele><time>2026-04-24T16:08:22.998Z</time></trkpt><trkpt lat="44.903879977746115" lon="7.311502356601957"><ele>474.0</ele><time>2026-04-24T16:08:23.998Z</time></trkpt><trkpt lat="44.9038392920229" lon="7.311648490575369"><ele>474.0</ele><time>2026-04-24T16:08:24.998Z</time></trkpt><trkpt lat="44.90383127819758" lon="7.3117632761001055"><ele>472.2</ele><time>2026-04-24T16:08:25.998Z</time></trkpt><trkpt lat="44.903864499177786" lon="7.311876577920498"><ele>470.4</ele><time>2026-04-24T16:08:26.998Z</time></trkpt><trkpt lat="44.9039405950418" lon="7.311949914661775"><ele>468.6</ele><time>2026-04-24T16:08:27.998Z</time></trkpt><trkpt lat="44.904041317597695" lon="7.311970935493605"><ele>466.8</ele><time>2026-04-24T16:08:28.998Z</time></trkpt><trkpt lat="44.90416297629082" lon="7.311950737202372"><ele>465.0</ele><time>2026-04-24T16:08:29.998Z</time></trkpt><trkpt lat="44.90430590970092" lon="7.311994392441278"><ele>463.66666666666663</ele><time>2026-04-24T16:08:30.998Z</time></trkpt><trkpt lat="44.904474848468304" lon="7.312041144574977"><ele>462.3333333333333</ele><time>2026-04-24T16:08:31.998Z</time></trkpt><trkpt lat="44.904639719741716" lon="7.312099245550304"><ele>461.0</ele><time>2026-04-24T16:08:32.998Z</time></trkpt><trkpt lat="44.90478243262498" lon="7.312079120077366"><ele>461.0</ele><time>2026-04-24T16:08:33.998Z</time></trkpt><trkpt lat="44.90493444106271" lon="7.311990054277166"><ele>461.0</ele><time>2026-04-24T16:08:34.998Z</time></trkpt><trkpt lat="44.905107777999625" lon="7.311887280025863"><ele>461.0</ele><time>2026-04-24T16:08:35.998Z</time></trkpt><trkpt lat="44.9052730345631" lon="7.311849101338528"><ele>459.5</ele><time>2026-04-24T16:08:36.998Z</time></trkpt><trkpt lat="44.90540747175578" lon="7.311826917312025"><ele>458.0</ele><time>2026-04-24T16:08:37.998Z</time></trkpt><trkpt lat="44.905528974811396" lon="7.311806022615773"><ele>456.5</ele><time>2026-04-24T16:08:38.998Z</time></trkpt><trkpt lat="44.905640098620864" lon="7.311778112301425"><ele>455.0</ele><time>2026-04-24T16:08:39.998Z</time></trkpt><trkpt lat="44.90574543001823" lon="7.311797930034244"><ele>455.0</ele><time>2026-04-24T16:08:40.998Z</time></trkpt><trkpt lat="44.90584492866151" lon="7.311818008112681"><ele>455.0</ele><time>2026-04-24T16:08:41.998Z</time></trkpt><trkpt lat="44.905907121206106" lon="7.311851052728716"><ele>455.0</ele><time>2026-04-24T16:08:43Z</time></trkpt><trkpt lat="44.90599440014055" lon="7.3119032984522345"><ele>455.0</ele><time>2026-04-24T16:08:45Z</time></trkpt><trkpt lat="44.90610227021578" lon="7.312037584072358"><ele>455.0</ele><time>2026-04-24T16:08:47Z</time></trkpt><trkpt lat="44.906175020157534" lon="7.312139891338407"><ele>454.6</ele><time>2026-04-24T16:08:48Z</time></trkpt><trkpt lat="44.90624757105775" lon="7.312233445948913"><ele>454.2</ele><time>2026-04-24T16:08:49Z</time></trkpt><trkpt lat="44.90632152690321" lon="7.312313868856004"><ele>453.79999999999995</ele><time>2026-04-24T16:08:50Z</time></trkpt><trkpt lat="44.90640315598109" lon="7.312397763958958"><ele>453.4</ele><time>2026-04-24T16:08:51Z</time></trkpt><trkpt lat="44.90648729612553" lon="7.312474365333507"><ele>453.0</ele><time>2026-04-24T16:08:52Z</time></trkpt><trkpt lat="44.90657703478456" lon="7.312542144619773"><ele>452.6666666666667</ele><time>2026-04-24T16:08:53Z</time></trkpt><trkpt lat="44.906663698996866" lon="7.3126020252256"><ele>452.33333333333337</ele><time>2026-04-24T16:08:54Z</time></trkpt><trkpt lat="44.90674740413552" lon="7.312661745976039"><ele>452.0</ele><time>2026-04-24T16:08:55Z</time></trkpt><trkpt lat="44.906820405301865" lon="7.312716309709083"><ele>451.6666666666667</ele><time>2026-04-24T16:08:56Z</time></trkpt><trkpt lat="44.90688862537597" lon="7.312766730970034"><ele>451.33333333333337</ele><time>2026-04-24T16:08:57Z</time></trkpt><trkpt lat="44.90695248941345" lon="7.312811942025783"><ele>451.0</ele><time>2026-04-24T16:08:58Z</time></trkpt><trkpt lat="44.90701360975991" lon="7.312849391986065"><ele>451.00000000000006</ele><time>2026-04-24T16:08:59Z</time></trkpt><trkpt lat="44.907082598112325" lon="7.312887211010566"><ele>451.0</ele><time>2026-04-24T16:09:00Z</time></trkpt><trkpt lat="44.90716412250531" lon="7.312921586878087"><ele>451.0</ele><time>2026-04-24T16:09:01Z</time></trkpt><trkpt lat="44.907240624078256" lon="7.312960131098448"><ele>451.0</ele><time>2026-04-24T16:09:02Z</time></trkpt><trkpt lat="44.90729425842018" lon="7.313010990563987"><ele>451.00000000000006</ele><time>2026-04-24T16:09:03Z</time></trkpt><trkpt lat="44.907376804051616" lon="7.313096458312937"><ele>451.0</ele><time>2026-04-24T16:09:05Z</time></trkpt><trkpt lat="44.90748978721175" lon="7.313145365745044"><ele>450.6666666666667</ele><time>2026-04-24T16:09:07Z</time></trkpt><trkpt lat="44.90755026096197" lon="7.313113230353899"><ele>450.33333333333337</ele><time>2026-04-24T16:09:08Z</time></trkpt><trkpt lat="44.90764381618956" lon="7.313048837962973"><ele>450.0</ele><time>2026-04-24T16:09:10Z</time></trkpt><trkpt lat="44.90770062708413" lon="7.3129686718224916"><ele>449.66666666666663</ele><time>2026-04-24T16:09:12Z</time></trkpt><trkpt lat="44.907743224336095" lon="7.312890305682638"><ele>449.3333333333333</ele><time>2026-04-24T16:09:13Z</time></trkpt><trkpt lat="44.90779281449233" lon="7.312806529708095"><ele>449.0</ele><time>2026-04-24T16:09:14Z</time></trkpt><trkpt lat="44.90785340794839" lon="7.312710820961847"><ele>449.0</ele><time>2026-04-24T16:09:15Z</time></trkpt><trkpt lat="44.907922894617215" lon="7.312604916584125"><ele>449.0</ele><time>2026-04-24T16:09:16Z</time></trkpt><trkpt lat="44.907986883594994" lon="7.312468949223809"><ele>449.0</ele><time>2026-04-24T16:09:16.999Z</time></trkpt><trkpt lat="44.9080615507459" lon="7.3123443091456926"><ele>449.0</ele><time>2026-04-24T16:09:17.999Z</time></trkpt><trkpt lat="44.90813008756206" lon="7.312226290154762"><ele>449.0</ele><time>2026-04-24T16:09:18.999Z</time></trkpt><trkpt lat="44.90818779194627" lon="7.312126816156291"><ele>449.2</ele><time>2026-04-24T16:09:19.999Z</time></trkpt><trkpt lat="44.908245190274165" lon="7.31202786972792"><ele>449.4</ele><time>2026-04-24T16:09:20.999Z</time></trkpt><trkpt lat="44.908327834147904" lon="7.311939672899135"><ele>449.6</ele><time>2026-04-24T16:09:21.999Z</time></trkpt><trkpt lat="44.90840303001833" lon="7.311808418794292"><ele>449.8</ele><time>2026-04-24T16:09:22.999Z</time></trkpt><trkpt lat="44.90849017810204" lon="7.311668325694557"><ele>450.0</ele><time>2026-04-24T16:09:23.999Z</time></trkpt><trkpt lat="44.90857590086737" lon="7.311549707578053"><ele>450.0</ele><time>2026-04-24T16:09:24.999Z</time></trkpt><trkpt lat="44.90866374304082" lon="7.311440575684799"><ele>450.0</ele><time>2026-04-24T16:09:25.999Z</time></trkpt><trkpt lat="44.908770031205" lon="7.3113441340606515"><ele>450.0</ele><time>2026-04-24T16:09:26.999Z</time></trkpt><trkpt lat="44.908883862873545" lon="7.311255042073108"><ele>450.0</ele><time>2026-04-24T16:09:27.999Z</time></trkpt><trkpt lat="44.90897977201299" lon="7.311177296198669"><ele>451.6</ele><time>2026-04-24T16:09:28.999Z</time></trkpt><trkpt lat="44.90906036392118" lon="7.311100412893806"><ele>453.2</ele><time>2026-04-24T16:09:29.999Z</time></trkpt><trkpt lat="44.90914284290773" lon="7.311026401293668"><ele>454.79999999999995</ele><time>2026-04-24T16:09:30.999Z</time></trkpt><trkpt lat="44.90922011346431" lon="7.310978346377954"><ele>456.4</ele><time>2026-04-24T16:09:31.999Z</time></trkpt><trkpt lat="44.909284367993585" lon="7.310962129376207"><ele>458.0</ele><time>2026-04-24T16:09:32.999Z</time></trkpt><trkpt lat="44.90938071788093" lon="7.31105515624993"><ele>458.49999999999994</ele><time>2026-04-24T16:09:34.999Z</time></trkpt><trkpt lat="44.90944953184195" lon="7.310995098732104"><ele>459.0</ele><time>2026-04-24T16:09:35.999Z</time></trkpt><trkpt lat="44.90950992416569" lon="7.310943716147282"><ele>459.5</ele><time>2026-04-24T16:09:36.999Z</time></trkpt><trkpt lat="44.90956821056289" lon="7.310882850768811"><ele>460.0</ele><time>2026-04-24T16:09:37.999Z</time></trkpt><trkpt lat="44.90963804576343" lon="7.310830728849291"><ele>460.49999999999994</ele><time>2026-04-24T16:09:38.999Z</time></trkpt><trkpt lat="44.90971293791967" lon="7.310785160400839"><ele>461.0</ele><time>2026-04-24T16:09:39.999Z</time></trkpt><trkpt lat="44.90979253328832" lon="7.310753120361442"><ele>461.0</ele><time>2026-04-24T16:09:40.999Z</time></trkpt><trkpt lat="44.909884960177926" lon="7.310728351594473"><ele>461.0</ele><time>2026-04-24T16:09:41.999Z</time></trkpt><trkpt lat="44.909994868748015" lon="7.310699588281339"><ele>461.0</ele><time>2026-04-24T16:09:42.999Z</time></trkpt><trkpt lat="44.910127459687175" lon="7.310676902274324"><ele>461.0</ele><time>2026-04-24T16:09:43.999Z</time></trkpt><trkpt lat="44.9102916668089" lon="7.310725372199355"><ele>461.66666666666663</ele><time>2026-04-24T16:09:44.999Z</time></trkpt><trkpt lat="44.91045879404262" lon="7.310704473869969"><ele>462.33333333333337</ele><time>2026-04-24T16:09:45.999Z</time></trkpt><trkpt lat="44.91064735479933" lon="7.310686393204303"><ele>463.0</ele><time>2026-04-24T16:09:46.999Z</time></trkpt><trkpt lat="44.910810982539275" lon="7.310627255702928"><ele>464.6666666666667</ele><time>2026-04-24T16:09:47.999Z</time></trkpt><trkpt lat="44.91094823502652" lon="7.3105345701442"><ele>466.33333333333337</ele><time>2026-04-24T16:09:48.999Z</time></trkpt><trkpt lat="44.91106436682107" lon="7.310398732893473"><ele>468.0</ele><time>2026-04-24T16:09:49.999Z</time></trkpt><trkpt lat="44.91116896645075" lon="7.310228972172268"><ele>468.0</ele><time>2026-04-24T16:09:50.999Z</time></trkpt><trkpt lat="44.911306258698126" lon="7.310065804383154"><ele>468.0</ele><time>2026-04-24T16:09:51.999Z</time></trkpt><trkpt lat="44.91148324542858" lon="7.309942807323133"><ele>468.0</ele><time>2026-04-24T16:09:52.999Z</time></trkpt><trkpt lat="44.91168502278281" lon="7.309815707135921"><ele>470.66666666666663</ele><time>2026-04-24T16:09:53.999Z</time></trkpt><trkpt lat="44.91187044059008" lon="7.309702440892224"><ele>473.3333333333333</ele><time>2026-04-24T16:09:54.999Z</time></trkpt><trkpt lat="44.91204052497251" lon="7.309647452904617"><ele>476.0</ele><time>2026-04-24T16:09:55.999Z</time></trkpt><trkpt lat="44.91220325605299" lon="7.309614998033038"><ele>476.0</ele><time>2026-04-24T16:09:56.999Z</time></trkpt><trkpt lat="44.91236195144856" lon="7.309576466230812"><ele>476.0</ele><time>2026-04-24T16:09:57.999Z</time></trkpt><trkpt lat="44.91250799567722" lon="7.309539429783132"><ele>476.0</ele><time>2026-04-24T16:09:58.999Z</time></trkpt><trkpt lat="44.91265452057616" lon="7.309497358214477"><ele>477.0</ele><time>2026-04-24T16:09:59.999Z</time></trkpt><trkpt lat="44.91279974130404" lon="7.309459354157224"><ele>478.0</ele><time>2026-04-24T16:10:00.999Z</time></trkpt><trkpt lat="44.91293935339758" lon="7.309410197683337"><ele>479.0</ele><time>2026-04-24T16:10:01.999Z</time></trkpt><trkpt lat="44.913084747124586" lon="7.309339953954915"><ele>480.0</ele><time>2026-04-24T16:10:02.999Z</time></trkpt><trkpt lat="44.913234671868494" lon="7.309241970577307"><ele>480.0</ele><time>2026-04-24T16:10:03.999Z</time></trkpt><trkpt lat="44.913384113758035" lon="7.309144592893008"><ele>480.0</ele><time>2026-04-24T16:10:04.998Z</time></trkpt><trkpt lat="44.913526123906664" lon="7.309070552274968"><ele>480.0</ele><time>2026-04-24T16:10:05.998Z</time></trkpt><trkpt lat="44.9136623313111" lon="7.309016726358285"><ele>480.0</ele><time>2026-04-24T16:10:06.998Z</time></trkpt><trkpt lat="44.91379594229292" lon="7.308985653591264"><ele>480.0</ele><time>2026-04-24T16:10:07.998Z</time></trkpt><trkpt lat="44.91392297450678" lon="7.308976487103617"><ele>480.0</ele><time>2026-04-24T16:10:08.998Z</time></trkpt><trkpt lat="44.91403508239361" lon="7.30897114250149"><ele>480.0</ele><time>2026-04-24T16:10:09.998Z</time></trkpt><trkpt lat="44.914126645323066" lon="7.308963056382151"><ele>480.0</ele><time>2026-04-24T16:10:10.998Z</time></trkpt><trkpt lat="44.91419961840526" lon="7.308956764707098"><ele>480.0</ele><time>2026-04-24T16:10:11.998Z</time></trkpt><trkpt lat="44.914286023703475" lon="7.308950188254114"><ele>480.0</ele><time>2026-04-24T16:10:13.998Z</time></trkpt><trkpt lat="44.914337891549835" lon="7.309083915238853"><ele>480.0</ele><time>2026-04-24T16:10:15.998Z</time></trkpt><trkpt lat="44.914372118202834" lon="7.309273976059189"><ele>480.0</ele><time>2026-04-24T16:10:16.998Z</time></trkpt><trkpt lat="44.91441599741082" lon="7.309529167312949"><ele>479.33333333333337</ele><time>2026-04-24T16:10:17.998Z</time></trkpt><trkpt lat="44.91448677413702" lon="7.309752420016517"><ele>478.6666666666667</ele><time>2026-04-24T16:10:18.998Z</time></trkpt><trkpt lat="44.91455818413647" lon="7.309940990932829"><ele>478.0</ele><time>2026-04-24T16:10:19.998Z</time></trkpt><trkpt lat="44.91459334541709" lon="7.310146535436535"><ele>478.0</ele><time>2026-04-24T16:10:20.998Z</time></trkpt><trkpt lat="44.914650076793905" lon="7.31029922888339"><ele>478.0</ele><time>2026-04-24T16:10:21.998Z</time></trkpt><trkpt lat="44.914676282991486" lon="7.310440390786667"><ele>478.0</ele><time>2026-04-24T16:10:22.998Z</time></trkpt><trkpt lat="44.914676937883584" lon="7.3106200196600195"><ele>478.0</ele><time>2026-04-24T16:10:23.998Z</time></trkpt><trkpt lat="44.91468846491821" lon="7.310794455931859"><ele>478.0</ele><time>2026-04-24T16:10:24.998Z</time></trkpt><trkpt lat="44.91471161253094" lon="7.310937605362416"><ele>477.99999999999994</ele><time>2026-04-24T16:10:25.998Z</time></trkpt><trkpt lat="44.9147619866187" lon="7.311035859222662"><ele>477.99999999999994</ele><time>2026-04-24T16:10:26.998Z</time></trkpt><trkpt lat="44.91486582786536" lon="7.311051658958454"><ele>478.0</ele><time>2026-04-24T16:10:27.998Z</time></trkpt><trkpt lat="44.91495968550553" lon="7.311046728704532"><ele>478.0</ele><time>2026-04-24T16:10:28.998Z</time></trkpt><trkpt lat="44.91506901605452" lon="7.311027278499789"><ele>480.25</ele><time>2026-04-24T16:10:29.998Z</time></trkpt><trkpt lat="44.91518510997601" lon="7.310998151296835"><ele>482.5</ele><time>2026-04-24T16:10:30.998Z</time></trkpt><trkpt lat="44.91531298328528" lon="7.310951161362889"><ele>484.75</ele><time>2026-04-24T16:10:31.998Z</time></trkpt><trkpt lat="44.915453886477145" lon="7.310898778114932"><ele>487.0</ele><time>2026-04-24T16:10:32.998Z</time></trkpt><trkpt lat="44.91557732424116" lon="7.3108744995930675"><ele>487.00000000000006</ele><time>2026-04-24T16:10:33.998Z</time></trkpt><trkpt lat="44.91567912551014" lon="7.310874358735"><ele>487.0</ele><time>2026-04-24T16:10:34.998Z</time></trkpt><trkpt lat="44.91574966103786" lon="7.310906891917444"><ele>487.0</ele><time>2026-04-24T16:10:35.998Z</time></trkpt><trkpt lat="44.915777404528804" lon="7.310993995015796"><ele>487.0</ele><time>2026-04-24T16:10:37.998Z</time></trkpt><trkpt lat="44.9157065249799" lon="7.31107114597627"><ele>487.00000000000006</ele><time>2026-04-24T16:10:41.998Z</time></trkpt><trkpt lat="44.91564656452691" lon="7.311100607676367"><ele>487.0</ele><time>2026-04-24T16:10:42.998Z</time></trkpt><trkpt lat="44.915648491668996" lon="7.311199344080878"><ele>487.00000000000006</ele><time>2026-04-24T16:10:43.998Z</time></trkpt><trkpt lat="44.91573747438746" lon="7.3112670999579015"><ele>487.0</ele><time>2026-04-24T16:10:45.998Z</time></trkpt><trkpt lat="44.915812532823836" lon="7.311243196761701"><ele>487.0</ele><time>2026-04-24T16:10:46.998Z</time></trkpt><trkpt lat="44.91587510488404" lon="7.311255455024847"><ele>487.0</ele><time>2026-04-24T16:10:48Z</time></trkpt><trkpt lat="44.915926609142126" lon="7.311310116282841"><ele>487.00000000000006</ele><time>2026-04-24T16:10:49Z</time></trkpt><trkpt lat="44.91598766904568" lon="7.311371291266884"><ele>487.0</ele><time>2026-04-24T16:10:50Z</time></trkpt><trkpt lat="44.91605878776015" lon="7.311455785109548"><ele>492.0</ele><time>2026-04-24T16:10:51Z</time></trkpt><trkpt lat="44.91614990248147" lon="7.311537618431491"><ele>497.0</ele><time>2026-04-24T16:10:52Z</time></trkpt><trkpt lat="44.916235785064075" lon="7.3116547140782355"><ele>502.0</ele><time>2026-04-24T16:10:53Z</time></trkpt><trkpt lat="44.9163188329797" lon="7.311781364963082"><ele>507.0</ele><time>2026-04-24T16:10:54Z</time></trkpt><trkpt lat="44.91644557191927" lon="7.311843028650401"><ele>507.0</ele><time>2026-04-24T16:10:55Z</time></trkpt><trkpt lat="44.916525332525886" lon="7.311939097063216"><ele>507.00000000000006</ele><time>2026-04-24T16:10:56Z</time></trkpt><trkpt lat="44.91659219585029" lon="7.312036738750074"><ele>507.00000000000006</ele><time>2026-04-24T16:10:57Z</time></trkpt><trkpt lat="44.91664372091646" lon="7.31215996514936"><ele>507.0</ele><time>2026-04-24T16:10:58Z</time></trkpt><trkpt lat="44.91670625133632" lon="7.312281897048608"><ele>507.0</ele><time>2026-04-24T16:10:59Z</time></trkpt><trkpt lat="44.91675659459927" lon="7.312409072203455"><ele>510.0</ele><time>2026-04-24T16:11:00Z</time></trkpt><trkpt lat="44.91682489155053" lon="7.312538701849798"><ele>513.0</ele><time>2026-04-24T16:11:01Z</time></trkpt><trkpt lat="44.91690107803848" lon="7.312662551383512"><ele>516.0</ele><time>2026-04-24T16:11:02Z</time></trkpt><trkpt lat="44.91696761746188" lon="7.312775319419688"><ele>519.0</ele><time>2026-04-24T16:11:03Z</time></trkpt><trkpt lat="44.917016240122756" lon="7.312888835294768"><ele>522.0</ele><time>2026-04-24T16:11:04Z</time></trkpt><trkpt lat="44.91703193130424" lon="7.3130010635722025"><ele>523.2</ele><time>2026-04-24T16:11:05Z</time></trkpt><trkpt lat="44.91702670762321" lon="7.313115875415284"><ele>524.4000000000001</ele><time>2026-04-24T16:11:06Z</time></trkpt><trkpt lat="44.91700473427668" lon="7.3132327568602165"><ele>525.5999999999999</ele><time>2026-04-24T16:11:07Z</time></trkpt><trkpt lat="44.91696587504699" lon="7.3133582140232365"><ele>526.8</ele><time>2026-04-24T16:11:08Z</time></trkpt><trkpt lat="44.91691136615904" lon="7.313488038020072"><ele>528.0</ele><time>2026-04-24T16:11:09Z</time></trkpt><trkpt lat="44.916855673929334" lon="7.3136371369898825"><ele>528.0</ele><time>2026-04-24T16:11:10Z</time></trkpt><trkpt lat="44.91683490668179" lon="7.313824324388733"><ele>528.0</ele><time>2026-04-24T16:11:11Z</time></trkpt><trkpt lat="44.91683526951365" lon="7.314040635711564"><ele>528.0</ele><time>2026-04-24T16:11:12Z</time></trkpt><trkpt lat="44.91682562927824" lon="7.314235200804751"><ele>528.0</ele><time>2026-04-24T16:11:13Z</time></trkpt><trkpt lat="44.916800403775454" lon="7.3144002283246214"><ele>529.25</ele><time>2026-04-24T16:11:14Z</time></trkpt><trkpt lat="44.91673475438516" lon="7.314533958255757"><ele>530.5</ele><time>2026-04-24T16:11:15Z</time></trkpt><trkpt lat="44.916667728052374" lon="7.3146833818828005"><ele>531.75</ele><time>2026-04-24T16:11:16Z</time></trkpt><trkpt lat="44.91658350902001" lon="7.314836242498203"><ele>533.0</ele><time>2026-04-24T16:11:17Z</time></trkpt><trkpt lat="44.916526702294135" lon="7.315004251255935"><ele>535.0</ele><time>2026-04-24T16:11:18Z</time></trkpt><trkpt lat="44.916506193789466" lon="7.315207562060419"><ele>537.0</ele><time>2026-04-24T16:11:19Z</time></trkpt><trkpt lat="44.9164838426159" lon="7.31543949147999"><ele>539.0</ele><time>2026-04-24T16:11:20Z</time></trkpt><trkpt lat="44.9164349651851" lon="7.315684316978097"><ele>542.0</ele><time>2026-04-24T16:11:20.999Z</time></trkpt><trkpt lat="44.91635729084935" lon="7.3159317005953"><ele>545.0</ele><time>2026-04-24T16:11:21.999Z</time></trkpt><trkpt lat="44.91628115779424" lon="7.316142696267059"><ele>548.0</ele><time>2026-04-24T16:11:22.999Z</time></trkpt><trkpt lat="44.916225435414695" lon="7.316322967263897"><ele>548.75</ele><time>2026-04-24T16:11:23.999Z</time></trkpt><trkpt lat="44.91619363163591" lon="7.3164992488897775"><ele>549.5</ele><time>2026-04-24T16:11:24.999Z</time></trkpt><trkpt lat="44.91619018801236" lon="7.316667251450578"><ele>550.25</ele><time>2026-04-24T16:11:25.999Z</time></trkpt><trkpt lat="44.916210944039605" lon="7.3168271395827125"><ele>551.0</ele><time>2026-04-24T16:11:26.999Z</time></trkpt><trkpt lat="44.916220540221964" lon="7.3169501011726"><ele>551.0</ele><time>2026-04-24T16:11:27.999Z</time></trkpt><trkpt lat="44.9162177527222" lon="7.317053171826417"><ele>551.0</ele><time>2026-04-24T16:11:29.999Z</time></trkpt><trkpt lat="44.9161545866259" lon="7.317108972604455"><ele>551.0</ele><time>2026-04-24T16:11:31.999Z</time></trkpt><trkpt lat="44.916086042440796" lon="7.3171539825225596"><ele>551.0</ele><time>2026-04-24T16:11:32.999Z</time></trkpt><trkpt lat="44.91601089599466" lon="7.3172199692020286"><ele>551.0</ele><time>2026-04-24T16:11:33.999Z</time></trkpt><trkpt lat="44.915935923106524" lon="7.31726619060141"><ele>551.0</ele><time>2026-04-24T16:11:34.999Z</time></trkpt><trkpt lat="44.91586769831812" lon="7.317310939335163"><ele>550.5</ele><time>2026-04-24T16:11:35.999Z</time></trkpt><trkpt lat="44.91579186959524" lon="7.317365608386857"><ele>550.0</ele><time>2026-04-24T16:11:36.999Z</time></trkpt><trkpt lat="44.915706895947416" lon="7.317428362773634"><ele>549.5</ele><time>2026-04-24T16:11:37.999Z</time></trkpt><trkpt lat="44.915626458180434" lon="7.317475152573722"><ele>549.0</ele><time>2026-04-24T16:11:38.999Z</time></trkpt><trkpt lat="44.91555283962941" lon="7.317519342189897"><ele>548.5</ele><time>2026-04-24T16:11:39.999Z</time></trkpt><trkpt lat="44.91547747364862" lon="7.3175631805603905"><ele>548.0</ele><time>2026-04-24T16:11:40.999Z</time></trkpt><trkpt lat="44.91540758258771" lon="7.317610678422519"><ele>548.0</ele><time>2026-04-24T16:11:41.999Z</time></trkpt><trkpt lat="44.915340100022014" lon="7.317658671650583"><ele>548.0</ele><time>2026-04-24T16:11:42.999Z</time></trkpt><trkpt lat="44.91526637918673" lon="7.31769857461986"><ele>548.0</ele><time>2026-04-24T16:11:43.999Z</time></trkpt><trkpt lat="44.91518923125549" lon="7.3177563165377855"><ele>548.0</ele><time>2026-04-24T16:11:45.999Z</time></trkpt><trkpt lat="44.91524786242635" lon="7.317892634291262"><ele>548.0</ele><time>2026-04-24T16:11:46.999Z</time></trkpt><trkpt lat="44.915317724538085" lon="7.3179711682676905"><ele>548.0</ele><time>2026-04-24T16:11:47.999Z</time></trkpt><trkpt lat="44.91539043636103" lon="7.31806649590609"><ele>546.6</ele><time>2026-04-24T16:11:48.999Z</time></trkpt><trkpt lat="44.91547165652433" lon="7.318172768225914"><ele>545.1999999999999</ele><time>2026-04-24T16:11:49.999Z</time></trkpt><trkpt lat="44.915561911506245" lon="7.3182494327946825"><ele>543.8</ele><time>2026-04-24T16:11:50.999Z</time></trkpt><trkpt lat="44.91566303984333" lon="7.318270796160152"><ele>542.4</ele><time>2026-04-24T16:11:51.999Z</time></trkpt><trkpt lat="44.91576725857332" lon="7.318246050039167"><ele>541.0</ele><time>2026-04-24T16:11:52.999Z</time></trkpt><trkpt lat="44.915863673355" lon="7.318224520883072"><ele>541.2</ele><time>2026-04-24T16:11:53.999Z</time></trkpt><trkpt lat="44.91595466624295" lon="7.3181929009068565"><ele>541.4000000000001</ele><time>2026-04-24T16:11:54.999Z</time></trkpt><trkpt lat="44.91603784396804" lon="7.318174166571382"><ele>541.6</ele><time>2026-04-24T16:11:55.999Z</time></trkpt><trkpt lat="44.91617011529717" lon="7.318273908114014"><ele>541.8000000000001</ele><time>2026-04-24T16:11:57.999Z</time></trkpt><trkpt lat="44.91625786833516" lon="7.318356394186928"><ele>542.0</ele><time>2026-04-24T16:11:58.999Z</time></trkpt><trkpt lat="44.91636416380919" lon="7.318434785036987"><ele>542.0</ele><time>2026-04-24T16:11:59.999Z</time></trkpt><trkpt lat="44.916469698704326" lon="7.318497585115813"><ele>542.0</ele><time>2026-04-24T16:12:00.999Z</time></trkpt><trkpt lat="44.91656067281814" lon="7.31855279533331"><ele>542.0</ele><time>2026-04-24T16:12:01.999Z</time></trkpt><trkpt lat="44.9166694306789" lon="7.318633044306182"><ele>542.0</ele><time>2026-04-24T16:12:02.999Z</time></trkpt><trkpt lat="44.91674865546759" lon="7.318711462548512"><ele>542.0</ele><time>2026-04-24T16:12:03.999Z</time></trkpt><trkpt lat="44.916838780228794" lon="7.318810066297196"><ele>540.5</ele><time>2026-04-24T16:12:04.999Z</time></trkpt><trkpt lat="44.91693894232749" lon="7.318875466535658"><ele>539.0</ele><time>2026-04-24T16:12:05.999Z</time></trkpt><trkpt lat="44.91703582037015" lon="7.318946940523517"><ele>537.5</ele><time>2026-04-24T16:12:06.999Z</time></trkpt><trkpt lat="44.91714647533394" lon="7.319005941869404"><ele>536.0</ele><time>2026-04-24T16:12:07.998Z</time></trkpt><trkpt lat="44.9172678832842" lon="7.319055570498826"><ele>534.0</ele><time>2026-04-24T16:12:08.998Z</time></trkpt><trkpt lat="44.91739317369611" lon="7.319106252693594"><ele>532.0</ele><time>2026-04-24T16:12:09.998Z</time></trkpt><trkpt lat="44.91752229742732" lon="7.3191461677955445"><ele>530.0</ele><time>2026-04-24T16:12:10.998Z</time></trkpt><trkpt lat="44.91765088254241" lon="7.319152252373651"><ele>528.0</ele><time>2026-04-24T16:12:11.998Z</time></trkpt><trkpt lat="44.91777804825593" lon="7.3191233625022685"><ele>526.6</ele><time>2026-04-24T16:12:12.998Z</time></trkpt><trkpt lat="44.917894883063134" lon="7.319092314448262"><ele>525.1999999999999</ele><time>2026-04-24T16:12:13.998Z</time></trkpt><trkpt lat="44.917998952827176" lon="7.319097193126484"><ele>523.8</ele><time>2026-04-24T16:12:14.998Z</time></trkpt><trkpt lat="44.9180914909067" lon="7.31915627022571"><ele>522.4</ele><time>2026-04-24T16:12:15.998Z</time></trkpt><trkpt lat="44.91819470940821" lon="7.319200663294823"><ele>521.0</ele><time>2026-04-24T16:12:16.998Z</time></trkpt><trkpt lat="44.918307920288804" lon="7.319223026189056"><ele>519.25</ele><time>2026-04-24T16:12:17.998Z</time></trkpt><trkpt lat="44.918418624668995" lon="7.319187125538049"><ele>517.5</ele><time>2026-04-24T16:12:18.998Z</time></trkpt><trkpt lat="44.91853052639386" lon="7.319132967468099"><ele>515.75</ele><time>2026-04-24T16:12:19.998Z</time></trkpt><trkpt lat="44.918646020108575" lon="7.3191334201188045"><ele>514.0</ele><time>2026-04-24T16:12:20.998Z</time></trkpt><trkpt lat="44.918763728333666" lon="7.319106694120561"><ele>514.0</ele><time>2026-04-24T16:12:21.998Z</time></trkpt><trkpt lat="44.91888562579669" lon="7.319090953597362"><ele>514.0</ele><time>2026-04-24T16:12:22.998Z</time></trkpt><trkpt lat="44.9190089193201" lon="7.319076695195653"><ele>514.0</ele><time>2026-04-24T16:12:23.998Z</time></trkpt><trkpt lat="44.919127900695855" lon="7.319058004186388"><ele>514.0</ele><time>2026-04-24T16:12:24.998Z</time></trkpt><trkpt lat="44.9192464689062" lon="7.319041410648495"><ele>512.5</ele><time>2026-04-24T16:12:25.998Z</time></trkpt><trkpt lat="44.9193629693634" lon="7.319073360282322"><ele>511.0</ele><time>2026-04-24T16:12:26.998Z</time></trkpt><trkpt lat="44.91948143769986" lon="7.319101536706196"><ele>509.5</ele><time>2026-04-24T16:12:27.998Z</time></trkpt><trkpt lat="44.91959999978912" lon="7.319105802788848"><ele>508.0</ele><time>2026-04-24T16:12:28.998Z</time></trkpt><trkpt lat="44.919703386050706" lon="7.319127631818224"><ele>508.0</ele><time>2026-04-24T16:12:29.998Z</time></trkpt><trkpt lat="44.91978597226579" lon="7.319137272873954"><ele>507.99999999999994</ele><time>2026-04-24T16:12:30.998Z</time></trkpt><trkpt lat="44.919864029766316" lon="7.319145030995148"><ele>507.99999999999994</ele><time>2026-04-24T16:12:31.998Z</time></trkpt><trkpt lat="44.91993372264584" lon="7.319149998412383"><ele>508.0</ele><time>2026-04-24T16:12:32.998Z</time></trkpt><trkpt lat="44.92005028950481" lon="7.319155348944403"><ele>508.0</ele><time>2026-04-24T16:12:34.998Z</time></trkpt><trkpt lat="44.920163489263814" lon="7.319140377354107"><ele>506.25</ele><time>2026-04-24T16:12:36.998Z</time></trkpt><trkpt lat="44.9202756238132" lon="7.319105814098551"><ele>504.5</ele><time>2026-04-24T16:12:38.998Z</time></trkpt><trkpt lat="44.92038742223386" lon="7.319085947187981"><ele>502.75</ele><time>2026-04-24T16:12:40.998Z</time></trkpt><trkpt lat="44.9205060867519" lon="7.31906133506486"><ele>501.0</ele><time>2026-04-24T16:12:42.998Z</time></trkpt><trkpt lat="44.920631050116405" lon="7.31905744686849"><ele>501.0</ele><time>2026-04-24T16:12:44.998Z</time></trkpt><trkpt lat="44.92069434477861" lon="7.319061810052869"><ele>501.0</ele><time>2026-04-24T16:12:45.998Z</time></trkpt><trkpt lat="44.92076284307916" lon="7.319071272766469"><ele>501.0</ele><time>2026-04-24T16:12:46.998Z</time></trkpt><trkpt lat="44.92083524066002" lon="7.3190832417843685"><ele>501.0</ele><time>2026-04-24T16:12:47.998Z</time></trkpt><trkpt lat="44.92091914033205" lon="7.319097599441177"><ele>501.0</ele><time>2026-04-24T16:12:48.998Z</time></trkpt><trkpt lat="44.921008809353474" lon="7.3190991035929915"><ele>501.0</ele><time>2026-04-24T16:12:49.998Z</time></trkpt><trkpt lat="44.92110435897988" lon="7.319072741118329"><ele>499.20000000000005</ele><time>2026-04-24T16:12:50.998Z</time></trkpt><trkpt lat="44.921199471718076" lon="7.319062419943746"><ele>497.40000000000003</ele><time>2026-04-24T16:12:51.998Z</time></trkpt><trkpt lat="44.921278022625586" lon="7.319045424813832"><ele>495.6</ele><time>2026-04-24T16:12:52.998Z</time></trkpt><trkpt lat="44.92136986773715" lon="7.319031882330926"><ele>493.8</ele><time>2026-04-24T16:12:55Z</time></trkpt><trkpt lat="44.921342701893174" lon="7.319185442000949"><ele>492.0</ele><time>2026-04-24T16:12:56Z</time></trkpt><trkpt lat="44.92133102964711" lon="7.3193576743373185"><ele>492.0</ele><time>2026-04-24T16:12:58Z</time></trkpt><trkpt lat="44.921319913380856" lon="7.319449837069022"><ele>492.00000000000006</ele><time>2026-04-24T16:12:59Z</time></trkpt><trkpt lat="44.921301711497236" lon="7.3195514473529935"><ele>492.00000000000006</ele><time>2026-04-24T16:13:00Z</time></trkpt><trkpt lat="44.92126940698172" lon="7.31969225124974"><ele>492.0</ele><time>2026-04-24T16:13:01Z</time></trkpt><trkpt lat="44.92123641720919" lon="7.319841275706892"><ele>492.0</ele><time>2026-04-24T16:13:02Z</time></trkpt><trkpt lat="44.9211896846296" lon="7.320004008536182"><ele>489.0</ele><time>2026-04-24T16:13:03Z</time></trkpt><trkpt lat="44.92113046764724" lon="7.320169025894337"><ele>486.0</ele><time>2026-04-24T16:13:04Z</time></trkpt><trkpt lat="44.9210913652254" lon="7.320348848442206"><ele>483.0</ele><time>2026-04-24T16:13:05Z</time></trkpt><trkpt lat="44.92107067493853" lon="7.320538592348777"><ele>480.0</ele><time>2026-04-24T16:13:06Z</time></trkpt><trkpt lat="44.92102991884017" lon="7.320723020520863"><ele>478.25</ele><time>2026-04-24T16:13:07Z</time></trkpt><trkpt lat="44.92098401366374" lon="7.320912073627281"><ele>476.5</ele><time>2026-04-24T16:13:08Z</time></trkpt><trkpt lat="44.920935065043274" lon="7.321101386619956"><ele>474.75</ele><time>2026-04-24T16:13:09Z</time></trkpt><trkpt lat="44.920889537861356" lon="7.321285662600068"><ele>473.0</ele><time>2026-04-24T16:13:10Z</time></trkpt><trkpt lat="44.9208541489907" lon="7.321473783108622"><ele>470.25</ele><time>2026-04-24T16:13:11Z</time></trkpt><trkpt lat="44.920834266420776" lon="7.321665656049682"><ele>467.5</ele><time>2026-04-24T16:13:12Z</time></trkpt><trkpt lat="44.92083273397702" lon="7.321856749120144"><ele>464.75</ele><time>2026-04-24T16:13:13Z</time></trkpt><trkpt lat="44.920867529098416" lon="7.322053597104856"><ele>462.0</ele><time>2026-04-24T16:13:14Z</time></trkpt><trkpt lat="44.92092088620014" lon="7.322243449760822"><ele>459.25</ele><time>2026-04-24T16:13:15Z</time></trkpt><trkpt lat="44.92092022309112" lon="7.322437780724449"><ele>456.5</ele><time>2026-04-24T16:13:16Z</time></trkpt><trkpt lat="44.92090326769714" lon="7.322638751137039"><ele>453.75</ele><time>2026-04-24T16:13:17Z</time></trkpt><trkpt lat="44.92089856474939" lon="7.322854075630658"><ele>451.0</ele><time>2026-04-24T16:13:18Z</time></trkpt><trkpt lat="44.92085896191569" lon="7.323061825764176"><ele>447.33333333333337</ele><time>2026-04-24T16:13:19Z</time></trkpt><trkpt lat="44.92079584237639" lon="7.323261687894217"><ele>443.66666666666663</ele><time>2026-04-24T16:13:20Z</time></trkpt><trkpt lat="44.92074853404404" lon="7.323471903210019"><ele>440.0</ele><time>2026-04-24T16:13:21Z</time></trkpt><trkpt lat="44.92073343741567" lon="7.3236905100096426"><ele>440.0</ele><time>2026-04-24T16:13:22Z</time></trkpt><trkpt lat="44.92070505133799" lon="7.323879202005792"><ele>440.0</ele><time>2026-04-24T16:13:23Z</time></trkpt><trkpt lat="44.92068740468358" lon="7.324007172383423"><ele>440.0</ele><time>2026-04-24T16:13:23.999Z</time></trkpt><trkpt lat="44.920653948250255" lon="7.324102734429241"><ele>440.0</ele><time>2026-04-24T16:13:24.999Z</time></trkpt><trkpt lat="44.9205902849665" lon="7.324166073174162"><ele>440.0</ele><time>2026-04-24T16:13:25.999Z</time></trkpt><trkpt lat="44.92050517442507" lon="7.324187440794396"><ele>438.16666666666663</ele><time>2026-04-24T16:13:26.999Z</time></trkpt><trkpt lat="44.92041628089419" lon="7.324176517242286"><ele>436.3333333333333</ele><time>2026-04-24T16:13:27.999Z</time></trkpt><trkpt lat="44.92033137166683" lon="7.324169119045935"><ele>434.5</ele><time>2026-04-24T16:13:28.999Z</time></trkpt><trkpt lat="44.920248687871855" lon="7.324160010862215"><ele>432.66666666666663</ele><time>2026-04-24T16:13:29.999Z</time></trkpt><trkpt lat="44.92016717928835" lon="7.324151032133142"><ele>430.8333333333333</ele><time>2026-04-24T16:13:30.999Z</time></trkpt><trkpt lat="44.92008529335522" lon="7.324158860603927"><ele>429.0</ele><time>2026-04-24T16:13:31.999Z</time></trkpt><trkpt lat="44.920014646594325" lon="7.324161295700208"><ele>429.0</ele><time>2026-04-24T16:13:32.999Z</time></trkpt><trkpt lat="44.91995779560893" lon="7.324218501755416"><ele>429.0</ele><time>2026-04-24T16:13:33.999Z</time></trkpt><trkpt lat="44.919950096546536" lon="7.324353455138985"><ele>429.0</ele><time>2026-04-24T16:13:34.999Z</time></trkpt><trkpt lat="44.92002854897619" lon="7.324472792727128"><ele>429.0</ele><time>2026-04-24T16:13:35.999Z</time></trkpt><trkpt lat="44.920046464083036" lon="7.324583713617749"><ele>429.0</ele><time>2026-04-24T16:13:36.999Z</time></trkpt><trkpt lat="44.92005362879463" lon="7.324696748570016"><ele>429.0</ele><time>2026-04-24T16:13:37.999Z</time></trkpt><trkpt lat="44.92006070653935" lon="7.324817641752399"><ele>427.4</ele><time>2026-04-24T16:13:38.999Z</time></trkpt><trkpt lat="44.92007016944354" lon="7.324946451370637"><ele>425.79999999999995</ele><time>2026-04-24T16:13:39.999Z</time></trkpt><trkpt lat="44.92008391834394" lon="7.325074164794941"><ele>424.20000000000005</ele><time>2026-04-24T16:13:40.999Z</time></trkpt><trkpt lat="44.92009385207621" lon="7.325205101233447"><ele>422.6</ele><time>2026-04-24T16:13:41.999Z</time></trkpt><trkpt lat="44.920094662293465" lon="7.32533961274649"><ele>421.0</ele><time>2026-04-24T16:13:42.999Z</time></trkpt><trkpt lat="44.920093368946" lon="7.325475780263946"><ele>419.4</ele><time>2026-04-24T16:13:43.999Z</time></trkpt><trkpt lat="44.92010848364571" lon="7.325614120435628"><ele>417.8</ele><time>2026-04-24T16:13:44.999Z</time></trkpt><trkpt lat="44.9201077664183" lon="7.325764114282358"><ele>416.2</ele><time>2026-04-24T16:13:45.999Z</time></trkpt><trkpt lat="44.92008400946368" lon="7.3259192805976525"><ele>414.59999999999997</ele><time>2026-04-24T16:13:46.999Z</time></trkpt><trkpt lat="44.92007258520869" lon="7.326074796437056"><ele>413.0</ele><time>2026-04-24T16:13:47.999Z</time></trkpt><trkpt lat="44.92007078893657" lon="7.326235449480808"><ele>411.25</ele><time>2026-04-24T16:13:48.999Z</time></trkpt><trkpt lat="44.92006182236266" lon="7.326396577111929"><ele>409.5</ele><time>2026-04-24T16:13:49.999Z</time></trkpt><trkpt lat="44.92006136681282" lon="7.3265591159402215"><ele>407.75</ele><time>2026-04-24T16:13:50.999Z</time></trkpt><trkpt lat="44.92006173529204" lon="7.3267323583460255"><ele>406.0</ele><time>2026-04-24T16:13:51.999Z</time></trkpt><trkpt lat="44.920058036671" lon="7.326901146560733"><ele>406.0</ele><time>2026-04-24T16:13:52.999Z</time></trkpt><trkpt lat="44.92004930392943" lon="7.327060241167277"><ele>406.0</ele><time>2026-04-24T16:13:53.999Z</time></trkpt><trkpt lat="44.92005313786587" lon="7.327206927025197"><ele>406.0</ele><time>2026-04-24T16:13:54.999Z</time></trkpt><trkpt lat="44.92008474061425" lon="7.327353870856523"><ele>406.0</ele><time>2026-04-24T16:13:55.999Z</time></trkpt><trkpt lat="44.92014798398287" lon="7.327483406129431"><ele>406.0</ele><time>2026-04-24T16:13:56.999Z</time></trkpt><trkpt lat="44.92022425319367" lon="7.327592778527214"><ele>405.20000000000005</ele><time>2026-04-24T16:13:57.999Z</time></trkpt><trkpt lat="44.92031314164752" lon="7.327675731399322"><ele>404.40000000000003</ele><time>2026-04-24T16:13:58.999Z</time></trkpt><trkpt lat="44.920402486292836" lon="7.327753966974995"><ele>403.6</ele><time>2026-04-24T16:13:59.999Z</time></trkpt><trkpt lat="44.92048868171594" lon="7.32781707903657"><ele>402.8</ele><time>2026-04-24T16:14:00.999Z</time></trkpt><trkpt lat="44.92055278867856" lon="7.327895572906568"><ele>402.0</ele><time>2026-04-24T16:14:01.999Z</time></trkpt><trkpt lat="44.92059505221838" lon="7.327997935307007"><ele>400.8333333333333</ele><time>2026-04-24T16:14:02.999Z</time></trkpt><trkpt lat="44.9205895108352" lon="7.328120331816998"><ele>399.66666666666663</ele><time>2026-04-24T16:14:03.999Z</time></trkpt><trkpt lat="44.92057239911557" lon="7.328213595641527"><ele>398.5</ele><time>2026-04-24T16:14:04.999Z</time></trkpt><trkpt lat="44.9205637512866" lon="7.328337823567752"><ele>397.3333333333333</ele><time>2026-04-24T16:14:05.999Z</time></trkpt><trkpt lat="44.920555308039724" lon="7.328452462929188"><ele>396.16666666666663</ele><time>2026-04-24T16:14:06.999Z</time></trkpt><trkpt lat="44.920548514461984" lon="7.3285721435968245"><ele>395.0</ele><time>2026-04-24T16:14:07.999Z</time></trkpt><trkpt lat="44.92054163350458" lon="7.32868730369322"><ele>394.99999999999994</ele><time>2026-04-24T16:14:08.999Z</time></trkpt><trkpt lat="44.9205302656617" lon="7.328791723080481"><ele>395.0</ele><time>2026-04-24T16:14:09.999Z</time></trkpt><trkpt lat="44.920505336602275" lon="7.328892619510189"><ele>395.0</ele><time>2026-04-24T16:14:10.998Z</time></trkpt><trkpt lat="44.92048019348918" lon="7.3289921246356675"><ele>395.0</ele><time>2026-04-24T16:14:12.998Z</time></trkpt><trkpt lat="44.920548116368884" lon="7.329017142320256"><ele>394.99999999999994</ele><time>2026-04-24T16:14:30.998Z</time></trkpt><trkpt lat="44.920633374398534" lon="7.329051938879154"><ele>395.0</ele><time>2026-04-24T16:14:33.998Z</time></trkpt><trkpt lat="44.92073944630109" lon="7.328990603189597"><ele>394.99999999999994</ele><time>2026-04-24T16:14:35.998Z</time></trkpt><trkpt lat="44.920823239636405" lon="7.328872390660644"><ele>395.0</ele><time>2026-04-24T16:14:37.998Z</time></trkpt><trkpt lat="44.92088849088923" lon="7.328826573482374"><ele>395.0</ele><time>2026-04-24T16:14:39.998Z</time></trkpt><trkpt lat="44.92095941977793" lon="7.328849694732359"><ele>395.0</ele><time>2026-04-24T16:14:41.998Z</time></trkpt><trkpt lat="44.92100669787565" lon="7.328927027770948"><ele>394.99999999999994</ele><time>2026-04-24T16:14:43.998Z</time></trkpt><trkpt lat="44.921036755858985" lon="7.329025974536084"><ele>395.0</ele><time>2026-04-24T16:14:48.998Z</time></trkpt><trkpt lat="44.92104847977775" lon="7.329118324061941"><ele>394.0</ele><time>2026-04-24T16:14:51.998Z</time></trkpt><trkpt lat="44.92106505599611" lon="7.329209864417366"><ele>393.0</ele><time>2026-04-24T16:14:53.998Z</time></trkpt><trkpt lat="44.92111011310729" lon="7.3293019483451864"><ele>392.0</ele><time>2026-04-24T16:14:56.998Z</time></trkpt><trkpt lat="44.92118426052075" lon="7.329513736724443"><ele>391.0</ele><time>2026-04-24T16:14:57.997Z</time></trkpt><trkpt lat="44.92123321702115" lon="7.329586707060454"><ele>390.0</ele><time>2026-04-24T16:14:58.997Z</time></trkpt><trkpt lat="44.92129786757547" lon="7.3296888554557915"><ele>388.8333333333333</ele><time>2026-04-24T16:15:00Z</time></trkpt><trkpt lat="44.92135376820657" lon="7.329797770879203"><ele>387.6666666666667</ele><time>2026-04-24T16:15:01Z</time></trkpt><trkpt lat="44.92140822368086" lon="7.329910953092774"><ele>386.5</ele><time>2026-04-24T16:15:02Z</time></trkpt><trkpt lat="44.92146134621177" lon="7.329992985927156"><ele>385.33333333333337</ele><time>2026-04-24T16:15:03Z</time></trkpt><trkpt lat="44.92153494261461" lon="7.329979753453831"><ele>384.1666666666667</ele><time>2026-04-24T16:15:04Z</time></trkpt><trkpt lat="44.92163435857563" lon="7.329957175705261"><ele>383.0</ele><time>2026-04-24T16:15:06Z</time></trkpt><trkpt lat="44.92172650795616" lon="7.329929154284822"><ele>384.2</ele><time>2026-04-24T16:15:08Z</time></trkpt><trkpt lat="44.9218511131154" lon="7.329948366758197"><ele>385.4</ele><time>2026-04-24T16:15:10Z</time></trkpt><trkpt lat="44.92194990072848" lon="7.329919421450218"><ele>386.59999999999997</ele><time>2026-04-24T16:15:12Z</time></trkpt><trkpt lat="44.92205400543648" lon="7.3298164097792915"><ele>387.79999999999995</ele><time>2026-04-24T16:15:14Z</time></trkpt><trkpt lat="44.92211838739198" lon="7.32975617789371"><ele>389.0</ele><time>2026-04-24T16:15:15Z</time></trkpt><trkpt lat="44.92220125360042" lon="7.329695011571914"><ele>390.3333333333333</ele><time>2026-04-24T16:15:16Z</time></trkpt><trkpt lat="44.92228790580533" lon="7.329623480409085"><ele>391.66666666666663</ele><time>2026-04-24T16:15:17Z</time></trkpt><trkpt lat="44.92236065379696" lon="7.3295526716349055"><ele>393.0</ele><time>2026-04-24T16:15:18Z</time></trkpt><trkpt lat="44.922406548205785" lon="7.329478796178964"><ele>394.33333333333337</ele><time>2026-04-24T16:15:19Z</time></trkpt><trkpt lat="44.922463903407966" lon="7.3294015784715745"><ele>395.6666666666667</ele><time>2026-04-24T16:15:20Z</time></trkpt><trkpt lat="44.922546501814686" lon="7.329361898435133"><ele>397.0</ele><time>2026-04-24T16:15:21Z</time></trkpt><trkpt lat="44.92264561934604" lon="7.329315190229591"><ele>397.33333333333337</ele><time>2026-04-24T16:15:22Z</time></trkpt><trkpt lat="44.92274525032325" lon="7.329267007363324"><ele>397.6666666666667</ele><time>2026-04-24T16:15:23Z</time></trkpt><trkpt lat="44.92282312807688" lon="7.329212773044788"><ele>398.0</ele><time>2026-04-24T16:15:24Z</time></trkpt><trkpt lat="44.92289442479508" lon="7.329147720832835"><ele>398.33333333333337</ele><time>2026-04-24T16:15:25Z</time></trkpt><trkpt lat="44.92296774073682" lon="7.3290982855589135"><ele>398.6666666666667</ele><time>2026-04-24T16:15:27Z</time></trkpt><trkpt lat="44.92303756110186" lon="7.329101757686845"><ele>399.0</ele><time>2026-04-24T16:15:31.999Z</time></trkpt><trkpt lat="44.9231219403479" lon="7.329110547568148"><ele>399.0</ele><time>2026-04-24T16:15:34.999Z</time></trkpt><trkpt lat="44.923366626038444" lon="7.329134465864486"><ele>399.0</ele><time>2026-04-24T16:15:37.999Z</time></trkpt><trkpt lat="44.923429071860234" lon="7.3291020664216"><ele>399.0</ele><time>2026-04-24T16:15:38.999Z</time></trkpt><trkpt lat="44.92354366641313" lon="7.3290646806256365"><ele>399.0</ele><time>2026-04-24T16:15:40.999Z</time></trkpt><trkpt lat="44.923635874024065" lon="7.329090646049663"><ele>400.2</ele><time>2026-04-24T16:15:42.999Z</time></trkpt><trkpt lat="44.923767929121816" lon="7.329139380046811"><ele>401.4</ele><time>2026-04-24T16:15:44.999Z</time></trkpt><trkpt lat="44.9238470295831" lon="7.329188691706364"><ele>402.6</ele><time>2026-04-24T16:15:45.999Z</time></trkpt><trkpt lat="44.92392222253643" lon="7.3292378380968835"><ele>403.8</ele><time>2026-04-24T16:15:46.999Z</time></trkpt><trkpt lat="44.92398263514977" lon="7.329294517851377"><ele>405.0</ele><time>2026-04-24T16:15:47.999Z</time></trkpt><trkpt lat="44.92405407370336" lon="7.329327940099081"><ele>405.0</ele><time>2026-04-24T16:15:48.999Z</time></trkpt><trkpt lat="44.92412261858939" lon="7.329349122816527"><ele>405.0</ele><time>2026-04-24T16:15:49.999Z</time></trkpt><trkpt lat="44.924217739677665" lon="7.329378997105446"><ele>405.0</ele><time>2026-04-24T16:15:51.999Z</time></trkpt><trkpt lat="44.92411738242443" lon="7.329334246929373"><ele>405.0</ele><time>2026-04-24T16:15:53.999Z</time></trkpt><trkpt lat="44.92420903938412" lon="7.329435925986957"><ele>405.0</ele><time>2026-04-24T16:15:58.999Z</time></trkpt><trkpt lat="44.92427673734699" lon="7.329530918644917"><ele>407.4</ele><time>2026-04-24T16:15:59.999Z</time></trkpt><trkpt lat="44.92435712908657" lon="7.329621740313096"><ele>409.8</ele><time>2026-04-24T16:16:00.999Z</time></trkpt><trkpt lat="44.92442856901328" lon="7.32968564504433"><ele>412.20000000000005</ele><time>2026-04-24T16:16:01.999Z</time></trkpt><trkpt lat="44.92450092393876" lon="7.329724992890827"><ele>414.6</ele><time>2026-04-24T16:16:02.999Z</time></trkpt><trkpt lat="44.92454299471333" lon="7.329816439932952"><ele>417.0</ele><time>2026-04-24T16:16:03.999Z</time></trkpt><trkpt lat="44.92464476315415" lon="7.329924086797791"><ele>417.0</ele><time>2026-04-24T16:16:04.999Z</time></trkpt><trkpt lat="44.924738921252" lon="7.330003404584864"><ele>417.0</ele><time>2026-04-24T16:16:05.999Z</time></trkpt><trkpt lat="44.92483330675223" lon="7.330051033974476"><ele>417.0</ele><time>2026-04-24T16:16:06.999Z</time></trkpt><trkpt lat="44.92491202669854" lon="7.330101097497896"><ele>417.0</ele><time>2026-04-24T16:16:07.999Z</time></trkpt><trkpt lat="44.924979134311116" lon="7.3301550327031135"><ele>417.0</ele><time>2026-04-24T16:16:08.999Z</time></trkpt><trkpt lat="44.92505128273142" lon="7.330203545769382"><ele>417.6666666666667</ele><time>2026-04-24T16:16:09.999Z</time></trkpt><trkpt lat="44.92513132367573" lon="7.330245073402364"><ele>418.33333333333337</ele><time>2026-04-24T16:16:10.999Z</time></trkpt><trkpt lat="44.92521982647592" lon="7.330287600693265"><ele>419.0</ele><time>2026-04-24T16:16:11.999Z</time></trkpt><trkpt lat="44.92529791526567" lon="7.330338632817233"><ele>419.6666666666667</ele><time>2026-04-24T16:16:12.999Z</time></trkpt><trkpt lat="44.92537270548823" lon="7.330379365597663"><ele>420.33333333333337</ele><time>2026-04-24T16:16:13.999Z</time></trkpt><trkpt lat="44.92542678862724" lon="7.330425196738623"><ele>421.0</ele><time>2026-04-24T16:16:14.999Z</time></trkpt><trkpt lat="44.92545089333133" lon="7.330515310050885"><ele>420.42857142857144</ele><time>2026-04-24T16:16:19.998Z</time></trkpt><trkpt lat="44.925421914545865" lon="7.330600684335049"><ele>419.8571428571429</ele><time>2026-04-24T16:16:20.998Z</time></trkpt><trkpt lat="44.925391876640724" lon="7.330688189397881"><ele>419.28571428571433</ele><time>2026-04-24T16:16:21.998Z</time></trkpt><trkpt lat="44.92537633265618" lon="7.330794596888012"><ele>418.7142857142857</ele><time>2026-04-24T16:16:22.998Z</time></trkpt><trkpt lat="44.92531649003434" lon="7.330856985743806"><ele>418.1428571428571</ele><time>2026-04-24T16:16:23.998Z</time></trkpt><trkpt lat="44.925252887587625" lon="7.3309136008064195"><ele>417.5714285714286</ele><time>2026-04-24T16:16:24.998Z</time></trkpt><trkpt lat="44.925243286320026" lon="7.331022120859087"><ele>417.0</ele><time>2026-04-24T16:16:26.998Z</time></trkpt><trkpt lat="44.925245078690466" lon="7.331133976004211"><ele>417.0</ele><time>2026-04-24T16:16:28.998Z</time></trkpt><trkpt lat="44.92527211024898" lon="7.33122888093942"><ele>417.0</ele><time>2026-04-24T16:16:29.998Z</time></trkpt><trkpt lat="44.92530088178049" lon="7.331342016333578"><ele>417.0</ele><time>2026-04-24T16:16:30.998Z</time></trkpt><trkpt lat="44.92537002878539" lon="7.331477881072776"><ele>417.0</ele><time>2026-04-24T16:16:31.998Z</time></trkpt><trkpt lat="44.92544098725787" lon="7.3316130857509965"><ele>417.0</ele><time>2026-04-24T16:16:32.998Z</time></trkpt><trkpt lat="44.92553422461183" lon="7.331732380700736"><ele>414.75</ele><time>2026-04-24T16:16:33.998Z</time></trkpt><trkpt lat="44.925612874442834" lon="7.331830146706442"><ele>412.5</ele><time>2026-04-24T16:16:34.998Z</time></trkpt><trkpt lat="44.92574074059567" lon="7.331836696974068"><ele>410.25</ele><time>2026-04-24T16:16:35.998Z</time></trkpt><trkpt lat="44.92588880220625" lon="7.331767191068633"><ele>408.0</ele><time>2026-04-24T16:16:36.998Z</time></trkpt><trkpt lat="44.926035110223374" lon="7.33172928193593"><ele>408.0</ele><time>2026-04-24T16:16:37.998Z</time></trkpt><trkpt lat="44.926178430114746" lon="7.331705422365492"><ele>408.0</ele><time>2026-04-24T16:16:38.998Z</time></trkpt><trkpt lat="44.926313751372376" lon="7.331716610813644"><ele>408.0</ele><time>2026-04-24T16:16:39.998Z</time></trkpt><trkpt lat="44.926429385194055" lon="7.331792079843374"><ele>408.0</ele><time>2026-04-24T16:16:40.998Z</time></trkpt><trkpt lat="44.92652311024256" lon="7.331880276003969"><ele>408.0</ele><time>2026-04-24T16:16:41.998Z</time></trkpt><trkpt lat="44.92656400217137" lon="7.3320242536671785"><ele>408.0</ele><time>2026-04-24T16:16:42.998Z</time></trkpt><trkpt lat="44.92659950856718" lon="7.332178390452088"><ele>408.0</ele><time>2026-04-24T16:16:43.998Z</time></trkpt><trkpt lat="44.92664366881547" lon="7.332345100491875"><ele>408.0</ele><time>2026-04-24T16:16:44.998Z</time></trkpt><trkpt lat="44.926668780387544" lon="7.332526298178228"><ele>407.0</ele><time>2026-04-24T16:16:45.998Z</time></trkpt><trkpt lat="44.92669036996972" lon="7.332711781292253"><ele>406.0</ele><time>2026-04-24T16:16:46.998Z</time></trkpt><trkpt lat="44.9267087353505" lon="7.332927704718038"><ele>405.0</ele><time>2026-04-24T16:16:47.998Z</time></trkpt><trkpt lat="44.92673868284457" lon="7.3331953668198535"><ele>413.5</ele><time>2026-04-24T16:16:48.998Z</time></trkpt><trkpt lat="44.92677095845188" lon="7.333546868812529"><ele>422.0</ele><time>2026-04-24T16:16:49.998Z</time></trkpt><trkpt lat="44.92677651148378" lon="7.333911408043085"><ele>422.0</ele><time>2026-04-24T16:16:50.998Z</time></trkpt><trkpt lat="44.92676402132663" lon="7.334320433995437"><ele>422.0</ele><time>2026-04-24T16:16:51.998Z</time></trkpt><trkpt lat="44.9267600525779" lon="7.334744241538632"><ele>421.0</ele><time>2026-04-24T16:16:52.998Z</time></trkpt><trkpt lat="44.926765805800095" lon="7.33517126195165"><ele>420.0</ele><time>2026-04-24T16:16:53.998Z</time></trkpt><trkpt lat="44.92677308182361" lon="7.335560064977845"><ele>417.5</ele><time>2026-04-24T16:16:54.998Z</time></trkpt><trkpt lat="44.92678405498613" lon="7.335903389350055"><ele>415.0</ele><time>2026-04-24T16:16:55.998Z</time></trkpt><trkpt lat="44.9267943302655" lon="7.336217679630127"><ele>411.6666666666667</ele><time>2026-04-24T16:16:56.998Z</time></trkpt><trkpt lat="44.92680031729669" lon="7.336497533486814"><ele>408.33333333333337</ele><time>2026-04-24T16:16:57.998Z</time></trkpt><trkpt lat="44.92680894932607" lon="7.336742317239702"><ele>405.0</ele><time>2026-04-24T16:16:58.998Z</time></trkpt><trkpt lat="44.926830008773" lon="7.3369510719037825"><ele>405.0</ele><time>2026-04-24T16:16:59.998Z</time></trkpt><trkpt lat="44.92686231972156" lon="7.337100065001399"><ele>405.0</ele><time>2026-04-24T16:17:00.998Z</time></trkpt><trkpt lat="44.92688392156375" lon="7.3372092543796"><ele>405.0</ele><time>2026-04-24T16:17:01.998Z</time></trkpt><trkpt lat="44.926916178837544" lon="7.337300175149005"><ele>405.0</ele><time>2026-04-24T16:17:03.997Z</time></trkpt><trkpt lat="44.9267647087928" lon="7.337350146891998"><ele>405.0</ele><time>2026-04-24T16:17:04.997Z</time></trkpt><trkpt lat="44.92670661061124" lon="7.337399937344696"><ele>401.66666666666663</ele><time>2026-04-24T16:17:06Z</time></trkpt><trkpt lat="44.92662466801912" lon="7.337461249378285"><ele>398.3333333333333</ele><time>2026-04-24T16:17:08Z</time></trkpt><trkpt lat="44.926391416484876" lon="7.337671700957866"><ele>395.0</ele><time>2026-04-24T16:17:14Z</time></trkpt><trkpt lat="44.926349092002766" lon="7.337509143544939"><ele>395.0</ele><time>2026-04-24T16:17:15Z</time></trkpt><trkpt lat="44.92679418808999" lon="7.337386142975638"><ele>394.99999999999994</ele><time>2026-04-24T16:17:16Z</time></trkpt><trkpt lat="44.926848596691904" lon="7.337338270561792"><ele>395.0</ele><time>2026-04-24T16:17:17Z</time></trkpt><trkpt lat="44.92693291053464" lon="7.337344444364484"><ele>395.0</ele><time>2026-04-24T16:17:19Z</time></trkpt><trkpt lat="44.92703349001933" lon="7.3373766168312216"><ele>395.0</ele><time>2026-04-24T16:17:21Z</time></trkpt><trkpt lat="44.92711414550781" lon="7.337382637970477"><ele>394.99999999999994</ele><time>2026-04-24T16:17:22Z</time></trkpt><trkpt lat="44.92721465265491" lon="7.337392983889527"><ele>395.0</ele><time>2026-04-24T16:17:23Z</time></trkpt><trkpt lat="44.92733231215689" lon="7.337405057448256"><ele>395.0</ele><time>2026-04-24T16:17:24Z</time></trkpt><trkpt lat="44.92747134924802" lon="7.3374115525993755"><ele>395.0</ele><time>2026-04-24T16:17:25Z</time></trkpt><trkpt lat="44.927614312428545" lon="7.33741978244686"><ele>395.0</ele><time>2026-04-24T16:17:26Z</time></trkpt><trkpt lat="44.92776842309236" lon="7.337430483225986"><ele>395.0</ele><time>2026-04-24T16:17:27Z</time></trkpt><trkpt lat="44.92792077831524" lon="7.337436659072974"><ele>394.0</ele><time>2026-04-24T16:17:28Z</time></trkpt><trkpt lat="44.92806215544568" lon="7.337443581649384"><ele>393.0</ele><time>2026-04-24T16:17:29Z</time></trkpt><trkpt lat="44.928197115905604" lon="7.33745487412415"><ele>392.0</ele><time>2026-04-24T16:17:30Z</time></trkpt><trkpt lat="44.928325731699644" lon="7.337491189851497"><ele>391.0</ele><time>2026-04-24T16:17:31Z</time></trkpt><trkpt lat="44.92844739473875" lon="7.337550160879253"><ele>390.5</ele><time>2026-04-24T16:17:31.999Z</time></trkpt><trkpt lat="44.92855357272673" lon="7.337641976449106"><ele>390.0</ele><time>2026-04-24T16:17:32.999Z</time></trkpt><trkpt lat="44.92863902351037" lon="7.337777036680312"><ele>389.5</ele><time>2026-04-24T16:17:33.999Z</time></trkpt><trkpt lat="44.92871882491085" lon="7.3379404704956706"><ele>389.0</ele><time>2026-04-24T16:17:34.999Z</time></trkpt><trkpt lat="44.92879241152199" lon="7.338132717676209"><ele>387.3333333333333</ele><time>2026-04-24T16:17:35.999Z</time></trkpt><trkpt lat="44.92888896946981" lon="7.338352726723086"><ele>385.66666666666663</ele><time>2026-04-24T16:17:36.999Z</time></trkpt><trkpt lat="44.9289675345129" lon="7.338628367303143"><ele>384.0</ele><time>2026-04-24T16:17:37.999Z</time></trkpt><trkpt lat="44.92906435723746" lon="7.338894647836803"><ele>384.0</ele><time>2026-04-24T16:17:38.999Z</time></trkpt><trkpt lat="44.92915135526783" lon="7.339130925002585"><ele>384.0</ele><time>2026-04-24T16:17:39.999Z</time></trkpt><trkpt lat="44.92923949516054" lon="7.33933143602462"><ele>384.0</ele><time>2026-04-24T16:17:40.999Z</time></trkpt><trkpt lat="44.92929264654251" lon="7.339532344257468"><ele>384.0</ele><time>2026-04-24T16:17:41.999Z</time></trkpt><trkpt lat="44.9293364577559" lon="7.339730025275815"><ele>384.0</ele><time>2026-04-24T16:17:42.999Z</time></trkpt><trkpt lat="44.92936268446803" lon="7.339925646688933"><ele>384.0</ele><time>2026-04-24T16:17:43.999Z</time></trkpt><trkpt lat="44.92937778762013" lon="7.340139954058806"><ele>384.0</ele><time>2026-04-24T16:17:44.999Z</time></trkpt><trkpt lat="44.92939603908284" lon="7.34034715471867"><ele>383.75</ele><time>2026-04-24T16:17:45.999Z</time></trkpt><trkpt lat="44.92941843434592" lon="7.340556595131266"><ele>383.5</ele><time>2026-04-24T16:17:46.999Z</time></trkpt><trkpt lat="44.9294403253454" lon="7.340763673517335"><ele>383.25</ele><time>2026-04-24T16:17:47.999Z</time></trkpt><trkpt lat="44.92946077737763" lon="7.340962516868598"><ele>383.0</ele><time>2026-04-24T16:17:48.999Z</time></trkpt><trkpt lat="44.929477864993245" lon="7.341173496240105"><ele>382.6666666666667</ele><time>2026-04-24T16:17:49.999Z</time></trkpt><trkpt lat="44.92949394431262" lon="7.341384675763792"><ele>382.3333333333333</ele><time>2026-04-24T16:17:50.999Z</time></trkpt><trkpt lat="44.92950508338046" lon="7.341590305831343"><ele>382.0</ele><time>2026-04-24T16:17:51.999Z</time></trkpt><trkpt lat="44.929518756288346" lon="7.341810096449855"><ele>382.0</ele><time>2026-04-24T16:17:52.999Z</time></trkpt><trkpt lat="44.929535383522044" lon="7.342020046263586"><ele>382.0</ele><time>2026-04-24T16:17:53.999Z</time></trkpt><trkpt lat="44.92954308491434" lon="7.3422212787810235"><ele>382.0</ele><time>2026-04-24T16:17:54.999Z</time></trkpt><trkpt lat="44.929553818128994" lon="7.342423453701121"><ele>382.0</ele><time>2026-04-24T16:17:55.999Z</time></trkpt><trkpt lat="44.929563643733346" lon="7.342616812789586"><ele>381.75</ele><time>2026-04-24T16:17:56.999Z</time></trkpt><trkpt lat="44.9295780949297" lon="7.342809238271461"><ele>381.5</ele><time>2026-04-24T16:17:57.999Z</time></trkpt><trkpt lat="44.929595159149855" lon="7.343021332278546"><ele>381.25</ele><time>2026-04-24T16:17:58.999Z</time></trkpt><trkpt lat="44.9296090997598" lon="7.343234838507405"><ele>381.0</ele><time>2026-04-24T16:17:59.999Z</time></trkpt><trkpt lat="44.92960894276937" lon="7.343429211250137"><ele>380.5</ele><time>2026-04-24T16:18:00.999Z</time></trkpt><trkpt lat="44.92959901812734" lon="7.343616119836258"><ele>380.0</ele><time>2026-04-24T16:18:01.999Z</time></trkpt><trkpt lat="44.92958076110555" lon="7.343813565823593"><ele>379.5</ele><time>2026-04-24T16:18:02.999Z</time></trkpt><trkpt lat="44.929561714663464" lon="7.344018125107505"><ele>379.0</ele><time>2026-04-24T16:18:03.999Z</time></trkpt><trkpt lat="44.92954226632511" lon="7.344237458201619"><ele>378.66666666666663</ele><time>2026-04-24T16:18:04.999Z</time></trkpt><trkpt lat="44.92952748058837" lon="7.344448460334102"><ele>378.3333333333333</ele><time>2026-04-24T16:18:05.999Z</time></trkpt><trkpt lat="44.9295240963266" lon="7.344664556238593"><ele>378.0</ele><time>2026-04-24T16:18:06.999Z</time></trkpt><trkpt lat="44.92953335248321" lon="7.34488811311939"><ele>377.5</ele><time>2026-04-24T16:18:07.999Z</time></trkpt><trkpt lat="44.92955441624511" lon="7.345091730698524"><ele>377.0</ele><time>2026-04-24T16:18:08.999Z</time></trkpt><trkpt lat="44.92958365127965" lon="7.345280427635609"><ele>376.5</ele><time>2026-04-24T16:18:09.999Z</time></trkpt><trkpt lat="44.929640307815504" lon="7.345451795064676"><ele>376.0</ele><time>2026-04-24T16:18:10.999Z</time></trkpt><trkpt lat="44.92972013783768" lon="7.345617646425588"><ele>376.0</ele><time>2026-04-24T16:18:11.999Z</time></trkpt><trkpt lat="44.92983735221031" lon="7.345754575928364"><ele>376.0</ele><time>2026-04-24T16:18:12.999Z</time></trkpt><trkpt lat="44.929980065003676" lon="7.345866702943116"><ele>376.0</ele><time>2026-04-24T16:18:13.999Z</time></trkpt><trkpt lat="44.930142050337224" lon="7.345973658050744"><ele>376.0</ele><time>2026-04-24T16:18:14.999Z</time></trkpt><trkpt lat="44.9303024822542" lon="7.346106358663031"><ele>376.0</ele><time>2026-04-24T16:18:15.999Z</time></trkpt><trkpt lat="44.9304629812136" lon="7.346297153395314"><ele>376.0</ele><time>2026-04-24T16:18:16.999Z</time></trkpt><trkpt lat="44.93063514543053" lon="7.3465236665059175"><ele>376.0</ele><time>2026-04-24T16:18:17.999Z</time></trkpt><trkpt lat="44.93085274965068" lon="7.3467548395144195"><ele>376.0</ele><time>2026-04-24T16:18:18.998Z</time></trkpt><trkpt lat="44.9310718556673" lon="7.346961576386934"><ele>376.0</ele><time>2026-04-24T16:18:19.998Z</time></trkpt><trkpt lat="44.93128071053744" lon="7.3471136047356636"><ele>376.0</ele><time>2026-04-24T16:18:20.998Z</time></trkpt><trkpt lat="44.9314790072109" lon="7.3472244448560975"><ele>376.0</ele><time>2026-04-24T16:18:21.998Z</time></trkpt><trkpt lat="44.93166144187712" lon="7.347308515650855"><ele>376.75</ele><time>2026-04-24T16:18:22.998Z</time></trkpt><trkpt lat="44.93181745920436" lon="7.3473881170340025"><ele>377.5</ele><time>2026-04-24T16:18:23.998Z</time></trkpt><trkpt lat="44.93195058611623" lon="7.347459430738425"><ele>378.25</ele><time>2026-04-24T16:18:24.998Z</time></trkpt><trkpt lat="44.93206639426228" lon="7.347516711529277"><ele>379.0</ele><time>2026-04-24T16:18:25.998Z</time></trkpt><trkpt lat="44.932164090632575" lon="7.347564345630638"><ele>379.0</ele><time>2026-04-24T16:18:26.998Z</time></trkpt><trkpt lat="44.93223126020401" lon="7.347607924315312"><ele>379.0</ele><time>2026-04-24T16:18:27.998Z</time></trkpt><trkpt lat="44.93227547323892" lon="7.34767515250715"><ele>379.0</ele><time>2026-04-24T16:18:29.998Z</time></trkpt><trkpt lat="44.93220069046605" lon="7.347903942627287"><ele>379.0</ele><time>2026-04-24T16:18:30.998Z</time></trkpt><trkpt lat="44.93218685658696" lon="7.348043909988732"><ele>379.0</ele><time>2026-04-24T16:18:31.998Z</time></trkpt><trkpt lat="44.93216099126524" lon="7.348183406794294"><ele>378.6</ele><time>2026-04-24T16:18:32.998Z</time></trkpt><trkpt lat="44.932136022155476" lon="7.348319274264508"><ele>378.2</ele><time>2026-04-24T16:18:33.998Z</time></trkpt><trkpt lat="44.932106043117905" lon="7.348474993094096"><ele>377.8</ele><time>2026-04-24T16:18:34.998Z</time></trkpt><trkpt lat="44.9320628870186" lon="7.3486293909493945"><ele>377.40000000000003</ele><time>2026-04-24T16:18:35.998Z</time></trkpt><trkpt lat="44.93204971032726" lon="7.348785217091577"><ele>377.0</ele><time>2026-04-24T16:18:36.998Z</time></trkpt><trkpt lat="44.932017168570276" lon="7.348925291518567"><ele>376.6</ele><time>2026-04-24T16:18:37.998Z</time></trkpt><trkpt lat="44.931985803596504" lon="7.349063379945845"><ele>376.20000000000005</ele><time>2026-04-24T16:18:38.998Z</time></trkpt><trkpt lat="44.93196140260362" lon="7.349213633040413"><ele>375.8</ele><time>2026-04-24T16:18:39.998Z</time></trkpt><trkpt lat="44.931936501624776" lon="7.349365672961914"><ele>375.4</ele><time>2026-04-24T16:18:40.998Z</time></trkpt><trkpt lat="44.93190928671834" lon="7.34952552170434"><ele>375.0</ele><time>2026-04-24T16:18:41.998Z</time></trkpt><trkpt lat="44.931880797001526" lon="7.349677137338794"><ele>374.6</ele><time>2026-04-24T16:18:42.998Z</time></trkpt><trkpt lat="44.93185378017265" lon="7.3498182903795675"><ele>374.2</ele><time>2026-04-24T16:18:43.998Z</time></trkpt><trkpt lat="44.93183101399936" lon="7.349954626960387"><ele>373.79999999999995</ele><time>2026-04-24T16:18:44.998Z</time></trkpt><trkpt lat="44.931793016096925" lon="7.3500757058863515"><ele>373.4</ele><time>2026-04-24T16:18:45.998Z</time></trkpt><trkpt lat="44.93177092760447" lon="7.350197486015807"><ele>373.0</ele><time>2026-04-24T16:18:46.998Z</time></trkpt><trkpt lat="44.9317510873586" lon="7.350306871205031"><ele>372.2</ele><time>2026-04-24T16:18:47.998Z</time></trkpt><trkpt lat="44.93171181747554" lon="7.350428659254921"><ele>371.4</ele><time>2026-04-24T16:18:49.998Z</time></trkpt><trkpt lat="44.931616129692145" lon="7.3503853919205016"><ele>370.59999999999997</ele><time>2026-04-24T16:18:50.998Z</time></trkpt><trkpt lat="44.93152524249993" lon="7.350371912654549"><ele>369.79999999999995</ele><time>2026-04-24T16:18:51.998Z</time></trkpt><trkpt lat="44.93142815686851" lon="7.350336522391702"><ele>369.0</ele><time>2026-04-24T16:18:52.998Z</time></trkpt><trkpt lat="44.93133276753349" lon="7.350315574318989"><ele>369.0</ele><time>2026-04-24T16:18:53.998Z</time></trkpt><trkpt lat="44.93121156021587" lon="7.350314927898714"><ele>369.0</ele><time>2026-04-24T16:18:55.998Z</time></trkpt><trkpt lat="44.93105674540085" lon="7.3503942837071055"><ele>369.0</ele><time>2026-04-24T16:18:57.998Z</time></trkpt><trkpt lat="44.931249634274714" lon="7.350543477844099"><ele>368.4</ele><time>2026-04-24T16:18:59.998Z</time></trkpt><trkpt lat="44.93128811304375" lon="7.350629472094199"><ele>367.79999999999995</ele><time>2026-04-24T16:19:01.998Z</time></trkpt><trkpt lat="44.931152114028784" lon="7.350628227395309"><ele>367.20000000000005</ele><time>2026-04-24T16:19:05.997Z</time></trkpt><trkpt lat="44.9310582687656" lon="7.350597826574768"><ele>366.6</ele><time>2026-04-24T16:19:06.997Z</time></trkpt><trkpt lat="44.9309499371391" lon="7.350582010974258"><ele>366.0</ele><time>2026-04-24T16:19:07.997Z</time></trkpt><trkpt lat="44.930832086904935" lon="7.350560012679642"><ele>365.5</ele><time>2026-04-24T16:19:08.997Z</time></trkpt><trkpt lat="44.93070389291538" lon="7.350537563184182"><ele>365.0</ele><time>2026-04-24T16:19:09.997Z</time></trkpt><trkpt lat="44.93056802660649" lon="7.350508717128341"><ele>364.5</ele><time>2026-04-24T16:19:11Z</time></trkpt><trkpt lat="44.93043727851537" lon="7.350482117263169"><ele>364.0</ele><time>2026-04-24T16:19:12Z</time></trkpt><trkpt lat="44.93031564131201" lon="7.350455985057918"><ele>364.0</ele><time>2026-04-24T16:19:13Z</time></trkpt><trkpt lat="44.93019975227117" lon="7.350432051457301"><ele>364.0</ele><time>2026-04-24T16:19:14Z</time></trkpt><trkpt lat="44.93009330221879" lon="7.3504080410339085"><ele>364.0</ele><time>2026-04-24T16:19:15Z</time></trkpt><trkpt lat="44.929996496425865" lon="7.350389262337891"><ele>364.0</ele><time>2026-04-24T16:19:16Z</time></trkpt><trkpt lat="44.92990548468027" lon="7.350373015954209"><ele>364.0</ele><time>2026-04-24T16:19:17Z</time></trkpt><trkpt lat="44.929824656318445" lon="7.350353485492578"><ele>363.5</ele><time>2026-04-24T16:19:18Z</time></trkpt><trkpt lat="44.929758873565746" lon="7.350342671386936"><ele>363.0</ele><time>2026-04-24T16:19:19Z</time></trkpt><trkpt lat="44.929680752003655" lon="7.350330953194285"><ele>362.5</ele><time>2026-04-24T16:19:21Z</time></trkpt><trkpt lat="44.92963076029502" lon="7.350637376761637"><ele>362.0</ele><time>2026-04-24T16:19:22Z</time></trkpt><trkpt lat="44.92958619935964" lon="7.350816910668822"><ele>361.5</ele><time>2026-04-24T16:19:23Z</time></trkpt><trkpt lat="44.92953416211615" lon="7.350996697442526"><ele>361.0</ele><time>2026-04-24T16:19:24Z</time></trkpt><trkpt lat="44.92947409340571" lon="7.3511721991669114"><ele>360.5</ele><time>2026-04-24T16:19:25Z</time></trkpt><trkpt lat="44.92938877711324" lon="7.351354136732336"><ele>360.0</ele><time>2026-04-24T16:19:26Z</time></trkpt><trkpt lat="44.929315580755" lon="7.351535865003101"><ele>359.5</ele><time>2026-04-24T16:19:27Z</time></trkpt><trkpt lat="44.929271484721276" lon="7.351714601340396"><ele>359.0</ele><time>2026-04-24T16:19:28Z</time></trkpt><trkpt lat="44.92920753793512" lon="7.351880781188349"><ele>358.5</ele><time>2026-04-24T16:19:29Z</time></trkpt><trkpt lat="44.92916004803507" lon="7.352038548663452"><ele>358.0</ele><time>2026-04-24T16:19:30Z</time></trkpt><trkpt lat="44.92911705400525" lon="7.352184872150138"><ele>357.0</ele><time>2026-04-24T16:19:31Z</time></trkpt><trkpt lat="44.92904337678157" lon="7.352308527116112"><ele>356.0</ele><time>2026-04-24T16:19:32Z</time></trkpt><trkpt lat="44.928987251291296" lon="7.352447490057678"><ele>355.0</ele><time>2026-04-24T16:19:33Z</time></trkpt><trkpt lat="44.9289297399585" lon="7.352579820935195"><ele>354.0</ele><time>2026-04-24T16:19:34Z</time></trkpt><trkpt lat="44.92888005902685" lon="7.352685062720054"><ele>353.0</ele><time>2026-04-24T16:19:35Z</time></trkpt><trkpt lat="44.92882194693516" lon="7.352756143598583"><ele>353.0</ele><time>2026-04-24T16:19:36.999Z</time></trkpt><trkpt lat="44.92874732980653" lon="7.3527032616823025"><ele>353.0</ele><time>2026-04-24T16:20:38.998Z</time></trkpt><trkpt lat="44.92865301665653" lon="7.352753437701672"><ele>353.0</ele><time>2026-04-24T16:24:36.998Z</time></trkpt></trkseg><trkseg><trkpt lat="44.928749697009145" lon="7.352810465803102"><ele>353.0</ele><time>2026-04-24T16:59:07.896Z</time></trkpt><trkpt lat="44.928684797854345" lon="7.352778816968052"><ele>353.0</ele><time>2026-04-24T16:59:08.896Z</time></trkpt><trkpt lat="44.92872575985772" lon="7.352706383793357"><ele>353.0</ele><time>2026-04-24T17:00:54.998Z</time></trkpt><trkpt lat="44.9288028380832" lon="7.352717287023475"><ele>353.0</ele><time>2026-04-24T17:01:23.999Z</time></trkpt><trkpt lat="44.928870197246894" lon="7.352721038256925"><ele>353.0</ele><time>2026-04-24T17:03:36Z</time></trkpt><trkpt lat="44.92891983536159" lon="7.352624877883462"><ele>353.0</ele><time>2026-04-24T17:03:37Z</time></trkpt><trkpt lat="44.92899064510408" lon="7.352483602277056"><ele>353.0</ele><time>2026-04-24T17:03:37.999Z</time></trkpt><trkpt lat="44.92905709116068" lon="7.352288998289587"><ele>353.0</ele><time>2026-04-24T17:03:38.999Z</time></trkpt><trkpt lat="44.92909046169778" lon="7.352206622639973"><ele>353.0</ele><time>2026-04-24T17:03:39.999Z</time></trkpt><trkpt lat="44.92915443729922" lon="7.352136056615251"><ele>353.0</ele><time>2026-04-24T17:03:42.999Z</time></trkpt><trkpt lat="44.9291969267553" lon="7.352027103551753"><ele>353.0</ele><time>2026-04-24T17:03:43.999Z</time></trkpt><trkpt lat="44.92923280418352" lon="7.35188073923993"><ele>354.0</ele><time>2026-04-24T17:03:44.999Z</time></trkpt><trkpt lat="44.92927289826033" lon="7.351747588836627"><ele>355.0</ele><time>2026-04-24T17:03:45.999Z</time></trkpt><trkpt lat="44.929312039736104" lon="7.351644949101717"><ele>356.0</ele><time>2026-04-24T17:03:46.999Z</time></trkpt><trkpt lat="44.92937674207084" lon="7.351532724382642"><ele>357.0</ele><time>2026-04-24T17:03:48.999Z</time></trkpt><trkpt lat="44.92942132401071" lon="7.351411235693196"><ele>358.0</ele><time>2026-04-24T17:03:51.999Z</time></trkpt><trkpt lat="44.92946404689183" lon="7.351322266450173"><ele>358.4</ele><time>2026-04-24T17:03:52.999Z</time></trkpt><trkpt lat="44.929520948641716" lon="7.351198017550344"><ele>358.79999999999995</ele><time>2026-04-24T17:03:53.999Z</time></trkpt><trkpt lat="44.92957786193626" lon="7.351031616002678"><ele>359.2</ele><time>2026-04-24T17:03:54.999Z</time></trkpt><trkpt lat="44.92962464198983" lon="7.350870638705475"><ele>359.6</ele><time>2026-04-24T17:03:56Z</time></trkpt><trkpt lat="44.92965694749114" lon="7.350754086241296"><ele>360.0</ele><time>2026-04-24T17:03:57Z</time></trkpt><trkpt lat="44.92969371561413" lon="7.3506570550314185"><ele>360.0</ele><time>2026-04-24T17:03:59Z</time></trkpt><trkpt lat="44.929679817963915" lon="7.350563619252944"><ele>360.0</ele><time>2026-04-24T17:04:01Z</time></trkpt><trkpt lat="44.92973545526698" lon="7.350405694415335"><ele>360.0</ele><time>2026-04-24T17:04:03Z</time></trkpt><trkpt lat="44.92987407285141" lon="7.350394250803173"><ele>360.0</ele><time>2026-04-24T17:04:06Z</time></trkpt><trkpt lat="44.92996451370098" lon="7.350411080997699"><ele>360.0</ele><time>2026-04-24T17:04:07Z</time></trkpt><trkpt lat="44.93007393745024" lon="7.350416387365893"><ele>360.5</ele><time>2026-04-24T17:04:08Z</time></trkpt><trkpt lat="44.93019825192885" lon="7.350444011942421"><ele>361.0</ele><time>2026-04-24T17:04:09Z</time></trkpt><trkpt lat="44.930351448403925" lon="7.3504753481817815"><ele>361.5</ele><time>2026-04-24T17:04:10Z</time></trkpt><trkpt lat="44.93049583159596" lon="7.350509967655595"><ele>362.0</ele><time>2026-04-24T17:04:11Z</time></trkpt><trkpt lat="44.93063701954549" lon="7.35054245582698"><ele>362.0</ele><time>2026-04-24T17:04:12Z</time></trkpt><trkpt lat="44.93079797034724" lon="7.350568156125494"><ele>362.0</ele><time>2026-04-24T17:04:13Z</time></trkpt><trkpt lat="44.930954735331696" lon="7.350598800373816"><ele>362.0</ele><time>2026-04-24T17:04:14Z</time></trkpt><trkpt lat="44.93110195720165" lon="7.350627019055585"><ele>363.0</ele><time>2026-04-24T17:04:15Z</time></trkpt><trkpt lat="44.93123156133751" lon="7.3506546576740055"><ele>364.0</ele><time>2026-04-24T17:04:16Z</time></trkpt><trkpt lat="44.9313522687603" lon="7.350678884785442"><ele>365.0</ele><time>2026-04-24T17:04:17Z</time></trkpt><trkpt lat="44.931459027549785" lon="7.350692565269125"><ele>366.0</ele><time>2026-04-24T17:04:18Z</time></trkpt><trkpt lat="44.931558333474705" lon="7.350730740102884"><ele>366.0</ele><time>2026-04-24T17:04:19Z</time></trkpt><trkpt lat="44.93164007145791" lon="7.350719164054997"><ele>366.0</ele><time>2026-04-24T17:04:20Z</time></trkpt><trkpt lat="44.93170589971386" lon="7.3507354549606525"><ele>366.0</ele><time>2026-04-24T17:04:22Z</time></trkpt><trkpt lat="44.93177196410288" lon="7.350522076725617"><ele>366.0</ele><time>2026-04-24T17:04:24.999Z</time></trkpt><trkpt lat="44.93179041595796" lon="7.3503736286758885"><ele>366.0</ele><time>2026-04-24T17:04:25.999Z</time></trkpt><trkpt lat="44.93181533648272" lon="7.350217625763051"><ele>367.75</ele><time>2026-04-24T17:04:26.999Z</time></trkpt><trkpt lat="44.93185487283576" lon="7.350004251869105"><ele>369.5</ele><time>2026-04-24T17:04:27.999Z</time></trkpt><trkpt lat="44.93188408971868" lon="7.349816523087258"><ele>371.25</ele><time>2026-04-24T17:04:28.999Z</time></trkpt><trkpt lat="44.9319190069456" lon="7.3496024335596335"><ele>373.0</ele><time>2026-04-24T17:04:29.999Z</time></trkpt><trkpt lat="44.93195296758687" lon="7.349337571140355"><ele>374.0</ele><time>2026-04-24T17:04:30.999Z</time></trkpt><trkpt lat="44.93200846226643" lon="7.349018011707281"><ele>375.0</ele><time>2026-04-24T17:04:31.999Z</time></trkpt><trkpt lat="44.9320978377857" lon="7.348652326663153"><ele>376.0</ele><time>2026-04-24T17:04:32.999Z</time></trkpt><trkpt lat="44.932185822099164" lon="7.348297983901535"><ele>377.0</ele><time>2026-04-24T17:04:33.999Z</time></trkpt><trkpt lat="44.932232275385836" lon="7.348026848974182"><ele>377.5</ele><time>2026-04-24T17:04:34.999Z</time></trkpt><trkpt lat="44.93226521946076" lon="7.3478472034046005"><ele>378.0</ele><time>2026-04-24T17:04:35.999Z</time></trkpt><trkpt lat="44.932292219267104" lon="7.3477167960301575"><ele>378.5</ele><time>2026-04-24T17:04:36.999Z</time></trkpt><trkpt lat="44.93231557406047" lon="7.3476140729386"><ele>379.0</ele><time>2026-04-24T17:04:38.999Z</time></trkpt><trkpt lat="44.93219694401655" lon="7.347484154763548"><ele>379.0</ele><time>2026-04-24T17:04:48.999Z</time></trkpt><trkpt lat="44.93209609803327" lon="7.347449794857372"><ele>379.0</ele><time>2026-04-24T17:04:49.999Z</time></trkpt><trkpt lat="44.93198241724147" lon="7.347390360707476"><ele>379.0</ele><time>2026-04-24T17:04:50.999Z</time></trkpt><trkpt lat="44.93184539692932" lon="7.347325137607679"><ele>379.0</ele><time>2026-04-24T17:04:51.999Z</time></trkpt><trkpt lat="44.9316955880425" lon="7.347250223750419"><ele>378.0</ele><time>2026-04-24T17:04:52.999Z</time></trkpt><trkpt lat="44.931533967593886" lon="7.347166013461773"><ele>377.0</ele><time>2026-04-24T17:04:53.999Z</time></trkpt><trkpt lat="44.931387426936816" lon="7.347081524706813"><ele>376.0</ele><time>2026-04-24T17:04:54.999Z</time></trkpt><trkpt lat="44.93125455661605" lon="7.346993066259206"><ele>376.0</ele><time>2026-04-24T17:04:55.999Z</time></trkpt><trkpt lat="44.93112400976099" lon="7.346899138338581"><ele>376.0</ele><time>2026-04-24T17:04:56.999Z</time></trkpt><trkpt lat="44.93098540532982" lon="7.346790085994115"><ele>376.0</ele><time>2026-04-24T17:04:57.999Z</time></trkpt><trkpt lat="44.930863800431126" lon="7.346668158024746"><ele>376.0</ele><time>2026-04-24T17:04:58.999Z</time></trkpt><trkpt lat="44.930752055191164" lon="7.346547450587879"><ele>376.0</ele><time>2026-04-24T17:04:59.999Z</time></trkpt><trkpt lat="44.93064069167304" lon="7.346425914251235"><ele>376.0</ele><time>2026-04-24T17:05:00.999Z</time></trkpt><trkpt lat="44.93052975049993" lon="7.346301177098011"><ele>376.0</ele><time>2026-04-24T17:05:01.999Z</time></trkpt><trkpt lat="44.93041864944365" lon="7.346164720785145"><ele>376.0</ele><time>2026-04-24T17:05:02.999Z</time></trkpt><trkpt lat="44.93031465858002" lon="7.346042443623301"><ele>376.0</ele><time>2026-04-24T17:05:03.999Z</time></trkpt><trkpt lat="44.93021102192854" lon="7.345933876445867"><ele>376.0</ele><time>2026-04-24T17:05:04.999Z</time></trkpt><trkpt lat="44.9300905390486" lon="7.345836574766655"><ele>376.0</ele><time>2026-04-24T17:05:05.999Z</time></trkpt><trkpt lat="44.92996497228766" lon="7.345743509150712"><ele>376.0</ele><time>2026-04-24T17:05:06.999Z</time></trkpt><trkpt lat="44.929842176313315" lon="7.345640384363346"><ele>376.0</ele><time>2026-04-24T17:05:07.999Z</time></trkpt><trkpt lat="44.92974387472309" lon="7.345529704141657"><ele>376.0</ele><time>2026-04-24T17:05:08.999Z</time></trkpt><trkpt lat="44.92967219476077" lon="7.345398890015327"><ele>376.0</ele><time>2026-04-24T17:05:09.999Z</time></trkpt><trkpt lat="44.92963324400399" lon="7.34523924478541"><ele>376.0</ele><time>2026-04-24T17:05:10.999Z</time></trkpt><trkpt lat="44.92960939119299" lon="7.345057169252878"><ele>376.0</ele><time>2026-04-24T17:05:11.998Z</time></trkpt><trkpt lat="44.92958848513783" lon="7.344865795673047"><ele>376.0</ele><time>2026-04-24T17:05:12.998Z</time></trkpt><trkpt lat="44.92957003927945" lon="7.3446615305660625"><ele>376.0</ele><time>2026-04-24T17:05:13.998Z</time></trkpt><trkpt lat="44.92956527901646" lon="7.344457297783714"><ele>376.5</ele><time>2026-04-24T17:05:14.998Z</time></trkpt><trkpt lat="44.929571613150976" lon="7.344268372286242"><ele>377.0</ele><time>2026-04-24T17:05:15.998Z</time></trkpt><trkpt lat="44.92958367144979" lon="7.344085203240198"><ele>377.5</ele><time>2026-04-24T17:05:16.998Z</time></trkpt><trkpt lat="44.92960360289467" lon="7.343896473046986"><ele>378.0</ele><time>2026-04-24T17:05:17.998Z</time></trkpt><trkpt lat="44.92962308866238" lon="7.343713116326271"><ele>378.25</ele><time>2026-04-24T17:05:18.998Z</time></trkpt><trkpt lat="44.92963297235743" lon="7.3435241059501095"><ele>378.5</ele><time>2026-04-24T17:05:19.998Z</time></trkpt><trkpt lat="44.92963729493321" lon="7.343318981356796"><ele>378.75</ele><time>2026-04-24T17:05:20.998Z</time></trkpt><trkpt lat="44.92963471208874" lon="7.343094976529705"><ele>379.0</ele><time>2026-04-24T17:05:21.998Z</time></trkpt><trkpt lat="44.92962659208493" lon="7.342883403503862"><ele>379.5</ele><time>2026-04-24T17:05:22.998Z</time></trkpt><trkpt lat="44.92961582908077" lon="7.342693377252693"><ele>380.0</ele><time>2026-04-24T17:05:23.998Z</time></trkpt><trkpt lat="44.929601615727506" lon="7.342500525215204"><ele>380.5</ele><time>2026-04-24T17:05:24.998Z</time></trkpt><trkpt lat="44.9295904028207" lon="7.342301155161305"><ele>381.0</ele><time>2026-04-24T17:05:25.998Z</time></trkpt><trkpt lat="44.92957531186173" lon="7.342087101524483"><ele>381.25</ele><time>2026-04-24T17:05:26.998Z</time></trkpt><trkpt lat="44.929562943111456" lon="7.341865416653757"><ele>381.5</ele><time>2026-04-24T17:05:27.998Z</time></trkpt><trkpt lat="44.92955174649302" lon="7.34165847450804"><ele>381.75</ele><time>2026-04-24T17:05:29.001Z</time></trkpt><trkpt lat="44.92953799956194" lon="7.341455407221841"><ele>382.0</ele><time>2026-04-24T17:05:30.001Z</time></trkpt><trkpt lat="44.929521002692475" lon="7.341247237710862"><ele>382.25</ele><time>2026-04-24T17:05:31.001Z</time></trkpt><trkpt lat="44.929507770823626" lon="7.341045802075069"><ele>382.5</ele><time>2026-04-24T17:05:32.001Z</time></trkpt><trkpt lat="44.92949127663427" lon="7.340842063315015"><ele>382.75</ele><time>2026-04-24T17:05:33.001Z</time></trkpt><trkpt lat="44.929470145438316" lon="7.340637113805649"><ele>383.0</ele><time>2026-04-24T17:05:34.001Z</time></trkpt><trkpt lat="44.92944837622565" lon="7.340434211886059"><ele>383.25</ele><time>2026-04-24T17:05:35.001Z</time></trkpt><trkpt lat="44.92942510374784" lon="7.34023319737936"><ele>383.5</ele><time>2026-04-24T17:05:36.001Z</time></trkpt><trkpt lat="44.929404373180525" lon="7.3400334970010475"><ele>383.75</ele><time>2026-04-24T17:05:37Z</time></trkpt><trkpt lat="44.929383152448445" lon="7.3398383422016655"><ele>384.0</ele><time>2026-04-24T17:05:38.001Z</time></trkpt><trkpt lat="44.92935858352554" lon="7.339641813033467"><ele>384.0</ele><time>2026-04-24T17:05:39.001Z</time></trkpt><trkpt lat="44.929314410116966" lon="7.339431330505771"><ele>384.0</ele><time>2026-04-24T17:05:40Z</time></trkpt><trkpt lat="44.92925251433413" lon="7.339233615543698"><ele>384.0</ele><time>2026-04-24T17:05:41.001Z</time></trkpt><trkpt lat="44.92917701837621" lon="7.339053598556054"><ele>384.0</ele><time>2026-04-24T17:05:42.001Z</time></trkpt><trkpt lat="44.929101248561274" lon="7.338870574419078"><ele>384.0</ele><time>2026-04-24T17:05:43Z</time></trkpt><trkpt lat="44.92902752498889" lon="7.338644920949848"><ele>384.0</ele><time>2026-04-24T17:05:44Z</time></trkpt><trkpt lat="44.928952847947656" lon="7.338402949662778"><ele>384.0</ele><time>2026-04-24T17:05:45Z</time></trkpt><trkpt lat="44.92888084398836" lon="7.338190448960262"><ele>384.0</ele><time>2026-04-24T17:05:46Z</time></trkpt><trkpt lat="44.92881235082041" lon="7.338000438191701"><ele>384.0</ele><time>2026-04-24T17:05:47Z</time></trkpt><trkpt lat="44.92873646053685" lon="7.3378145933040075"><ele>385.25</ele><time>2026-04-24T17:05:48Z</time></trkpt><trkpt lat="44.92864370534601" lon="7.337647578276023"><ele>386.5</ele><time>2026-04-24T17:05:49Z</time></trkpt><trkpt lat="44.92853415464592" lon="7.337522952103286"><ele>387.75</ele><time>2026-04-24T17:05:50Z</time></trkpt><trkpt lat="44.92840078033445" lon="7.337435323801853"><ele>389.0</ele><time>2026-04-24T17:05:51Z</time></trkpt><trkpt lat="44.92823829661666" lon="7.337394209739663"><ele>389.66666666666663</ele><time>2026-04-24T17:05:52Z</time></trkpt><trkpt lat="44.928055364926955" lon="7.337383636906989"><ele>390.33333333333337</ele><time>2026-04-24T17:05:53Z</time></trkpt><trkpt lat="44.92785930841206" lon="7.3373745733714975"><ele>391.0</ele><time>2026-04-24T17:05:54Z</time></trkpt><trkpt lat="44.92765871049037" lon="7.337365032626466"><ele>392.33333333333337</ele><time>2026-04-24T17:05:55Z</time></trkpt><trkpt lat="44.92748489730523" lon="7.337350609324661"><ele>393.66666666666663</ele><time>2026-04-24T17:05:56Z</time></trkpt><trkpt lat="44.927341850430395" lon="7.33734393843184"><ele>395.0</ele><time>2026-04-24T17:05:57Z</time></trkpt><trkpt lat="44.92720966450445" lon="7.337333835336683"><ele>395.0</ele><time>2026-04-24T17:05:58Z</time></trkpt><trkpt lat="44.927098525435255" lon="7.337306023645856"><ele>395.0</ele><time>2026-04-24T17:05:59Z</time></trkpt><trkpt lat="44.927011016616255" lon="7.337237554363853"><ele>395.0</ele><time>2026-04-24T17:06:00Z</time></trkpt><trkpt lat="44.92694826375135" lon="7.337126799440235"><ele>395.0</ele><time>2026-04-24T17:06:01Z</time></trkpt><trkpt lat="44.926892232548404" lon="7.33700181960068"><ele>395.0</ele><time>2026-04-24T17:06:02Z</time></trkpt><trkpt lat="44.926862505351416" lon="7.3368618956362575"><ele>398.3333333333333</ele><time>2026-04-24T17:06:03Z</time></trkpt><trkpt lat="44.92684509237793" lon="7.336700929389966"><ele>401.66666666666663</ele><time>2026-04-24T17:06:04Z</time></trkpt><trkpt lat="44.92683528758716" lon="7.336443088155058"><ele>405.0</ele><time>2026-04-24T17:06:05Z</time></trkpt><trkpt lat="44.92682013946002" lon="7.336110837909512"><ele>410.0</ele><time>2026-04-24T17:06:06Z</time></trkpt><trkpt lat="44.92680475806362" lon="7.335742666241861"><ele>415.0</ele><time>2026-04-24T17:06:07Z</time></trkpt><trkpt lat="44.92679426435428" lon="7.335360718066366"><ele>417.5</ele><time>2026-04-24T17:06:08Z</time></trkpt><trkpt lat="44.926788127162865" lon="7.33494605964075"><ele>420.0</ele><time>2026-04-24T17:06:09Z</time></trkpt><trkpt lat="44.9267868460484" lon="7.3345223854221855"><ele>420.66666666666663</ele><time>2026-04-24T17:06:10Z</time></trkpt><trkpt lat="44.926789907145995" lon="7.334208672420178"><ele>421.3333333333333</ele><time>2026-04-24T17:06:11Z</time></trkpt><trkpt lat="44.92679385972134" lon="7.33398194639959"><ele>422.0</ele><time>2026-04-24T17:06:12Z</time></trkpt><trkpt lat="44.926798823553135" lon="7.333759061657656"><ele>422.3333333333333</ele><time>2026-04-24T17:06:13Z</time></trkpt><trkpt lat="44.9268019738183" lon="7.333495805005328"><ele>422.66666666666663</ele><time>2026-04-24T17:06:14Z</time></trkpt><trkpt lat="44.92678360197914" lon="7.333282353527511"><ele>423.0</ele><time>2026-04-24T17:06:15Z</time></trkpt><trkpt lat="44.92674716323581" lon="7.333084802336977"><ele>417.0</ele><time>2026-04-24T17:06:16Z</time></trkpt><trkpt lat="44.92671767810579" lon="7.332865716198987"><ele>411.0</ele><time>2026-04-24T17:06:17Z</time></trkpt><trkpt lat="44.92669147503565" lon="7.332605048129007"><ele>405.0</ele><time>2026-04-24T17:06:18Z</time></trkpt><trkpt lat="44.92666211119529" lon="7.332365589675477"><ele>405.75</ele><time>2026-04-24T17:06:19Z</time></trkpt><trkpt lat="44.92663555580177" lon="7.332151485719373"><ele>406.5</ele><time>2026-04-24T17:06:20Z</time></trkpt><trkpt lat="44.92659777337112" lon="7.331967517297646"><ele>407.25</ele><time>2026-04-24T17:06:21Z</time></trkpt><trkpt lat="44.926539858727644" lon="7.331808735167586"><ele>408.0</ele><time>2026-04-24T17:06:22Z</time></trkpt><trkpt lat="44.92645665748443" lon="7.331705342424624"><ele>408.0</ele><time>2026-04-24T17:06:23Z</time></trkpt><trkpt lat="44.92635097969771" lon="7.331630596719633"><ele>408.0</ele><time>2026-04-24T17:06:24Z</time></trkpt><trkpt lat="44.926208879283216" lon="7.3316231189511445"><ele>408.0</ele><time>2026-04-24T17:06:25Z</time></trkpt><trkpt lat="44.92605210504593" lon="7.331657335221469"><ele>408.0</ele><time>2026-04-24T17:06:26Z</time></trkpt><trkpt lat="44.92589982308424" lon="7.3316875653435165"><ele>408.0</ele><time>2026-04-24T17:06:27Z</time></trkpt><trkpt lat="44.92575614665223" lon="7.331715787322309"><ele>408.0</ele><time>2026-04-24T17:06:27.999Z</time></trkpt><trkpt lat="44.92563771284547" lon="7.331713061722379"><ele>408.0</ele><time>2026-04-24T17:06:28.999Z</time></trkpt><trkpt lat="44.92551309404912" lon="7.331683261605722"><ele>408.0</ele><time>2026-04-24T17:06:29.999Z</time></trkpt><trkpt lat="44.92542212554749" lon="7.331558461423913"><ele>408.0</ele><time>2026-04-24T17:06:30.999Z</time></trkpt><trkpt lat="44.92534216033333" lon="7.331453511271907"><ele>408.0</ele><time>2026-04-24T17:06:31.999Z</time></trkpt><trkpt lat="44.925233904591025" lon="7.331333288958301"><ele>408.0</ele><time>2026-04-24T17:06:33.999Z</time></trkpt><trkpt lat="44.925308994391585" lon="7.331261956291626"><ele>408.0</ele><time>2026-04-24T17:06:34.999Z</time></trkpt><trkpt lat="44.92526098404208" lon="7.331159194413118"><ele>408.0</ele><time>2026-04-24T17:06:35.999Z</time></trkpt><trkpt lat="44.92528135002615" lon="7.330980650778177"><ele>410.25</ele><time>2026-04-24T17:06:37.999Z</time></trkpt><trkpt lat="44.925300566584966" lon="7.330872387417596"><ele>412.5</ele><time>2026-04-24T17:06:38.999Z</time></trkpt><trkpt lat="44.92536289116933" lon="7.330722711200939"><ele>414.75</ele><time>2026-04-24T17:06:39.999Z</time></trkpt><trkpt lat="44.92543913542673" lon="7.330550295838501"><ele>417.0</ele><time>2026-04-24T17:06:40.999Z</time></trkpt><trkpt lat="44.925515855683194" lon="7.33036606688024"><ele>418.0</ele><time>2026-04-24T17:06:41.999Z</time></trkpt><trkpt lat="44.92557888167543" lon="7.330190257998395"><ele>419.0</ele><time>2026-04-24T17:06:42.999Z</time></trkpt><trkpt lat="44.92562438418741" lon="7.3300204791267"><ele>420.0</ele><time>2026-04-24T17:06:43.999Z</time></trkpt><trkpt lat="44.92567456623379" lon="7.329882198008557"><ele>421.0</ele><time>2026-04-24T17:06:44.999Z</time></trkpt><trkpt lat="44.92571186196796" lon="7.329771007220918"><ele>421.6</ele><time>2026-04-24T17:06:45.999Z</time></trkpt><trkpt lat="44.92574558461382" lon="7.329668866718707"><ele>422.20000000000005</ele><time>2026-04-24T17:06:46.999Z</time></trkpt><trkpt lat="44.925771248455476" lon="7.329534681446236"><ele>422.79999999999995</ele><time>2026-04-24T17:06:47.999Z</time></trkpt><trkpt lat="44.9257931374608" lon="7.329374527747025"><ele>423.4</ele><time>2026-04-24T17:06:48.999Z</time></trkpt><trkpt lat="44.92581650615239" lon="7.329182515066443"><ele>424.0</ele><time>2026-04-24T17:06:49.999Z</time></trkpt><trkpt lat="44.9258597912483" lon="7.328961191440443"><ele>427.0</ele><time>2026-04-24T17:06:50.999Z</time></trkpt><trkpt lat="44.92593162258534" lon="7.328720502410132"><ele>430.0</ele><time>2026-04-24T17:06:51.999Z</time></trkpt><trkpt lat="44.926015395852566" lon="7.328485698736335"><ele>433.0</ele><time>2026-04-24T17:06:52.999Z</time></trkpt><trkpt lat="44.92611186250443" lon="7.3282933491518705"><ele>433.0</ele><time>2026-04-24T17:06:53.999Z</time></trkpt><trkpt lat="44.926216488635234" lon="7.328081225491528"><ele>433.0</ele><time>2026-04-24T17:06:54.999Z</time></trkpt><trkpt lat="44.92631214314576" lon="7.327856682130979"><ele>433.0</ele><time>2026-04-24T17:06:55.999Z</time></trkpt><trkpt lat="44.92639016600669" lon="7.32764873340562"><ele>435.0</ele><time>2026-04-24T17:06:56.999Z</time></trkpt><trkpt lat="44.92645654327637" lon="7.327457693253303"><ele>437.0</ele><time>2026-04-24T17:06:57.999Z</time></trkpt><trkpt lat="44.92651015466719" lon="7.327279847385601"><ele>439.0</ele><time>2026-04-24T17:06:58.999Z</time></trkpt><trkpt lat="44.92655143800247" lon="7.327120807801954"><ele>441.0</ele><time>2026-04-24T17:06:59.999Z</time></trkpt><trkpt lat="44.92657607115827" lon="7.326985665707664"><ele>441.6666666666667</ele><time>2026-04-24T17:07:00.999Z</time></trkpt><trkpt lat="44.92659541117787" lon="7.3268616441817045"><ele>442.33333333333337</ele><time>2026-04-24T17:07:01.999Z</time></trkpt><trkpt lat="44.92660996349396" lon="7.326761993593116"><ele>443.0</ele><time>2026-04-24T17:07:02.999Z</time></trkpt><trkpt lat="44.92661880413589" lon="7.32666874076086"><ele>443.6666666666667</ele><time>2026-04-24T17:07:03.999Z</time></trkpt><trkpt lat="44.92661293405115" lon="7.326564310489909"><ele>444.33333333333337</ele><time>2026-04-24T17:07:04.999Z</time></trkpt><trkpt lat="44.926585160214394" lon="7.326453450623564"><ele>445.0</ele><time>2026-04-24T17:07:05.999Z</time></trkpt><trkpt lat="44.92653816917961" lon="7.326355668520972"><ele>446.00000000000006</ele><time>2026-04-24T17:07:06.999Z</time></trkpt><trkpt lat="44.9264799032081" lon="7.326273094338917"><ele>447.0</ele><time>2026-04-24T17:07:07.999Z</time></trkpt><trkpt lat="44.92643237028268" lon="7.326194429411158"><ele>448.0</ele><time>2026-04-24T17:07:08.999Z</time></trkpt><trkpt lat="44.92638763936968" lon="7.326110933858369"><ele>449.0</ele><time>2026-04-24T17:07:09.999Z</time></trkpt><trkpt lat="44.926349565765605" lon="7.3260121288277515"><ele>450.00000000000006</ele><time>2026-04-24T17:07:10.999Z</time></trkpt><trkpt lat="44.926312634181215" lon="7.325899432848256"><ele>451.0</ele><time>2026-04-24T17:07:11.999Z</time></trkpt><trkpt lat="44.92628001395166" lon="7.325755481849172"><ele>451.0</ele><time>2026-04-24T17:07:12.999Z</time></trkpt><trkpt lat="44.92624741998394" lon="7.325568702961488"><ele>451.0</ele><time>2026-04-24T17:07:13.999Z</time></trkpt><trkpt lat="44.92623502168718" lon="7.325348549336614"><ele>451.0</ele><time>2026-04-24T17:07:14.998Z</time></trkpt><trkpt lat="44.92623578293107" lon="7.325081198357458"><ele>452.6666666666667</ele><time>2026-04-24T17:07:15.998Z</time></trkpt><trkpt lat="44.926242319564345" lon="7.324832465951975"><ele>454.33333333333337</ele><time>2026-04-24T17:07:16.998Z</time></trkpt><trkpt lat="44.92624198829327" lon="7.3245507751586"><ele>456.0</ele><time>2026-04-24T17:07:17.998Z</time></trkpt><trkpt lat="44.926272508231065" lon="7.324296450423957"><ele>457.5</ele><time>2026-04-24T17:07:18.998Z</time></trkpt><trkpt lat="44.92629745760184" lon="7.32406834279245"><ele>459.0</ele><time>2026-04-24T17:07:19.998Z</time></trkpt><trkpt lat="44.92630562062863" lon="7.323887821077971"><ele>460.5</ele><time>2026-04-24T17:07:20.998Z</time></trkpt><trkpt lat="44.926298435073676" lon="7.323748039601572"><ele>462.0</ele><time>2026-04-24T17:07:21.998Z</time></trkpt><trkpt lat="44.926262501517535" lon="7.3236537918286855"><ele>463.40000000000003</ele><time>2026-04-24T17:07:22.998Z</time></trkpt><trkpt lat="44.92619948315242" lon="7.323588351068687"><ele>464.80000000000007</ele><time>2026-04-24T17:07:23.998Z</time></trkpt><trkpt lat="44.92611026025388" lon="7.32356735605275"><ele>466.2</ele><time>2026-04-24T17:07:24.998Z</time></trkpt><trkpt lat="44.92600550236733" lon="7.3236059515124055"><ele>467.6</ele><time>2026-04-24T17:07:25.998Z</time></trkpt><trkpt lat="44.92588093520913" lon="7.323623333757289"><ele>469.0</ele><time>2026-04-24T17:07:26.998Z</time></trkpt><trkpt lat="44.925769747727045" lon="7.32363695236958"><ele>469.0</ele><time>2026-04-24T17:07:27.998Z</time></trkpt><trkpt lat="44.925666209567446" lon="7.323706094648472"><ele>469.0</ele><time>2026-04-24T17:07:28.998Z</time></trkpt><trkpt lat="44.925573679053194" lon="7.323839331008425"><ele>469.0</ele><time>2026-04-24T17:07:29.998Z</time></trkpt><trkpt lat="44.92545543765506" lon="7.323951846301243"><ele>469.0</ele><time>2026-04-24T17:07:30.998Z</time></trkpt><trkpt lat="44.92535696711752" lon="7.323947035859031"><ele>469.0</ele><time>2026-04-24T17:07:31.998Z</time></trkpt><trkpt lat="44.925278797679105" lon="7.323878194524371"><ele>469.0</ele><time>2026-04-24T17:07:32.998Z</time></trkpt><trkpt lat="44.92516217581472" lon="7.3238040367325645"><ele>469.0</ele><time>2026-04-24T17:07:33.998Z</time></trkpt><trkpt lat="44.925017147390776" lon="7.323727756312087"><ele>469.0</ele><time>2026-04-24T17:07:35Z</time></trkpt><trkpt lat="44.924890738400485" lon="7.323641633421193"><ele>470.0</ele><time>2026-04-24T17:07:36Z</time></trkpt><trkpt lat="44.92473863561951" lon="7.323571876346324"><ele>471.0</ele><time>2026-04-24T17:07:37Z</time></trkpt><trkpt lat="44.92457596457859" lon="7.323511520702771"><ele>472.0</ele><time>2026-04-24T17:07:38Z</time></trkpt><trkpt lat="44.9243767861132" lon="7.3234725470593895"><ele>472.25</ele><time>2026-04-24T17:07:39Z</time></trkpt><trkpt lat="44.92420546605597" lon="7.323434940859608"><ele>472.5</ele><time>2026-04-24T17:07:40Z</time></trkpt><trkpt lat="44.924067558357464" lon="7.323395293353522"><ele>472.75</ele><time>2026-04-24T17:07:41Z</time></trkpt><trkpt lat="44.92395418066406" lon="7.323343600027108"><ele>473.0</ele><time>2026-04-24T17:07:42Z</time></trkpt><trkpt lat="44.923865304011905" lon="7.323259436092501"><ele>473.0</ele><time>2026-04-24T17:07:43Z</time></trkpt><trkpt lat="44.92380657734045" lon="7.323147885964173"><ele>473.0</ele><time>2026-04-24T17:07:44Z</time></trkpt><trkpt lat="44.92382087417092" lon="7.322985314761623"><ele>473.0</ele><time>2026-04-24T17:07:45Z</time></trkpt><trkpt lat="44.923863935004334" lon="7.322813189562178"><ele>473.0</ele><time>2026-04-24T17:07:46Z</time></trkpt><trkpt lat="44.92390756654781" lon="7.3226203593329"><ele>475.66666666666663</ele><time>2026-04-24T17:07:47Z</time></trkpt><trkpt lat="44.92395050077449" lon="7.322410579907019"><ele>478.33333333333337</ele><time>2026-04-24T17:07:48Z</time></trkpt><trkpt lat="44.9239913971131" lon="7.3221961042102635"><ele>481.0</ele><time>2026-04-24T17:07:49Z</time></trkpt><trkpt lat="44.924023887920924" lon="7.321967920204264"><ele>482.6666666666667</ele><time>2026-04-24T17:07:50Z</time></trkpt><trkpt lat="44.924048886619886" lon="7.321705955188062"><ele>484.33333333333337</ele><time>2026-04-24T17:07:51Z</time></trkpt><trkpt lat="44.92408326658332" lon="7.321442841312292"><ele>486.0</ele><time>2026-04-24T17:07:52Z</time></trkpt><trkpt lat="44.92412970481608" lon="7.321221433316755"><ele>487.75</ele><time>2026-04-24T17:07:53Z</time></trkpt><trkpt lat="44.924192504730485" lon="7.321026688112545"><ele>489.5</ele><time>2026-04-24T17:07:54Z</time></trkpt><trkpt lat="44.92420751696642" lon="7.320845217872987"><ele>491.25</ele><time>2026-04-24T17:07:55Z</time></trkpt><trkpt lat="44.924173556873455" lon="7.320645619058178"><ele>493.0</ele><time>2026-04-24T17:07:56Z</time></trkpt><trkpt lat="44.924125634021976" lon="7.320445308021299"><ele>494.79999999999995</ele><time>2026-04-24T17:07:57Z</time></trkpt><trkpt lat="44.92413339790078" lon="7.3202769991344985"><ele>496.59999999999997</ele><time>2026-04-24T17:07:58Z</time></trkpt><trkpt lat="44.92417083323922" lon="7.320127799555143"><ele>498.40000000000003</ele><time>2026-04-24T17:07:59Z</time></trkpt><trkpt lat="44.92420024425718" lon="7.320013600796336"><ele>500.20000000000005</ele><time>2026-04-24T17:08:00Z</time></trkpt><trkpt lat="44.9242227023753" lon="7.319872020448419"><ele>502.0</ele><time>2026-04-24T17:08:02Z</time></trkpt><trkpt lat="44.92406213726367" lon="7.319769408119993"><ele>503.75</ele><time>2026-04-24T17:08:03Z</time></trkpt><trkpt lat="44.92396366699161" lon="7.319686515771797"><ele>505.5</ele><time>2026-04-24T17:08:04Z</time></trkpt><trkpt lat="44.92387583783574" lon="7.319552379723227"><ele>507.25</ele><time>2026-04-24T17:08:05Z</time></trkpt><trkpt lat="44.92377124557415" lon="7.319380963001914"><ele>509.0</ele><time>2026-04-24T17:08:06Z</time></trkpt><trkpt lat="44.92365845000504" lon="7.3191779153035235"><ele>509.0</ele><time>2026-04-24T17:08:07Z</time></trkpt><trkpt lat="44.923577206953226" lon="7.319049389150758"><ele>509.0</ele><time>2026-04-24T17:08:08Z</time></trkpt><trkpt lat="44.92349860517401" lon="7.318933633414576"><ele>509.0</ele><time>2026-04-24T17:08:09Z</time></trkpt><trkpt lat="44.92343831010686" lon="7.3188287300309325"><ele>509.0</ele><time>2026-04-24T17:08:10Z</time></trkpt><trkpt lat="44.92341698863193" lon="7.318699253054186"><ele>509.0</ele><time>2026-04-24T17:08:11Z</time></trkpt><trkpt lat="44.92343624529963" lon="7.318521857504575"><ele>508.4</ele><time>2026-04-24T17:08:12Z</time></trkpt><trkpt lat="44.92340916160866" lon="7.318390855388752"><ele>507.79999999999995</ele><time>2026-04-24T17:08:13Z</time></trkpt><trkpt lat="44.92334341756137" lon="7.318304967174427"><ele>507.20000000000005</ele><time>2026-04-24T17:08:14Z</time></trkpt><trkpt lat="44.923222910514895" lon="7.318285244467508"><ele>506.6</ele><time>2026-04-24T17:08:15Z</time></trkpt><trkpt lat="44.92310298249142" lon="7.318300674633615"><ele>506.0</ele><time>2026-04-24T17:08:16Z</time></trkpt><trkpt lat="44.92297258533305" lon="7.318392458153075"><ele>506.0</ele><time>2026-04-24T17:08:17Z</time></trkpt><trkpt lat="44.922831928995215" lon="7.318505737247933"><ele>506.0</ele><time>2026-04-24T17:08:18Z</time></trkpt><trkpt lat="44.92268673253131" lon="7.3185760312771135"><ele>506.0</ele><time>2026-04-24T17:08:19Z</time></trkpt><trkpt lat="44.922529931820904" lon="7.3185991255337335"><ele>505.75</ele><time>2026-04-24T17:08:20Z</time></trkpt><trkpt lat="44.92238886120205" lon="7.318582457843068"><ele>505.5</ele><time>2026-04-24T17:08:21Z</time></trkpt><trkpt lat="44.92222241644143" lon="7.318614532952867"><ele>505.25</ele><time>2026-04-24T17:08:22Z</time></trkpt><trkpt lat="44.922098670213394" lon="7.318677461708268"><ele>505.0</ele><time>2026-04-24T17:08:24Z</time></trkpt><trkpt lat="44.92203013837522" lon="7.3187080053565134"><ele>505.0</ele><time>2026-04-24T17:08:26Z</time></trkpt><trkpt lat="44.92210558713839" lon="7.318673776311188"><ele>505.0</ele><time>2026-04-24T17:08:32Z</time></trkpt><trkpt lat="44.92219079391027" lon="7.3186186056923805"><ele>505.0</ele><time>2026-04-24T17:08:38.999Z</time></trkpt><trkpt lat="44.92212789802253" lon="7.318636982183903"><ele>505.0</ele><time>2026-04-24T17:08:41.999Z</time></trkpt><trkpt lat="44.92205314073627" lon="7.318380057876612"><ele>505.0</ele><time>2026-04-24T17:08:45.999Z</time></trkpt><trkpt lat="44.92206054233148" lon="7.318291681250371"><ele>505.00000000000006</ele><time>2026-04-24T17:08:46.999Z</time></trkpt><trkpt lat="44.92207217255439" lon="7.318180422818679"><ele>505.0</ele><time>2026-04-24T17:08:47.999Z</time></trkpt><trkpt lat="44.92208509383071" lon="7.318050659051359"><ele>505.0</ele><time>2026-04-24T17:08:49.999Z</time></trkpt><trkpt lat="44.92208547072271" lon="7.31794498299297"><ele>505.0</ele><time>2026-04-24T17:08:51.999Z</time></trkpt><trkpt lat="44.922094916611265" lon="7.317815923164084"><ele>505.00000000000006</ele><time>2026-04-24T17:08:53.999Z</time></trkpt><trkpt lat="44.92205360231938" lon="7.3177456463488335"><ele>505.0</ele><time>2026-04-24T17:08:54.999Z</time></trkpt><trkpt lat="44.922030745765056" lon="7.317624892108419"><ele>510.33333333333337</ele><time>2026-04-24T17:08:55.999Z</time></trkpt><trkpt lat="44.92201456923401" lon="7.31741922934757"><ele>515.6666666666666</ele><time>2026-04-24T17:08:56.999Z</time></trkpt><trkpt lat="44.92199917545105" lon="7.317154517488935"><ele>521.0</ele><time>2026-04-24T17:08:57.999Z</time></trkpt><trkpt lat="44.921956406177294" lon="7.316914246393106"><ele>525.0</ele><time>2026-04-24T17:08:58.999Z</time></trkpt><trkpt lat="44.92191674633411" lon="7.316820438399531"><ele>529.0</ele><time>2026-04-24T17:08:59.999Z</time></trkpt><trkpt lat="44.921997935646395" lon="7.316785090336101"><ele>533.0</ele><time>2026-04-24T17:09:01.999Z</time></trkpt><trkpt lat="44.92195216223855" lon="7.316688743449747"><ele>537.0</ele><time>2026-04-24T17:09:05.999Z</time></trkpt><trkpt lat="44.921763219663674" lon="7.315357573766709"><ele>539.6666666666666</ele><time>2026-04-24T17:09:09.999Z</time></trkpt><trkpt lat="44.921760675452184" lon="7.315254062914634"><ele>542.3333333333334</ele><time>2026-04-24T17:09:11.999Z</time></trkpt><trkpt lat="44.92174414253959" lon="7.315353202899421"><ele>545.0</ele><time>2026-04-24T17:09:17.999Z</time></trkpt><trkpt lat="44.92177777082144" lon="7.315492974765033"><ele>547.6666666666667</ele><time>2026-04-24T17:09:30.998Z</time></trkpt><trkpt lat="44.921724628280785" lon="7.315562398807646"><ele>550.3333333333334</ele><time>2026-04-24T17:10:10Z</time></trkpt><trkpt lat="44.921689113165336" lon="7.31568484965653"><ele>553.0</ele><time>2026-04-24T17:10:12Z</time></trkpt><trkpt lat="44.92172834487256" lon="7.315807378179741"><ele>553.0</ele><time>2026-04-24T17:10:13Z</time></trkpt><trkpt lat="44.921644464874284" lon="7.3160807360022515"><ele>553.0</ele><time>2026-04-24T17:10:18Z</time></trkpt><trkpt lat="44.92159988922368" lon="7.316183200546315"><ele>553.0</ele><time>2026-04-24T17:10:19Z</time></trkpt><trkpt lat="44.921555882449375" lon="7.3162575039788695"><ele>553.0</ele><time>2026-04-24T17:10:20Z</time></trkpt><trkpt lat="44.92153105609969" lon="7.316345547857074"><ele>553.0</ele><time>2026-04-24T17:10:21Z</time></trkpt><trkpt lat="44.921529180387765" lon="7.316434886437856"><ele>550.6666666666667</ele><time>2026-04-24T17:10:22Z</time></trkpt><trkpt lat="44.92151028403462" lon="7.316533352011694"><ele>548.3333333333334</ele><time>2026-04-24T17:10:23Z</time></trkpt><trkpt lat="44.92153488226729" lon="7.316662311735898"><ele>546.0</ele><time>2026-04-24T17:10:25Z</time></trkpt><trkpt lat="44.92162621677888" lon="7.316758771765466"><ele>543.6666666666666</ele><time>2026-04-24T17:10:27Z</time></trkpt><trkpt lat="44.921689764367265" lon="7.3167936046998605"><ele>541.3333333333333</ele><time>2026-04-24T17:10:28Z</time></trkpt><trkpt lat="44.92175966166387" lon="7.31683810281373"><ele>539.0</ele><time>2026-04-24T17:10:29Z</time></trkpt><trkpt lat="44.921790210105016" lon="7.316937436066135"><ele>538.6</ele><time>2026-04-24T17:10:32Z</time></trkpt><trkpt lat="44.921771983002074" lon="7.3170472860758915"><ele>538.2</ele><time>2026-04-24T17:10:33Z</time></trkpt><trkpt lat="44.9217903084414" lon="7.317187488221205"><ele>537.8000000000001</ele><time>2026-04-24T17:10:34Z</time></trkpt><trkpt lat="44.921832678111" lon="7.317318268490453"><ele>537.4</ele><time>2026-04-24T17:10:35Z</time></trkpt><trkpt lat="44.921889900119375" lon="7.317417210013437"><ele>537.0</ele><time>2026-04-24T17:10:36Z</time></trkpt><trkpt lat="44.9219456748651" lon="7.317528894685047"><ele>533.8000000000001</ele><time>2026-04-24T17:10:36.999Z</time></trkpt><trkpt lat="44.92192426631626" lon="7.317656243726022"><ele>530.6</ele><time>2026-04-24T17:10:37.999Z</time></trkpt><trkpt lat="44.92190265139988" lon="7.31785026217648"><ele>527.4000000000001</ele><time>2026-04-24T17:10:39.999Z</time></trkpt><trkpt lat="44.92193214826059" lon="7.317982537861955"><ele>524.2</ele><time>2026-04-24T17:10:40.999Z</time></trkpt><trkpt lat="44.9219719885727" lon="7.3181104422776695"><ele>521.0</ele><time>2026-04-24T17:10:41.999Z</time></trkpt><trkpt lat="44.92203230440725" lon="7.318238272756109"><ele>518.3333333333333</ele><time>2026-04-24T17:10:42.999Z</time></trkpt><trkpt lat="44.92204975361306" lon="7.318376876720794"><ele>515.6666666666666</ele><time>2026-04-24T17:10:44.999Z</time></trkpt><trkpt lat="44.92201227864175" lon="7.318481360055665"><ele>513.0</ele><time>2026-04-24T17:10:47.999Z</time></trkpt><trkpt lat="44.921991826315875" lon="7.318566888348129"><ele>510.33333333333337</ele><time>2026-04-24T17:10:50.999Z</time></trkpt><trkpt lat="44.92198036932833" lon="7.318703371650035"><ele>507.6666666666667</ele><time>2026-04-24T17:10:51.999Z</time></trkpt><trkpt lat="44.921897158503455" lon="7.31873631783143"><ele>505.0</ele><time>2026-04-24T17:10:53.999Z</time></trkpt><trkpt lat="44.921797696163246" lon="7.318787955643988"><ele>506.33333333333337</ele><time>2026-04-24T17:10:54.999Z</time></trkpt><trkpt lat="44.92168733783029" lon="7.3188521028696885"><ele>507.66666666666663</ele><time>2026-04-24T17:10:55.999Z</time></trkpt><trkpt lat="44.92154039980391" lon="7.318889558390412"><ele>509.0</ele><time>2026-04-24T17:10:56.999Z</time></trkpt><trkpt lat="44.921337549713556" lon="7.3189706111341435"><ele>507.0</ele><time>2026-04-24T17:10:57.999Z</time></trkpt><trkpt lat="44.92118565957842" lon="7.31898541742266"><ele>505.0</ele><time>2026-04-24T17:10:58.999Z</time></trkpt><trkpt lat="44.92103257719392" lon="7.319025738391226"><ele>503.0</ele><time>2026-04-24T17:10:59.999Z</time></trkpt><trkpt lat="44.920911154619716" lon="7.319027019785853"><ele>501.0</ele><time>2026-04-24T17:11:00.999Z</time></trkpt><trkpt lat="44.92082474370503" lon="7.319008858108696"><ele>501.0</ele><time>2026-04-24T17:11:01.999Z</time></trkpt><trkpt lat="44.92071855313262" lon="7.318993244805939"><ele>501.0</ele><time>2026-04-24T17:11:02.999Z</time></trkpt><trkpt lat="44.92058766534429" lon="7.318973383059548"><ele>501.0</ele><time>2026-04-24T17:11:03.999Z</time></trkpt><trkpt lat="44.92044898895756" lon="7.319001538850739"><ele>501.0</ele><time>2026-04-24T17:11:04.999Z</time></trkpt><trkpt lat="44.920285799637696" lon="7.319031441559677"><ele>501.0</ele><time>2026-04-24T17:11:05.999Z</time></trkpt><trkpt lat="44.92009840684966" lon="7.319073325650732"><ele>501.0</ele><time>2026-04-24T17:11:06.999Z</time></trkpt><trkpt lat="44.919941197488306" lon="7.319088064468113"><ele>501.0</ele><time>2026-04-24T17:11:07.999Z</time></trkpt><trkpt lat="44.919784066671745" lon="7.319072961652343"><ele>502.75</ele><time>2026-04-24T17:11:08.999Z</time></trkpt><trkpt lat="44.919647506073055" lon="7.319046773093097"><ele>504.5</ele><time>2026-04-24T17:11:09.999Z</time></trkpt><trkpt lat="44.919525509991175" lon="7.3190282800223905"><ele>506.25</ele><time>2026-04-24T17:11:10.999Z</time></trkpt><trkpt lat="44.91941686348096" lon="7.31905236764195"><ele>508.0</ele><time>2026-04-24T17:11:11.999Z</time></trkpt><trkpt lat="44.91932717374616" lon="7.319020272105333"><ele>508.0</ele><time>2026-04-24T17:11:12.999Z</time></trkpt><trkpt lat="44.91924091494906" lon="7.319016960960011"><ele>507.99999999999994</ele><time>2026-04-24T17:11:13.999Z</time></trkpt><trkpt lat="44.919151192728094" lon="7.319020815850659"><ele>507.99999999999994</ele><time>2026-04-24T17:11:14.999Z</time></trkpt><trkpt lat="44.919062546526895" lon="7.319029567045231"><ele>508.0</ele><time>2026-04-24T17:11:15.999Z</time></trkpt><trkpt lat="44.918934541432975" lon="7.3190492933871045"><ele>508.0</ele><time>2026-04-24T17:11:16.999Z</time></trkpt><trkpt lat="44.91883305394278" lon="7.319063964991358"><ele>509.2</ele><time>2026-04-24T17:11:17.999Z</time></trkpt><trkpt lat="44.918750108410165" lon="7.319073911712395"><ele>510.4</ele><time>2026-04-24T17:11:18.999Z</time></trkpt><trkpt lat="44.91865658159248" lon="7.319085127347683"><ele>511.59999999999997</ele><time>2026-04-24T17:11:19.999Z</time></trkpt><trkpt lat="44.91856464394513" lon="7.319099768926506"><ele>512.8</ele><time>2026-04-24T17:11:20.999Z</time></trkpt><trkpt lat="44.91845791057347" lon="7.319139930167464"><ele>514.0</ele><time>2026-04-24T17:11:21.999Z</time></trkpt><trkpt lat="44.918325905517335" lon="7.319168466027412"><ele>515.4</ele><time>2026-04-24T17:11:22.998Z</time></trkpt><trkpt lat="44.91822345081469" lon="7.319169771962269"><ele>516.8</ele><time>2026-04-24T17:11:23.998Z</time></trkpt><trkpt lat="44.91813399575509" lon="7.319125332731251"><ele>518.2</ele><time>2026-04-24T17:11:24.998Z</time></trkpt><trkpt lat="44.918046941346795" lon="7.319084098045092"><ele>519.6</ele><time>2026-04-24T17:11:25.998Z</time></trkpt><trkpt lat="44.917964855252876" lon="7.319056021436525"><ele>521.0</ele><time>2026-04-24T17:11:26.998Z</time></trkpt><trkpt lat="44.917820474357946" lon="7.319049372143618"><ele>521.0</ele><time>2026-04-24T17:11:28.998Z</time></trkpt><trkpt lat="44.91772862425705" lon="7.319107052302353"><ele>521.0</ele><time>2026-04-24T17:11:29.998Z</time></trkpt><trkpt lat="44.91764885055264" lon="7.319102252837562"><ele>521.0</ele><time>2026-04-24T17:11:30.998Z</time></trkpt><trkpt lat="44.91758242781189" lon="7.319107654567371"><ele>521.0</ele><time>2026-04-24T17:11:31.998Z</time></trkpt><trkpt lat="44.917464479180744" lon="7.319089932744845"><ele>521.0</ele><time>2026-04-24T17:11:33.998Z</time></trkpt><trkpt lat="44.91735575998252" lon="7.3190593269564035"><ele>522.4</ele><time>2026-04-24T17:11:35.998Z</time></trkpt><trkpt lat="44.917236398814644" lon="7.318994992744569"><ele>523.8</ele><time>2026-04-24T17:11:37.998Z</time></trkpt><trkpt lat="44.91715481796881" lon="7.318945343914781"><ele>525.1999999999999</ele><time>2026-04-24T17:11:38.998Z</time></trkpt><trkpt lat="44.91706219557152" lon="7.318881398368474"><ele>526.6</ele><time>2026-04-24T17:11:39.998Z</time></trkpt><trkpt lat="44.916973838440704" lon="7.318823814401905"><ele>528.0</ele><time>2026-04-24T17:11:40.998Z</time></trkpt><trkpt lat="44.91683979359629" lon="7.318737292081755"><ele>532.6666666666666</ele><time>2026-04-24T17:11:41.998Z</time></trkpt><trkpt lat="44.916704353352095" lon="7.318636139521675"><ele>537.3333333333333</ele><time>2026-04-24T17:11:42.998Z</time></trkpt><trkpt lat="44.91651930516707" lon="7.3184765813345525"><ele>542.0</ele><time>2026-04-24T17:11:43.998Z</time></trkpt><trkpt lat="44.916336163774254" lon="7.31837792971726"><ele>542.0</ele><time>2026-04-24T17:11:44.998Z</time></trkpt><trkpt lat="44.91619793633353" lon="7.318230295277483"><ele>542.0</ele><time>2026-04-24T17:11:46Z</time></trkpt><trkpt lat="44.91607284708245" lon="7.318119178826857"><ele>542.0</ele><time>2026-04-24T17:11:47Z</time></trkpt><trkpt lat="44.91596658191078" lon="7.318132914329065"><ele>542.0</ele><time>2026-04-24T17:11:48Z</time></trkpt><trkpt lat="44.91588631455415" lon="7.318169821726731"><ele>541.75</ele><time>2026-04-24T17:11:49Z</time></trkpt><trkpt lat="44.91574796825016" lon="7.31820908775581"><ele>541.5</ele><time>2026-04-24T17:11:50Z</time></trkpt><trkpt lat="44.91567052121141" lon="7.318222830463818"><ele>541.25</ele><time>2026-04-24T17:11:51Z</time></trkpt><trkpt lat="44.91555004914917" lon="7.31821465704141"><ele>541.0</ele><time>2026-04-24T17:11:52Z</time></trkpt><trkpt lat="44.91545047762747" lon="7.318129362474593"><ele>542.75</ele><time>2026-04-24T17:11:53Z</time></trkpt><trkpt lat="44.91537317534969" lon="7.318013439659664"><ele>544.5</ele><time>2026-04-24T17:11:54Z</time></trkpt><trkpt lat="44.91530086180992" lon="7.317902786490882"><ele>546.25</ele><time>2026-04-24T17:11:55Z</time></trkpt><trkpt lat="44.91524955947766" lon="7.317820167198286"><ele>548.0</ele><time>2026-04-24T17:11:56Z</time></trkpt><trkpt lat="44.91539710143993" lon="7.317645467815"><ele>548.0</ele><time>2026-04-24T17:12:00Z</time></trkpt><trkpt lat="44.91548525248285" lon="7.317583532318458"><ele>548.0</ele><time>2026-04-24T17:12:01Z</time></trkpt><trkpt lat="44.91559134280133" lon="7.317510755559828"><ele>548.0</ele><time>2026-04-24T17:12:02Z</time></trkpt><trkpt lat="44.915726986823344" lon="7.317421739047218"><ele>548.0</ele><time>2026-04-24T17:12:03Z</time></trkpt><trkpt lat="44.9158821000654" lon="7.317322939420983"><ele>548.6</ele><time>2026-04-24T17:12:04Z</time></trkpt><trkpt lat="44.91601025348287" lon="7.317232154482571"><ele>549.1999999999999</ele><time>2026-04-24T17:12:05Z</time></trkpt><trkpt lat="44.91612175519208" lon="7.317170630511411"><ele>549.8</ele><time>2026-04-24T17:12:06Z</time></trkpt><trkpt lat="44.91620824878935" lon="7.317116074598499"><ele>550.4</ele><time>2026-04-24T17:12:07Z</time></trkpt><trkpt lat="44.916269696995776" lon="7.317085087682525"><ele>551.0</ele><time>2026-04-24T17:12:08Z</time></trkpt><trkpt lat="44.91622978246118" lon="7.3168330602938045"><ele>551.0</ele><time>2026-04-24T17:12:10Z</time></trkpt><trkpt lat="44.9162276189912" lon="7.31669383967704"><ele>551.0</ele><time>2026-04-24T17:12:11Z</time></trkpt><trkpt lat="44.91622947896" lon="7.316534513735466"><ele>551.0</ele><time>2026-04-24T17:12:12Z</time></trkpt><trkpt lat="44.916247387275526" lon="7.316382291091582"><ele>551.0</ele><time>2026-04-24T17:12:13Z</time></trkpt><trkpt lat="44.916280682694776" lon="7.316242757169481"><ele>551.0</ele><time>2026-04-24T17:12:14Z</time></trkpt><trkpt lat="44.91632478108452" lon="7.3160972067295456"><ele>550.25</ele><time>2026-04-24T17:12:15Z</time></trkpt><trkpt lat="44.91637132390792" lon="7.3159511549341625"><ele>549.5</ele><time>2026-04-24T17:12:16Z</time></trkpt><trkpt lat="44.916418550381145" lon="7.31580834539126"><ele>548.75</ele><time>2026-04-24T17:12:17Z</time></trkpt><trkpt lat="44.916465859955835" lon="7.315658085293151"><ele>548.0</ele><time>2026-04-24T17:12:18Z</time></trkpt><trkpt lat="44.91650466678223" lon="7.315501402607227"><ele>546.1999999999999</ele><time>2026-04-24T17:12:19Z</time></trkpt><trkpt lat="44.91651825752539" lon="7.315338978291698"><ele>544.4</ele><time>2026-04-24T17:12:20Z</time></trkpt><trkpt lat="44.91653971188522" lon="7.315192890636775"><ele>542.5999999999999</ele><time>2026-04-24T17:12:21Z</time></trkpt><trkpt lat="44.916556780663306" lon="7.315047618647813"><ele>540.8</ele><time>2026-04-24T17:12:22Z</time></trkpt><trkpt lat="44.916582249170084" lon="7.314908294361662"><ele>539.0</ele><time>2026-04-24T17:12:23Z</time></trkpt><trkpt lat="44.916637133962645" lon="7.314792998856605"><ele>538.8</ele><time>2026-04-24T17:12:24Z</time></trkpt><trkpt lat="44.91669346844948" lon="7.3146877417347245"><ele>538.5999999999999</ele><time>2026-04-24T17:12:25Z</time></trkpt><trkpt lat="44.91675261304915" lon="7.314574265000195"><ele>538.4</ele><time>2026-04-24T17:12:26Z</time></trkpt><trkpt lat="44.91680027448102" lon="7.314445825578915"><ele>538.1999999999999</ele><time>2026-04-24T17:12:27Z</time></trkpt><trkpt lat="44.916850226843195" lon="7.314322370721981"><ele>538.0</ele><time>2026-04-24T17:12:28Z</time></trkpt><trkpt lat="44.91686890432883" lon="7.3141817789471"><ele>538.0</ele><time>2026-04-24T17:12:29Z</time></trkpt><trkpt lat="44.91686561651943" lon="7.314005394512137"><ele>538.0</ele><time>2026-04-24T17:12:30Z</time></trkpt><trkpt lat="44.91687159639428" lon="7.313848368937738"><ele>538.0</ele><time>2026-04-24T17:12:31Z</time></trkpt><trkpt lat="44.91688881859909" lon="7.313705463399898"><ele>538.0</ele><time>2026-04-24T17:12:32Z</time></trkpt><trkpt lat="44.916909073293716" lon="7.3135699088744435"><ele>538.0</ele><time>2026-04-24T17:12:33Z</time></trkpt><trkpt lat="44.91694702276927" lon="7.313447057266741"><ele>536.0</ele><time>2026-04-24T17:12:34Z</time></trkpt><trkpt lat="44.91699527513164" lon="7.313333407948152"><ele>534.0</ele><time>2026-04-24T17:12:35Z</time></trkpt><trkpt lat="44.917039918390415" lon="7.3132170703585855"><ele>532.0</ele><time>2026-04-24T17:12:36Z</time></trkpt><trkpt lat="44.91706776994085" lon="7.313092239603511"><ele>530.0</ele><time>2026-04-24T17:12:37Z</time></trkpt><trkpt lat="44.91707355380409" lon="7.312962458397128"><ele>528.0</ele><time>2026-04-24T17:12:38Z</time></trkpt><trkpt lat="44.91705032546185" lon="7.312834715661849"><ele>526.5</ele><time>2026-04-24T17:12:39Z</time></trkpt><trkpt lat="44.9169867781454" lon="7.31270199988426"><ele>525.0</ele><time>2026-04-24T17:12:39.999Z</time></trkpt><trkpt lat="44.916912823765095" lon="7.312588652684388"><ele>523.5</ele><time>2026-04-24T17:12:40.999Z</time></trkpt><trkpt lat="44.91681539485238" lon="7.312449481004613"><ele>522.0</ele><time>2026-04-24T17:12:41.999Z</time></trkpt><trkpt lat="44.916747115266205" lon="7.312299381624775"><ele>518.25</ele><time>2026-04-24T17:12:42.999Z</time></trkpt><trkpt lat="44.91668624650094" lon="7.312164483317769"><ele>514.5</ele><time>2026-04-24T17:12:43.999Z</time></trkpt><trkpt lat="44.91663280455374" lon="7.312027120043514"><ele>510.75</ele><time>2026-04-24T17:12:44.999Z</time></trkpt><trkpt lat="44.91656987224563" lon="7.3118944107529575"><ele>507.0</ele><time>2026-04-24T17:12:45.999Z</time></trkpt><trkpt lat="44.91647250844762" lon="7.311791827878675"><ele>507.0</ele><time>2026-04-24T17:12:46.999Z</time></trkpt><trkpt lat="44.916350336589105" lon="7.311715698702421"><ele>507.0</ele><time>2026-04-24T17:12:47.999Z</time></trkpt><trkpt lat="44.916243133184516" lon="7.311618037810706"><ele>507.0</ele><time>2026-04-24T17:12:48.999Z</time></trkpt><trkpt lat="44.91614869048983" lon="7.311491581501262"><ele>507.0</ele><time>2026-04-24T17:12:49.999Z</time></trkpt><trkpt lat="44.91605295076476" lon="7.311369922724207"><ele>506.0</ele><time>2026-04-24T17:12:50.999Z</time></trkpt><trkpt lat="44.91595969276419" lon="7.311272147957143"><ele>505.0</ele><time>2026-04-24T17:12:51.999Z</time></trkpt><trkpt lat="44.91586669717102" lon="7.311209793024498"><ele>504.0</ele><time>2026-04-24T17:12:52.999Z</time></trkpt><trkpt lat="44.915797598419765" lon="7.311170299045255"><ele>503.0</ele><time>2026-04-24T17:12:53.999Z</time></trkpt><trkpt lat="44.915707792405534" lon="7.311167904207221"><ele>502.0</ele><time>2026-04-24T17:12:55.999Z</time></trkpt><trkpt lat="44.91570135156489" lon="7.311077395517693"><ele>501.0</ele><time>2026-04-24T17:12:57.999Z</time></trkpt><trkpt lat="44.91577993054837" lon="7.311070326018593"><ele>498.20000000000005</ele><time>2026-04-24T17:12:58.999Z</time></trkpt><trkpt lat="44.91579948251528" lon="7.310979488144262"><ele>495.40000000000003</ele><time>2026-04-24T17:13:00.999Z</time></trkpt><trkpt lat="44.91575809441379" lon="7.310887400934125"><ele>492.6</ele><time>2026-04-24T17:13:01.999Z</time></trkpt><trkpt lat="44.91564842009872" lon="7.310823987787506"><ele>489.8</ele><time>2026-04-24T17:13:02.999Z</time></trkpt><trkpt lat="44.91551786393058" lon="7.310839317318805"><ele>487.0</ele><time>2026-04-24T17:13:03.999Z</time></trkpt><trkpt lat="44.91537795636197" lon="7.3108876583197855"><ele>487.0</ele><time>2026-04-24T17:13:04.999Z</time></trkpt><trkpt lat="44.9152029790513" lon="7.310962525214924"><ele>487.0</ele><time>2026-04-24T17:13:05.999Z</time></trkpt><trkpt lat="44.91504127587674" lon="7.3109843957332705"><ele>487.0</ele><time>2026-04-24T17:13:06.999Z</time></trkpt><trkpt lat="44.914925987637865" lon="7.310995857014381"><ele>485.20000000000005</ele><time>2026-04-24T17:13:07.999Z</time></trkpt><trkpt lat="44.91483005598399" lon="7.311012500661626"><ele>483.40000000000003</ele><time>2026-04-24T17:13:08.999Z</time></trkpt><trkpt lat="44.91474878220083" lon="7.310941490205575"><ele>481.59999999999997</ele><time>2026-04-24T17:13:09.999Z</time></trkpt><trkpt lat="44.914716944693495" lon="7.310833711986319"><ele>479.79999999999995</ele><time>2026-04-24T17:13:10.999Z</time></trkpt><trkpt lat="44.914709139520205" lon="7.3106793741647085"><ele>478.0</ele><time>2026-04-24T17:13:11.999Z</time></trkpt><trkpt lat="44.914703497047164" lon="7.310539442862156"><ele>478.0</ele><time>2026-04-24T17:13:12.999Z</time></trkpt><trkpt lat="44.91470503870694" lon="7.310396710791428"><ele>477.99999999999994</ele><time>2026-04-24T17:13:13.999Z</time></trkpt><trkpt lat="44.91470808102411" lon="7.310275643896463"><ele>477.99999999999994</ele><time>2026-04-24T17:13:14.999Z</time></trkpt><trkpt lat="44.914666108356855" lon="7.310183297384846"><ele>478.0</ele><time>2026-04-24T17:13:15.999Z</time></trkpt><trkpt lat="44.91460194155001" lon="7.310022605653612"><ele>478.0</ele><time>2026-04-24T17:13:17.999Z</time></trkpt><trkpt lat="44.914543168734596" lon="7.309866541462737"><ele>478.0</ele><time>2026-04-24T17:13:19.999Z</time></trkpt><trkpt lat="44.91450490434096" lon="7.309760623926281"><ele>477.99999999999994</ele><time>2026-04-24T17:13:20.999Z</time></trkpt><trkpt lat="44.91446025316776" lon="7.309632768718834"><ele>477.99999999999994</ele><time>2026-04-24T17:13:21.999Z</time></trkpt><trkpt lat="44.9144131515092" lon="7.309487186479746"><ele>478.0</ele><time>2026-04-24T17:13:22.999Z</time></trkpt><trkpt lat="44.91436680853885" lon="7.309337499966985"><ele>478.0</ele><time>2026-04-24T17:13:23.999Z</time></trkpt><trkpt lat="44.91432614167493" lon="7.309194630365662"><ele>478.4</ele><time>2026-04-24T17:13:24.999Z</time></trkpt><trkpt lat="44.914299280775566" lon="7.30908157918595"><ele>478.79999999999995</ele><time>2026-04-24T17:13:25.999Z</time></trkpt><trkpt lat="44.914281367652144" lon="7.308971618665692"><ele>479.2</ele><time>2026-04-24T17:13:27.998Z</time></trkpt><trkpt lat="44.914280271981234" lon="7.308867213892121"><ele>479.6</ele><time>2026-04-24T17:13:32.998Z</time></trkpt><trkpt lat="44.914143141872856" lon="7.308909962459761"><ele>480.0</ele><time>2026-04-24T17:13:34.998Z</time></trkpt><trkpt lat="44.91402390250287" lon="7.308929163882972"><ele>480.0</ele><time>2026-04-24T17:13:35.998Z</time></trkpt><trkpt lat="44.91390355091829" lon="7.308946921347411"><ele>480.0</ele><time>2026-04-24T17:13:36.998Z</time></trkpt><trkpt lat="44.913767256839876" lon="7.30896324780767"><ele>480.0</ele><time>2026-04-24T17:13:37.998Z</time></trkpt><trkpt lat="44.913622152341816" lon="7.309000753396869"><ele>480.0</ele><time>2026-04-24T17:13:38.998Z</time></trkpt><trkpt lat="44.91347405753852" lon="7.309064882998619"><ele>480.0</ele><time>2026-04-24T17:13:39.998Z</time></trkpt><trkpt lat="44.91331661422624" lon="7.309161238519184"><ele>480.0</ele><time>2026-04-24T17:13:40.998Z</time></trkpt><trkpt lat="44.91313895555494" lon="7.309273323248294"><ele>480.0</ele><time>2026-04-24T17:13:41.998Z</time></trkpt><trkpt lat="44.912954057178155" lon="7.309377067033107"><ele>480.0</ele><time>2026-04-24T17:13:42.998Z</time></trkpt><trkpt lat="44.91275433858173" lon="7.309458301377858"><ele>480.0</ele><time>2026-04-24T17:13:43.998Z</time></trkpt><trkpt lat="44.91256710426168" lon="7.30947664423663"><ele>480.0</ele><time>2026-04-24T17:13:44.998Z</time></trkpt><trkpt lat="44.91239582844313" lon="7.309516406949739"><ele>478.66666666666663</ele><time>2026-04-24T17:13:45.998Z</time></trkpt><trkpt lat="44.91222467943694" lon="7.309579137368197"><ele>477.3333333333333</ele><time>2026-04-24T17:13:46.998Z</time></trkpt><trkpt lat="44.91204070851621" lon="7.309607927459636"><ele>476.0</ele><time>2026-04-24T17:13:47.998Z</time></trkpt><trkpt lat="44.91189335250986" lon="7.3096525431954085"><ele>476.0</ele><time>2026-04-24T17:13:48.998Z</time></trkpt><trkpt lat="44.911774346049896" lon="7.3097250699684535"><ele>476.0</ele><time>2026-04-24T17:13:49.998Z</time></trkpt><trkpt lat="44.91168108587568" lon="7.309763783842997"><ele>476.0</ele><time>2026-04-24T17:13:50.998Z</time></trkpt><trkpt lat="44.91161725303797" lon="7.309789654103418"><ele>476.0</ele><time>2026-04-24T17:13:52Z</time></trkpt><trkpt lat="44.911554288815104" lon="7.309810923551991"><ele>476.0</ele><time>2026-04-24T17:13:54Z</time></trkpt><trkpt lat="44.911569619232374" lon="7.309649432026165"><ele>476.0</ele><time>2026-04-24T17:13:56Z</time></trkpt><trkpt lat="44.91159586177027" lon="7.309468368535965"><ele>476.0</ele><time>2026-04-24T17:13:58Z</time></trkpt><trkpt lat="44.91162683812612" lon="7.3093476018150625"><ele>476.0</ele><time>2026-04-24T17:13:59Z</time></trkpt><trkpt lat="44.91167347726884" lon="7.309265022390643"><ele>476.0</ele><time>2026-04-24T17:14:00Z</time></trkpt><trkpt lat="44.911721192402204" lon="7.309165643939209"><ele>476.0</ele><time>2026-04-24T17:14:01Z</time></trkpt><trkpt lat="44.91176322298859" lon="7.309036779921568"><ele>477.0</ele><time>2026-04-24T17:14:02Z</time></trkpt><trkpt lat="44.91178886256043" lon="7.3088750442516375"><ele>478.0</ele><time>2026-04-24T17:14:03Z</time></trkpt><trkpt lat="44.91178083582004" lon="7.308654403447912"><ele>479.0</ele><time>2026-04-24T17:14:04Z</time></trkpt><trkpt lat="44.911784534276634" lon="7.308479956908436"><ele>480.0</ele><time>2026-04-24T17:14:05Z</time></trkpt><trkpt lat="44.91186210229389" lon="7.308293138866716"><ele>480.0</ele><time>2026-04-24T17:14:06Z</time></trkpt><trkpt lat="44.911943667557516" lon="7.308109460464207"><ele>480.0</ele><time>2026-04-24T17:14:07Z</time></trkpt><trkpt lat="44.91204355196969" lon="7.30792597413823"><ele>480.0</ele><time>2026-04-24T17:14:08Z</time></trkpt><trkpt lat="44.91214396076362" lon="7.307766212189843"><ele>483.5</ele><time>2026-04-24T17:14:09Z</time></trkpt><trkpt lat="44.91224749739427" lon="7.307633469820672"><ele>487.0</ele><time>2026-04-24T17:14:10Z</time></trkpt><trkpt lat="44.912333085466614" lon="7.307496379512121"><ele>490.5</ele><time>2026-04-24T17:14:11Z</time></trkpt><trkpt lat="44.912368541949284" lon="7.307346097223312"><ele>494.0</ele><time>2026-04-24T17:14:12Z</time></trkpt><trkpt lat="44.912338945708754" lon="7.307228411819477"><ele>497.2</ele><time>2026-04-24T17:14:13Z</time></trkpt><trkpt lat="44.91226122151374" lon="7.307179982772655"><ele>500.4</ele><time>2026-04-24T17:14:14Z</time></trkpt><trkpt lat="44.9121687572064" lon="7.3071711133120445"><ele>503.6</ele><time>2026-04-24T17:14:15Z</time></trkpt><trkpt lat="44.9120521126968" lon="7.307188690742752"><ele>506.8</ele><time>2026-04-24T17:14:16Z</time></trkpt><trkpt lat="44.911954052040834" lon="7.307186225168083"><ele>510.0</ele><time>2026-04-24T17:14:17Z</time></trkpt><trkpt lat="44.911855368949446" lon="7.307137378833189"><ele>510.0</ele><time>2026-04-24T17:14:18Z</time></trkpt><trkpt lat="44.911751385685136" lon="7.307100307457192"><ele>510.0</ele><time>2026-04-24T17:14:19Z</time></trkpt><trkpt lat="44.911638154713444" lon="7.307077996998747"><ele>510.0</ele><time>2026-04-24T17:14:20Z</time></trkpt><trkpt lat="44.911550775515494" lon="7.3070078747579945"><ele>510.0</ele><time>2026-04-24T17:14:21Z</time></trkpt><trkpt lat="44.91147559086944" lon="7.306937757124876"><ele>510.0</ele><time>2026-04-24T17:14:22Z</time></trkpt><trkpt lat="44.91145714269123" lon="7.306811872092107"><ele>511.25</ele><time>2026-04-24T17:14:23Z</time></trkpt><trkpt lat="44.911428048162165" lon="7.306657130075836"><ele>512.5</ele><time>2026-04-24T17:14:24Z</time></trkpt><trkpt lat="44.91142105312592" lon="7.306490713678023"><ele>513.75</ele><time>2026-04-24T17:14:25Z</time></trkpt><trkpt lat="44.91143107391994" lon="7.3063347007459765"><ele>515.0</ele><time>2026-04-24T17:14:26Z</time></trkpt><trkpt lat="44.91146439204547" lon="7.306185203615656"><ele>516.3333333333333</ele><time>2026-04-24T17:14:27Z</time></trkpt><trkpt lat="44.9115532529451" lon="7.306092044579078"><ele>517.6666666666666</ele><time>2026-04-24T17:14:28Z</time></trkpt><trkpt lat="44.911640899770795" lon="7.30600313036284"><ele>519.0</ele><time>2026-04-24T17:14:29Z</time></trkpt><trkpt lat="44.911711102276634" lon="7.305982798884602"><ele>520.3333333333334</ele><time>2026-04-24T17:14:30Z</time></trkpt><trkpt lat="44.911779039227596" lon="7.3059607255136125"><ele>521.6666666666667</ele><time>2026-04-24T17:14:31Z</time></trkpt><trkpt lat="44.911842304270856" lon="7.305937539310292"><ele>523.0</ele><time>2026-04-24T17:14:32Z</time></trkpt><trkpt lat="44.911967666810206" lon="7.305888214817136"><ele>523.0</ele><time>2026-04-24T17:14:34Z</time></trkpt><trkpt lat="44.91205030146893" lon="7.305859880921589"><ele>523.0</ele><time>2026-04-24T17:14:35Z</time></trkpt><trkpt lat="44.91215911829734" lon="7.305793929173148"><ele>523.0</ele><time>2026-04-24T17:14:36Z</time></trkpt><trkpt lat="44.91230039317962" lon="7.305647237588213"><ele>523.0</ele><time>2026-04-24T17:14:37Z</time></trkpt><trkpt lat="44.912482655664675" lon="7.305482792276426"><ele>524.0</ele><time>2026-04-24T17:14:38Z</time></trkpt><trkpt lat="44.91264351654732" lon="7.305337244541071"><ele>525.0</ele><time>2026-04-24T17:14:39Z</time></trkpt><trkpt lat="44.91275569080476" lon="7.305166765348197"><ele>526.0</ele><time>2026-04-24T17:14:40Z</time></trkpt><trkpt lat="44.9128331162262" lon="7.3049483626953755"><ele>526.0</ele><time>2026-04-24T17:14:41Z</time></trkpt><trkpt lat="44.912879056945684" lon="7.304770955401042"><ele>526.0</ele><time>2026-04-24T17:14:42Z</time></trkpt><trkpt lat="44.91289132963933" lon="7.304647120859347"><ele>526.0</ele><time>2026-04-24T17:14:43Z</time></trkpt><trkpt lat="44.912822482440575" lon="7.304527221016292"><ele>526.0</ele><time>2026-04-24T17:14:44.999Z</time></trkpt><trkpt lat="44.91273448060139" lon="7.304556399547544"><ele>526.0</ele><time>2026-04-24T17:14:45.999Z</time></trkpt><trkpt lat="44.91266568688018" lon="7.304618887642424"><ele>531.5</ele><time>2026-04-24T17:14:46.999Z</time></trkpt><trkpt lat="44.91258482334267" lon="7.304611404828362"><ele>537.0</ele><time>2026-04-24T17:14:47.999Z</time></trkpt><trkpt lat="44.9124595235961" lon="7.30458134788677"><ele>542.5</ele><time>2026-04-24T17:14:48.999Z</time></trkpt><trkpt lat="44.91227258273016" lon="7.304493681250855"><ele>548.0</ele><time>2026-04-24T17:14:49.999Z</time></trkpt><trkpt lat="44.91209976410676" lon="7.304471074245683"><ele>553.0</ele><time>2026-04-24T17:14:50.999Z</time></trkpt><trkpt lat="44.911895967752216" lon="7.304473880425713"><ele>558.0</ele><time>2026-04-24T17:14:51.999Z</time></trkpt><trkpt lat="44.91177627078151" lon="7.304470317865283"><ele>563.0</ele><time>2026-04-24T17:14:52.999Z</time></trkpt><trkpt lat="44.91163829968881" lon="7.304476872879543"><ele>566.0</ele><time>2026-04-24T17:14:54.999Z</time></trkpt><trkpt lat="44.91151503868383" lon="7.30441393921619"><ele>569.0</ele><time>2026-04-24T17:14:55.999Z</time></trkpt><trkpt lat="44.91135913400869" lon="7.304326615055142"><ele>572.0</ele><time>2026-04-24T17:14:56.999Z</time></trkpt><trkpt lat="44.911244050668984" lon="7.304294952188336"><ele>575.0</ele><time>2026-04-24T17:14:57.999Z</time></trkpt><trkpt lat="44.911159627262116" lon="7.304238184871531"><ele>575.0</ele><time>2026-04-24T17:14:58.999Z</time></trkpt><trkpt lat="44.91098040669788" lon="7.3042450548845315"><ele>575.0</ele><time>2026-04-24T17:14:59.999Z</time></trkpt><trkpt lat="44.91087201903369" lon="7.304330034472078"><ele>575.0</ele><time>2026-04-24T17:15:00.999Z</time></trkpt><trkpt lat="44.91076296725228" lon="7.304564031320963"><ele>575.2</ele><time>2026-04-24T17:15:01.999Z</time></trkpt><trkpt lat="44.91072694861243" lon="7.304651986030629"><ele>575.4</ele><time>2026-04-24T17:15:02.999Z</time></trkpt><trkpt lat="44.910647082040775" lon="7.304756319183614"><ele>575.6</ele><time>2026-04-24T17:15:03.999Z</time></trkpt><trkpt lat="44.910569120316" lon="7.304856369624045"><ele>575.8</ele><time>2026-04-24T17:15:04.999Z</time></trkpt><trkpt lat="44.910498594784976" lon="7.304931207367954"><ele>576.0</ele><time>2026-04-24T17:15:05.999Z</time></trkpt><trkpt lat="44.910393788239325" lon="7.305006189002968"><ele>572.25</ele><time>2026-04-24T17:15:06.999Z</time></trkpt><trkpt lat="44.91026436289131" lon="7.30498481701445"><ele>568.5</ele><time>2026-04-24T17:15:07.999Z</time></trkpt><trkpt lat="44.91011920792914" lon="7.304955055080761"><ele>564.75</ele><time>2026-04-24T17:15:08.999Z</time></trkpt><trkpt lat="44.90999439183254" lon="7.3049203742465885"><ele>561.0</ele><time>2026-04-24T17:15:09.999Z</time></trkpt><trkpt lat="44.90984855150331" lon="7.304946674237204"><ele>561.0</ele><time>2026-04-24T17:15:10.999Z</time></trkpt><trkpt lat="44.90969115158992" lon="7.305035457374824"><ele>561.0</ele><time>2026-04-24T17:15:11.999Z</time></trkpt><trkpt lat="44.90955237000376" lon="7.305125406963602"><ele>561.0</ele><time>2026-04-24T17:15:12.999Z</time></trkpt><trkpt lat="44.90943228956214" lon="7.305223900055882"><ele>561.0</ele><time>2026-04-24T17:15:13.999Z</time></trkpt><trkpt lat="44.909376446413035" lon="7.30533043326735"><ele>561.0</ele><time>2026-04-24T17:15:14.999Z</time></trkpt><trkpt lat="44.90933268875912" lon="7.305427601574861"><ele>561.0</ele><time>2026-04-24T17:15:15.999Z</time></trkpt><trkpt lat="44.90925927026317" lon="7.305519132991106"><ele>561.0</ele><time>2026-04-24T17:15:17.999Z</time></trkpt><trkpt lat="44.90926573404239" lon="7.305423267929102"><ele>561.0</ele><time>2026-04-24T17:15:21.999Z</time></trkpt><trkpt lat="44.90930869071107" lon="7.305251628080181"><ele>561.0</ele><time>2026-04-24T17:15:23.999Z</time></trkpt><trkpt lat="44.909306066379685" lon="7.305154254771806"><ele>561.0</ele><time>2026-04-24T17:15:24.999Z</time></trkpt><trkpt lat="44.90927206807309" lon="7.305023932351049"><ele>561.0</ele><time>2026-04-24T17:15:25.999Z</time></trkpt><trkpt lat="44.90920504601534" lon="7.304921014702839"><ele>561.0</ele><time>2026-04-24T17:15:26.999Z</time></trkpt><trkpt lat="44.90909994046143" lon="7.3048602944905126"><ele>561.0</ele><time>2026-04-24T17:15:27.999Z</time></trkpt><trkpt lat="44.90900821229875" lon="7.304780484415488"><ele>563.3333333333334</ele><time>2026-04-24T17:15:28.999Z</time></trkpt><trkpt lat="44.90893117232108" lon="7.304714180455866"><ele>565.6666666666666</ele><time>2026-04-24T17:15:29.999Z</time></trkpt><trkpt lat="44.90888081324427" lon="7.304647732395757"><ele>568.0</ele><time>2026-04-24T17:15:30.998Z</time></trkpt><trkpt lat="44.90888118289852" lon="7.304554637388286"><ele>570.3333333333333</ele><time>2026-04-24T17:15:31.998Z</time></trkpt><trkpt lat="44.90895505940924" lon="7.30443458744582"><ele>572.6666666666666</ele><time>2026-04-24T17:15:33.998Z</time></trkpt><trkpt lat="44.90900837131507" lon="7.304354499790295"><ele>575.0</ele><time>2026-04-24T17:15:34.998Z</time></trkpt><trkpt lat="44.90906329433757" lon="7.304271548106075"><ele>575.0</ele><time>2026-04-24T17:15:35.998Z</time></trkpt><trkpt lat="44.90913009539966" lon="7.304167344539039"><ele>575.0</ele><time>2026-04-24T17:15:36.998Z</time></trkpt><trkpt lat="44.9092029918757" lon="7.304048497449607"><ele>575.0</ele><time>2026-04-24T17:15:37.998Z</time></trkpt><trkpt lat="44.909281613925145" lon="7.303879881967664"><ele>575.0</ele><time>2026-04-24T17:15:38.998Z</time></trkpt><trkpt lat="44.90936529239704" lon="7.303769241912185"><ele>580.5</ele><time>2026-04-24T17:15:39.998Z</time></trkpt><trkpt lat="44.909435765737996" lon="7.30368160395954"><ele>586.0</ele><time>2026-04-24T17:15:40.998Z</time></trkpt><trkpt lat="44.90954411165259" lon="7.3035782327283325"><ele>591.5</ele><time>2026-04-24T17:15:41.998Z</time></trkpt><trkpt lat="44.90963848840504" lon="7.303427183839813"><ele>597.0</ele><time>2026-04-24T17:15:42.998Z</time></trkpt><trkpt lat="44.90973930154353" lon="7.303271939008775"><ele>597.0</ele><time>2026-04-24T17:15:43.998Z</time></trkpt><trkpt lat="44.90984991654252" lon="7.303119386679711"><ele>597.0</ele><time>2026-04-24T17:15:44.998Z</time></trkpt><trkpt lat="44.90996609603568" lon="7.302946137790915"><ele>597.0</ele><time>2026-04-24T17:15:45.998Z</time></trkpt><trkpt lat="44.91005345695342" lon="7.302819733057269"><ele>597.0</ele><time>2026-04-24T17:15:46.998Z</time></trkpt><trkpt lat="44.91011842366175" lon="7.30273301801896"><ele>597.0</ele><time>2026-04-24T17:15:47.998Z</time></trkpt><trkpt lat="44.91003949828467" lon="7.3028157303314805"><ele>597.0</ele><time>2026-04-24T17:18:00.998Z</time></trkpt><trkpt lat="44.90998645132065" lon="7.302887299136011"><ele>597.0</ele><time>2026-04-24T17:18:01.998Z</time></trkpt><trkpt lat="44.90993401517413" lon="7.302957181543466"><ele>597.0</ele><time>2026-04-24T17:18:02.998Z</time></trkpt><trkpt lat="44.90987619280641" lon="7.303030901749148"><ele>597.0</ele><time>2026-04-24T17:18:04Z</time></trkpt><trkpt lat="44.90981293432512" lon="7.303117080899678"><ele>597.0</ele><time>2026-04-24T17:18:05Z</time></trkpt><trkpt lat="44.909742065184204" lon="7.303210142542464"><ele>597.0</ele><time>2026-04-24T17:18:06Z</time></trkpt><trkpt lat="44.909669464736325" lon="7.303315122356924"><ele>597.0</ele><time>2026-04-24T17:18:07Z</time></trkpt><trkpt lat="44.90959089365082" lon="7.303428322680652"><ele>597.0</ele><time>2026-04-24T17:18:08Z</time></trkpt><trkpt lat="44.90950401102739" lon="7.303554084891931"><ele>597.0</ele><time>2026-04-24T17:18:09Z</time></trkpt><trkpt lat="44.909410570352826" lon="7.303676992606093"><ele>597.0</ele><time>2026-04-24T17:18:10Z</time></trkpt><trkpt lat="44.9093066488631" lon="7.303793156935542"><ele>597.0</ele><time>2026-04-24T17:18:11Z</time></trkpt><trkpt lat="44.909204022801944" lon="7.303923668953443"><ele>597.0</ele><time>2026-04-24T17:18:12Z</time></trkpt><trkpt lat="44.90911271854241" lon="7.304067376302859"><ele>597.0</ele><time>2026-04-24T17:18:13Z</time></trkpt><trkpt lat="44.90903409211456" lon="7.304179129775845"><ele>593.3333333333334</ele><time>2026-04-24T17:18:14Z</time></trkpt><trkpt lat="44.908971587450836" lon="7.304284960755906"><ele>589.6666666666666</ele><time>2026-04-24T17:18:15Z</time></trkpt><trkpt lat="44.9089297452429" lon="7.304382774127172"><ele>586.0</ele><time>2026-04-24T17:18:16Z</time></trkpt><trkpt lat="44.90889286273815" lon="7.3044705806601895"><ele>582.3333333333333</ele><time>2026-04-24T17:18:17Z</time></trkpt><trkpt lat="44.908836272431124" lon="7.3045648109464745"><ele>578.6666666666666</ele><time>2026-04-24T17:18:20Z</time></trkpt><trkpt lat="44.90889892166524" lon="7.304686328590699"><ele>575.0</ele><time>2026-04-24T17:18:21Z</time></trkpt><trkpt lat="44.908982131577645" lon="7.304798276145022"><ele>572.6666666666666</ele><time>2026-04-24T17:18:23Z</time></trkpt><trkpt lat="44.909038682827564" lon="7.304859801746966"><ele>570.3333333333333</ele><time>2026-04-24T17:18:24Z</time></trkpt><trkpt lat="44.90910607501856" lon="7.304913566302625"><ele>568.0</ele><time>2026-04-24T17:18:25Z</time></trkpt><trkpt lat="44.909176277738226" lon="7.304967646750652"><ele>565.6666666666666</ele><time>2026-04-24T17:18:26Z</time></trkpt><trkpt lat="44.909242090125296" lon="7.305040883274824"><ele>563.3333333333334</ele><time>2026-04-24T17:18:27Z</time></trkpt><trkpt lat="44.909284204863994" lon="7.305154592425983"><ele>561.0</ele><time>2026-04-24T17:18:28Z</time></trkpt><trkpt lat="44.909279852635024" lon="7.305308988551254"><ele>560.5</ele><time>2026-04-24T17:18:29Z</time></trkpt><trkpt lat="44.90920402984354" lon="7.305447410381406"><ele>560.0</ele><time>2026-04-24T17:18:30Z</time></trkpt><trkpt lat="44.90914893264645" lon="7.305601079055407"><ele>559.5</ele><time>2026-04-24T17:18:31Z</time></trkpt><trkpt lat="44.90904830102953" lon="7.305711701185478"><ele>559.0</ele><time>2026-04-24T17:18:32Z</time></trkpt><trkpt lat="44.90892949240593" lon="7.305784613706953"><ele>559.0</ele><time>2026-04-24T17:18:33Z</time></trkpt><trkpt lat="44.90880594691891" lon="7.30577673516278"><ele>559.0</ele><time>2026-04-24T17:18:34Z</time></trkpt><trkpt lat="44.908676559744194" lon="7.30576000822058"><ele>559.0</ele><time>2026-04-24T17:18:35Z</time></trkpt><trkpt lat="44.90859286486512" lon="7.305695445361285"><ele>559.0</ele><time>2026-04-24T17:18:36Z</time></trkpt><trkpt lat="44.90853316323758" lon="7.305621419491761"><ele>559.0</ele><time>2026-04-24T17:18:37Z</time></trkpt><trkpt lat="44.908466846008864" lon="7.305561542668696"><ele>554.6666666666667</ele><time>2026-04-24T17:18:38Z</time></trkpt><trkpt lat="44.90835678541223" lon="7.30543337221247"><ele>550.3333333333334</ele><time>2026-04-24T17:18:39Z</time></trkpt><trkpt lat="44.9082297676972" lon="7.305284005369043"><ele>546.0</ele><time>2026-04-24T17:18:40Z</time></trkpt><trkpt lat="44.90811437801871" lon="7.3051596674408374"><ele>546.0</ele><time>2026-04-24T17:18:41Z</time></trkpt><trkpt lat="44.90805679038975" lon="7.305098634219442"><ele>546.0</ele><time>2026-04-24T17:18:42Z</time></trkpt><trkpt lat="44.90793112876017" lon="7.304966745351295"><ele>546.0</ele><time>2026-04-24T17:18:43Z</time></trkpt><trkpt lat="44.907706123491586" lon="7.304869373298402"><ele>538.3333333333334</ele><time>2026-04-24T17:18:44Z</time></trkpt><trkpt lat="44.9075502491862" lon="7.304905621611959"><ele>530.6666666666667</ele><time>2026-04-24T17:18:45Z</time></trkpt><trkpt lat="44.90739634915891" lon="7.304978149278286"><ele>523.0</ele><time>2026-04-24T17:18:46Z</time></trkpt><trkpt lat="44.907291267973235" lon="7.305102730019946"><ele>523.0</ele><time>2026-04-24T17:18:47Z</time></trkpt><trkpt lat="44.90722487538452" lon="7.305196707527044"><ele>523.0</ele><time>2026-04-24T17:18:48Z</time></trkpt><trkpt lat="44.90720898873677" lon="7.305322666094867"><ele>523.0</ele><time>2026-04-24T17:18:49Z</time></trkpt><trkpt lat="44.90728498422231" lon="7.305398766499751"><ele>523.0</ele><time>2026-04-24T17:18:49.999Z</time></trkpt><trkpt lat="44.90733838104187" lon="7.305521229090052"><ele>523.0</ele><time>2026-04-24T17:18:50.999Z</time></trkpt><trkpt lat="44.907391466306194" lon="7.305648177918825"><ele>522.0</ele><time>2026-04-24T17:18:51.999Z</time></trkpt><trkpt lat="44.90748492080918" lon="7.305725115800841"><ele>521.0</ele><time>2026-04-24T17:18:52.999Z</time></trkpt><trkpt lat="44.907584439933046" lon="7.305779957599941"><ele>520.0</ele><time>2026-04-24T17:18:53.999Z</time></trkpt><trkpt lat="44.907688923210614" lon="7.3058096661372405"><ele>519.0</ele><time>2026-04-24T17:18:54.999Z</time></trkpt><trkpt lat="44.907772793210185" lon="7.3059076167336165"><ele>518.0</ele><time>2026-04-24T17:18:55.999Z</time></trkpt><trkpt lat="44.90778605615612" lon="7.306034463367191"><ele>518.0</ele><time>2026-04-24T17:18:57.999Z</time></trkpt><trkpt lat="44.907645551880584" lon="7.306027696640852"><ele>518.0</ele><time>2026-04-24T17:18:59.999Z</time></trkpt><trkpt lat="44.90748509057266" lon="7.306118440958111"><ele>518.0</ele><time>2026-04-24T17:19:01.999Z</time></trkpt><trkpt lat="44.90738987741768" lon="7.306183729847149"><ele>518.0</ele><time>2026-04-24T17:19:02.999Z</time></trkpt><trkpt lat="44.90729915692822" lon="7.306228065124725"><ele>518.0</ele><time>2026-04-24T17:19:03.999Z</time></trkpt><trkpt lat="44.907202148849734" lon="7.306255568211227"><ele>518.0</ele><time>2026-04-24T17:19:04.999Z</time></trkpt><trkpt lat="44.907122111526576" lon="7.306291819787184"><ele>518.0</ele><time>2026-04-24T17:19:05.999Z</time></trkpt><trkpt lat="44.90708055697413" lon="7.306365637626764"><ele>518.0</ele><time>2026-04-24T17:19:06.999Z</time></trkpt><trkpt lat="44.907107624575204" lon="7.306478624959465"><ele>518.0</ele><time>2026-04-24T17:19:07.999Z</time></trkpt><trkpt lat="44.90716209306847" lon="7.306573065320962"><ele>518.0</ele><time>2026-04-24T17:19:08.999Z</time></trkpt><trkpt lat="44.90722153797504" lon="7.306670417239818"><ele>515.6</ele><time>2026-04-24T17:19:09.999Z</time></trkpt><trkpt lat="44.907267638868525" lon="7.306772279636338"><ele>513.1999999999999</ele><time>2026-04-24T17:19:10.999Z</time></trkpt><trkpt lat="44.907315025046564" lon="7.306894635485788"><ele>510.8</ele><time>2026-04-24T17:19:11.999Z</time></trkpt><trkpt lat="44.90736455781016" lon="7.307005534748464"><ele>508.4</ele><time>2026-04-24T17:19:12.999Z</time></trkpt><trkpt lat="44.907352253333976" lon="7.307165113618861"><ele>506.0</ele><time>2026-04-24T17:19:13.999Z</time></trkpt><trkpt lat="44.907253663910495" lon="7.307284302588986"><ele>504.5</ele><time>2026-04-24T17:19:14.999Z</time></trkpt><trkpt lat="44.90720312150579" lon="7.307447729569"><ele>503.0</ele><time>2026-04-24T17:19:15.999Z</time></trkpt><trkpt lat="44.907189537248115" lon="7.307618167795743"><ele>501.5</ele><time>2026-04-24T17:19:16.999Z</time></trkpt><trkpt lat="44.907219552014915" lon="7.307785696467213"><ele>500.0</ele><time>2026-04-24T17:19:17.999Z</time></trkpt><trkpt lat="44.9072765680085" lon="7.307915317768186"><ele>500.0</ele><time>2026-04-24T17:19:18.999Z</time></trkpt><trkpt lat="44.90732216321806" lon="7.308039416904879"><ele>500.0</ele><time>2026-04-24T17:19:19.999Z</time></trkpt><trkpt lat="44.907374226706786" lon="7.308163292941614"><ele>500.0</ele><time>2026-04-24T17:19:20.999Z</time></trkpt><trkpt lat="44.907412906439" lon="7.308302439225506"><ele>500.0</ele><time>2026-04-24T17:19:21.999Z</time></trkpt><trkpt lat="44.907460482373764" lon="7.308420982801361"><ele>500.0</ele><time>2026-04-24T17:19:22.999Z</time></trkpt><trkpt lat="44.907511934047946" lon="7.308544612570278"><ele>499.2</ele><time>2026-04-24T17:19:23.999Z</time></trkpt><trkpt lat="44.90756471653352" lon="7.308669468706382"><ele>498.4</ele><time>2026-04-24T17:19:24.999Z</time></trkpt><trkpt lat="44.907620883043435" lon="7.308798060449602"><ele>497.6</ele><time>2026-04-24T17:19:25.999Z</time></trkpt><trkpt lat="44.907676307086504" lon="7.308924952384723"><ele>496.8</ele><time>2026-04-24T17:19:26.999Z</time></trkpt><trkpt lat="44.90773061500579" lon="7.30905388805083"><ele>496.0</ele><time>2026-04-24T17:19:27.999Z</time></trkpt><trkpt lat="44.907785186197295" lon="7.309184707161389"><ele>494.4</ele><time>2026-04-24T17:19:28.999Z</time></trkpt><trkpt lat="44.907841136029965" lon="7.309323588975797"><ele>492.8</ele><time>2026-04-24T17:19:29.999Z</time></trkpt><trkpt lat="44.90789109028291" lon="7.3094614529160795"><ele>491.19999999999993</ele><time>2026-04-24T17:19:30.999Z</time></trkpt><trkpt lat="44.90793289190679" lon="7.309597354116773"><ele>489.59999999999997</ele><time>2026-04-24T17:19:31.999Z</time></trkpt><trkpt lat="44.90796319931209" lon="7.30973790501181"><ele>488.0</ele><time>2026-04-24T17:19:32.999Z</time></trkpt><trkpt lat="44.90796395406977" lon="7.30987257797746"><ele>484.5</ele><time>2026-04-24T17:19:33.999Z</time></trkpt><trkpt lat="44.90792959935456" lon="7.310013831500172"><ele>481.0</ele><time>2026-04-24T17:19:34.999Z</time></trkpt><trkpt lat="44.90782048774131" lon="7.310079470464927"><ele>477.5</ele><time>2026-04-24T17:19:35.999Z</time></trkpt><trkpt lat="44.90771697135558" lon="7.310174419335817"><ele>474.0</ele><time>2026-04-24T17:19:36.998Z</time></trkpt><trkpt lat="44.90760926440014" lon="7.310279027120257"><ele>473.5</ele><time>2026-04-24T17:19:37.998Z</time></trkpt><trkpt lat="44.90752049258828" lon="7.310400766559086"><ele>473.0</ele><time>2026-04-24T17:19:38.998Z</time></trkpt><trkpt lat="44.90745634797334" lon="7.3105424859841595"><ele>472.5</ele><time>2026-04-24T17:19:39.998Z</time></trkpt><trkpt lat="44.90744525404436" lon="7.310738526562061"><ele>472.0</ele><time>2026-04-24T17:19:40.998Z</time></trkpt><trkpt lat="44.90748434801784" lon="7.310915384650069"><ele>470.40000000000003</ele><time>2026-04-24T17:19:41.998Z</time></trkpt><trkpt lat="44.907516498799424" lon="7.311075725929906"><ele>468.80000000000007</ele><time>2026-04-24T17:19:42.998Z</time></trkpt><trkpt lat="44.907543246902094" lon="7.311221910012932"><ele>467.2</ele><time>2026-04-24T17:19:43.998Z</time></trkpt><trkpt lat="44.90755594899967" lon="7.311365687623175"><ele>465.6</ele><time>2026-04-24T17:19:44.998Z</time></trkpt><trkpt lat="44.90756075441035" lon="7.311517867188051"><ele>464.0</ele><time>2026-04-24T17:19:45.998Z</time></trkpt><trkpt lat="44.90755699379069" lon="7.3116654806537165"><ele>462.2</ele><time>2026-04-24T17:19:46.998Z</time></trkpt><trkpt lat="44.90754744389407" lon="7.311815988024848"><ele>460.4</ele><time>2026-04-24T17:19:47.998Z</time></trkpt><trkpt lat="44.9075345838677" lon="7.311963813802722"><ele>458.6</ele><time>2026-04-24T17:19:48.998Z</time></trkpt><trkpt lat="44.907516572351284" lon="7.312107942725354"><ele>456.8</ele><time>2026-04-24T17:19:49.998Z</time></trkpt><trkpt lat="44.90749441819213" lon="7.312255572973341"><ele>455.0</ele><time>2026-04-24T17:19:50.998Z</time></trkpt><trkpt lat="44.90746872273257" lon="7.312401978942457"><ele>454.2</ele><time>2026-04-24T17:19:51.998Z</time></trkpt><trkpt lat="44.90745069434572" lon="7.312547121121277"><ele>453.4</ele><time>2026-04-24T17:19:52.998Z</time></trkpt><trkpt lat="44.90744057231211" lon="7.312695857804372"><ele>452.6</ele><time>2026-04-24T17:19:53.998Z</time></trkpt><trkpt lat="44.90743002797169" lon="7.31284029811149"><ele>451.8</ele><time>2026-04-24T17:19:54.998Z</time></trkpt><trkpt lat="44.90741259077357" lon="7.312961763224098"><ele>451.0</ele><time>2026-04-24T17:19:55.998Z</time></trkpt><trkpt lat="44.90739239546652" lon="7.3130828214507915"><ele>450.6666666666667</ele><time>2026-04-24T17:19:57.998Z</time></trkpt><trkpt lat="44.907433742237046" lon="7.313187824711378"><ele>450.33333333333337</ele><time>2026-04-24T17:19:59.998Z</time></trkpt><trkpt lat="44.90752771419886" lon="7.313132631950566"><ele>450.0</ele><time>2026-04-24T17:20:01.998Z</time></trkpt><trkpt lat="44.90759028064005" lon="7.313100450965522"><ele>449.66666666666663</ele><time>2026-04-24T17:20:03.998Z</time></trkpt><trkpt lat="44.90766282727182" lon="7.313010148798849"><ele>449.3333333333333</ele><time>2026-04-24T17:20:06.998Z</time></trkpt><trkpt lat="44.907714342644724" lon="7.3129399576813015"><ele>449.0</ele><time>2026-04-24T17:20:07.998Z</time></trkpt><trkpt lat="44.907757678084835" lon="7.312866422380439"><ele>449.0</ele><time>2026-04-24T17:20:09Z</time></trkpt><trkpt lat="44.90781082390962" lon="7.312772602483233"><ele>449.0</ele><time>2026-04-24T17:20:10Z</time></trkpt><trkpt lat="44.9078862698289" lon="7.312646373419307"><ele>449.0</ele><time>2026-04-24T17:20:11Z</time></trkpt><trkpt lat="44.90798023299839" lon="7.312499467735697"><ele>449.0</ele><time>2026-04-24T17:20:12Z</time></trkpt><trkpt lat="44.90806687113344" lon="7.312335266555062"><ele>450.25</ele><time>2026-04-24T17:20:13Z</time></trkpt><trkpt lat="44.908145313743816" lon="7.312200042830059"><ele>451.5</ele><time>2026-04-24T17:20:14Z</time></trkpt><trkpt lat="44.908214116808935" lon="7.312081436634958"><ele>452.75</ele><time>2026-04-24T17:20:15Z</time></trkpt><trkpt lat="44.90829887956117" lon="7.311965144798983"><ele>454.0</ele><time>2026-04-24T17:20:16Z</time></trkpt><trkpt lat="44.90838341046056" lon="7.311828578126408"><ele>453.0</ele><time>2026-04-24T17:20:17Z</time></trkpt><trkpt lat="44.908464767978" lon="7.31169159100407"><ele>452.0</ele><time>2026-04-24T17:20:18Z</time></trkpt><trkpt lat="44.90856171031217" lon="7.311537144195972"><ele>451.0</ele><time>2026-04-24T17:20:19Z</time></trkpt><trkpt lat="44.90868805554821" lon="7.31139263160165"><ele>450.0</ele><time>2026-04-24T17:20:20Z</time></trkpt><trkpt lat="44.90883334971696" lon="7.311292971730791"><ele>452.0</ele><time>2026-04-24T17:20:21Z</time></trkpt><trkpt lat="44.908972557725264" lon="7.3111709504957005"><ele>454.0</ele><time>2026-04-24T17:20:22Z</time></trkpt><trkpt lat="44.909079823563104" lon="7.311055405221712"><ele>456.0</ele><time>2026-04-24T17:20:23Z</time></trkpt><trkpt lat="44.90918772396994" lon="7.311012096955659"><ele>458.0</ele><time>2026-04-24T17:20:24Z</time></trkpt><trkpt lat="44.90924949345083" lon="7.310913176021009"><ele>458.59999999999997</ele><time>2026-04-24T17:20:25Z</time></trkpt><trkpt lat="44.90931728175729" lon="7.311025281493749"><ele>459.19999999999993</ele><time>2026-04-24T17:20:31Z</time></trkpt><trkpt lat="44.9094511762784" lon="7.310981399067718"><ele>459.8</ele><time>2026-04-24T17:20:33Z</time></trkpt><trkpt lat="44.90951299588496" lon="7.3109145944672465"><ele>460.4</ele><time>2026-04-24T17:20:34Z</time></trkpt><trkpt lat="44.909587420001124" lon="7.3108811929658915"><ele>461.0</ele><time>2026-04-24T17:20:35Z</time></trkpt><trkpt lat="44.90970286276411" lon="7.310997524466837"><ele>461.0</ele><time>2026-04-24T17:20:37Z</time></trkpt><trkpt lat="44.909787719864546" lon="7.311076204818821"><ele>461.0</ele><time>2026-04-24T17:20:38Z</time></trkpt><trkpt lat="44.90988594026489" lon="7.311185437887451"><ele>461.0</ele><time>2026-04-24T17:20:39Z</time></trkpt><trkpt lat="44.90998189499496" lon="7.311317690504379"><ele>461.0</ele><time>2026-04-24T17:20:40Z</time></trkpt><trkpt lat="44.910072980655166" lon="7.311421598346037"><ele>460.20000000000005</ele><time>2026-04-24T17:20:41Z</time></trkpt><trkpt lat="44.91015078656695" lon="7.311518406536838"><ele>459.40000000000003</ele><time>2026-04-24T17:20:42Z</time></trkpt><trkpt lat="44.91022397575893" lon="7.311618403320544"><ele>458.6</ele><time>2026-04-24T17:20:43Z</time></trkpt><trkpt lat="44.910273474550685" lon="7.311685674769281"><ele>457.8</ele><time>2026-04-24T17:20:44Z</time></trkpt><trkpt lat="44.910335193461734" lon="7.311770682088531"><ele>457.0</ele><time>2026-04-24T17:20:46Z</time></trkpt><trkpt lat="44.91042149156256" lon="7.311629937720735"><ele>457.0</ele><time>2026-04-24T17:21:13.999Z</time></trkpt><trkpt lat="44.91048673931104" lon="7.31163587485901"><ele>457.00000000000006</ele><time>2026-04-24T17:56:47Z</time></trkpt><trkpt lat="44.91042308672412" lon="7.3116123726979785"><ele>457.00000000000006</ele><time>2026-04-24T17:57:45.998Z</time></trkpt><trkpt lat="44.9103318281662" lon="7.311609279294321"><ele>457.0</ele><time>2026-04-24T17:58:18Z</time></trkpt><trkpt lat="44.910223394159125" lon="7.31152355952198"><ele>457.0</ele><time>2026-04-24T17:58:19Z</time></trkpt><trkpt lat="44.910117564607255" lon="7.311412569942056"><ele>458.33333333333337</ele><time>2026-04-24T17:58:20Z</time></trkpt><trkpt lat="44.90999193082837" lon="7.311273659465511"><ele>459.66666666666663</ele><time>2026-04-24T17:58:21Z</time></trkpt><trkpt lat="44.90985139229118" lon="7.311117633336922"><ele>461.0</ele><time>2026-04-24T17:58:22Z</time></trkpt><trkpt lat="44.90971600501896" lon="7.310962107246295"><ele>461.0</ele><time>2026-04-24T17:58:23Z</time></trkpt><trkpt lat="44.90963661492027" lon="7.310867689808187"><ele>461.0</ele><time>2026-04-24T17:58:24Z</time></trkpt><trkpt lat="44.90949772121173" lon="7.310811723181439"><ele>461.0</ele><time>2026-04-24T17:58:29Z</time></trkpt><trkpt lat="44.90939129496547" lon="7.3108789449911455"><ele>461.0</ele><time>2026-04-24T17:58:30Z</time></trkpt><trkpt lat="44.909251039091984" lon="7.310963609732507"><ele>460.0</ele><time>2026-04-24T17:58:31Z</time></trkpt><trkpt lat="44.90906885053967" lon="7.31109203298257"><ele>459.0</ele><time>2026-04-24T17:58:32Z</time></trkpt><trkpt lat="44.9088536029706" lon="7.311221708954601"><ele>458.0</ele><time>2026-04-24T17:58:33Z</time></trkpt><trkpt lat="44.908659101466256" lon="7.311384766304"><ele>456.66666666666663</ele><time>2026-04-24T17:58:34Z</time></trkpt><trkpt lat="44.90850518560627" lon="7.3115519348885325"><ele>455.33333333333337</ele><time>2026-04-24T17:58:35Z</time></trkpt><trkpt lat="44.90840052090065" lon="7.3116986781398134"><ele>454.0</ele><time>2026-04-24T17:58:36Z</time></trkpt><trkpt lat="44.90830827612908" lon="7.311853580661243"><ele>454.0</ele><time>2026-04-24T17:58:37Z</time></trkpt><trkpt lat="44.908232364570694" lon="7.3119935900033335"><ele>454.0</ele><time>2026-04-24T17:58:38Z</time></trkpt><trkpt lat="44.90816566697761" lon="7.312108173178363"><ele>454.0</ele><time>2026-04-24T17:58:39Z</time></trkpt><trkpt lat="44.90807266185097" lon="7.312144098999155"><ele>454.0</ele><time>2026-04-24T17:58:40Z</time></trkpt><trkpt lat="44.90796064256091" lon="7.312187871773342"><ele>454.0</ele><time>2026-04-24T17:58:41Z</time></trkpt><trkpt lat="44.907841336548294" lon="7.312230689366085"><ele>454.2</ele><time>2026-04-24T17:58:42Z</time></trkpt><trkpt lat="44.90773470440122" lon="7.312249388415704"><ele>454.4</ele><time>2026-04-24T17:58:43Z</time></trkpt><trkpt lat="44.90764803693646" lon="7.312297946343262"><ele>454.6</ele><time>2026-04-24T17:58:44Z</time></trkpt><trkpt lat="44.90755764809656" lon="7.3122773696744625"><ele>454.8</ele><time>2026-04-24T17:58:46Z</time></trkpt><trkpt lat="44.907546034635146" lon="7.312090038621361"><ele>455.0</ele><time>2026-04-24T17:58:48Z</time></trkpt><trkpt lat="44.907561136246954" lon="7.311967276604723"><ele>454.75</ele><time>2026-04-24T17:58:49Z</time></trkpt><trkpt lat="44.90758950900915" lon="7.311831971175948"><ele>454.5</ele><time>2026-04-24T17:58:50Z</time></trkpt><trkpt lat="44.90759641593279" lon="7.311675526094672"><ele>454.25</ele><time>2026-04-24T17:58:51Z</time></trkpt><trkpt lat="44.90760782029296" lon="7.311505538980424"><ele>454.0</ele><time>2026-04-24T17:58:52Z</time></trkpt><trkpt lat="44.907601277681636" lon="7.311314611238657"><ele>456.5</ele><time>2026-04-24T17:58:53Z</time></trkpt><trkpt lat="44.90757419612656" lon="7.31113763611918"><ele>459.0</ele><time>2026-04-24T17:58:54Z</time></trkpt><trkpt lat="44.90753581503587" lon="7.310945399182762"><ele>461.5</ele><time>2026-04-24T17:58:54.999Z</time></trkpt><trkpt lat="44.90750373001152" lon="7.310767038578707"><ele>464.0</ele><time>2026-04-24T17:58:55.999Z</time></trkpt><trkpt lat="44.90749461302343" lon="7.310614790777632"><ele>465.6</ele><time>2026-04-24T17:58:56.999Z</time></trkpt><trkpt lat="44.907512698092404" lon="7.310475842028905"><ele>467.2</ele><time>2026-04-24T17:58:57.999Z</time></trkpt><trkpt lat="44.90756954253234" lon="7.3103410493686125"><ele>468.80000000000007</ele><time>2026-04-24T17:58:58.999Z</time></trkpt><trkpt lat="44.90766324158485" lon="7.310236991596657"><ele>470.40000000000003</ele><time>2026-04-24T17:58:59.999Z</time></trkpt><trkpt lat="44.907765570684" lon="7.310167855623453"><ele>472.0</ele><time>2026-04-24T17:59:00.999Z</time></trkpt><trkpt lat="44.90786033006802" lon="7.310112518967273"><ele>472.40000000000003</ele><time>2026-04-24T17:59:01.999Z</time></trkpt><trkpt lat="44.907934383934" lon="7.310047768726191"><ele>472.80000000000007</ele><time>2026-04-24T17:59:02.999Z</time></trkpt><trkpt lat="44.90799628580734" lon="7.309945098214231"><ele>473.2</ele><time>2026-04-24T17:59:03.999Z</time></trkpt><trkpt lat="44.908023920126396" lon="7.309825809578282"><ele>473.6</ele><time>2026-04-24T17:59:04.999Z</time></trkpt><trkpt lat="44.908007491838156" lon="7.3096773853450925"><ele>474.0</ele><time>2026-04-24T17:59:05.999Z</time></trkpt><trkpt lat="44.907974725843175" lon="7.309552332911467"><ele>477.5</ele><time>2026-04-24T17:59:06.999Z</time></trkpt><trkpt lat="44.90791115644245" lon="7.309419162061211"><ele>481.0</ele><time>2026-04-24T17:59:07.999Z</time></trkpt><trkpt lat="44.90783770727871" lon="7.3092615328945225"><ele>484.5</ele><time>2026-04-24T17:59:08.999Z</time></trkpt><trkpt lat="44.90776625233993" lon="7.309059639556273"><ele>488.0</ele><time>2026-04-24T17:59:09.999Z</time></trkpt><trkpt lat="44.90768654184967" lon="7.308839311683724"><ele>489.0</ele><time>2026-04-24T17:59:10.999Z</time></trkpt><trkpt lat="44.90759393094118" lon="7.308608894805466"><ele>490.0</ele><time>2026-04-24T17:59:11.999Z</time></trkpt><trkpt lat="44.90748994634125" lon="7.308376560778815"><ele>491.0</ele><time>2026-04-24T17:59:12.999Z</time></trkpt><trkpt lat="44.90740083563788" lon="7.308168932947521"><ele>493.25</ele><time>2026-04-24T17:59:13.999Z</time></trkpt><trkpt lat="44.90733401586989" lon="7.307980055510393"><ele>495.5</ele><time>2026-04-24T17:59:14.999Z</time></trkpt><trkpt lat="44.90727538286914" lon="7.3077826461964674"><ele>497.75</ele><time>2026-04-24T17:59:15.999Z</time></trkpt><trkpt lat="44.907249904372335" lon="7.307590657088984"><ele>500.0</ele><time>2026-04-24T17:59:16.999Z</time></trkpt><trkpt lat="44.907258407547516" lon="7.3074068744473255"><ele>501.5</ele><time>2026-04-24T17:59:17.999Z</time></trkpt><trkpt lat="44.90730550027044" lon="7.30723792875046"><ele>503.0</ele><time>2026-04-24T17:59:18.999Z</time></trkpt><trkpt lat="44.90736970326431" lon="7.307064868106388"><ele>504.5</ele><time>2026-04-24T17:59:19.999Z</time></trkpt><trkpt lat="44.90738564528924" lon="7.30689164427726"><ele>506.0</ele><time>2026-04-24T17:59:20.999Z</time></trkpt><trkpt lat="44.90733526606152" lon="7.306730824411969"><ele>506.0</ele><time>2026-04-24T17:59:21.999Z</time></trkpt><trkpt lat="44.90725668527148" lon="7.306599012272325"><ele>506.0</ele><time>2026-04-24T17:59:22.999Z</time></trkpt><trkpt lat="44.90718077778494" lon="7.306502394155792"><ele>506.0</ele><time>2026-04-24T17:59:23.999Z</time></trkpt><trkpt lat="44.9071412314441" lon="7.306415091253569"><ele>506.0</ele><time>2026-04-24T17:59:24.999Z</time></trkpt><trkpt lat="44.907228097475794" lon="7.306257532153388"><ele>506.0</ele><time>2026-04-24T17:59:26.999Z</time></trkpt><trkpt lat="44.90731776795034" lon="7.306231867280142"><ele>508.4</ele><time>2026-04-24T17:59:27.999Z</time></trkpt><trkpt lat="44.9074129990984" lon="7.30621567256457"><ele>510.8</ele><time>2026-04-24T17:59:28.999Z</time></trkpt><trkpt lat="44.90751228758901" lon="7.3061693705182105"><ele>513.1999999999999</ele><time>2026-04-24T17:59:29.999Z</time></trkpt><trkpt lat="44.907624585095775" lon="7.306100834599872"><ele>515.6</ele><time>2026-04-24T17:59:30.999Z</time></trkpt><trkpt lat="44.90773033212031" lon="7.3060547308654"><ele>518.0</ele><time>2026-04-24T17:59:31.999Z</time></trkpt><trkpt lat="44.90781219376289" lon="7.306031813251052"><ele>518.0</ele><time>2026-04-24T17:59:32.999Z</time></trkpt><trkpt lat="44.90783720830897" lon="7.305907324859041"><ele>518.0</ele><time>2026-04-24T17:59:34.999Z</time></trkpt><trkpt lat="44.907780265799744" lon="7.3058272959001975"><ele>518.0</ele><time>2026-04-24T17:59:35.999Z</time></trkpt><trkpt lat="44.907693690961" lon="7.305775535835523"><ele>518.0</ele><time>2026-04-24T17:59:36.999Z</time></trkpt><trkpt lat="44.90759655838981" lon="7.305730601133092"><ele>518.0</ele><time>2026-04-24T17:59:37.999Z</time></trkpt><trkpt lat="44.90750182015464" lon="7.305664354292467"><ele>519.0</ele><time>2026-04-24T17:59:38.999Z</time></trkpt><trkpt lat="44.90741328322373" lon="7.305567938367621"><ele>520.0</ele><time>2026-04-24T17:59:39.999Z</time></trkpt><trkpt lat="44.90735696145768" lon="7.305446353657112"><ele>521.0</ele><time>2026-04-24T17:59:40.999Z</time></trkpt><trkpt lat="44.90733408514417" lon="7.305315225174963"><ele>522.0</ele><time>2026-04-24T17:59:41.999Z</time></trkpt><trkpt lat="44.90733399810759" lon="7.30518787484688"><ele>523.0</ele><time>2026-04-24T17:59:42.998Z</time></trkpt><trkpt lat="44.90736227401784" lon="7.305075805537219"><ele>523.0</ele><time>2026-04-24T17:59:43.998Z</time></trkpt><trkpt lat="44.90742443874924" lon="7.304981282164054"><ele>523.0</ele><time>2026-04-24T17:59:44.998Z</time></trkpt><trkpt lat="44.907540503769994" lon="7.304908838721298"><ele>523.0</ele><time>2026-04-24T17:59:45.998Z</time></trkpt><trkpt lat="44.90767489986126" lon="7.304896259110303"><ele>523.0</ele><time>2026-04-24T17:59:46.998Z</time></trkpt><trkpt lat="44.90780619387298" lon="7.3049169410063195"><ele>528.75</ele><time>2026-04-24T17:59:47.998Z</time></trkpt><trkpt lat="44.907924128165774" lon="7.304974795050721"><ele>534.5</ele><time>2026-04-24T17:59:48.998Z</time></trkpt><trkpt lat="44.90803975924097" lon="7.305086380636345"><ele>540.25</ele><time>2026-04-24T17:59:49.998Z</time></trkpt><trkpt lat="44.908147308081" lon="7.305235738096591"><ele>546.0</ele><time>2026-04-24T17:59:50.998Z</time></trkpt><trkpt lat="44.90825983976991" lon="7.305379162144758"><ele>546.0</ele><time>2026-04-24T17:59:51.998Z</time></trkpt><trkpt lat="44.90838415112307" lon="7.3055127664813675"><ele>546.0</ele><time>2026-04-24T17:59:52.998Z</time></trkpt><trkpt lat="44.908506780014484" lon="7.305641211563308"><ele>546.0</ele><time>2026-04-24T17:59:53.998Z</time></trkpt><trkpt lat="44.9086189961787" lon="7.305746946986546"><ele>546.0</ele><time>2026-04-24T17:59:54.998Z</time></trkpt><trkpt lat="44.90874003071029" lon="7.3058110703040855"><ele>545.0</ele><time>2026-04-24T17:59:55.998Z</time></trkpt><trkpt lat="44.90885644555897" lon="7.305833342130136"><ele>544.0</ele><time>2026-04-24T17:59:56.998Z</time></trkpt><trkpt lat="44.90896510422079" lon="7.305810093456554"><ele>543.0</ele><time>2026-04-24T17:59:58.001Z</time></trkpt><trkpt lat="44.90907975565005" lon="7.305737784671261"><ele>542.0</ele><time>2026-04-24T17:59:59.001Z</time></trkpt><trkpt lat="44.90917925988586" lon="7.305615851260781"><ele>546.75</ele><time>2026-04-24T18:00:00.001Z</time></trkpt><trkpt lat="44.909257179388135" lon="7.305455834791645"><ele>551.5</ele><time>2026-04-24T18:00:01.001Z</time></trkpt><trkpt lat="44.90930295784818" lon="7.305285877273406"><ele>556.25</ele><time>2026-04-24T18:00:02.001Z</time></trkpt><trkpt lat="44.909313968274844" lon="7.305143982301308"><ele>561.0</ele><time>2026-04-24T18:00:03.001Z</time></trkpt><trkpt lat="44.909290397976996" lon="7.305022930430397"><ele>560.6</ele><time>2026-04-24T18:00:04.001Z</time></trkpt><trkpt lat="44.90921506546113" lon="7.304922526773262"><ele>560.2</ele><time>2026-04-24T18:00:05.001Z</time></trkpt><trkpt lat="44.909100418547375" lon="7.30484975668189"><ele>559.8</ele><time>2026-04-24T18:00:06.001Z</time></trkpt><trkpt lat="44.9089833626691" lon="7.3047941424210245"><ele>559.4</ele><time>2026-04-24T18:00:07.001Z</time></trkpt><trkpt lat="44.90890328685414" lon="7.304724307973714"><ele>559.0</ele><time>2026-04-24T18:00:08.001Z</time></trkpt><trkpt lat="44.9088677270218" lon="7.304614497334613"><ele>563.0</ele><time>2026-04-24T18:00:09Z</time></trkpt><trkpt lat="44.90887756142362" lon="7.30447485720484"><ele>567.0</ele><time>2026-04-24T18:00:10.001Z</time></trkpt><trkpt lat="44.908926670775955" lon="7.304336930480595"><ele>571.0</ele><time>2026-04-24T18:00:11.001Z</time></trkpt><trkpt lat="44.90900190964908" lon="7.304210201275791"><ele>575.0</ele><time>2026-04-24T18:00:12Z</time></trkpt><trkpt lat="44.909095614657595" lon="7.304088314139308"><ele>575.0</ele><time>2026-04-24T18:00:13Z</time></trkpt><trkpt lat="44.9091917749189" lon="7.303969955966473"><ele>575.0</ele><time>2026-04-24T18:00:14Z</time></trkpt><trkpt lat="44.90929007551085" lon="7.303840527261128"><ele>575.0</ele><time>2026-04-24T18:00:15Z</time></trkpt><trkpt lat="44.90939139611558" lon="7.303707965396095"><ele>575.0</ele><time>2026-04-24T18:00:16Z</time></trkpt><trkpt lat="44.90950247007364" lon="7.303580366615457"><ele>582.3333333333333</ele><time>2026-04-24T18:00:17Z</time></trkpt><trkpt lat="44.90961401832712" lon="7.303442284826278"><ele>589.6666666666666</ele><time>2026-04-24T18:00:18Z</time></trkpt><trkpt lat="44.90971714785326" lon="7.303285165989296"><ele>597.0</ele><time>2026-04-24T18:00:19Z</time></trkpt><trkpt lat="44.9098240076822" lon="7.303132277943559"><ele>598.4</ele><time>2026-04-24T18:00:20Z</time></trkpt><trkpt lat="44.90992607728905" lon="7.302998298884855"><ele>599.8000000000001</ele><time>2026-04-24T18:00:21Z</time></trkpt><trkpt lat="44.91001859492444" lon="7.302881940926718"><ele>601.2</ele><time>2026-04-24T18:00:22Z</time></trkpt><trkpt lat="44.91009264884202" lon="7.302787822798658"><ele>602.6</ele><time>2026-04-24T18:00:23Z</time></trkpt><trkpt lat="44.91013292005009" lon="7.3027166901666805"><ele>604.0</ele><time>2026-04-24T18:00:24Z</time></trkpt><trkpt lat="44.91010445024193" lon="7.302629623008817"><ele>609.0</ele><time>2026-04-24T18:00:27Z</time></trkpt><trkpt lat="44.91007783475941" lon="7.302536327862683"><ele>609.0</ele><time>2026-04-24T18:02:17Z</time></trkpt><trkpt lat="44.91000415669407" lon="7.302511820369719"><ele>604.0</ele><time>2026-04-24T18:02:23Z</time></trkpt><trkpt lat="44.90995178399766" lon="7.302592333684466"><ele>604.0</ele><time>2026-04-24T18:02:51Z</time></trkpt><trkpt lat="44.91001988027307" lon="7.302538101833201"><ele>604.0</ele><time>2026-04-24T18:05:30.015Z</time></trkpt><trkpt lat="44.91008458287617" lon="7.302548983640842"><ele>609.0</ele><time>2026-04-24T18:05:31.014Z</time></trkpt><trkpt lat="44.91008458287617" lon="7.302548983640842"><ele>609.0</ele><time>2026-04-24T18:05:31.014Z</time></trkpt><trkpt lat="44.91008458287617" lon="7.302548983640842"><ele>609.0</ele><time>2026-04-24T18:05:31.014Z</time></trkpt></trkseg></trk></gpx>